<?xml version="1.0" encoding="UTF-8" standalone="no" ?>
<gpx xmlns="http://www.topografix.com/GPX/1/1" xmlns:xsi="http://www.w3.org/2001/XMLSchema-instance" xsi:schemaLocation="http://www.topografix.com/GPX/1/1 http://www.topografix.com/GPX/1/1/gpx.xsd" version="1.1" creator="VisuGPX - https://www.visugpx.com">
  <metadata>
    <name>Guy mocquet 3/09</name>
    <desc><![CDATA[Guy mocquet 3/09]]></desc>
  </metadata>
  <trk>
    <name><![CDATA[03/09/2013 20:01]]></name>
    <desc><![CDATA[]]></desc>
    <trkseg>
      <trkpt lat="48.89277" lon="2.32729">
        <ele>106.1</ele>
        <time>2013-09-03T18:01:23.989Z</time>
      </trkpt>
      <trkpt lat="48.89281" lon="2.32731">
        <ele>106.3</ele>
        <time>2013-09-03T18:01:40.025Z</time>
      </trkpt>
      <trkpt lat="48.89282" lon="2.3273">
        <ele>105.9</ele>
        <time>2013-09-03T18:01:41.054Z</time>
      </trkpt>
      <trkpt lat="48.89282" lon="2.3273">
        <ele>105.5</ele>
        <time>2013-09-03T18:01:42.066Z</time>
      </trkpt>
      <trkpt lat="48.89283" lon="2.32722">
        <ele>100</ele>
        <time>2013-09-03T18:01:54.067Z</time>
      </trkpt>
      <trkpt lat="48.89283" lon="2.32723">
        <ele>100.1</ele>
        <time>2013-09-03T18:01:55.055Z</time>
      </trkpt>
      <trkpt lat="48.89284" lon="2.32724">
        <ele>102</ele>
        <time>2013-09-03T18:03:44.285Z</time>
      </trkpt>
      <trkpt lat="48.89283" lon="2.32724">
        <ele>100.7</ele>
        <time>2013-09-03T18:03:45.067Z</time>
      </trkpt>
      <trkpt lat="48.89276" lon="2.32719">
        <ele>99.8</ele>
        <time>2013-09-03T18:03:48.039Z</time>
      </trkpt>
      <trkpt lat="48.89273" lon="2.32718">
        <ele>101.2</ele>
        <time>2013-09-03T18:03:49.086Z</time>
      </trkpt>
      <trkpt lat="48.89266" lon="2.32712">
        <ele>103.2</ele>
        <time>2013-09-03T18:03:52.093Z</time>
      </trkpt>
      <trkpt lat="48.89264" lon="2.3271">
        <ele>104.4</ele>
        <time>2013-09-03T18:03:53.082Z</time>
      </trkpt>
      <trkpt lat="48.89257" lon="2.32703">
        <ele>103.2</ele>
        <time>2013-09-03T18:03:56.086Z</time>
      </trkpt>
      <trkpt lat="48.89254" lon="2.32701">
        <ele>104</ele>
        <time>2013-09-03T18:03:57.149Z</time>
      </trkpt>
      <trkpt lat="48.89248" lon="2.32696">
        <ele>107.2</ele>
        <time>2013-09-03T18:03:59.093Z</time>
      </trkpt>
      <trkpt lat="48.89245" lon="2.32692">
        <ele>107.2</ele>
        <time>2013-09-03T18:04:00.077Z</time>
      </trkpt>
      <trkpt lat="48.89239" lon="2.32686">
        <ele>107.9</ele>
        <time>2013-09-03T18:04:02.036Z</time>
      </trkpt>
      <trkpt lat="48.89236" lon="2.32683">
        <ele>108.4</ele>
        <time>2013-09-03T18:04:03.056Z</time>
      </trkpt>
      <trkpt lat="48.89229" lon="2.32677">
        <ele>108.6</ele>
        <time>2013-09-03T18:04:05.066Z</time>
      </trkpt>
      <trkpt lat="48.89226" lon="2.32673">
        <ele>107.3</ele>
        <time>2013-09-03T18:04:06.076Z</time>
      </trkpt>
      <trkpt lat="48.8922" lon="2.32665">
        <ele>105.1</ele>
        <time>2013-09-03T18:04:08.087Z</time>
      </trkpt>
      <trkpt lat="48.89217" lon="2.32661">
        <ele>106.9</ele>
        <time>2013-09-03T18:04:09.056Z</time>
      </trkpt>
      <trkpt lat="48.89211" lon="2.32653">
        <ele>108.4</ele>
        <time>2013-09-03T18:04:11.066Z</time>
      </trkpt>
      <trkpt lat="48.89207" lon="2.3265">
        <ele>108.9</ele>
        <time>2013-09-03T18:04:12.076Z</time>
      </trkpt>
      <trkpt lat="48.89201" lon="2.32644">
        <ele>109.9</ele>
        <time>2013-09-03T18:04:14.065Z</time>
      </trkpt>
      <trkpt lat="48.89197" lon="2.32641">
        <ele>109.2</ele>
        <time>2013-09-03T18:04:15.107Z</time>
      </trkpt>
      <trkpt lat="48.89191" lon="2.32635">
        <ele>106.7</ele>
        <time>2013-09-03T18:04:17.087Z</time>
      </trkpt>
      <trkpt lat="48.89187" lon="2.32632">
        <ele>107.4</ele>
        <time>2013-09-03T18:04:18.066Z</time>
      </trkpt>
      <trkpt lat="48.8918" lon="2.32626">
        <ele>111.8</ele>
        <time>2013-09-03T18:04:20.067Z</time>
      </trkpt>
      <trkpt lat="48.89176" lon="2.32623">
        <ele>112.5</ele>
        <time>2013-09-03T18:04:21.096Z</time>
      </trkpt>
      <trkpt lat="48.89169" lon="2.32619">
        <ele>114.3</ele>
        <time>2013-09-03T18:04:23.073Z</time>
      </trkpt>
      <trkpt lat="48.89166" lon="2.32617">
        <ele>113.6</ele>
        <time>2013-09-03T18:04:24.071Z</time>
      </trkpt>
      <trkpt lat="48.89159" lon="2.32613">
        <ele>115.2</ele>
        <time>2013-09-03T18:04:26.083Z</time>
      </trkpt>
      <trkpt lat="48.89155" lon="2.3261">
        <ele>115</ele>
        <time>2013-09-03T18:04:27.049Z</time>
      </trkpt>
      <trkpt lat="48.89149" lon="2.32604">
        <ele>116.3</ele>
        <time>2013-09-03T18:04:29.039Z</time>
      </trkpt>
      <trkpt lat="48.89146" lon="2.326">
        <ele>116.6</ele>
        <time>2013-09-03T18:04:30.038Z</time>
      </trkpt>
      <trkpt lat="48.8914" lon="2.32593">
        <ele>119.8</ele>
        <time>2013-09-03T18:04:32.099Z</time>
      </trkpt>
      <trkpt lat="48.89136" lon="2.3259">
        <ele>120.4</ele>
        <time>2013-09-03T18:04:33.064Z</time>
      </trkpt>
      <trkpt lat="48.8913" lon="2.32584">
        <ele>119</ele>
        <time>2013-09-03T18:04:35.067Z</time>
      </trkpt>
      <trkpt lat="48.89126" lon="2.32581">
        <ele>118.4</ele>
        <time>2013-09-03T18:04:36.050Z</time>
      </trkpt>
      <trkpt lat="48.89119" lon="2.32573">
        <ele>114.7</ele>
        <time>2013-09-03T18:04:38.103Z</time>
      </trkpt>
      <trkpt lat="48.89115" lon="2.32569">
        <ele>113.4</ele>
        <time>2013-09-03T18:04:39.087Z</time>
      </trkpt>
      <trkpt lat="48.89111" lon="2.32564">
        <ele>112.8</ele>
        <time>2013-09-03T18:04:40.056Z</time>
      </trkpt>
      <trkpt lat="48.89107" lon="2.3256">
        <ele>111.8</ele>
        <time>2013-09-03T18:04:41.056Z</time>
      </trkpt>
      <trkpt lat="48.89104" lon="2.32555">
        <ele>110.8</ele>
        <time>2013-09-03T18:04:42.046Z</time>
      </trkpt>
      <trkpt lat="48.89101" lon="2.32549">
        <ele>110.4</ele>
        <time>2013-09-03T18:04:43.097Z</time>
      </trkpt>
      <trkpt lat="48.89094" lon="2.3254">
        <ele>111.4</ele>
        <time>2013-09-03T18:04:45.076Z</time>
      </trkpt>
      <trkpt lat="48.89092" lon="2.32535">
        <ele>111.8</ele>
        <time>2013-09-03T18:04:46.054Z</time>
      </trkpt>
      <trkpt lat="48.89087" lon="2.32524">
        <ele>111.9</ele>
        <time>2013-09-03T18:04:48.073Z</time>
      </trkpt>
      <trkpt lat="48.89085" lon="2.32519">
        <ele>111.7</ele>
        <time>2013-09-03T18:04:49.085Z</time>
      </trkpt>
      <trkpt lat="48.89079" lon="2.3251">
        <ele>110.4</ele>
        <time>2013-09-03T18:04:51.066Z</time>
      </trkpt>
      <trkpt lat="48.89075" lon="2.32507">
        <ele>110.4</ele>
        <time>2013-09-03T18:04:52.064Z</time>
      </trkpt>
      <trkpt lat="48.89068" lon="2.325">
        <ele>110.4</ele>
        <time>2013-09-03T18:04:54.085Z</time>
      </trkpt>
      <trkpt lat="48.89065" lon="2.32496">
        <ele>107.8</ele>
        <time>2013-09-03T18:04:55.069Z</time>
      </trkpt>
      <trkpt lat="48.89058" lon="2.32489">
        <ele>107.4</ele>
        <time>2013-09-03T18:04:57.073Z</time>
      </trkpt>
      <trkpt lat="48.89054" lon="2.32485">
        <ele>108.6</ele>
        <time>2013-09-03T18:04:58.080Z</time>
      </trkpt>
      <trkpt lat="48.89047" lon="2.32478">
        <ele>106.6</ele>
        <time>2013-09-03T18:05:00.083Z</time>
      </trkpt>
      <trkpt lat="48.89044" lon="2.32474">
        <ele>105.2</ele>
        <time>2013-09-03T18:05:01.066Z</time>
      </trkpt>
      <trkpt lat="48.89038" lon="2.32466">
        <ele>104.1</ele>
        <time>2013-09-03T18:05:03.140Z</time>
      </trkpt>
      <trkpt lat="48.89035" lon="2.32462">
        <ele>103</ele>
        <time>2013-09-03T18:05:04.085Z</time>
      </trkpt>
      <trkpt lat="48.89029" lon="2.32454">
        <ele>104.5</ele>
        <time>2013-09-03T18:05:06.087Z</time>
      </trkpt>
      <trkpt lat="48.89026" lon="2.32451">
        <ele>105.1</ele>
        <time>2013-09-03T18:05:07.084Z</time>
      </trkpt>
      <trkpt lat="48.89019" lon="2.32444">
        <ele>103.6</ele>
        <time>2013-09-03T18:05:09.105Z</time>
      </trkpt>
      <trkpt lat="48.89016" lon="2.32441">
        <ele>103.6</ele>
        <time>2013-09-03T18:05:10.056Z</time>
      </trkpt>
      <trkpt lat="48.89008" lon="2.32433">
        <ele>103.5</ele>
        <time>2013-09-03T18:05:12.075Z</time>
      </trkpt>
      <trkpt lat="48.89005" lon="2.32429">
        <ele>103.2</ele>
        <time>2013-09-03T18:05:13.050Z</time>
      </trkpt>
      <trkpt lat="48.88998" lon="2.3242">
        <ele>103.7</ele>
        <time>2013-09-03T18:05:15.117Z</time>
      </trkpt>
      <trkpt lat="48.88996" lon="2.32415">
        <ele>103.4</ele>
        <time>2013-09-03T18:05:16.073Z</time>
      </trkpt>
      <trkpt lat="48.88991" lon="2.32405">
        <ele>105</ele>
        <time>2013-09-03T18:05:18.052Z</time>
      </trkpt>
      <trkpt lat="48.88988" lon="2.324">
        <ele>105.6</ele>
        <time>2013-09-03T18:05:19.078Z</time>
      </trkpt>
      <trkpt lat="48.88982" lon="2.32391">
        <ele>106</ele>
        <time>2013-09-03T18:05:21.056Z</time>
      </trkpt>
      <trkpt lat="48.88979" lon="2.32387">
        <ele>106.8</ele>
        <time>2013-09-03T18:05:22.125Z</time>
      </trkpt>
      <trkpt lat="48.88973" lon="2.32379">
        <ele>106.3</ele>
        <time>2013-09-03T18:05:24.077Z</time>
      </trkpt>
      <trkpt lat="48.8897" lon="2.32376">
        <ele>105.9</ele>
        <time>2013-09-03T18:05:25.106Z</time>
      </trkpt>
      <trkpt lat="48.88964" lon="2.32368">
        <ele>106.3</ele>
        <time>2013-09-03T18:05:27.097Z</time>
      </trkpt>
      <trkpt lat="48.88961" lon="2.32363">
        <ele>105</ele>
        <time>2013-09-03T18:05:28.075Z</time>
      </trkpt>
      <trkpt lat="48.88956" lon="2.32353">
        <ele>103.6</ele>
        <time>2013-09-03T18:05:30.108Z</time>
      </trkpt>
      <trkpt lat="48.88953" lon="2.32348">
        <ele>103.9</ele>
        <time>2013-09-03T18:05:31.075Z</time>
      </trkpt>
      <trkpt lat="48.88948" lon="2.32339">
        <ele>106.1</ele>
        <time>2013-09-03T18:05:33.135Z</time>
      </trkpt>
      <trkpt lat="48.88945" lon="2.32337">
        <ele>107.9</ele>
        <time>2013-09-03T18:05:34.090Z</time>
      </trkpt>
      <trkpt lat="48.88938" lon="2.32331">
        <ele>106.3</ele>
        <time>2013-09-03T18:05:36.075Z</time>
      </trkpt>
      <trkpt lat="48.88935" lon="2.32328">
        <ele>106.2</ele>
        <time>2013-09-03T18:05:37.064Z</time>
      </trkpt>
      <trkpt lat="48.8893" lon="2.32319">
        <ele>106.1</ele>
        <time>2013-09-03T18:05:39.074Z</time>
      </trkpt>
      <trkpt lat="48.88927" lon="2.32315">
        <ele>105.4</ele>
        <time>2013-09-03T18:05:40.133Z</time>
      </trkpt>
      <trkpt lat="48.88921" lon="2.32307">
        <ele>106.6</ele>
        <time>2013-09-03T18:05:42.097Z</time>
      </trkpt>
      <trkpt lat="48.88919" lon="2.32304">
        <ele>106.4</ele>
        <time>2013-09-03T18:05:43.086Z</time>
      </trkpt>
      <trkpt lat="48.88918" lon="2.32291">
        <ele>103.5</ele>
        <time>2013-09-03T18:05:55.074Z</time>
      </trkpt>
      <trkpt lat="48.88919" lon="2.32291">
        <ele>103.1</ele>
        <time>2013-09-03T18:05:56.085Z</time>
      </trkpt>
      <trkpt lat="48.88918" lon="2.32291">
        <ele>101.9</ele>
        <time>2013-09-03T18:05:58.156Z</time>
      </trkpt>
      <trkpt lat="48.88918" lon="2.32291">
        <ele>101.8</ele>
        <time>2013-09-03T18:05:59.056Z</time>
      </trkpt>
      <trkpt lat="48.88918" lon="2.3229">
        <ele>102</ele>
        <time>2013-09-03T18:06:44.095Z</time>
      </trkpt>
      <trkpt lat="48.88918" lon="2.32289">
        <ele>101.8</ele>
        <time>2013-09-03T18:06:45.075Z</time>
      </trkpt>
      <trkpt lat="48.88911" lon="2.3228">
        <ele>101.1</ele>
        <time>2013-09-03T18:06:50.170Z</time>
      </trkpt>
      <trkpt lat="48.88909" lon="2.32277">
        <ele>100.1</ele>
        <time>2013-09-03T18:06:51.175Z</time>
      </trkpt>
      <trkpt lat="48.88904" lon="2.32272">
        <ele>101</ele>
        <time>2013-09-03T18:06:53.127Z</time>
      </trkpt>
      <trkpt lat="48.88901" lon="2.32269">
        <ele>100.4</ele>
        <time>2013-09-03T18:06:54.064Z</time>
      </trkpt>
      <trkpt lat="48.88896" lon="2.32263">
        <ele>101.6</ele>
        <time>2013-09-03T18:06:56.156Z</time>
      </trkpt>
      <trkpt lat="48.88894" lon="2.3226">
        <ele>102.2</ele>
        <time>2013-09-03T18:06:57.206Z</time>
      </trkpt>
      <trkpt lat="48.88888" lon="2.32252">
        <ele>101.1</ele>
        <time>2013-09-03T18:06:59.085Z</time>
      </trkpt>
      <trkpt lat="48.88885" lon="2.32247">
        <ele>101.2</ele>
        <time>2013-09-03T18:07:00.097Z</time>
      </trkpt>
      <trkpt lat="48.88879" lon="2.32236">
        <ele>102.1</ele>
        <time>2013-09-03T18:07:02.075Z</time>
      </trkpt>
      <trkpt lat="48.88877" lon="2.3223">
        <ele>101.6</ele>
        <time>2013-09-03T18:07:03.092Z</time>
      </trkpt>
      <trkpt lat="48.88875" lon="2.32224">
        <ele>101.4</ele>
        <time>2013-09-03T18:07:04.085Z</time>
      </trkpt>
      <trkpt lat="48.88872" lon="2.32218">
        <ele>101.2</ele>
        <time>2013-09-03T18:07:05.088Z</time>
      </trkpt>
      <trkpt lat="48.88866" lon="2.32209">
        <ele>102.5</ele>
        <time>2013-09-03T18:07:07.075Z</time>
      </trkpt>
      <trkpt lat="48.88863" lon="2.32205">
        <ele>101.6</ele>
        <time>2013-09-03T18:07:08.077Z</time>
      </trkpt>
      <trkpt lat="48.88858" lon="2.32201">
        <ele>101.8</ele>
        <time>2013-09-03T18:07:09.105Z</time>
      </trkpt>
      <trkpt lat="48.88854" lon="2.32196">
        <ele>102.1</ele>
        <time>2013-09-03T18:07:10.077Z</time>
      </trkpt>
      <trkpt lat="48.8885" lon="2.3219">
        <ele>102.1</ele>
        <time>2013-09-03T18:07:11.074Z</time>
      </trkpt>
      <trkpt lat="48.88847" lon="2.32184">
        <ele>101.1</ele>
        <time>2013-09-03T18:07:12.085Z</time>
      </trkpt>
      <trkpt lat="48.88844" lon="2.32179">
        <ele>101</ele>
        <time>2013-09-03T18:07:13.120Z</time>
      </trkpt>
      <trkpt lat="48.88841" lon="2.32172">
        <ele>100.9</ele>
        <time>2013-09-03T18:07:14.073Z</time>
      </trkpt>
      <trkpt lat="48.88836" lon="2.32162">
        <ele>99.8</ele>
        <time>2013-09-03T18:07:16.085Z</time>
      </trkpt>
      <trkpt lat="48.88833" lon="2.32157">
        <ele>98.8</ele>
        <time>2013-09-03T18:07:17.096Z</time>
      </trkpt>
      <trkpt lat="48.88828" lon="2.32145">
        <ele>98.1</ele>
        <time>2013-09-03T18:07:19.066Z</time>
      </trkpt>
      <trkpt lat="48.88825" lon="2.3214">
        <ele>98</ele>
        <time>2013-09-03T18:07:20.083Z</time>
      </trkpt>
      <trkpt lat="48.88818" lon="2.32131">
        <ele>96.9</ele>
        <time>2013-09-03T18:07:22.087Z</time>
      </trkpt>
      <trkpt lat="48.88816" lon="2.32126">
        <ele>96.6</ele>
        <time>2013-09-03T18:07:23.084Z</time>
      </trkpt>
      <trkpt lat="48.88809" lon="2.32121">
        <ele>97.2</ele>
        <time>2013-09-03T18:07:25.057Z</time>
      </trkpt>
      <trkpt lat="48.88807" lon="2.32119">
        <ele>99.1</ele>
        <time>2013-09-03T18:07:26.071Z</time>
      </trkpt>
      <trkpt lat="48.888" lon="2.32125">
        <ele>101.4</ele>
        <time>2013-09-03T18:07:31.120Z</time>
      </trkpt>
      <trkpt lat="48.88798" lon="2.32128">
        <ele>101.5</ele>
        <time>2013-09-03T18:07:32.086Z</time>
      </trkpt>
      <trkpt lat="48.88793" lon="2.32138">
        <ele>99</ele>
        <time>2013-09-03T18:07:35.106Z</time>
      </trkpt>
      <trkpt lat="48.88791" lon="2.32141">
        <ele>98.8</ele>
        <time>2013-09-03T18:07:36.124Z</time>
      </trkpt>
      <trkpt lat="48.88786" lon="2.32148">
        <ele>99.4</ele>
        <time>2013-09-03T18:07:38.062Z</time>
      </trkpt>
      <trkpt lat="48.88784" lon="2.32152">
        <ele>99.6</ele>
        <time>2013-09-03T18:07:39.109Z</time>
      </trkpt>
      <trkpt lat="48.88778" lon="2.3216">
        <ele>100.8</ele>
        <time>2013-09-03T18:07:42.122Z</time>
      </trkpt>
      <trkpt lat="48.88776" lon="2.32163">
        <ele>100.8</ele>
        <time>2013-09-03T18:07:43.094Z</time>
      </trkpt>
      <trkpt lat="48.88772" lon="2.32173">
        <ele>101</ele>
        <time>2013-09-03T18:07:46.112Z</time>
      </trkpt>
      <trkpt lat="48.8877" lon="2.32177">
        <ele>101.5</ele>
        <time>2013-09-03T18:07:47.067Z</time>
      </trkpt>
      <trkpt lat="48.88766" lon="2.32184">
        <ele>102.3</ele>
        <time>2013-09-03T18:07:49.087Z</time>
      </trkpt>
      <trkpt lat="48.88764" lon="2.32189">
        <ele>102.9</ele>
        <time>2013-09-03T18:07:50.085Z</time>
      </trkpt>
      <trkpt lat="48.8876" lon="2.32199">
        <ele>105.3</ele>
        <time>2013-09-03T18:07:52.127Z</time>
      </trkpt>
      <trkpt lat="48.88759" lon="2.32203">
        <ele>106.5</ele>
        <time>2013-09-03T18:07:53.055Z</time>
      </trkpt>
      <trkpt lat="48.88755" lon="2.32215">
        <ele>103.8</ele>
        <time>2013-09-03T18:07:56.084Z</time>
      </trkpt>
      <trkpt lat="48.88753" lon="2.32218">
        <ele>103.4</ele>
        <time>2013-09-03T18:07:57.066Z</time>
      </trkpt>
      <trkpt lat="48.88748" lon="2.32222">
        <ele>103</ele>
        <time>2013-09-03T18:07:59.107Z</time>
      </trkpt>
      <trkpt lat="48.88745" lon="2.32225">
        <ele>102.8</ele>
        <time>2013-09-03T18:08:00.089Z</time>
      </trkpt>
      <trkpt lat="48.88741" lon="2.32233">
        <ele>103.4</ele>
        <time>2013-09-03T18:08:02.095Z</time>
      </trkpt>
      <trkpt lat="48.88739" lon="2.32237">
        <ele>104.2</ele>
        <time>2013-09-03T18:08:03.059Z</time>
      </trkpt>
      <trkpt lat="48.88736" lon="2.32246">
        <ele>104.2</ele>
        <time>2013-09-03T18:08:05.116Z</time>
      </trkpt>
      <trkpt lat="48.88735" lon="2.32251">
        <ele>103.5</ele>
        <time>2013-09-03T18:08:06.095Z</time>
      </trkpt>
      <trkpt lat="48.88732" lon="2.3226">
        <ele>104.8</ele>
        <time>2013-09-03T18:08:08.125Z</time>
      </trkpt>
      <trkpt lat="48.8873" lon="2.32264">
        <ele>105.4</ele>
        <time>2013-09-03T18:08:09.085Z</time>
      </trkpt>
      <trkpt lat="48.88726" lon="2.32272">
        <ele>107.8</ele>
        <time>2013-09-03T18:08:11.075Z</time>
      </trkpt>
      <trkpt lat="48.88725" lon="2.32276">
        <ele>107.4</ele>
        <time>2013-09-03T18:08:12.088Z</time>
      </trkpt>
      <trkpt lat="48.88721" lon="2.32284">
        <ele>107.1</ele>
        <time>2013-09-03T18:08:14.117Z</time>
      </trkpt>
      <trkpt lat="48.88719" lon="2.32288">
        <ele>106.4</ele>
        <time>2013-09-03T18:08:15.095Z</time>
      </trkpt>
      <trkpt lat="48.88716" lon="2.32296">
        <ele>107.2</ele>
        <time>2013-09-03T18:08:17.125Z</time>
      </trkpt>
      <trkpt lat="48.88713" lon="2.32299">
        <ele>108</ele>
        <time>2013-09-03T18:08:18.126Z</time>
      </trkpt>
      <trkpt lat="48.88705" lon="2.32294">
        <ele>110</ele>
        <time>2013-09-03T18:08:21.065Z</time>
      </trkpt>
      <trkpt lat="48.88703" lon="2.32289">
        <ele>109.5</ele>
        <time>2013-09-03T18:08:22.094Z</time>
      </trkpt>
      <trkpt lat="48.88699" lon="2.32278">
        <ele>110</ele>
        <time>2013-09-03T18:08:24.099Z</time>
      </trkpt>
      <trkpt lat="48.88696" lon="2.32274">
        <ele>109.7</ele>
        <time>2013-09-03T18:08:25.084Z</time>
      </trkpt>
      <trkpt lat="48.8869" lon="2.32265">
        <ele>109</ele>
        <time>2013-09-03T18:08:27.095Z</time>
      </trkpt>
      <trkpt lat="48.88686" lon="2.32261">
        <ele>109.9</ele>
        <time>2013-09-03T18:08:28.133Z</time>
      </trkpt>
      <trkpt lat="48.8868" lon="2.32255">
        <ele>110.3</ele>
        <time>2013-09-03T18:08:30.086Z</time>
      </trkpt>
      <trkpt lat="48.88676" lon="2.32253">
        <ele>109.7</ele>
        <time>2013-09-03T18:08:31.072Z</time>
      </trkpt>
      <trkpt lat="48.88669" lon="2.32251">
        <ele>109.3</ele>
        <time>2013-09-03T18:08:33.076Z</time>
      </trkpt>
      <trkpt lat="48.88665" lon="2.3225">
        <ele>108.9</ele>
        <time>2013-09-03T18:08:34.089Z</time>
      </trkpt>
      <trkpt lat="48.88658" lon="2.32248">
        <ele>108.4</ele>
        <time>2013-09-03T18:08:36.126Z</time>
      </trkpt>
      <trkpt lat="48.88655" lon="2.32246">
        <ele>108.4</ele>
        <time>2013-09-03T18:08:37.085Z</time>
      </trkpt>
      <trkpt lat="48.88648" lon="2.32243">
        <ele>107.2</ele>
        <time>2013-09-03T18:08:39.087Z</time>
      </trkpt>
      <trkpt lat="48.88645" lon="2.32242">
        <ele>108</ele>
        <time>2013-09-03T18:08:40.111Z</time>
      </trkpt>
      <trkpt lat="48.88638" lon="2.32243">
        <ele>107.5</ele>
        <time>2013-09-03T18:08:42.084Z</time>
      </trkpt>
      <trkpt lat="48.88635" lon="2.32245">
        <ele>110.4</ele>
        <time>2013-09-03T18:08:43.104Z</time>
      </trkpt>
      <trkpt lat="48.88631" lon="2.32253">
        <ele>108.9</ele>
        <time>2013-09-03T18:08:45.084Z</time>
      </trkpt>
      <trkpt lat="48.88629" lon="2.32259">
        <ele>108.5</ele>
        <time>2013-09-03T18:08:46.087Z</time>
      </trkpt>
      <trkpt lat="48.88625" lon="2.3227">
        <ele>107.9</ele>
        <time>2013-09-03T18:08:48.116Z</time>
      </trkpt>
      <trkpt lat="48.88623" lon="2.32276">
        <ele>108.2</ele>
        <time>2013-09-03T18:08:49.115Z</time>
      </trkpt>
      <trkpt lat="48.8862" lon="2.32287">
        <ele>106.5</ele>
        <time>2013-09-03T18:08:51.107Z</time>
      </trkpt>
      <trkpt lat="48.88618" lon="2.32293">
        <ele>107.4</ele>
        <time>2013-09-03T18:08:52.125Z</time>
      </trkpt>
      <trkpt lat="48.88613" lon="2.32303">
        <ele>106.8</ele>
        <time>2013-09-03T18:08:54.075Z</time>
      </trkpt>
      <trkpt lat="48.8861" lon="2.32308">
        <ele>106.3</ele>
        <time>2013-09-03T18:08:55.065Z</time>
      </trkpt>
      <trkpt lat="48.88604" lon="2.32316">
        <ele>105.9</ele>
        <time>2013-09-03T18:08:57.106Z</time>
      </trkpt>
      <trkpt lat="48.88601" lon="2.32319">
        <ele>105.8</ele>
        <time>2013-09-03T18:08:58.092Z</time>
      </trkpt>
      <trkpt lat="48.88594" lon="2.32326">
        <ele>107.9</ele>
        <time>2013-09-03T18:09:00.107Z</time>
      </trkpt>
      <trkpt lat="48.88591" lon="2.32329">
        <ele>108.3</ele>
        <time>2013-09-03T18:09:01.126Z</time>
      </trkpt>
      <trkpt lat="48.88587" lon="2.32335">
        <ele>108.4</ele>
        <time>2013-09-03T18:09:03.084Z</time>
      </trkpt>
      <trkpt lat="48.88585" lon="2.32338">
        <ele>107.5</ele>
        <time>2013-09-03T18:09:04.096Z</time>
      </trkpt>
      <trkpt lat="48.88579" lon="2.32347">
        <ele>107.8</ele>
        <time>2013-09-03T18:09:08.159Z</time>
      </trkpt>
      <trkpt lat="48.88577" lon="2.32349">
        <ele>108.5</ele>
        <time>2013-09-03T18:09:09.085Z</time>
      </trkpt>
      <trkpt lat="48.88571" lon="2.32357">
        <ele>108.1</ele>
        <time>2013-09-03T18:09:12.096Z</time>
      </trkpt>
      <trkpt lat="48.88568" lon="2.32361">
        <ele>110.2</ele>
        <time>2013-09-03T18:09:13.068Z</time>
      </trkpt>
      <trkpt lat="48.88563" lon="2.32371">
        <ele>110.1</ele>
        <time>2013-09-03T18:09:15.084Z</time>
      </trkpt>
      <trkpt lat="48.88561" lon="2.32377">
        <ele>110.3</ele>
        <time>2013-09-03T18:09:16.084Z</time>
      </trkpt>
      <trkpt lat="48.88557" lon="2.32388">
        <ele>110.4</ele>
        <time>2013-09-03T18:09:18.083Z</time>
      </trkpt>
      <trkpt lat="48.88554" lon="2.32393">
        <ele>109.1</ele>
        <time>2013-09-03T18:09:19.072Z</time>
      </trkpt>
      <trkpt lat="48.88549" lon="2.32402">
        <ele>110</ele>
        <time>2013-09-03T18:09:21.090Z</time>
      </trkpt>
      <trkpt lat="48.88546" lon="2.32407">
        <ele>110.1</ele>
        <time>2013-09-03T18:09:22.116Z</time>
      </trkpt>
      <trkpt lat="48.88541" lon="2.32415">
        <ele>111.8</ele>
        <time>2013-09-03T18:09:24.086Z</time>
      </trkpt>
      <trkpt lat="48.88538" lon="2.32419">
        <ele>111.9</ele>
        <time>2013-09-03T18:09:25.094Z</time>
      </trkpt>
      <trkpt lat="48.88533" lon="2.32427">
        <ele>110.7</ele>
        <time>2013-09-03T18:09:27.075Z</time>
      </trkpt>
      <trkpt lat="48.8853" lon="2.32431">
        <ele>110.1</ele>
        <time>2013-09-03T18:09:28.096Z</time>
      </trkpt>
      <trkpt lat="48.88524" lon="2.32441">
        <ele>111</ele>
        <time>2013-09-03T18:09:30.085Z</time>
      </trkpt>
      <trkpt lat="48.88521" lon="2.32445">
        <ele>110.8</ele>
        <time>2013-09-03T18:09:31.075Z</time>
      </trkpt>
      <trkpt lat="48.88514" lon="2.32455">
        <ele>110.1</ele>
        <time>2013-09-03T18:09:33.086Z</time>
      </trkpt>
      <trkpt lat="48.88512" lon="2.32459">
        <ele>112.2</ele>
        <time>2013-09-03T18:09:34.094Z</time>
      </trkpt>
      <trkpt lat="48.88507" lon="2.32468">
        <ele>111.3</ele>
        <time>2013-09-03T18:09:36.105Z</time>
      </trkpt>
      <trkpt lat="48.88505" lon="2.32473">
        <ele>110.3</ele>
        <time>2013-09-03T18:09:37.073Z</time>
      </trkpt>
      <trkpt lat="48.88502" lon="2.32483">
        <ele>108.5</ele>
        <time>2013-09-03T18:09:39.073Z</time>
      </trkpt>
      <trkpt lat="48.88501" lon="2.32488">
        <ele>109.1</ele>
        <time>2013-09-03T18:09:40.094Z</time>
      </trkpt>
      <trkpt lat="48.88497" lon="2.32476">
        <ele>108.8</ele>
        <time>2013-09-03T18:09:47.083Z</time>
      </trkpt>
      <trkpt lat="48.88496" lon="2.32474">
        <ele>108.8</ele>
        <time>2013-09-03T18:09:48.105Z</time>
      </trkpt>
      <trkpt lat="48.88488" lon="2.32467">
        <ele>105.7</ele>
        <time>2013-09-03T18:10:01.064Z</time>
      </trkpt>
      <trkpt lat="48.88486" lon="2.32466">
        <ele>104.9</ele>
        <time>2013-09-03T18:10:02.064Z</time>
      </trkpt>
      <trkpt lat="48.88481" lon="2.32461">
        <ele>103.7</ele>
        <time>2013-09-03T18:10:04.087Z</time>
      </trkpt>
      <trkpt lat="48.88478" lon="2.32457">
        <ele>103.1</ele>
        <time>2013-09-03T18:10:05.115Z</time>
      </trkpt>
      <trkpt lat="48.88472" lon="2.32449">
        <ele>97.8</ele>
        <time>2013-09-03T18:10:07.066Z</time>
      </trkpt>
      <trkpt lat="48.88468" lon="2.32445">
        <ele>97.9</ele>
        <time>2013-09-03T18:10:08.061Z</time>
      </trkpt>
      <trkpt lat="48.8846" lon="2.32442">
        <ele>97.6</ele>
        <time>2013-09-03T18:10:10.070Z</time>
      </trkpt>
      <trkpt lat="48.88456" lon="2.32442">
        <ele>97.3</ele>
        <time>2013-09-03T18:10:11.065Z</time>
      </trkpt>
      <trkpt lat="48.88452" lon="2.32442">
        <ele>96.4</ele>
        <time>2013-09-03T18:10:12.066Z</time>
      </trkpt>
      <trkpt lat="48.88447" lon="2.32445">
        <ele>94.1</ele>
        <time>2013-09-03T18:10:13.078Z</time>
      </trkpt>
      <trkpt lat="48.88443" lon="2.32449">
        <ele>94.2</ele>
        <time>2013-09-03T18:10:14.079Z</time>
      </trkpt>
      <trkpt lat="48.88439" lon="2.32455">
        <ele>94.3</ele>
        <time>2013-09-03T18:10:15.065Z</time>
      </trkpt>
      <trkpt lat="48.88436" lon="2.32461">
        <ele>93</ele>
        <time>2013-09-03T18:10:16.069Z</time>
      </trkpt>
      <trkpt lat="48.88433" lon="2.32466">
        <ele>92.4</ele>
        <time>2013-09-03T18:10:17.068Z</time>
      </trkpt>
      <trkpt lat="48.88429" lon="2.32471">
        <ele>92.4</ele>
        <time>2013-09-03T18:10:18.069Z</time>
      </trkpt>
      <trkpt lat="48.88426" lon="2.32476">
        <ele>93.3</ele>
        <time>2013-09-03T18:10:19.069Z</time>
      </trkpt>
      <trkpt lat="48.88418" lon="2.32483">
        <ele>92.5</ele>
        <time>2013-09-03T18:10:21.067Z</time>
      </trkpt>
      <trkpt lat="48.88415" lon="2.32487">
        <ele>92.3</ele>
        <time>2013-09-03T18:10:22.066Z</time>
      </trkpt>
      <trkpt lat="48.88407" lon="2.32493">
        <ele>91.8</ele>
        <time>2013-09-03T18:10:24.070Z</time>
      </trkpt>
      <trkpt lat="48.88403" lon="2.32496">
        <ele>91.8</ele>
        <time>2013-09-03T18:10:25.094Z</time>
      </trkpt>
      <trkpt lat="48.88395" lon="2.32501">
        <ele>90.8</ele>
        <time>2013-09-03T18:10:27.071Z</time>
      </trkpt>
      <trkpt lat="48.88391" lon="2.32504">
        <ele>91.6</ele>
        <time>2013-09-03T18:10:28.095Z</time>
      </trkpt>
      <trkpt lat="48.88383" lon="2.32508">
        <ele>91.2</ele>
        <time>2013-09-03T18:10:30.068Z</time>
      </trkpt>
      <trkpt lat="48.88379" lon="2.3251">
        <ele>90.4</ele>
        <time>2013-09-03T18:10:31.066Z</time>
      </trkpt>
      <trkpt lat="48.88372" lon="2.32514">
        <ele>91.2</ele>
        <time>2013-09-03T18:10:33.068Z</time>
      </trkpt>
      <trkpt lat="48.88368" lon="2.32518">
        <ele>92</ele>
        <time>2013-09-03T18:10:34.067Z</time>
      </trkpt>
      <trkpt lat="48.88363" lon="2.32528">
        <ele>91.6</ele>
        <time>2013-09-03T18:10:36.066Z</time>
      </trkpt>
      <trkpt lat="48.88361" lon="2.32533">
        <ele>91.7</ele>
        <time>2013-09-03T18:10:37.067Z</time>
      </trkpt>
      <trkpt lat="48.88356" lon="2.32543">
        <ele>91.8</ele>
        <time>2013-09-03T18:10:39.072Z</time>
      </trkpt>
      <trkpt lat="48.88353" lon="2.32546">
        <ele>91.6</ele>
        <time>2013-09-03T18:10:40.086Z</time>
      </trkpt>
      <trkpt lat="48.88344" lon="2.32548">
        <ele>92.2</ele>
        <time>2013-09-03T18:10:44.109Z</time>
      </trkpt>
      <trkpt lat="48.88342" lon="2.32546">
        <ele>92</ele>
        <time>2013-09-03T18:10:45.089Z</time>
      </trkpt>
      <trkpt lat="48.88336" lon="2.32538">
        <ele>92.1</ele>
        <time>2013-09-03T18:10:50.071Z</time>
      </trkpt>
      <trkpt lat="48.88335" lon="2.32536">
        <ele>92.3</ele>
        <time>2013-09-03T18:10:51.073Z</time>
      </trkpt>
      <trkpt lat="48.88329" lon="2.32528">
        <ele>91.5</ele>
        <time>2013-09-03T18:11:00.124Z</time>
      </trkpt>
      <trkpt lat="48.88328" lon="2.32527">
        <ele>92.1</ele>
        <time>2013-09-03T18:11:01.069Z</time>
      </trkpt>
      <trkpt lat="48.88322" lon="2.32536">
        <ele>92.1</ele>
        <time>2013-09-03T18:11:08.069Z</time>
      </trkpt>
      <trkpt lat="48.88321" lon="2.32538">
        <ele>93.8</ele>
        <time>2013-09-03T18:11:09.069Z</time>
      </trkpt>
      <trkpt lat="48.88313" lon="2.32541">
        <ele>97.2</ele>
        <time>2013-09-03T18:11:14.072Z</time>
      </trkpt>
      <trkpt lat="48.88312" lon="2.32539">
        <ele>97.8</ele>
        <time>2013-09-03T18:11:15.089Z</time>
      </trkpt>
      <trkpt lat="48.88307" lon="2.32532">
        <ele>98.8</ele>
        <time>2013-09-03T18:11:18.074Z</time>
      </trkpt>
      <trkpt lat="48.88305" lon="2.32528">
        <ele>99.7</ele>
        <time>2013-09-03T18:11:19.075Z</time>
      </trkpt>
      <trkpt lat="48.88302" lon="2.32519">
        <ele>100.1</ele>
        <time>2013-09-03T18:11:21.076Z</time>
      </trkpt>
      <trkpt lat="48.883" lon="2.32513">
        <ele>100.1</ele>
        <time>2013-09-03T18:11:22.073Z</time>
      </trkpt>
      <trkpt lat="48.88297" lon="2.32501">
        <ele>99.1</ele>
        <time>2013-09-03T18:11:24.070Z</time>
      </trkpt>
      <trkpt lat="48.88296" lon="2.32495">
        <ele>99.7</ele>
        <time>2013-09-03T18:11:25.077Z</time>
      </trkpt>
      <trkpt lat="48.88294" lon="2.32482">
        <ele>99.1</ele>
        <time>2013-09-03T18:11:27.070Z</time>
      </trkpt>
      <trkpt lat="48.88294" lon="2.32475">
        <ele>98.5</ele>
        <time>2013-09-03T18:11:28.079Z</time>
      </trkpt>
      <trkpt lat="48.88293" lon="2.32463">
        <ele>97.6</ele>
        <time>2013-09-03T18:11:30.071Z</time>
      </trkpt>
      <trkpt lat="48.88293" lon="2.32458">
        <ele>98.5</ele>
        <time>2013-09-03T18:11:31.077Z</time>
      </trkpt>
      <trkpt lat="48.88292" lon="2.32448">
        <ele>98.5</ele>
        <time>2013-09-03T18:11:33.071Z</time>
      </trkpt>
      <trkpt lat="48.88292" lon="2.32443">
        <ele>100.1</ele>
        <time>2013-09-03T18:11:34.093Z</time>
      </trkpt>
      <trkpt lat="48.8829" lon="2.32433">
        <ele>104.4</ele>
        <time>2013-09-03T18:11:36.071Z</time>
      </trkpt>
      <trkpt lat="48.88288" lon="2.32429">
        <ele>105.9</ele>
        <time>2013-09-03T18:11:37.074Z</time>
      </trkpt>
      <trkpt lat="48.88283" lon="2.32423">
        <ele>106.1</ele>
        <time>2013-09-03T18:11:39.072Z</time>
      </trkpt>
      <trkpt lat="48.8828" lon="2.32421">
        <ele>106.5</ele>
        <time>2013-09-03T18:11:40.094Z</time>
      </trkpt>
      <trkpt lat="48.88275" lon="2.3241">
        <ele>110</ele>
        <time>2013-09-03T18:11:43.073Z</time>
      </trkpt>
      <trkpt lat="48.88274" lon="2.32406">
        <ele>110.1</ele>
        <time>2013-09-03T18:11:44.075Z</time>
      </trkpt>
      <trkpt lat="48.88273" lon="2.32395">
        <ele>108.4</ele>
        <time>2013-09-03T18:11:46.072Z</time>
      </trkpt>
      <trkpt lat="48.88272" lon="2.3239">
        <ele>108.6</ele>
        <time>2013-09-03T18:11:47.080Z</time>
      </trkpt>
      <trkpt lat="48.8827" lon="2.32377">
        <ele>107.7</ele>
        <time>2013-09-03T18:11:49.072Z</time>
      </trkpt>
      <trkpt lat="48.88269" lon="2.3237">
        <ele>106.1</ele>
        <time>2013-09-03T18:11:50.073Z</time>
      </trkpt>
      <trkpt lat="48.88267" lon="2.32358">
        <ele>107.8</ele>
        <time>2013-09-03T18:11:52.079Z</time>
      </trkpt>
      <trkpt lat="48.88266" lon="2.32353">
        <ele>106.2</ele>
        <time>2013-09-03T18:11:53.114Z</time>
      </trkpt>
      <trkpt lat="48.8826" lon="2.32343">
        <ele>106.8</ele>
        <time>2013-09-03T18:12:05.073Z</time>
      </trkpt>
      <trkpt lat="48.8826" lon="2.32343">
        <ele>107.2</ele>
        <time>2013-09-03T18:12:06.074Z</time>
      </trkpt>
      <trkpt lat="48.88254" lon="2.32348">
        <ele>110.8</ele>
        <time>2013-09-03T18:12:21.077Z</time>
      </trkpt>
      <trkpt lat="48.88251" lon="2.32352">
        <ele>110.4</ele>
        <time>2013-09-03T18:12:22.075Z</time>
      </trkpt>
      <trkpt lat="48.88243" lon="2.32359">
        <ele>110.8</ele>
        <time>2013-09-03T18:12:24.079Z</time>
      </trkpt>
      <trkpt lat="48.88239" lon="2.32363">
        <ele>111.3</ele>
        <time>2013-09-03T18:12:25.075Z</time>
      </trkpt>
      <trkpt lat="48.88235" lon="2.32368">
        <ele>111.9</ele>
        <time>2013-09-03T18:12:26.076Z</time>
      </trkpt>
      <trkpt lat="48.88231" lon="2.32373">
        <ele>112.1</ele>
        <time>2013-09-03T18:12:27.075Z</time>
      </trkpt>
      <trkpt lat="48.88227" lon="2.32378">
        <ele>113</ele>
        <time>2013-09-03T18:12:28.076Z</time>
      </trkpt>
      <trkpt lat="48.88223" lon="2.32383">
        <ele>113.5</ele>
        <time>2013-09-03T18:12:29.076Z</time>
      </trkpt>
      <trkpt lat="48.88218" lon="2.32389">
        <ele>112.7</ele>
        <time>2013-09-03T18:12:30.104Z</time>
      </trkpt>
      <trkpt lat="48.88213" lon="2.32395">
        <ele>112</ele>
        <time>2013-09-03T18:12:31.076Z</time>
      </trkpt>
      <trkpt lat="48.88209" lon="2.32402">
        <ele>111.6</ele>
        <time>2013-09-03T18:12:32.082Z</time>
      </trkpt>
      <trkpt lat="48.88204" lon="2.32405">
        <ele>109.7</ele>
        <time>2013-09-03T18:12:33.079Z</time>
      </trkpt>
      <trkpt lat="48.88199" lon="2.32408">
        <ele>108.7</ele>
        <time>2013-09-03T18:12:34.078Z</time>
      </trkpt>
      <trkpt lat="48.88194" lon="2.3241">
        <ele>108.1</ele>
        <time>2013-09-03T18:12:35.076Z</time>
      </trkpt>
      <trkpt lat="48.8819" lon="2.32414">
        <ele>107.4</ele>
        <time>2013-09-03T18:12:36.076Z</time>
      </trkpt>
      <trkpt lat="48.88185" lon="2.32419">
        <ele>107.7</ele>
        <time>2013-09-03T18:12:37.103Z</time>
      </trkpt>
      <trkpt lat="48.88181" lon="2.32424">
        <ele>106.5</ele>
        <time>2013-09-03T18:12:38.128Z</time>
      </trkpt>
      <trkpt lat="48.88176" lon="2.32427">
        <ele>106.3</ele>
        <time>2013-09-03T18:12:39.079Z</time>
      </trkpt>
      <trkpt lat="48.88173" lon="2.32432">
        <ele>105.7</ele>
        <time>2013-09-03T18:12:40.099Z</time>
      </trkpt>
      <trkpt lat="48.88169" lon="2.32438">
        <ele>104.2</ele>
        <time>2013-09-03T18:12:41.076Z</time>
      </trkpt>
      <trkpt lat="48.88166" lon="2.32443">
        <ele>104</ele>
        <time>2013-09-03T18:12:42.077Z</time>
      </trkpt>
      <trkpt lat="48.88162" lon="2.32447">
        <ele>103.6</ele>
        <time>2013-09-03T18:12:43.069Z</time>
      </trkpt>
      <trkpt lat="48.88158" lon="2.32452">
        <ele>103.8</ele>
        <time>2013-09-03T18:12:44.102Z</time>
      </trkpt>
      <trkpt lat="48.88154" lon="2.32456">
        <ele>104.2</ele>
        <time>2013-09-03T18:12:45.105Z</time>
      </trkpt>
      <trkpt lat="48.88149" lon="2.32458">
        <ele>104.4</ele>
        <time>2013-09-03T18:12:46.127Z</time>
      </trkpt>
      <trkpt lat="48.88145" lon="2.3246">
        <ele>104.3</ele>
        <time>2013-09-03T18:12:47.106Z</time>
      </trkpt>
      <trkpt lat="48.8814" lon="2.32463">
        <ele>104.3</ele>
        <time>2013-09-03T18:12:48.080Z</time>
      </trkpt>
      <trkpt lat="48.88136" lon="2.32465">
        <ele>104.9</ele>
        <time>2013-09-03T18:12:49.080Z</time>
      </trkpt>
      <trkpt lat="48.88131" lon="2.32465">
        <ele>104.4</ele>
        <time>2013-09-03T18:12:50.071Z</time>
      </trkpt>
      <trkpt lat="48.88125" lon="2.32466">
        <ele>105.1</ele>
        <time>2013-09-03T18:12:51.105Z</time>
      </trkpt>
      <trkpt lat="48.8812" lon="2.32467">
        <ele>106.2</ele>
        <time>2013-09-03T18:12:52.114Z</time>
      </trkpt>
      <trkpt lat="48.88115" lon="2.32468">
        <ele>107.8</ele>
        <time>2013-09-03T18:12:53.108Z</time>
      </trkpt>
      <trkpt lat="48.8811" lon="2.3247">
        <ele>107.4</ele>
        <time>2013-09-03T18:12:54.105Z</time>
      </trkpt>
      <trkpt lat="48.88106" lon="2.32472">
        <ele>107.9</ele>
        <time>2013-09-03T18:12:55.098Z</time>
      </trkpt>
      <trkpt lat="48.88098" lon="2.32474">
        <ele>110.4</ele>
        <time>2013-09-03T18:12:57.114Z</time>
      </trkpt>
      <trkpt lat="48.88094" lon="2.32475">
        <ele>111.1</ele>
        <time>2013-09-03T18:12:58.126Z</time>
      </trkpt>
      <trkpt lat="48.88085" lon="2.32476">
        <ele>111.9</ele>
        <time>2013-09-03T18:13:01.084Z</time>
      </trkpt>
      <trkpt lat="48.88083" lon="2.32477">
        <ele>112.4</ele>
        <time>2013-09-03T18:13:02.096Z</time>
      </trkpt>
      <trkpt lat="48.88076" lon="2.3248">
        <ele>114</ele>
        <time>2013-09-03T18:13:05.101Z</time>
      </trkpt>
      <trkpt lat="48.88074" lon="2.32482">
        <ele>114</ele>
        <time>2013-09-03T18:13:06.079Z</time>
      </trkpt>
      <trkpt lat="48.88069" lon="2.32492">
        <ele>113.2</ele>
        <time>2013-09-03T18:13:09.081Z</time>
      </trkpt>
      <trkpt lat="48.88067" lon="2.32496">
        <ele>113.9</ele>
        <time>2013-09-03T18:13:10.083Z</time>
      </trkpt>
      <trkpt lat="48.88063" lon="2.32505">
        <ele>115.6</ele>
        <time>2013-09-03T18:13:12.079Z</time>
      </trkpt>
      <trkpt lat="48.8806" lon="2.32509">
        <ele>115.7</ele>
        <time>2013-09-03T18:13:13.086Z</time>
      </trkpt>
      <trkpt lat="48.88055" lon="2.32517">
        <ele>117</ele>
        <time>2013-09-03T18:13:15.082Z</time>
      </trkpt>
      <trkpt lat="48.88052" lon="2.3252">
        <ele>118</ele>
        <time>2013-09-03T18:13:16.079Z</time>
      </trkpt>
      <trkpt lat="48.88045" lon="2.32525">
        <ele>114.3</ele>
        <time>2013-09-03T18:13:18.083Z</time>
      </trkpt>
      <trkpt lat="48.88041" lon="2.32527">
        <ele>115.2</ele>
        <time>2013-09-03T18:13:19.080Z</time>
      </trkpt>
      <trkpt lat="48.88033" lon="2.32531">
        <ele>114</ele>
        <time>2013-09-03T18:13:21.099Z</time>
      </trkpt>
      <trkpt lat="48.88029" lon="2.32533">
        <ele>113.6</ele>
        <time>2013-09-03T18:13:22.080Z</time>
      </trkpt>
      <trkpt lat="48.88021" lon="2.32538">
        <ele>111.9</ele>
        <time>2013-09-03T18:13:24.094Z</time>
      </trkpt>
      <trkpt lat="48.88017" lon="2.3254">
        <ele>111.9</ele>
        <time>2013-09-03T18:13:25.110Z</time>
      </trkpt>
      <trkpt lat="48.88011" lon="2.32546">
        <ele>111.9</ele>
        <time>2013-09-03T18:13:27.137Z</time>
      </trkpt>
      <trkpt lat="48.88009" lon="2.3255">
        <ele>111.9</ele>
        <time>2013-09-03T18:13:28.126Z</time>
      </trkpt>
      <trkpt lat="48.88016" lon="2.32557">
        <ele>114</ele>
        <time>2013-09-03T18:13:45.086Z</time>
      </trkpt>
      <trkpt lat="48.88016" lon="2.32558">
        <ele>113.8</ele>
        <time>2013-09-03T18:13:46.083Z</time>
      </trkpt>
      <trkpt lat="48.88009" lon="2.32558">
        <ele>114.8</ele>
        <time>2013-09-03T18:13:51.094Z</time>
      </trkpt>
      <trkpt lat="48.88005" lon="2.32558">
        <ele>114.3</ele>
        <time>2013-09-03T18:13:52.083Z</time>
      </trkpt>
      <trkpt lat="48.87998" lon="2.32559">
        <ele>111.4</ele>
        <time>2013-09-03T18:13:54.100Z</time>
      </trkpt>
      <trkpt lat="48.87994" lon="2.32559">
        <ele>112.2</ele>
        <time>2013-09-03T18:13:55.078Z</time>
      </trkpt>
      <trkpt lat="48.87986" lon="2.32559">
        <ele>112.3</ele>
        <time>2013-09-03T18:13:57.111Z</time>
      </trkpt>
      <trkpt lat="48.87982" lon="2.32561">
        <ele>113</ele>
        <time>2013-09-03T18:13:58.088Z</time>
      </trkpt>
      <trkpt lat="48.87974" lon="2.32564">
        <ele>111.7</ele>
        <time>2013-09-03T18:14:00.112Z</time>
      </trkpt>
      <trkpt lat="48.8797" lon="2.32565">
        <ele>111.2</ele>
        <time>2013-09-03T18:14:01.128Z</time>
      </trkpt>
      <trkpt lat="48.87962" lon="2.32568">
        <ele>108.9</ele>
        <time>2013-09-03T18:14:03.103Z</time>
      </trkpt>
      <trkpt lat="48.87958" lon="2.32568">
        <ele>107.9</ele>
        <time>2013-09-03T18:14:04.105Z</time>
      </trkpt>
      <trkpt lat="48.87951" lon="2.32569">
        <ele>107.3</ele>
        <time>2013-09-03T18:14:06.096Z</time>
      </trkpt>
      <trkpt lat="48.87949" lon="2.32571">
        <ele>106.6</ele>
        <time>2013-09-03T18:14:07.107Z</time>
      </trkpt>
      <trkpt lat="48.8795" lon="2.32584">
        <ele>107.2</ele>
        <time>2013-09-03T18:14:11.075Z</time>
      </trkpt>
      <trkpt lat="48.87952" lon="2.3259">
        <ele>107.4</ele>
        <time>2013-09-03T18:14:12.087Z</time>
      </trkpt>
      <trkpt lat="48.87956" lon="2.32602">
        <ele>102</ele>
        <time>2013-09-03T18:14:14.185Z</time>
      </trkpt>
      <trkpt lat="48.87957" lon="2.32607">
        <ele>101.6</ele>
        <time>2013-09-03T18:14:15.160Z</time>
      </trkpt>
      <trkpt lat="48.8796" lon="2.3262">
        <ele>100.6</ele>
        <time>2013-09-03T18:14:17.109Z</time>
      </trkpt>
      <trkpt lat="48.87961" lon="2.32627">
        <ele>99.8</ele>
        <time>2013-09-03T18:14:18.076Z</time>
      </trkpt>
      <trkpt lat="48.87962" lon="2.3264">
        <ele>99.7</ele>
        <time>2013-09-03T18:14:20.087Z</time>
      </trkpt>
      <trkpt lat="48.87962" lon="2.32646">
        <ele>96.6</ele>
        <time>2013-09-03T18:14:21.087Z</time>
      </trkpt>
      <trkpt lat="48.87964" lon="2.32658">
        <ele>96.7</ele>
        <time>2013-09-03T18:14:23.158Z</time>
      </trkpt>
      <trkpt lat="48.87964" lon="2.32662">
        <ele>96.7</ele>
        <time>2013-09-03T18:14:24.176Z</time>
      </trkpt>
      <trkpt lat="48.87965" lon="2.32676">
        <ele>100.4</ele>
        <time>2013-09-03T18:14:36.156Z</time>
      </trkpt>
      <trkpt lat="48.87966" lon="2.32677">
        <ele>98.4</ele>
        <time>2013-09-03T18:14:37.116Z</time>
      </trkpt>
      <trkpt lat="48.87967" lon="2.3269">
        <ele>100.6</ele>
        <time>2013-09-03T18:14:44.150Z</time>
      </trkpt>
      <trkpt lat="48.87967" lon="2.32692">
        <ele>101.4</ele>
        <time>2013-09-03T18:14:45.122Z</time>
      </trkpt>
      <trkpt lat="48.8797" lon="2.32704">
        <ele>104.2</ele>
        <time>2013-09-03T18:14:49.095Z</time>
      </trkpt>
      <trkpt lat="48.8797" lon="2.32709">
        <ele>104</ele>
        <time>2013-09-03T18:14:50.119Z</time>
      </trkpt>
      <trkpt lat="48.8797" lon="2.32719">
        <ele>104.7</ele>
        <time>2013-09-03T18:14:52.173Z</time>
      </trkpt>
      <trkpt lat="48.87971" lon="2.32724">
        <ele>104</ele>
        <time>2013-09-03T18:14:53.110Z</time>
      </trkpt>
      <trkpt lat="48.87969" lon="2.32737">
        <ele>101</ele>
        <time>2013-09-03T18:14:56.125Z</time>
      </trkpt>
      <trkpt lat="48.87968" lon="2.32741">
        <ele>100.1</ele>
        <time>2013-09-03T18:14:57.113Z</time>
      </trkpt>
      <trkpt lat="48.87967" lon="2.32753">
        <ele>99.4</ele>
        <time>2013-09-03T18:15:00.141Z</time>
      </trkpt>
      <trkpt lat="48.87967" lon="2.32757">
        <ele>99.5</ele>
        <time>2013-09-03T18:15:01.150Z</time>
      </trkpt>
      <trkpt lat="48.87966" lon="2.32766">
        <ele>99.2</ele>
        <time>2013-09-03T18:15:03.082Z</time>
      </trkpt>
      <trkpt lat="48.87966" lon="2.32771">
        <ele>98.1</ele>
        <time>2013-09-03T18:15:04.093Z</time>
      </trkpt>
      <trkpt lat="48.87965" lon="2.32781">
        <ele>97.3</ele>
        <time>2013-09-03T18:15:06.170Z</time>
      </trkpt>
      <trkpt lat="48.87965" lon="2.32787">
        <ele>98.1</ele>
        <time>2013-09-03T18:15:07.153Z</time>
      </trkpt>
      <trkpt lat="48.87964" lon="2.32797">
        <ele>95.9</ele>
        <time>2013-09-03T18:15:09.100Z</time>
      </trkpt>
      <trkpt lat="48.87964" lon="2.32801">
        <ele>96</ele>
        <time>2013-09-03T18:15:10.081Z</time>
      </trkpt>
      <trkpt lat="48.87962" lon="2.32815">
        <ele>96.6</ele>
        <time>2013-09-03T18:15:13.144Z</time>
      </trkpt>
      <trkpt lat="48.87962" lon="2.32819">
        <ele>96</ele>
        <time>2013-09-03T18:15:14.156Z</time>
      </trkpt>
      <trkpt lat="48.87962" lon="2.32829">
        <ele>95.1</ele>
        <time>2013-09-03T18:15:16.164Z</time>
      </trkpt>
      <trkpt lat="48.87962" lon="2.32835">
        <ele>95.5</ele>
        <time>2013-09-03T18:15:17.118Z</time>
      </trkpt>
      <trkpt lat="48.87962" lon="2.32842">
        <ele>93.9</ele>
        <time>2013-09-03T18:15:18.125Z</time>
      </trkpt>
      <trkpt lat="48.87963" lon="2.3285">
        <ele>91.9</ele>
        <time>2013-09-03T18:15:19.106Z</time>
      </trkpt>
      <trkpt lat="48.87963" lon="2.32858">
        <ele>90.8</ele>
        <time>2013-09-03T18:15:20.136Z</time>
      </trkpt>
      <trkpt lat="48.87964" lon="2.32865">
        <ele>91.1</ele>
        <time>2013-09-03T18:15:21.115Z</time>
      </trkpt>
      <trkpt lat="48.87966" lon="2.32877">
        <ele>91.1</ele>
        <time>2013-09-03T18:15:23.095Z</time>
      </trkpt>
      <trkpt lat="48.87966" lon="2.32883">
        <ele>92.1</ele>
        <time>2013-09-03T18:15:24.157Z</time>
      </trkpt>
      <trkpt lat="48.87967" lon="2.32896">
        <ele>91.5</ele>
        <time>2013-09-03T18:15:28.110Z</time>
      </trkpt>
      <trkpt lat="48.87966" lon="2.32896">
        <ele>90.9</ele>
        <time>2013-09-03T18:15:29.127Z</time>
      </trkpt>
      <trkpt lat="48.87974" lon="2.32901">
        <ele>91.5</ele>
        <time>2013-09-03T18:15:40.144Z</time>
      </trkpt>
      <trkpt lat="48.87976" lon="2.32903">
        <ele>92.5</ele>
        <time>2013-09-03T18:15:41.111Z</time>
      </trkpt>
      <trkpt lat="48.87983" lon="2.32907">
        <ele>92.9</ele>
        <time>2013-09-03T18:15:43.082Z</time>
      </trkpt>
      <trkpt lat="48.87986" lon="2.32908">
        <ele>95</ele>
        <time>2013-09-03T18:15:44.120Z</time>
      </trkpt>
      <trkpt lat="48.87994" lon="2.32912">
        <ele>94.8</ele>
        <time>2013-09-03T18:15:47.147Z</time>
      </trkpt>
      <trkpt lat="48.87996" lon="2.32915">
        <ele>95</ele>
        <time>2013-09-03T18:15:48.093Z</time>
      </trkpt>
      <trkpt lat="48.87998" lon="2.32924">
        <ele>92.7</ele>
        <time>2013-09-03T18:15:50.094Z</time>
      </trkpt>
      <trkpt lat="48.87999" lon="2.32928">
        <ele>90.6</ele>
        <time>2013-09-03T18:15:51.089Z</time>
      </trkpt>
      <trkpt lat="48.88" lon="2.32939">
        <ele>88.6</ele>
        <time>2013-09-03T18:15:53.098Z</time>
      </trkpt>
      <trkpt lat="48.88001" lon="2.32946">
        <ele>90.5</ele>
        <time>2013-09-03T18:15:54.277Z</time>
      </trkpt>
      <trkpt lat="48.88001" lon="2.32958">
        <ele>90</ele>
        <time>2013-09-03T18:15:56.100Z</time>
      </trkpt>
      <trkpt lat="48.88001" lon="2.32964">
        <ele>90</ele>
        <time>2013-09-03T18:15:57.083Z</time>
      </trkpt>
      <trkpt lat="48.88001" lon="2.32976">
        <ele>89.4</ele>
        <time>2013-09-03T18:15:59.085Z</time>
      </trkpt>
      <trkpt lat="48.88" lon="2.32982">
        <ele>89.6</ele>
        <time>2013-09-03T18:16:00.104Z</time>
      </trkpt>
      <trkpt lat="48.88" lon="2.32993">
        <ele>89.7</ele>
        <time>2013-09-03T18:16:02.104Z</time>
      </trkpt>
      <trkpt lat="48.88" lon="2.32998">
        <ele>89.9</ele>
        <time>2013-09-03T18:16:03.087Z</time>
      </trkpt>
      <trkpt lat="48.88001" lon="2.3301">
        <ele>91</ele>
        <time>2013-09-03T18:16:05.104Z</time>
      </trkpt>
      <trkpt lat="48.88002" lon="2.33016">
        <ele>91.3</ele>
        <time>2013-09-03T18:16:06.107Z</time>
      </trkpt>
      <trkpt lat="48.88004" lon="2.33029">
        <ele>91.8</ele>
        <time>2013-09-03T18:16:08.084Z</time>
      </trkpt>
      <trkpt lat="48.88006" lon="2.33036">
        <ele>93.3</ele>
        <time>2013-09-03T18:16:09.117Z</time>
      </trkpt>
      <trkpt lat="48.88008" lon="2.33048">
        <ele>92.8</ele>
        <time>2013-09-03T18:16:11.110Z</time>
      </trkpt>
      <trkpt lat="48.88008" lon="2.33055">
        <ele>92.1</ele>
        <time>2013-09-03T18:16:12.135Z</time>
      </trkpt>
      <trkpt lat="48.88009" lon="2.33067">
        <ele>88.2</ele>
        <time>2013-09-03T18:16:14.157Z</time>
      </trkpt>
      <trkpt lat="48.88009" lon="2.33072">
        <ele>87.7</ele>
        <time>2013-09-03T18:16:15.100Z</time>
      </trkpt>
      <trkpt lat="48.8801" lon="2.33083">
        <ele>87.5</ele>
        <time>2013-09-03T18:16:17.147Z</time>
      </trkpt>
      <trkpt lat="48.8801" lon="2.33088">
        <ele>87.6</ele>
        <time>2013-09-03T18:16:18.086Z</time>
      </trkpt>
      <trkpt lat="48.88009" lon="2.33098">
        <ele>87.2</ele>
        <time>2013-09-03T18:16:20.098Z</time>
      </trkpt>
      <trkpt lat="48.88009" lon="2.33102">
        <ele>88.3</ele>
        <time>2013-09-03T18:16:21.129Z</time>
      </trkpt>
      <trkpt lat="48.88011" lon="2.33115">
        <ele>89.4</ele>
        <time>2013-09-03T18:16:28.097Z</time>
      </trkpt>
      <trkpt lat="48.88011" lon="2.33116">
        <ele>91.6</ele>
        <time>2013-09-03T18:16:29.094Z</time>
      </trkpt>
      <trkpt lat="48.88009" lon="2.33128">
        <ele>96.4</ele>
        <time>2013-09-03T18:16:34.086Z</time>
      </trkpt>
      <trkpt lat="48.88008" lon="2.33132">
        <ele>97.9</ele>
        <time>2013-09-03T18:16:35.087Z</time>
      </trkpt>
      <trkpt lat="48.88004" lon="2.3314">
        <ele>101.4</ele>
        <time>2013-09-03T18:16:37.105Z</time>
      </trkpt>
      <trkpt lat="48.88003" lon="2.33144">
        <ele>102.2</ele>
        <time>2013-09-03T18:16:38.092Z</time>
      </trkpt>
      <trkpt lat="48.88001" lon="2.33155">
        <ele>103</ele>
        <time>2013-09-03T18:16:40.105Z</time>
      </trkpt>
      <trkpt lat="48.88001" lon="2.3316">
        <ele>105.7</ele>
        <time>2013-09-03T18:16:41.087Z</time>
      </trkpt>
      <trkpt lat="48.88" lon="2.3317">
        <ele>104.8</ele>
        <time>2013-09-03T18:16:43.087Z</time>
      </trkpt>
      <trkpt lat="48.87999" lon="2.33176">
        <ele>104.4</ele>
        <time>2013-09-03T18:16:44.133Z</time>
      </trkpt>
      <trkpt lat="48.87998" lon="2.33186">
        <ele>107.9</ele>
        <time>2013-09-03T18:16:46.167Z</time>
      </trkpt>
      <trkpt lat="48.87997" lon="2.33192">
        <ele>107</ele>
        <time>2013-09-03T18:16:47.127Z</time>
      </trkpt>
      <trkpt lat="48.87995" lon="2.33205">
        <ele>105.2</ele>
        <time>2013-09-03T18:16:49.091Z</time>
      </trkpt>
      <trkpt lat="48.87994" lon="2.33211">
        <ele>105</ele>
        <time>2013-09-03T18:16:50.089Z</time>
      </trkpt>
      <trkpt lat="48.87992" lon="2.33224">
        <ele>105.1</ele>
        <time>2013-09-03T18:16:52.096Z</time>
      </trkpt>
      <trkpt lat="48.87991" lon="2.3323">
        <ele>105.6</ele>
        <time>2013-09-03T18:16:53.160Z</time>
      </trkpt>
      <trkpt lat="48.87988" lon="2.3324">
        <ele>104.4</ele>
        <time>2013-09-03T18:16:55.158Z</time>
      </trkpt>
      <trkpt lat="48.87987" lon="2.33245">
        <ele>104.5</ele>
        <time>2013-09-03T18:16:56.134Z</time>
      </trkpt>
      <trkpt lat="48.87985" lon="2.33255">
        <ele>103.3</ele>
        <time>2013-09-03T18:16:58.090Z</time>
      </trkpt>
      <trkpt lat="48.87984" lon="2.33261">
        <ele>102.9</ele>
        <time>2013-09-03T18:16:59.102Z</time>
      </trkpt>
      <trkpt lat="48.87982" lon="2.33272">
        <ele>102.2</ele>
        <time>2013-09-03T18:17:01.132Z</time>
      </trkpt>
      <trkpt lat="48.87982" lon="2.33276">
        <ele>102.8</ele>
        <time>2013-09-03T18:17:02.184Z</time>
      </trkpt>
      <trkpt lat="48.87986" lon="2.33284">
        <ele>103.3</ele>
        <time>2013-09-03T18:17:07.097Z</time>
      </trkpt>
      <trkpt lat="48.87989" lon="2.33285">
        <ele>102.5</ele>
        <time>2013-09-03T18:17:08.116Z</time>
      </trkpt>
      <trkpt lat="48.87996" lon="2.33286">
        <ele>103.8</ele>
        <time>2013-09-03T18:17:10.141Z</time>
      </trkpt>
      <trkpt lat="48.88" lon="2.33287">
        <ele>104.8</ele>
        <time>2013-09-03T18:17:11.097Z</time>
      </trkpt>
      <trkpt lat="48.88007" lon="2.33288">
        <ele>103.9</ele>
        <time>2013-09-03T18:17:13.094Z</time>
      </trkpt>
      <trkpt lat="48.88011" lon="2.33289">
        <ele>104.2</ele>
        <time>2013-09-03T18:17:14.093Z</time>
      </trkpt>
      <trkpt lat="48.88017" lon="2.33289">
        <ele>104.3</ele>
        <time>2013-09-03T18:17:16.144Z</time>
      </trkpt>
      <trkpt lat="48.8802" lon="2.33289">
        <ele>104.7</ele>
        <time>2013-09-03T18:17:17.175Z</time>
      </trkpt>
      <trkpt lat="48.88026" lon="2.33287">
        <ele>104</ele>
        <time>2013-09-03T18:17:19.160Z</time>
      </trkpt>
      <trkpt lat="48.88029" lon="2.33287">
        <ele>103.5</ele>
        <time>2013-09-03T18:17:20.122Z</time>
      </trkpt>
      <trkpt lat="48.88036" lon="2.33287">
        <ele>105.7</ele>
        <time>2013-09-03T18:17:22.094Z</time>
      </trkpt>
      <trkpt lat="48.88039" lon="2.33288">
        <ele>105.4</ele>
        <time>2013-09-03T18:17:23.116Z</time>
      </trkpt>
      <trkpt lat="48.88046" lon="2.33292">
        <ele>106</ele>
        <time>2013-09-03T18:17:25.129Z</time>
      </trkpt>
      <trkpt lat="48.88049" lon="2.33294">
        <ele>105.5</ele>
        <time>2013-09-03T18:17:26.190Z</time>
      </trkpt>
      <trkpt lat="48.88055" lon="2.33295">
        <ele>106.4</ele>
        <time>2013-09-03T18:17:28.123Z</time>
      </trkpt>
      <trkpt lat="48.88058" lon="2.33295">
        <ele>106.6</ele>
        <time>2013-09-03T18:17:29.091Z</time>
      </trkpt>
      <trkpt lat="48.88066" lon="2.33292">
        <ele>105.2</ele>
        <time>2013-09-03T18:17:32.137Z</time>
      </trkpt>
      <trkpt lat="48.88069" lon="2.33292">
        <ele>104.7</ele>
        <time>2013-09-03T18:17:33.215Z</time>
      </trkpt>
      <trkpt lat="48.88078" lon="2.33296">
        <ele>104.9</ele>
        <time>2013-09-03T18:17:36.134Z</time>
      </trkpt>
      <trkpt lat="48.8808" lon="2.333">
        <ele>105.1</ele>
        <time>2013-09-03T18:17:37.147Z</time>
      </trkpt>
      <trkpt lat="48.88083" lon="2.33308">
        <ele>105.1</ele>
        <time>2013-09-03T18:17:39.102Z</time>
      </trkpt>
      <trkpt lat="48.88085" lon="2.33312">
        <ele>106.4</ele>
        <time>2013-09-03T18:17:40.100Z</time>
      </trkpt>
      <trkpt lat="48.88086" lon="2.33323">
        <ele>105</ele>
        <time>2013-09-03T18:17:43.188Z</time>
      </trkpt>
      <trkpt lat="48.88087" lon="2.33326">
        <ele>105.2</ele>
        <time>2013-09-03T18:17:44.140Z</time>
      </trkpt>
      <trkpt lat="48.88088" lon="2.33339">
        <ele>104.6</ele>
        <time>2013-09-03T18:17:51.190Z</time>
      </trkpt>
      <trkpt lat="48.88087" lon="2.33342">
        <ele>105.3</ele>
        <time>2013-09-03T18:17:52.168Z</time>
      </trkpt>
      <trkpt lat="48.88084" lon="2.33352">
        <ele>105</ele>
        <time>2013-09-03T18:17:54.105Z</time>
      </trkpt>
      <trkpt lat="48.88083" lon="2.33358">
        <ele>105.1</ele>
        <time>2013-09-03T18:17:55.102Z</time>
      </trkpt>
      <trkpt lat="48.88081" lon="2.33369">
        <ele>104.8</ele>
        <time>2013-09-03T18:17:57.136Z</time>
      </trkpt>
      <trkpt lat="48.8808" lon="2.33375">
        <ele>105.4</ele>
        <time>2013-09-03T18:17:58.139Z</time>
      </trkpt>
      <trkpt lat="48.88078" lon="2.33385">
        <ele>107.6</ele>
        <time>2013-09-03T18:18:00.143Z</time>
      </trkpt>
      <trkpt lat="48.88076" lon="2.33389">
        <ele>107.7</ele>
        <time>2013-09-03T18:18:01.101Z</time>
      </trkpt>
      <trkpt lat="48.88073" lon="2.33398">
        <ele>107.5</ele>
        <time>2013-09-03T18:18:03.108Z</time>
      </trkpt>
      <trkpt lat="48.88071" lon="2.33402">
        <ele>108.2</ele>
        <time>2013-09-03T18:18:04.104Z</time>
      </trkpt>
      <trkpt lat="48.88068" lon="2.3341">
        <ele>107</ele>
        <time>2013-09-03T18:18:06.124Z</time>
      </trkpt>
      <trkpt lat="48.88066" lon="2.33414">
        <ele>106.3</ele>
        <time>2013-09-03T18:18:07.143Z</time>
      </trkpt>
      <trkpt lat="48.88064" lon="2.33423">
        <ele>105.9</ele>
        <time>2013-09-03T18:18:09.102Z</time>
      </trkpt>
      <trkpt lat="48.88063" lon="2.33427">
        <ele>105.6</ele>
        <time>2013-09-03T18:18:10.097Z</time>
      </trkpt>
      <trkpt lat="48.88058" lon="2.33439">
        <ele>106.2</ele>
        <time>2013-09-03T18:18:14.156Z</time>
      </trkpt>
      <trkpt lat="48.88058" lon="2.33442">
        <ele>105.2</ele>
        <time>2013-09-03T18:18:15.208Z</time>
      </trkpt>
      <trkpt lat="48.88057" lon="2.33455">
        <ele>104</ele>
        <time>2013-09-03T18:18:19.102Z</time>
      </trkpt>
      <trkpt lat="48.88056" lon="2.33459">
        <ele>102.9</ele>
        <time>2013-09-03T18:18:20.106Z</time>
      </trkpt>
      <trkpt lat="48.88052" lon="2.33469">
        <ele>98.8</ele>
        <time>2013-09-03T18:18:23.126Z</time>
      </trkpt>
      <trkpt lat="48.88051" lon="2.33472">
        <ele>100.1</ele>
        <time>2013-09-03T18:18:24.142Z</time>
      </trkpt>
      <trkpt lat="48.88056" lon="2.33482">
        <ele>102.4</ele>
        <time>2013-09-03T18:18:51.104Z</time>
      </trkpt>
      <trkpt lat="48.88056" lon="2.33483">
        <ele>102.4</ele>
        <time>2013-09-03T18:18:52.105Z</time>
      </trkpt>
      <trkpt lat="48.88056" lon="2.33483">
        <ele>102</ele>
        <time>2013-09-03T18:18:58.135Z</time>
      </trkpt>
      <trkpt lat="48.88055" lon="2.33483">
        <ele>99.4</ele>
        <time>2013-09-03T18:18:59.121Z</time>
      </trkpt>
      <trkpt lat="48.8805" lon="2.3349">
        <ele>101.4</ele>
        <time>2013-09-03T18:19:02.172Z</time>
      </trkpt>
      <trkpt lat="48.88048" lon="2.33495">
        <ele>101.3</ele>
        <time>2013-09-03T18:19:03.247Z</time>
      </trkpt>
      <trkpt lat="48.88044" lon="2.33502">
        <ele>102</ele>
        <time>2013-09-03T18:19:05.113Z</time>
      </trkpt>
      <trkpt lat="48.88041" lon="2.33506">
        <ele>102.4</ele>
        <time>2013-09-03T18:19:06.134Z</time>
      </trkpt>
      <trkpt lat="48.88036" lon="2.33515">
        <ele>101.9</ele>
        <time>2013-09-03T18:19:09.171Z</time>
      </trkpt>
      <trkpt lat="48.88034" lon="2.33518">
        <ele>101.8</ele>
        <time>2013-09-03T18:19:10.148Z</time>
      </trkpt>
      <trkpt lat="48.88029" lon="2.33525">
        <ele>101.6</ele>
        <time>2013-09-03T18:19:12.149Z</time>
      </trkpt>
      <trkpt lat="48.88026" lon="2.3353">
        <ele>101.8</ele>
        <time>2013-09-03T18:19:13.135Z</time>
      </trkpt>
      <trkpt lat="48.88022" lon="2.33535">
        <ele>102.6</ele>
        <time>2013-09-03T18:19:14.098Z</time>
      </trkpt>
      <trkpt lat="48.88018" lon="2.33539">
        <ele>101.5</ele>
        <time>2013-09-03T18:19:15.109Z</time>
      </trkpt>
      <trkpt lat="48.88011" lon="2.33542">
        <ele>101</ele>
        <time>2013-09-03T18:19:16.116Z</time>
      </trkpt>
      <trkpt lat="48.88005" lon="2.33545">
        <ele>101.2</ele>
        <time>2013-09-03T18:19:17.137Z</time>
      </trkpt>
      <trkpt lat="48.88001" lon="2.33549">
        <ele>101.3</ele>
        <time>2013-09-03T18:19:18.157Z</time>
      </trkpt>
      <trkpt lat="48.87997" lon="2.33552">
        <ele>101.6</ele>
        <time>2013-09-03T18:19:19.132Z</time>
      </trkpt>
      <trkpt lat="48.87993" lon="2.33555">
        <ele>100.9</ele>
        <time>2013-09-03T18:19:20.152Z</time>
      </trkpt>
      <trkpt lat="48.87989" lon="2.3356">
        <ele>100.8</ele>
        <time>2013-09-03T18:19:21.130Z</time>
      </trkpt>
      <trkpt lat="48.87985" lon="2.33564">
        <ele>101</ele>
        <time>2013-09-03T18:19:22.107Z</time>
      </trkpt>
      <trkpt lat="48.87982" lon="2.33568">
        <ele>101</ele>
        <time>2013-09-03T18:19:23.114Z</time>
      </trkpt>
      <trkpt lat="48.87976" lon="2.33577">
        <ele>100.8</ele>
        <time>2013-09-03T18:19:25.111Z</time>
      </trkpt>
      <trkpt lat="48.87973" lon="2.3358">
        <ele>100.6</ele>
        <time>2013-09-03T18:19:26.163Z</time>
      </trkpt>
      <trkpt lat="48.87968" lon="2.33586">
        <ele>100.5</ele>
        <time>2013-09-03T18:19:28.166Z</time>
      </trkpt>
      <trkpt lat="48.87966" lon="2.33589">
        <ele>101.1</ele>
        <time>2013-09-03T18:19:29.125Z</time>
      </trkpt>
      <trkpt lat="48.87962" lon="2.33598">
        <ele>103</ele>
        <time>2013-09-03T18:19:31.109Z</time>
      </trkpt>
      <trkpt lat="48.8796" lon="2.33602">
        <ele>102.3</ele>
        <time>2013-09-03T18:19:32.107Z</time>
      </trkpt>
      <trkpt lat="48.87955" lon="2.3361">
        <ele>103.3</ele>
        <time>2013-09-03T18:19:34.166Z</time>
      </trkpt>
      <trkpt lat="48.87953" lon="2.33614">
        <ele>106.3</ele>
        <time>2013-09-03T18:19:35.171Z</time>
      </trkpt>
      <trkpt lat="48.87948" lon="2.33622">
        <ele>106.7</ele>
        <time>2013-09-03T18:19:37.116Z</time>
      </trkpt>
      <trkpt lat="48.87946" lon="2.33627">
        <ele>107.4</ele>
        <time>2013-09-03T18:19:38.109Z</time>
      </trkpt>
      <trkpt lat="48.87943" lon="2.33636">
        <ele>106.9</ele>
        <time>2013-09-03T18:19:40.119Z</time>
      </trkpt>
      <trkpt lat="48.87941" lon="2.33641">
        <ele>106.9</ele>
        <time>2013-09-03T18:19:41.157Z</time>
      </trkpt>
      <trkpt lat="48.87937" lon="2.3365">
        <ele>106.4</ele>
        <time>2013-09-03T18:19:43.173Z</time>
      </trkpt>
      <trkpt lat="48.87934" lon="2.33654">
        <ele>102.2</ele>
        <time>2013-09-03T18:19:44.158Z</time>
      </trkpt>
      <trkpt lat="48.87926" lon="2.33659">
        <ele>101.6</ele>
        <time>2013-09-03T18:19:47.108Z</time>
      </trkpt>
      <trkpt lat="48.87924" lon="2.3366">
        <ele>104</ele>
        <time>2013-09-03T18:19:48.108Z</time>
      </trkpt>
      <trkpt lat="48.87918" lon="2.33668">
        <ele>104.2</ele>
        <time>2013-09-03T18:19:53.112Z</time>
      </trkpt>
      <trkpt lat="48.87918" lon="2.3367">
        <ele>102.7</ele>
        <time>2013-09-03T18:19:54.117Z</time>
      </trkpt>
      <trkpt lat="48.87918" lon="2.3367">
        <ele>103</ele>
        <time>2013-09-03T18:19:58.182Z</time>
      </trkpt>
      <trkpt lat="48.87918" lon="2.33668">
        <ele>103.4</ele>
        <time>2013-09-03T18:19:59.140Z</time>
      </trkpt>
      <trkpt lat="48.87918" lon="2.33667">
        <ele>105.9</ele>
        <time>2013-09-03T18:20:00.113Z</time>
      </trkpt>
      <trkpt lat="48.87915" lon="2.33677">
        <ele>107.2</ele>
        <time>2013-09-03T18:20:06.111Z</time>
      </trkpt>
      <trkpt lat="48.87914" lon="2.33681">
        <ele>107.3</ele>
        <time>2013-09-03T18:20:07.114Z</time>
      </trkpt>
      <trkpt lat="48.87914" lon="2.33691">
        <ele>108.2</ele>
        <time>2013-09-03T18:20:09.109Z</time>
      </trkpt>
      <trkpt lat="48.87914" lon="2.33697">
        <ele>108.9</ele>
        <time>2013-09-03T18:20:10.117Z</time>
      </trkpt>
      <trkpt lat="48.87914" lon="2.33704">
        <ele>108.5</ele>
        <time>2013-09-03T18:20:11.110Z</time>
      </trkpt>
      <trkpt lat="48.87914" lon="2.33712">
        <ele>107.9</ele>
        <time>2013-09-03T18:20:12.110Z</time>
      </trkpt>
      <trkpt lat="48.87914" lon="2.3372">
        <ele>108</ele>
        <time>2013-09-03T18:20:13.110Z</time>
      </trkpt>
      <trkpt lat="48.87914" lon="2.33729">
        <ele>108.6</ele>
        <time>2013-09-03T18:20:14.148Z</time>
      </trkpt>
      <trkpt lat="48.87914" lon="2.33737">
        <ele>108.7</ele>
        <time>2013-09-03T18:20:15.163Z</time>
      </trkpt>
      <trkpt lat="48.87913" lon="2.33744">
        <ele>109.5</ele>
        <time>2013-09-03T18:20:16.135Z</time>
      </trkpt>
      <trkpt lat="48.87912" lon="2.33752">
        <ele>109.8</ele>
        <time>2013-09-03T18:20:17.113Z</time>
      </trkpt>
      <trkpt lat="48.8791" lon="2.33759">
        <ele>109.7</ele>
        <time>2013-09-03T18:20:18.113Z</time>
      </trkpt>
      <trkpt lat="48.87909" lon="2.33768">
        <ele>109.5</ele>
        <time>2013-09-03T18:20:19.113Z</time>
      </trkpt>
      <trkpt lat="48.87906" lon="2.33777">
        <ele>108.4</ele>
        <time>2013-09-03T18:20:20.114Z</time>
      </trkpt>
      <trkpt lat="48.87902" lon="2.33786">
        <ele>107.1</ele>
        <time>2013-09-03T18:20:21.112Z</time>
      </trkpt>
      <trkpt lat="48.87897" lon="2.33794">
        <ele>104.1</ele>
        <time>2013-09-03T18:20:22.111Z</time>
      </trkpt>
      <trkpt lat="48.87892" lon="2.33803">
        <ele>102.5</ele>
        <time>2013-09-03T18:20:23.112Z</time>
      </trkpt>
      <trkpt lat="48.87888" lon="2.3381">
        <ele>101.8</ele>
        <time>2013-09-03T18:20:24.137Z</time>
      </trkpt>
      <trkpt lat="48.87885" lon="2.33816">
        <ele>101.4</ele>
        <time>2013-09-03T18:20:25.116Z</time>
      </trkpt>
      <trkpt lat="48.87881" lon="2.3382">
        <ele>101</ele>
        <time>2013-09-03T18:20:26.113Z</time>
      </trkpt>
      <trkpt lat="48.87874" lon="2.33828">
        <ele>101.4</ele>
        <time>2013-09-03T18:20:28.166Z</time>
      </trkpt>
      <trkpt lat="48.8787" lon="2.3383">
        <ele>101.4</ele>
        <time>2013-09-03T18:20:29.144Z</time>
      </trkpt>
      <trkpt lat="48.87865" lon="2.33832">
        <ele>101.9</ele>
        <time>2013-09-03T18:20:30.165Z</time>
      </trkpt>
      <trkpt lat="48.87858" lon="2.33833">
        <ele>101.7</ele>
        <time>2013-09-03T18:20:31.147Z</time>
      </trkpt>
      <trkpt lat="48.87852" lon="2.33833">
        <ele>102</ele>
        <time>2013-09-03T18:20:32.180Z</time>
      </trkpt>
      <trkpt lat="48.87847" lon="2.33832">
        <ele>102.2</ele>
        <time>2013-09-03T18:20:33.148Z</time>
      </trkpt>
      <trkpt lat="48.87841" lon="2.33832">
        <ele>102.3</ele>
        <time>2013-09-03T18:20:34.126Z</time>
      </trkpt>
      <trkpt lat="48.87836" lon="2.33833">
        <ele>102.2</ele>
        <time>2013-09-03T18:20:35.157Z</time>
      </trkpt>
      <trkpt lat="48.87827" lon="2.33834">
        <ele>102.5</ele>
        <time>2013-09-03T18:20:37.114Z</time>
      </trkpt>
      <trkpt lat="48.87822" lon="2.33833">
        <ele>102.4</ele>
        <time>2013-09-03T18:20:38.112Z</time>
      </trkpt>
      <trkpt lat="48.87817" lon="2.3383">
        <ele>102.6</ele>
        <time>2013-09-03T18:20:39.116Z</time>
      </trkpt>
      <trkpt lat="48.87813" lon="2.33825">
        <ele>101.9</ele>
        <time>2013-09-03T18:20:40.105Z</time>
      </trkpt>
      <trkpt lat="48.8781" lon="2.33818">
        <ele>103.5</ele>
        <time>2013-09-03T18:20:41.110Z</time>
      </trkpt>
      <trkpt lat="48.87808" lon="2.33813">
        <ele>103.4</ele>
        <time>2013-09-03T18:20:42.109Z</time>
      </trkpt>
      <trkpt lat="48.87801" lon="2.33805">
        <ele>90.4</ele>
        <time>2013-09-03T18:20:53.117Z</time>
      </trkpt>
      <trkpt lat="48.87801" lon="2.33804">
        <ele>90.3</ele>
        <time>2013-09-03T18:20:54.109Z</time>
      </trkpt>
      <trkpt lat="48.87804" lon="2.33791">
        <ele>89.1</ele>
        <time>2013-09-03T18:21:01.108Z</time>
      </trkpt>
      <trkpt lat="48.87804" lon="2.33788">
        <ele>88.2</ele>
        <time>2013-09-03T18:21:02.107Z</time>
      </trkpt>
      <trkpt lat="48.87809" lon="2.3378">
        <ele>88</ele>
        <time>2013-09-03T18:21:05.175Z</time>
      </trkpt>
      <trkpt lat="48.87811" lon="2.33778">
        <ele>88.2</ele>
        <time>2013-09-03T18:21:06.118Z</time>
      </trkpt>
      <trkpt lat="48.87816" lon="2.33773">
        <ele>89</ele>
        <time>2013-09-03T18:21:08.129Z</time>
      </trkpt>
      <trkpt lat="48.87818" lon="2.3377">
        <ele>89.8</ele>
        <time>2013-09-03T18:21:09.123Z</time>
      </trkpt>
      <trkpt lat="48.87825" lon="2.33761">
        <ele>90.9</ele>
        <time>2013-09-03T18:21:12.136Z</time>
      </trkpt>
      <trkpt lat="48.87826" lon="2.33759">
        <ele>91.7</ele>
        <time>2013-09-03T18:21:13.136Z</time>
      </trkpt>
      <trkpt lat="48.87821" lon="2.33748">
        <ele>92.1</ele>
        <time>2013-09-03T18:21:21.116Z</time>
      </trkpt>
      <trkpt lat="48.87819" lon="2.33748">
        <ele>94.3</ele>
        <time>2013-09-03T18:21:22.110Z</time>
      </trkpt>
      <trkpt lat="48.8781" lon="2.33751">
        <ele>94.7</ele>
        <time>2013-09-03T18:21:25.119Z</time>
      </trkpt>
      <trkpt lat="48.87807" lon="2.33751">
        <ele>94.8</ele>
        <time>2013-09-03T18:21:26.143Z</time>
      </trkpt>
      <trkpt lat="48.878" lon="2.33752">
        <ele>97.4</ele>
        <time>2013-09-03T18:21:28.144Z</time>
      </trkpt>
      <trkpt lat="48.87796" lon="2.33753">
        <ele>96.7</ele>
        <time>2013-09-03T18:21:29.122Z</time>
      </trkpt>
      <trkpt lat="48.87791" lon="2.33755">
        <ele>96.3</ele>
        <time>2013-09-03T18:21:30.108Z</time>
      </trkpt>
      <trkpt lat="48.87787" lon="2.33755">
        <ele>95.8</ele>
        <time>2013-09-03T18:21:31.120Z</time>
      </trkpt>
      <trkpt lat="48.87778" lon="2.33754">
        <ele>96</ele>
        <time>2013-09-03T18:21:33.116Z</time>
      </trkpt>
      <trkpt lat="48.87774" lon="2.33753">
        <ele>96</ele>
        <time>2013-09-03T18:21:34.147Z</time>
      </trkpt>
      <trkpt lat="48.87766" lon="2.33751">
        <ele>96</ele>
        <time>2013-09-03T18:21:36.142Z</time>
      </trkpt>
      <trkpt lat="48.87763" lon="2.3375">
        <ele>95.9</ele>
        <time>2013-09-03T18:21:37.109Z</time>
      </trkpt>
      <trkpt lat="48.87759" lon="2.33748">
        <ele>96.1</ele>
        <time>2013-09-03T18:21:38.120Z</time>
      </trkpt>
      <trkpt lat="48.87754" lon="2.33745">
        <ele>95.7</ele>
        <time>2013-09-03T18:21:39.121Z</time>
      </trkpt>
      <trkpt lat="48.8775" lon="2.3374">
        <ele>96</ele>
        <time>2013-09-03T18:21:40.109Z</time>
      </trkpt>
      <trkpt lat="48.87745" lon="2.33737">
        <ele>95.9</ele>
        <time>2013-09-03T18:21:41.109Z</time>
      </trkpt>
      <trkpt lat="48.87739" lon="2.33738">
        <ele>96.1</ele>
        <time>2013-09-03T18:21:42.121Z</time>
      </trkpt>
      <trkpt lat="48.87732" lon="2.33738">
        <ele>96</ele>
        <time>2013-09-03T18:21:43.109Z</time>
      </trkpt>
      <trkpt lat="48.87725" lon="2.33738">
        <ele>96</ele>
        <time>2013-09-03T18:21:44.110Z</time>
      </trkpt>
      <trkpt lat="48.87717" lon="2.33738">
        <ele>95.9</ele>
        <time>2013-09-03T18:21:45.119Z</time>
      </trkpt>
      <trkpt lat="48.87709" lon="2.33739">
        <ele>95.9</ele>
        <time>2013-09-03T18:21:46.164Z</time>
      </trkpt>
      <trkpt lat="48.87702" lon="2.33738">
        <ele>95.4</ele>
        <time>2013-09-03T18:21:47.120Z</time>
      </trkpt>
      <trkpt lat="48.87694" lon="2.33736">
        <ele>95.9</ele>
        <time>2013-09-03T18:21:48.110Z</time>
      </trkpt>
      <trkpt lat="48.87687" lon="2.33734">
        <ele>96.6</ele>
        <time>2013-09-03T18:21:49.112Z</time>
      </trkpt>
      <trkpt lat="48.8768" lon="2.33734">
        <ele>96.6</ele>
        <time>2013-09-03T18:21:50.111Z</time>
      </trkpt>
      <trkpt lat="48.87674" lon="2.33735">
        <ele>96.6</ele>
        <time>2013-09-03T18:21:51.110Z</time>
      </trkpt>
      <trkpt lat="48.87668" lon="2.33737">
        <ele>96.8</ele>
        <time>2013-09-03T18:21:52.111Z</time>
      </trkpt>
      <trkpt lat="48.8766" lon="2.33741">
        <ele>96.9</ele>
        <time>2013-09-03T18:21:53.151Z</time>
      </trkpt>
      <trkpt lat="48.87652" lon="2.33747">
        <ele>97.2</ele>
        <time>2013-09-03T18:21:54.160Z</time>
      </trkpt>
      <trkpt lat="48.87645" lon="2.33751">
        <ele>97.2</ele>
        <time>2013-09-03T18:21:55.118Z</time>
      </trkpt>
      <trkpt lat="48.87639" lon="2.33754">
        <ele>97.2</ele>
        <time>2013-09-03T18:21:56.118Z</time>
      </trkpt>
      <trkpt lat="48.87633" lon="2.33753">
        <ele>98.1</ele>
        <time>2013-09-03T18:21:57.123Z</time>
      </trkpt>
      <trkpt lat="48.87628" lon="2.33755">
        <ele>97.9</ele>
        <time>2013-09-03T18:21:58.160Z</time>
      </trkpt>
      <trkpt lat="48.87622" lon="2.33754">
        <ele>96.5</ele>
        <time>2013-09-03T18:21:59.181Z</time>
      </trkpt>
      <trkpt lat="48.87625" lon="2.33747">
        <ele>88.6</ele>
        <time>2013-09-03T18:22:20.160Z</time>
      </trkpt>
      <trkpt lat="48.87625" lon="2.33747">
        <ele>88</ele>
        <time>2013-09-03T18:22:21.128Z</time>
      </trkpt>
      <trkpt lat="48.87626" lon="2.33746">
        <ele>87.9</ele>
        <time>2013-09-03T18:22:22.125Z</time>
      </trkpt>
      <trkpt lat="48.87621" lon="2.33753">
        <ele>87</ele>
        <time>2013-09-03T18:22:33.120Z</time>
      </trkpt>
      <trkpt lat="48.87621" lon="2.33758">
        <ele>86.1</ele>
        <time>2013-09-03T18:22:34.113Z</time>
      </trkpt>
      <trkpt lat="48.87621" lon="2.33765">
        <ele>85.1</ele>
        <time>2013-09-03T18:22:35.114Z</time>
      </trkpt>
      <trkpt lat="48.8762" lon="2.33772">
        <ele>85.5</ele>
        <time>2013-09-03T18:22:36.137Z</time>
      </trkpt>
      <trkpt lat="48.8762" lon="2.3378">
        <ele>85.5</ele>
        <time>2013-09-03T18:22:37.122Z</time>
      </trkpt>
      <trkpt lat="48.87619" lon="2.33787">
        <ele>85.3</ele>
        <time>2013-09-03T18:22:38.114Z</time>
      </trkpt>
      <trkpt lat="48.87619" lon="2.33794">
        <ele>85.3</ele>
        <time>2013-09-03T18:22:39.124Z</time>
      </trkpt>
      <trkpt lat="48.87618" lon="2.33801">
        <ele>83.2</ele>
        <time>2013-09-03T18:22:40.126Z</time>
      </trkpt>
      <trkpt lat="48.8762" lon="2.33814">
        <ele>81.8</ele>
        <time>2013-09-03T18:22:42.130Z</time>
      </trkpt>
      <trkpt lat="48.87621" lon="2.3382">
        <ele>81.1</ele>
        <time>2013-09-03T18:22:43.185Z</time>
      </trkpt>
      <trkpt lat="48.87622" lon="2.33831">
        <ele>84.2</ele>
        <time>2013-09-03T18:22:45.134Z</time>
      </trkpt>
      <trkpt lat="48.87621" lon="2.33837">
        <ele>83.8</ele>
        <time>2013-09-03T18:22:46.115Z</time>
      </trkpt>
      <trkpt lat="48.8762" lon="2.33848">
        <ele>84.6</ele>
        <time>2013-09-03T18:22:48.122Z</time>
      </trkpt>
      <trkpt lat="48.8762" lon="2.33854">
        <ele>85.1</ele>
        <time>2013-09-03T18:22:49.122Z</time>
      </trkpt>
      <trkpt lat="48.87618" lon="2.33865">
        <ele>85.1</ele>
        <time>2013-09-03T18:22:51.158Z</time>
      </trkpt>
      <trkpt lat="48.87616" lon="2.3387">
        <ele>84.2</ele>
        <time>2013-09-03T18:22:52.177Z</time>
      </trkpt>
      <trkpt lat="48.87613" lon="2.33881">
        <ele>83.2</ele>
        <time>2013-09-03T18:22:54.116Z</time>
      </trkpt>
      <trkpt lat="48.87612" lon="2.33887">
        <ele>83</ele>
        <time>2013-09-03T18:22:55.123Z</time>
      </trkpt>
      <trkpt lat="48.87611" lon="2.33899">
        <ele>83.6</ele>
        <time>2013-09-03T18:22:57.137Z</time>
      </trkpt>
      <trkpt lat="48.87611" lon="2.33905">
        <ele>82.5</ele>
        <time>2013-09-03T18:22:58.197Z</time>
      </trkpt>
      <trkpt lat="48.87612" lon="2.33917">
        <ele>84.4</ele>
        <time>2013-09-03T18:23:00.176Z</time>
      </trkpt>
      <trkpt lat="48.87612" lon="2.33924">
        <ele>83.8</ele>
        <time>2013-09-03T18:23:01.146Z</time>
      </trkpt>
      <trkpt lat="48.87612" lon="2.33931">
        <ele>83.3</ele>
        <time>2013-09-03T18:23:02.119Z</time>
      </trkpt>
      <trkpt lat="48.87612" lon="2.33938">
        <ele>83.3</ele>
        <time>2013-09-03T18:23:03.124Z</time>
      </trkpt>
      <trkpt lat="48.87612" lon="2.33945">
        <ele>82</ele>
        <time>2013-09-03T18:23:04.237Z</time>
      </trkpt>
      <trkpt lat="48.87612" lon="2.33952">
        <ele>82</ele>
        <time>2013-09-03T18:23:05.123Z</time>
      </trkpt>
      <trkpt lat="48.87612" lon="2.33963">
        <ele>83.2</ele>
        <time>2013-09-03T18:23:07.203Z</time>
      </trkpt>
      <trkpt lat="48.87611" lon="2.33969">
        <ele>83.8</ele>
        <time>2013-09-03T18:23:08.164Z</time>
      </trkpt>
      <trkpt lat="48.87611" lon="2.33979">
        <ele>81.4</ele>
        <time>2013-09-03T18:23:10.209Z</time>
      </trkpt>
      <trkpt lat="48.87611" lon="2.33984">
        <ele>81.9</ele>
        <time>2013-09-03T18:23:11.116Z</time>
      </trkpt>
      <trkpt lat="48.87612" lon="2.33994">
        <ele>84.5</ele>
        <time>2013-09-03T18:23:13.116Z</time>
      </trkpt>
      <trkpt lat="48.87612" lon="2.34">
        <ele>84.6</ele>
        <time>2013-09-03T18:23:14.116Z</time>
      </trkpt>
      <trkpt lat="48.8761" lon="2.34012">
        <ele>85.7</ele>
        <time>2013-09-03T18:23:16.124Z</time>
      </trkpt>
      <trkpt lat="48.87608" lon="2.34018">
        <ele>85.3</ele>
        <time>2013-09-03T18:23:17.126Z</time>
      </trkpt>
      <trkpt lat="48.87607" lon="2.34026">
        <ele>85.7</ele>
        <time>2013-09-03T18:23:18.119Z</time>
      </trkpt>
      <trkpt lat="48.87605" lon="2.34033">
        <ele>87.7</ele>
        <time>2013-09-03T18:23:19.118Z</time>
      </trkpt>
      <trkpt lat="48.87603" lon="2.3404">
        <ele>88.3</ele>
        <time>2013-09-03T18:23:20.120Z</time>
      </trkpt>
      <trkpt lat="48.87602" lon="2.34047">
        <ele>88.9</ele>
        <time>2013-09-03T18:23:21.117Z</time>
      </trkpt>
      <trkpt lat="48.876" lon="2.3406">
        <ele>89.6</ele>
        <time>2013-09-03T18:23:23.146Z</time>
      </trkpt>
      <trkpt lat="48.87599" lon="2.34065">
        <ele>90</ele>
        <time>2013-09-03T18:23:24.160Z</time>
      </trkpt>
      <trkpt lat="48.87597" lon="2.34076">
        <ele>88.9</ele>
        <time>2013-09-03T18:23:26.172Z</time>
      </trkpt>
      <trkpt lat="48.87596" lon="2.34081">
        <ele>89.2</ele>
        <time>2013-09-03T18:23:27.133Z</time>
      </trkpt>
      <trkpt lat="48.87594" lon="2.34091">
        <ele>90</ele>
        <time>2013-09-03T18:23:29.157Z</time>
      </trkpt>
      <trkpt lat="48.87593" lon="2.34096">
        <ele>91.2</ele>
        <time>2013-09-03T18:23:30.145Z</time>
      </trkpt>
      <trkpt lat="48.87594" lon="2.34106">
        <ele>88.1</ele>
        <time>2013-09-03T18:23:33.177Z</time>
      </trkpt>
      <trkpt lat="48.87595" lon="2.3411">
        <ele>87</ele>
        <time>2013-09-03T18:23:34.156Z</time>
      </trkpt>
      <trkpt lat="48.87594" lon="2.34124">
        <ele>88.7</ele>
        <time>2013-09-03T18:23:37.166Z</time>
      </trkpt>
      <trkpt lat="48.87594" lon="2.34128">
        <ele>90.2</ele>
        <time>2013-09-03T18:23:38.167Z</time>
      </trkpt>
      <trkpt lat="48.87593" lon="2.34139">
        <ele>90.2</ele>
        <time>2013-09-03T18:23:40.224Z</time>
      </trkpt>
      <trkpt lat="48.87593" lon="2.34145">
        <ele>88.7</ele>
        <time>2013-09-03T18:23:41.154Z</time>
      </trkpt>
      <trkpt lat="48.87592" lon="2.34157">
        <ele>88</ele>
        <time>2013-09-03T18:23:43.128Z</time>
      </trkpt>
      <trkpt lat="48.87593" lon="2.34161">
        <ele>88.6</ele>
        <time>2013-09-03T18:23:44.129Z</time>
      </trkpt>
      <trkpt lat="48.87592" lon="2.34175">
        <ele>86.5</ele>
        <time>2013-09-03T18:23:49.141Z</time>
      </trkpt>
      <trkpt lat="48.8759" lon="2.34175">
        <ele>86.5</ele>
        <time>2013-09-03T18:23:50.129Z</time>
      </trkpt>
      <trkpt lat="48.87583" lon="2.34171">
        <ele>86.3</ele>
        <time>2013-09-03T18:23:53.128Z</time>
      </trkpt>
      <trkpt lat="48.8758" lon="2.34169">
        <ele>86.3</ele>
        <time>2013-09-03T18:23:54.187Z</time>
      </trkpt>
      <trkpt lat="48.87573" lon="2.34162">
        <ele>85.9</ele>
        <time>2013-09-03T18:23:57.146Z</time>
      </trkpt>
      <trkpt lat="48.87572" lon="2.34161">
        <ele>85.3</ele>
        <time>2013-09-03T18:23:58.129Z</time>
      </trkpt>
      <trkpt lat="48.87571" lon="2.3417">
        <ele>81.2</ele>
        <time>2013-09-03T18:24:01.121Z</time>
      </trkpt>
      <trkpt lat="48.87571" lon="2.34176">
        <ele>80.7</ele>
        <time>2013-09-03T18:24:02.127Z</time>
      </trkpt>
      <trkpt lat="48.87574" lon="2.34188">
        <ele>78.9</ele>
        <time>2013-09-03T18:24:04.121Z</time>
      </trkpt>
      <trkpt lat="48.87576" lon="2.34194">
        <ele>79</ele>
        <time>2013-09-03T18:24:05.121Z</time>
      </trkpt>
      <trkpt lat="48.87578" lon="2.34201">
        <ele>79.7</ele>
        <time>2013-09-03T18:24:06.120Z</time>
      </trkpt>
      <trkpt lat="48.8758" lon="2.34208">
        <ele>79.7</ele>
        <time>2013-09-03T18:24:07.130Z</time>
      </trkpt>
      <trkpt lat="48.87582" lon="2.34215">
        <ele>78.7</ele>
        <time>2013-09-03T18:24:08.123Z</time>
      </trkpt>
      <trkpt lat="48.87582" lon="2.34226">
        <ele>77.5</ele>
        <time>2013-09-03T18:24:09.120Z</time>
      </trkpt>
      <trkpt lat="48.87583" lon="2.34235">
        <ele>76.9</ele>
        <time>2013-09-03T18:24:10.154Z</time>
      </trkpt>
      <trkpt lat="48.87584" lon="2.34243">
        <ele>77.8</ele>
        <time>2013-09-03T18:24:11.201Z</time>
      </trkpt>
      <trkpt lat="48.87586" lon="2.34254">
        <ele>77.2</ele>
        <time>2013-09-03T18:24:13.137Z</time>
      </trkpt>
      <trkpt lat="48.87587" lon="2.34259">
        <ele>76.8</ele>
        <time>2013-09-03T18:24:14.129Z</time>
      </trkpt>
      <trkpt lat="48.8759" lon="2.34272">
        <ele>76.3</ele>
        <time>2013-09-03T18:24:17.135Z</time>
      </trkpt>
      <trkpt lat="48.8759" lon="2.34277">
        <ele>76.3</ele>
        <time>2013-09-03T18:24:18.169Z</time>
      </trkpt>
      <trkpt lat="48.87588" lon="2.34288">
        <ele>79.2</ele>
        <time>2013-09-03T18:24:20.177Z</time>
      </trkpt>
      <trkpt lat="48.87588" lon="2.34293">
        <ele>80.7</ele>
        <time>2013-09-03T18:24:21.150Z</time>
      </trkpt>
      <trkpt lat="48.87587" lon="2.34306">
        <ele>86.3</ele>
        <time>2013-09-03T18:24:23.132Z</time>
      </trkpt>
      <trkpt lat="48.87587" lon="2.34313">
        <ele>85.6</ele>
        <time>2013-09-03T18:24:24.134Z</time>
      </trkpt>
      <trkpt lat="48.87588" lon="2.34319">
        <ele>85.7</ele>
        <time>2013-09-03T18:24:25.134Z</time>
      </trkpt>
      <trkpt lat="48.87589" lon="2.34326">
        <ele>84.8</ele>
        <time>2013-09-03T18:24:26.219Z</time>
      </trkpt>
      <trkpt lat="48.87593" lon="2.34338">
        <ele>86.7</ele>
        <time>2013-09-03T18:24:28.189Z</time>
      </trkpt>
      <trkpt lat="48.87595" lon="2.34343">
        <ele>85.7</ele>
        <time>2013-09-03T18:24:29.146Z</time>
      </trkpt>
      <trkpt lat="48.87599" lon="2.34355">
        <ele>85</ele>
        <time>2013-09-03T18:24:31.146Z</time>
      </trkpt>
      <trkpt lat="48.87601" lon="2.34361">
        <ele>84.7</ele>
        <time>2013-09-03T18:24:32.131Z</time>
      </trkpt>
      <trkpt lat="48.87603" lon="2.34367">
        <ele>85.4</ele>
        <time>2013-09-03T18:24:33.130Z</time>
      </trkpt>
      <trkpt lat="48.87605" lon="2.34374">
        <ele>86.6</ele>
        <time>2013-09-03T18:24:34.208Z</time>
      </trkpt>
      <trkpt lat="48.87609" lon="2.34385">
        <ele>85.7</ele>
        <time>2013-09-03T18:24:36.178Z</time>
      </trkpt>
      <trkpt lat="48.87611" lon="2.3439">
        <ele>85.5</ele>
        <time>2013-09-03T18:24:37.155Z</time>
      </trkpt>
      <trkpt lat="48.87614" lon="2.34401">
        <ele>85.9</ele>
        <time>2013-09-03T18:24:39.130Z</time>
      </trkpt>
      <trkpt lat="48.87614" lon="2.34407">
        <ele>85.2</ele>
        <time>2013-09-03T18:24:40.132Z</time>
      </trkpt>
      <trkpt lat="48.8761" lon="2.34417">
        <ele>84.7</ele>
        <time>2013-09-03T18:24:41.132Z</time>
      </trkpt>
      <trkpt lat="48.87609" lon="2.34427">
        <ele>82.2</ele>
        <time>2013-09-03T18:24:42.189Z</time>
      </trkpt>
      <trkpt lat="48.87609" lon="2.34435">
        <ele>81.9</ele>
        <time>2013-09-03T18:24:43.206Z</time>
      </trkpt>
      <trkpt lat="48.87613" lon="2.34444">
        <ele>80.9</ele>
        <time>2013-09-03T18:24:44.195Z</time>
      </trkpt>
      <trkpt lat="48.87616" lon="2.34452">
        <ele>80.6</ele>
        <time>2013-09-03T18:24:45.215Z</time>
      </trkpt>
      <trkpt lat="48.8762" lon="2.34459">
        <ele>79.9</ele>
        <time>2013-09-03T18:24:46.178Z</time>
      </trkpt>
      <trkpt lat="48.87626" lon="2.34469">
        <ele>82.5</ele>
        <time>2013-09-03T18:24:48.131Z</time>
      </trkpt>
      <trkpt lat="48.87628" lon="2.34471">
        <ele>82.2</ele>
        <time>2013-09-03T18:24:49.138Z</time>
      </trkpt>
      <trkpt lat="48.87631" lon="2.34483">
        <ele>84.1</ele>
        <time>2013-09-03T18:24:54.131Z</time>
      </trkpt>
      <trkpt lat="48.8763" lon="2.34487">
        <ele>84.9</ele>
        <time>2013-09-03T18:24:55.154Z</time>
      </trkpt>
      <trkpt lat="48.87627" lon="2.34499">
        <ele>87.4</ele>
        <time>2013-09-03T18:24:58.197Z</time>
      </trkpt>
      <trkpt lat="48.87626" lon="2.34503">
        <ele>86.6</ele>
        <time>2013-09-03T18:24:59.212Z</time>
      </trkpt>
      <trkpt lat="48.87623" lon="2.34513">
        <ele>88.7</ele>
        <time>2013-09-03T18:25:01.187Z</time>
      </trkpt>
      <trkpt lat="48.87623" lon="2.34518">
        <ele>89.8</ele>
        <time>2013-09-03T18:25:02.165Z</time>
      </trkpt>
      <trkpt lat="48.87622" lon="2.34531">
        <ele>91.8</ele>
        <time>2013-09-03T18:25:04.168Z</time>
      </trkpt>
      <trkpt lat="48.87621" lon="2.34539">
        <ele>92.6</ele>
        <time>2013-09-03T18:25:05.215Z</time>
      </trkpt>
      <trkpt lat="48.87621" lon="2.34547">
        <ele>92.9</ele>
        <time>2013-09-03T18:25:06.190Z</time>
      </trkpt>
      <trkpt lat="48.8762" lon="2.34555">
        <ele>92.9</ele>
        <time>2013-09-03T18:25:07.216Z</time>
      </trkpt>
      <trkpt lat="48.87619" lon="2.34562">
        <ele>93.2</ele>
        <time>2013-09-03T18:25:08.180Z</time>
      </trkpt>
      <trkpt lat="48.87618" lon="2.3457">
        <ele>93.2</ele>
        <time>2013-09-03T18:25:09.132Z</time>
      </trkpt>
      <trkpt lat="48.87618" lon="2.34577">
        <ele>93.2</ele>
        <time>2013-09-03T18:25:10.132Z</time>
      </trkpt>
      <trkpt lat="48.87617" lon="2.34584">
        <ele>93.9</ele>
        <time>2013-09-03T18:25:11.126Z</time>
      </trkpt>
      <trkpt lat="48.87616" lon="2.34591">
        <ele>94.5</ele>
        <time>2013-09-03T18:25:12.125Z</time>
      </trkpt>
      <trkpt lat="48.87616" lon="2.34598">
        <ele>94.4</ele>
        <time>2013-09-03T18:25:13.127Z</time>
      </trkpt>
      <trkpt lat="48.87614" lon="2.34608">
        <ele>94.6</ele>
        <time>2013-09-03T18:25:14.127Z</time>
      </trkpt>
      <trkpt lat="48.87612" lon="2.34617">
        <ele>94.7</ele>
        <time>2013-09-03T18:25:15.129Z</time>
      </trkpt>
      <trkpt lat="48.8761" lon="2.34626">
        <ele>94.7</ele>
        <time>2013-09-03T18:25:16.130Z</time>
      </trkpt>
      <trkpt lat="48.87609" lon="2.34634">
        <ele>94.8</ele>
        <time>2013-09-03T18:25:17.150Z</time>
      </trkpt>
      <trkpt lat="48.87608" lon="2.34643">
        <ele>95.1</ele>
        <time>2013-09-03T18:25:18.128Z</time>
      </trkpt>
      <trkpt lat="48.87607" lon="2.34651">
        <ele>95.1</ele>
        <time>2013-09-03T18:25:19.137Z</time>
      </trkpt>
      <trkpt lat="48.87605" lon="2.34662">
        <ele>94.8</ele>
        <time>2013-09-03T18:25:21.125Z</time>
      </trkpt>
      <trkpt lat="48.87605" lon="2.34667">
        <ele>94.2</ele>
        <time>2013-09-03T18:25:22.177Z</time>
      </trkpt>
      <trkpt lat="48.87604" lon="2.34677">
        <ele>93.9</ele>
        <time>2013-09-03T18:25:24.168Z</time>
      </trkpt>
      <trkpt lat="48.87603" lon="2.34681">
        <ele>93.3</ele>
        <time>2013-09-03T18:25:25.135Z</time>
      </trkpt>
      <trkpt lat="48.87601" lon="2.34693">
        <ele>93.7</ele>
        <time>2013-09-03T18:25:27.215Z</time>
      </trkpt>
      <trkpt lat="48.87601" lon="2.347">
        <ele>94.2</ele>
        <time>2013-09-03T18:25:28.216Z</time>
      </trkpt>
      <trkpt lat="48.87597" lon="2.34711">
        <ele>95</ele>
        <time>2013-09-03T18:25:30.140Z</time>
      </trkpt>
      <trkpt lat="48.87596" lon="2.34719">
        <ele>95.5</ele>
        <time>2013-09-03T18:25:31.173Z</time>
      </trkpt>
      <trkpt lat="48.87595" lon="2.34727">
        <ele>94.5</ele>
        <time>2013-09-03T18:25:32.135Z</time>
      </trkpt>
      <trkpt lat="48.87594" lon="2.34734">
        <ele>94.6</ele>
        <time>2013-09-03T18:25:33.140Z</time>
      </trkpt>
      <trkpt lat="48.87593" lon="2.34741">
        <ele>94.5</ele>
        <time>2013-09-03T18:25:34.167Z</time>
      </trkpt>
      <trkpt lat="48.87592" lon="2.34748">
        <ele>95.3</ele>
        <time>2013-09-03T18:25:35.190Z</time>
      </trkpt>
      <trkpt lat="48.87589" lon="2.34757">
        <ele>95.7</ele>
        <time>2013-09-03T18:25:37.175Z</time>
      </trkpt>
      <trkpt lat="48.87587" lon="2.3476">
        <ele>95.5</ele>
        <time>2013-09-03T18:25:38.147Z</time>
      </trkpt>
      <trkpt lat="48.87582" lon="2.34769">
        <ele>93.6</ele>
        <time>2013-09-03T18:25:42.199Z</time>
      </trkpt>
      <trkpt lat="48.87582" lon="2.34773">
        <ele>93.2</ele>
        <time>2013-09-03T18:25:43.248Z</time>
      </trkpt>
      <trkpt lat="48.87582" lon="2.34785">
        <ele>90.6</ele>
        <time>2013-09-03T18:25:46.175Z</time>
      </trkpt>
      <trkpt lat="48.87582" lon="2.34789">
        <ele>90.5</ele>
        <time>2013-09-03T18:25:47.174Z</time>
      </trkpt>
      <trkpt lat="48.87585" lon="2.34802">
        <ele>92</ele>
        <time>2013-09-03T18:26:03.165Z</time>
      </trkpt>
      <trkpt lat="48.87585" lon="2.34802">
        <ele>92.6</ele>
        <time>2013-09-03T18:26:04.186Z</time>
      </trkpt>
      <trkpt lat="48.87584" lon="2.34802">
        <ele>93.1</ele>
        <time>2013-09-03T18:26:06.226Z</time>
      </trkpt>
      <trkpt lat="48.87584" lon="2.34803">
        <ele>93</ele>
        <time>2013-09-03T18:26:07.244Z</time>
      </trkpt>
      <trkpt lat="48.87583" lon="2.34803">
        <ele>92.9</ele>
        <time>2013-09-03T18:26:08.214Z</time>
      </trkpt>
      <trkpt lat="48.87582" lon="2.34804">
        <ele>92.3</ele>
        <time>2013-09-03T18:26:13.129Z</time>
      </trkpt>
      <trkpt lat="48.87582" lon="2.34804">
        <ele>92.3</ele>
        <time>2013-09-03T18:26:14.156Z</time>
      </trkpt>
      <trkpt lat="48.87582" lon="2.34805">
        <ele>92.7</ele>
        <time>2013-09-03T18:26:21.186Z</time>
      </trkpt>
      <trkpt lat="48.87581" lon="2.34805">
        <ele>92.9</ele>
        <time>2013-09-03T18:26:22.247Z</time>
      </trkpt>
      <trkpt lat="48.87581" lon="2.34806">
        <ele>92.8</ele>
        <time>2013-09-03T18:26:23.227Z</time>
      </trkpt>
      <trkpt lat="48.87581" lon="2.34806">
        <ele>92.9</ele>
        <time>2013-09-03T18:26:24.221Z</time>
      </trkpt>
      <trkpt lat="48.87581" lon="2.34806">
        <ele>92.9</ele>
        <time>2013-09-03T18:27:08.207Z</time>
      </trkpt>
      <trkpt lat="48.87579" lon="2.34807">
        <ele>91.4</ele>
        <time>2013-09-03T18:27:09.207Z</time>
      </trkpt>
      <trkpt lat="48.87573" lon="2.34809">
        <ele>91.6</ele>
        <time>2013-09-03T18:27:11.265Z</time>
      </trkpt>
      <trkpt lat="48.87568" lon="2.34811">
        <ele>93.8</ele>
        <time>2013-09-03T18:27:12.195Z</time>
      </trkpt>
      <trkpt lat="48.87562" lon="2.34812">
        <ele>94.9</ele>
        <time>2013-09-03T18:27:13.233Z</time>
      </trkpt>
      <trkpt lat="48.87553" lon="2.34814">
        <ele>97.1</ele>
        <time>2013-09-03T18:27:14.154Z</time>
      </trkpt>
      <trkpt lat="48.87545" lon="2.34816">
        <ele>97</ele>
        <time>2013-09-03T18:27:15.177Z</time>
      </trkpt>
      <trkpt lat="48.87537" lon="2.34816">
        <ele>98.5</ele>
        <time>2013-09-03T18:27:16.176Z</time>
      </trkpt>
      <trkpt lat="48.87531" lon="2.34815">
        <ele>99.7</ele>
        <time>2013-09-03T18:27:17.174Z</time>
      </trkpt>
      <trkpt lat="48.87525" lon="2.34815">
        <ele>100.2</ele>
        <time>2013-09-03T18:27:18.255Z</time>
      </trkpt>
      <trkpt lat="48.87519" lon="2.34814">
        <ele>100</ele>
        <time>2013-09-03T18:27:19.240Z</time>
      </trkpt>
      <trkpt lat="48.87513" lon="2.34813">
        <ele>99.5</ele>
        <time>2013-09-03T18:27:20.205Z</time>
      </trkpt>
      <trkpt lat="48.87507" lon="2.34811">
        <ele>100.7</ele>
        <time>2013-09-03T18:27:21.207Z</time>
      </trkpt>
      <trkpt lat="48.87501" lon="2.34808">
        <ele>99.8</ele>
        <time>2013-09-03T18:27:22.166Z</time>
      </trkpt>
      <trkpt lat="48.87494" lon="2.34807">
        <ele>100</ele>
        <time>2013-09-03T18:27:23.195Z</time>
      </trkpt>
      <trkpt lat="48.87488" lon="2.34806">
        <ele>100.8</ele>
        <time>2013-09-03T18:27:24.174Z</time>
      </trkpt>
      <trkpt lat="48.87481" lon="2.34806">
        <ele>99.9</ele>
        <time>2013-09-03T18:27:25.155Z</time>
      </trkpt>
      <trkpt lat="48.87474" lon="2.34806">
        <ele>98.1</ele>
        <time>2013-09-03T18:27:26.225Z</time>
      </trkpt>
      <trkpt lat="48.87468" lon="2.34806">
        <ele>98.4</ele>
        <time>2013-09-03T18:27:27.223Z</time>
      </trkpt>
      <trkpt lat="48.87463" lon="2.34806">
        <ele>98.5</ele>
        <time>2013-09-03T18:27:28.215Z</time>
      </trkpt>
      <trkpt lat="48.87458" lon="2.34806">
        <ele>99.4</ele>
        <time>2013-09-03T18:27:29.156Z</time>
      </trkpt>
      <trkpt lat="48.87453" lon="2.34805">
        <ele>101.2</ele>
        <time>2013-09-03T18:27:30.175Z</time>
      </trkpt>
      <trkpt lat="48.87449" lon="2.34804">
        <ele>103.8</ele>
        <time>2013-09-03T18:27:31.174Z</time>
      </trkpt>
      <trkpt lat="48.87444" lon="2.34804">
        <ele>106.7</ele>
        <time>2013-09-03T18:27:32.155Z</time>
      </trkpt>
      <trkpt lat="48.87439" lon="2.34805">
        <ele>107.4</ele>
        <time>2013-09-03T18:27:33.185Z</time>
      </trkpt>
      <trkpt lat="48.87434" lon="2.34806">
        <ele>107</ele>
        <time>2013-09-03T18:27:34.296Z</time>
      </trkpt>
      <trkpt lat="48.87425" lon="2.34805">
        <ele>107.9</ele>
        <time>2013-09-03T18:27:37.185Z</time>
      </trkpt>
      <trkpt lat="48.87424" lon="2.34805">
        <ele>108.6</ele>
        <time>2013-09-03T18:27:38.175Z</time>
      </trkpt>
      <trkpt lat="48.87421" lon="2.34817">
        <ele>108.5</ele>
        <time>2013-09-03T18:27:47.218Z</time>
      </trkpt>
      <trkpt lat="48.8742" lon="2.34822">
        <ele>108.6</ele>
        <time>2013-09-03T18:27:48.165Z</time>
      </trkpt>
      <trkpt lat="48.87419" lon="2.34833">
        <ele>108</ele>
        <time>2013-09-03T18:27:50.258Z</time>
      </trkpt>
      <trkpt lat="48.87418" lon="2.3484">
        <ele>108.1</ele>
        <time>2013-09-03T18:27:51.272Z</time>
      </trkpt>
      <trkpt lat="48.87417" lon="2.34853">
        <ele>106.9</ele>
        <time>2013-09-03T18:27:53.215Z</time>
      </trkpt>
      <trkpt lat="48.87416" lon="2.3486">
        <ele>106.5</ele>
        <time>2013-09-03T18:27:54.165Z</time>
      </trkpt>
      <trkpt lat="48.87414" lon="2.34873">
        <ele>105.2</ele>
        <time>2013-09-03T18:27:56.185Z</time>
      </trkpt>
      <trkpt lat="48.87413" lon="2.34879">
        <ele>105</ele>
        <time>2013-09-03T18:27:57.186Z</time>
      </trkpt>
      <trkpt lat="48.87412" lon="2.34891">
        <ele>106.2</ele>
        <time>2013-09-03T18:27:59.204Z</time>
      </trkpt>
      <trkpt lat="48.87413" lon="2.34896">
        <ele>104.5</ele>
        <time>2013-09-03T18:28:00.146Z</time>
      </trkpt>
      <trkpt lat="48.87413" lon="2.34907">
        <ele>104</ele>
        <time>2013-09-03T18:28:02.236Z</time>
      </trkpt>
      <trkpt lat="48.87413" lon="2.34913">
        <ele>103.4</ele>
        <time>2013-09-03T18:28:03.245Z</time>
      </trkpt>
      <trkpt lat="48.87414" lon="2.34924">
        <ele>102.3</ele>
        <time>2013-09-03T18:28:05.216Z</time>
      </trkpt>
      <trkpt lat="48.87414" lon="2.34929">
        <ele>102.4</ele>
        <time>2013-09-03T18:28:06.196Z</time>
      </trkpt>
      <trkpt lat="48.87413" lon="2.34942">
        <ele>102.9</ele>
        <time>2013-09-03T18:28:08.198Z</time>
      </trkpt>
      <trkpt lat="48.87412" lon="2.34948">
        <ele>104.5</ele>
        <time>2013-09-03T18:28:09.179Z</time>
      </trkpt>
      <trkpt lat="48.8741" lon="2.34959">
        <ele>104.2</ele>
        <time>2013-09-03T18:28:11.267Z</time>
      </trkpt>
      <trkpt lat="48.8741" lon="2.34965">
        <ele>104.8</ele>
        <time>2013-09-03T18:28:12.270Z</time>
      </trkpt>
      <trkpt lat="48.87408" lon="2.34977">
        <ele>106.5</ele>
        <time>2013-09-03T18:28:14.205Z</time>
      </trkpt>
      <trkpt lat="48.87406" lon="2.34983">
        <ele>107.1</ele>
        <time>2013-09-03T18:28:15.176Z</time>
      </trkpt>
      <trkpt lat="48.87404" lon="2.34995">
        <ele>107</ele>
        <time>2013-09-03T18:28:17.184Z</time>
      </trkpt>
      <trkpt lat="48.87402" lon="2.35001">
        <ele>106.9</ele>
        <time>2013-09-03T18:28:18.255Z</time>
      </trkpt>
      <trkpt lat="48.87399" lon="2.35011">
        <ele>99</ele>
        <time>2013-09-03T18:28:20.215Z</time>
      </trkpt>
      <trkpt lat="48.87397" lon="2.35017">
        <ele>97.5</ele>
        <time>2013-09-03T18:28:21.184Z</time>
      </trkpt>
      <trkpt lat="48.87393" lon="2.35028">
        <ele>96.1</ele>
        <time>2013-09-03T18:28:23.182Z</time>
      </trkpt>
      <trkpt lat="48.87392" lon="2.35034">
        <ele>96.4</ele>
        <time>2013-09-03T18:28:24.195Z</time>
      </trkpt>
      <trkpt lat="48.87391" lon="2.35046">
        <ele>96.6</ele>
        <time>2013-09-03T18:28:26.275Z</time>
      </trkpt>
      <trkpt lat="48.87391" lon="2.35053">
        <ele>96</ele>
        <time>2013-09-03T18:28:27.269Z</time>
      </trkpt>
      <trkpt lat="48.87391" lon="2.35059">
        <ele>95.2</ele>
        <time>2013-09-03T18:28:28.184Z</time>
      </trkpt>
      <trkpt lat="48.87391" lon="2.35067">
        <ele>95.1</ele>
        <time>2013-09-03T18:28:29.165Z</time>
      </trkpt>
      <trkpt lat="48.87391" lon="2.35075">
        <ele>95.1</ele>
        <time>2013-09-03T18:28:30.186Z</time>
      </trkpt>
      <trkpt lat="48.87392" lon="2.35086">
        <ele>95.2</ele>
        <time>2013-09-03T18:28:31.165Z</time>
      </trkpt>
      <trkpt lat="48.87391" lon="2.35096">
        <ele>94.9</ele>
        <time>2013-09-03T18:28:32.176Z</time>
      </trkpt>
      <trkpt lat="48.87391" lon="2.35105">
        <ele>94.6</ele>
        <time>2013-09-03T18:28:33.187Z</time>
      </trkpt>
      <trkpt lat="48.87391" lon="2.35112">
        <ele>94.9</ele>
        <time>2013-09-03T18:28:34.201Z</time>
      </trkpt>
      <trkpt lat="48.8739" lon="2.35119">
        <ele>95.2</ele>
        <time>2013-09-03T18:28:35.184Z</time>
      </trkpt>
      <trkpt lat="48.87389" lon="2.35132">
        <ele>96.9</ele>
        <time>2013-09-03T18:28:37.187Z</time>
      </trkpt>
      <trkpt lat="48.87388" lon="2.35138">
        <ele>96.7</ele>
        <time>2013-09-03T18:28:38.186Z</time>
      </trkpt>
      <trkpt lat="48.87385" lon="2.35149">
        <ele>97.7</ele>
        <time>2013-09-03T18:28:40.186Z</time>
      </trkpt>
      <trkpt lat="48.87384" lon="2.35155">
        <ele>96.8</ele>
        <time>2013-09-03T18:28:41.166Z</time>
      </trkpt>
      <trkpt lat="48.87382" lon="2.35168">
        <ele>96.3</ele>
        <time>2013-09-03T18:28:43.215Z</time>
      </trkpt>
      <trkpt lat="48.87382" lon="2.35173">
        <ele>96.3</ele>
        <time>2013-09-03T18:28:44.151Z</time>
      </trkpt>
      <trkpt lat="48.87379" lon="2.35183">
        <ele>97</ele>
        <time>2013-09-03T18:28:46.196Z</time>
      </trkpt>
      <trkpt lat="48.87378" lon="2.35188">
        <ele>96.9</ele>
        <time>2013-09-03T18:28:47.176Z</time>
      </trkpt>
      <trkpt lat="48.87376" lon="2.35199">
        <ele>96.5</ele>
        <time>2013-09-03T18:28:49.244Z</time>
      </trkpt>
      <trkpt lat="48.87375" lon="2.35203">
        <ele>97.8</ele>
        <time>2013-09-03T18:28:50.207Z</time>
      </trkpt>
      <trkpt lat="48.87374" lon="2.35211">
        <ele>98.2</ele>
        <time>2013-09-03T18:28:52.175Z</time>
      </trkpt>
      <trkpt lat="48.87372" lon="2.35216">
        <ele>97.6</ele>
        <time>2013-09-03T18:28:53.265Z</time>
      </trkpt>
      <trkpt lat="48.87367" lon="2.35227">
        <ele>97.7</ele>
        <time>2013-09-03T18:28:56.277Z</time>
      </trkpt>
      <trkpt lat="48.87367" lon="2.35231">
        <ele>98.4</ele>
        <time>2013-09-03T18:28:57.236Z</time>
      </trkpt>
      <trkpt lat="48.87364" lon="2.35242">
        <ele>99.7</ele>
        <time>2013-09-03T18:29:00.326Z</time>
      </trkpt>
      <trkpt lat="48.87363" lon="2.35245">
        <ele>100.2</ele>
        <time>2013-09-03T18:29:01.205Z</time>
      </trkpt>
      <trkpt lat="48.87357" lon="2.35254">
        <ele>100.5</ele>
        <time>2013-09-03T18:29:04.285Z</time>
      </trkpt>
      <trkpt lat="48.87355" lon="2.35257">
        <ele>99.6</ele>
        <time>2013-09-03T18:29:05.314Z</time>
      </trkpt>
      <trkpt lat="48.87348" lon="2.35264">
        <ele>96.4</ele>
        <time>2013-09-03T18:29:07.324Z</time>
      </trkpt>
      <trkpt lat="48.87345" lon="2.35269">
        <ele>94.4</ele>
        <time>2013-09-03T18:29:08.152Z</time>
      </trkpt>
      <trkpt lat="48.8734" lon="2.35275">
        <ele>94.9</ele>
        <time>2013-09-03T18:29:09.305Z</time>
      </trkpt>
      <trkpt lat="48.87336" lon="2.3528">
        <ele>94.6</ele>
        <time>2013-09-03T18:29:10.185Z</time>
      </trkpt>
      <trkpt lat="48.87332" lon="2.35286">
        <ele>95.7</ele>
        <time>2013-09-03T18:29:11.327Z</time>
      </trkpt>
      <trkpt lat="48.8733" lon="2.35292">
        <ele>96.3</ele>
        <time>2013-09-03T18:29:12.306Z</time>
      </trkpt>
      <trkpt lat="48.87328" lon="2.35303">
        <ele>94.7</ele>
        <time>2013-09-03T18:29:14.305Z</time>
      </trkpt>
      <trkpt lat="48.87327" lon="2.35308">
        <ele>94.8</ele>
        <time>2013-09-03T18:29:15.206Z</time>
      </trkpt>
      <trkpt lat="48.87325" lon="2.35319">
        <ele>95.1</ele>
        <time>2013-09-03T18:29:17.198Z</time>
      </trkpt>
      <trkpt lat="48.87324" lon="2.35325">
        <ele>95.1</ele>
        <time>2013-09-03T18:29:18.249Z</time>
      </trkpt>
      <trkpt lat="48.87322" lon="2.35336">
        <ele>95.9</ele>
        <time>2013-09-03T18:29:20.287Z</time>
      </trkpt>
      <trkpt lat="48.8732" lon="2.35342">
        <ele>97</ele>
        <time>2013-09-03T18:29:21.285Z</time>
      </trkpt>
      <trkpt lat="48.87318" lon="2.35352">
        <ele>96.7</ele>
        <time>2013-09-03T18:29:23.311Z</time>
      </trkpt>
      <trkpt lat="48.87317" lon="2.35356">
        <ele>96.5</ele>
        <time>2013-09-03T18:29:24.185Z</time>
      </trkpt>
      <trkpt lat="48.87314" lon="2.35365">
        <ele>97.7</ele>
        <time>2013-09-03T18:29:26.177Z</time>
      </trkpt>
      <trkpt lat="48.87312" lon="2.35371">
        <ele>96.1</ele>
        <time>2013-09-03T18:29:27.286Z</time>
      </trkpt>
      <trkpt lat="48.87307" lon="2.35382">
        <ele>90.9</ele>
        <time>2013-09-03T18:29:29.257Z</time>
      </trkpt>
      <trkpt lat="48.87304" lon="2.35388">
        <ele>86.3</ele>
        <time>2013-09-03T18:29:30.285Z</time>
      </trkpt>
      <trkpt lat="48.87302" lon="2.35394">
        <ele>86</ele>
        <time>2013-09-03T18:29:31.215Z</time>
      </trkpt>
      <trkpt lat="48.873" lon="2.354">
        <ele>86.8</ele>
        <time>2013-09-03T18:29:32.342Z</time>
      </trkpt>
      <trkpt lat="48.87298" lon="2.35412">
        <ele>88</ele>
        <time>2013-09-03T18:29:35.245Z</time>
      </trkpt>
      <trkpt lat="48.87299" lon="2.35415">
        <ele>87.3</ele>
        <time>2013-09-03T18:29:36.275Z</time>
      </trkpt>
      <trkpt lat="48.87299" lon="2.35428">
        <ele>92.3</ele>
        <time>2013-09-03T18:29:45.255Z</time>
      </trkpt>
      <trkpt lat="48.87298" lon="2.3543">
        <ele>94.8</ele>
        <time>2013-09-03T18:29:46.327Z</time>
      </trkpt>
      <trkpt lat="48.87294" lon="2.35436">
        <ele>97.7</ele>
        <time>2013-09-03T18:29:48.215Z</time>
      </trkpt>
      <trkpt lat="48.87293" lon="2.35442">
        <ele>98.6</ele>
        <time>2013-09-03T18:29:49.196Z</time>
      </trkpt>
      <trkpt lat="48.87289" lon="2.35453">
        <ele>99.1</ele>
        <time>2013-09-03T18:29:51.195Z</time>
      </trkpt>
      <trkpt lat="48.87287" lon="2.35458">
        <ele>99.7</ele>
        <time>2013-09-03T18:29:52.186Z</time>
      </trkpt>
      <trkpt lat="48.87282" lon="2.35468">
        <ele>100.7</ele>
        <time>2013-09-03T18:29:54.187Z</time>
      </trkpt>
      <trkpt lat="48.87281" lon="2.35473">
        <ele>101.5</ele>
        <time>2013-09-03T18:29:55.175Z</time>
      </trkpt>
      <trkpt lat="48.87278" lon="2.35484">
        <ele>101.9</ele>
        <time>2013-09-03T18:29:57.192Z</time>
      </trkpt>
      <trkpt lat="48.87277" lon="2.35489">
        <ele>101.4</ele>
        <time>2013-09-03T18:29:58.195Z</time>
      </trkpt>
      <trkpt lat="48.87274" lon="2.35499">
        <ele>103.1</ele>
        <time>2013-09-03T18:30:00.151Z</time>
      </trkpt>
      <trkpt lat="48.87272" lon="2.35504">
        <ele>102.2</ele>
        <time>2013-09-03T18:30:01.208Z</time>
      </trkpt>
      <trkpt lat="48.87268" lon="2.35514">
        <ele>104.4</ele>
        <time>2013-09-03T18:30:03.185Z</time>
      </trkpt>
      <trkpt lat="48.87266" lon="2.35519">
        <ele>104</ele>
        <time>2013-09-03T18:30:04.176Z</time>
      </trkpt>
      <trkpt lat="48.87263" lon="2.35528">
        <ele>103.9</ele>
        <time>2013-09-03T18:30:06.183Z</time>
      </trkpt>
      <trkpt lat="48.87262" lon="2.35532">
        <ele>102.6</ele>
        <time>2013-09-03T18:30:07.164Z</time>
      </trkpt>
      <trkpt lat="48.87259" lon="2.35541">
        <ele>97.3</ele>
        <time>2013-09-03T18:30:09.174Z</time>
      </trkpt>
      <trkpt lat="48.87258" lon="2.35546">
        <ele>95</ele>
        <time>2013-09-03T18:30:10.185Z</time>
      </trkpt>
      <trkpt lat="48.87255" lon="2.35558">
        <ele>92.8</ele>
        <time>2013-09-03T18:30:16.186Z</time>
      </trkpt>
      <trkpt lat="48.87255" lon="2.35559">
        <ele>92.7</ele>
        <time>2013-09-03T18:30:17.173Z</time>
      </trkpt>
      <trkpt lat="48.8725" lon="2.35566">
        <ele>90.6</ele>
        <time>2013-09-03T18:30:34.325Z</time>
      </trkpt>
      <trkpt lat="48.8725" lon="2.35566">
        <ele>90.7</ele>
        <time>2013-09-03T18:30:35.201Z</time>
      </trkpt>
      <trkpt lat="48.87249" lon="2.35567">
        <ele>91.3</ele>
        <time>2013-09-03T18:30:45.326Z</time>
      </trkpt>
      <trkpt lat="48.87249" lon="2.35568">
        <ele>91.2</ele>
        <time>2013-09-03T18:30:46.195Z</time>
      </trkpt>
      <trkpt lat="48.87244" lon="2.35576">
        <ele>94.3</ele>
        <time>2013-09-03T18:30:50.314Z</time>
      </trkpt>
      <trkpt lat="48.87243" lon="2.3558">
        <ele>93.5</ele>
        <time>2013-09-03T18:30:51.225Z</time>
      </trkpt>
      <trkpt lat="48.8724" lon="2.35588">
        <ele>95.5</ele>
        <time>2013-09-03T18:30:53.186Z</time>
      </trkpt>
      <trkpt lat="48.87239" lon="2.35592">
        <ele>94.6</ele>
        <time>2013-09-03T18:30:54.352Z</time>
      </trkpt>
      <trkpt lat="48.87236" lon="2.35599">
        <ele>100</ele>
        <time>2013-09-03T18:30:56.283Z</time>
      </trkpt>
      <trkpt lat="48.87233" lon="2.35603">
        <ele>101.4</ele>
        <time>2013-09-03T18:30:57.364Z</time>
      </trkpt>
      <trkpt lat="48.87229" lon="2.3561">
        <ele>104.4</ele>
        <time>2013-09-03T18:30:59.336Z</time>
      </trkpt>
      <trkpt lat="48.87227" lon="2.35613">
        <ele>105</ele>
        <time>2013-09-03T18:31:00.200Z</time>
      </trkpt>
      <trkpt lat="48.87222" lon="2.35624">
        <ele>105.7</ele>
        <time>2013-09-03T18:31:03.355Z</time>
      </trkpt>
      <trkpt lat="48.8722" lon="2.35626">
        <ele>107.1</ele>
        <time>2013-09-03T18:31:04.313Z</time>
      </trkpt>
      <trkpt lat="48.87216" lon="2.35634">
        <ele>107.6</ele>
        <time>2013-09-03T18:31:07.212Z</time>
      </trkpt>
      <trkpt lat="48.87214" lon="2.35637">
        <ele>108.8</ele>
        <time>2013-09-03T18:31:08.342Z</time>
      </trkpt>
      <trkpt lat="48.87211" lon="2.35648">
        <ele>109.6</ele>
        <time>2013-09-03T18:31:11.257Z</time>
      </trkpt>
      <trkpt lat="48.8721" lon="2.35652">
        <ele>106.5</ele>
        <time>2013-09-03T18:31:12.278Z</time>
      </trkpt>
      <trkpt lat="48.87208" lon="2.35661">
        <ele>100.6</ele>
        <time>2013-09-03T18:31:14.225Z</time>
      </trkpt>
      <trkpt lat="48.87206" lon="2.35666">
        <ele>96.6</ele>
        <time>2013-09-03T18:31:15.306Z</time>
      </trkpt>
      <trkpt lat="48.87201" lon="2.35677">
        <ele>94</ele>
        <time>2013-09-03T18:31:18.214Z</time>
      </trkpt>
      <trkpt lat="48.87199" lon="2.35679">
        <ele>93.3</ele>
        <time>2013-09-03T18:31:19.245Z</time>
      </trkpt>
      <trkpt lat="48.87193" lon="2.35689">
        <ele>94.7</ele>
        <time>2013-09-03T18:31:25.207Z</time>
      </trkpt>
      <trkpt lat="48.87194" lon="2.35692">
        <ele>94.6</ele>
        <time>2013-09-03T18:31:26.335Z</time>
      </trkpt>
      <trkpt lat="48.87191" lon="2.35704">
        <ele>102.4</ele>
        <time>2013-09-03T18:31:32.162Z</time>
      </trkpt>
      <trkpt lat="48.87189" lon="2.35708">
        <ele>103</ele>
        <time>2013-09-03T18:31:33.177Z</time>
      </trkpt>
      <trkpt lat="48.87185" lon="2.35713">
        <ele>104.2</ele>
        <time>2013-09-03T18:31:34.205Z</time>
      </trkpt>
      <trkpt lat="48.87182" lon="2.35718">
        <ele>104.4</ele>
        <time>2013-09-03T18:31:35.164Z</time>
      </trkpt>
      <trkpt lat="48.87179" lon="2.35724">
        <ele>104.1</ele>
        <time>2013-09-03T18:31:36.199Z</time>
      </trkpt>
      <trkpt lat="48.87176" lon="2.3573">
        <ele>104.3</ele>
        <time>2013-09-03T18:31:37.164Z</time>
      </trkpt>
      <trkpt lat="48.87173" lon="2.35736">
        <ele>103.4</ele>
        <time>2013-09-03T18:31:38.165Z</time>
      </trkpt>
      <trkpt lat="48.87172" lon="2.35743">
        <ele>100.6</ele>
        <time>2013-09-03T18:31:39.179Z</time>
      </trkpt>
      <trkpt lat="48.87171" lon="2.3575">
        <ele>100.3</ele>
        <time>2013-09-03T18:31:40.195Z</time>
      </trkpt>
      <trkpt lat="48.87171" lon="2.35756">
        <ele>99.5</ele>
        <time>2013-09-03T18:31:41.196Z</time>
      </trkpt>
      <trkpt lat="48.87171" lon="2.35769">
        <ele>97.7</ele>
        <time>2013-09-03T18:31:43.196Z</time>
      </trkpt>
      <trkpt lat="48.87171" lon="2.35775">
        <ele>97.2</ele>
        <time>2013-09-03T18:31:44.190Z</time>
      </trkpt>
      <trkpt lat="48.87172" lon="2.35785">
        <ele>95.5</ele>
        <time>2013-09-03T18:31:46.226Z</time>
      </trkpt>
      <trkpt lat="48.87174" lon="2.3579">
        <ele>96.3</ele>
        <time>2013-09-03T18:31:47.254Z</time>
      </trkpt>
      <trkpt lat="48.8718" lon="2.35796">
        <ele>94.9</ele>
        <time>2013-09-03T18:31:49.304Z</time>
      </trkpt>
      <trkpt lat="48.87183" lon="2.35798">
        <ele>94.9</ele>
        <time>2013-09-03T18:31:50.216Z</time>
      </trkpt>
      <trkpt lat="48.87189" lon="2.35803">
        <ele>93.1</ele>
        <time>2013-09-03T18:31:52.363Z</time>
      </trkpt>
      <trkpt lat="48.87191" lon="2.35806">
        <ele>91.2</ele>
        <time>2013-09-03T18:31:53.286Z</time>
      </trkpt>
      <trkpt lat="48.87197" lon="2.35813">
        <ele>93</ele>
        <time>2013-09-03T18:31:57.204Z</time>
      </trkpt>
      <trkpt lat="48.87199" lon="2.35812">
        <ele>92.9</ele>
        <time>2013-09-03T18:31:58.338Z</time>
      </trkpt>
      <trkpt lat="48.872" lon="2.35804">
        <ele>93.9</ele>
        <time>2013-09-03T18:32:00.295Z</time>
      </trkpt>
      <trkpt lat="48.87201" lon="2.35798">
        <ele>94</ele>
        <time>2013-09-03T18:32:01.314Z</time>
      </trkpt>
      <trkpt lat="48.872" lon="2.35787">
        <ele>93.4</ele>
        <time>2013-09-03T18:32:03.269Z</time>
      </trkpt>
      <trkpt lat="48.872" lon="2.35783">
        <ele>94</ele>
        <time>2013-09-03T18:32:04.194Z</time>
      </trkpt>
      <trkpt lat="48.87201" lon="2.35772">
        <ele>94.3</ele>
        <time>2013-09-03T18:32:07.275Z</time>
      </trkpt>
      <trkpt lat="48.87202" lon="2.35769">
        <ele>93.9</ele>
        <time>2013-09-03T18:32:08.265Z</time>
      </trkpt>
      <trkpt lat="48.87205" lon="2.35757">
        <ele>92.8</ele>
        <time>2013-09-03T18:32:17.352Z</time>
      </trkpt>
      <trkpt lat="48.87209" lon="2.35757">
        <ele>91.6</ele>
        <time>2013-09-03T18:32:18.238Z</time>
      </trkpt>
      <trkpt lat="48.87215" lon="2.35758">
        <ele>92.8</ele>
        <time>2013-09-03T18:32:20.194Z</time>
      </trkpt>
      <trkpt lat="48.87219" lon="2.35758">
        <ele>94.4</ele>
        <time>2013-09-03T18:32:21.317Z</time>
      </trkpt>
      <trkpt lat="48.87225" lon="2.35758">
        <ele>99</ele>
        <time>2013-09-03T18:32:23.293Z</time>
      </trkpt>
      <trkpt lat="48.87228" lon="2.35759">
        <ele>100.2</ele>
        <time>2013-09-03T18:32:24.270Z</time>
      </trkpt>
      <trkpt lat="48.87234" lon="2.35759">
        <ele>101.7</ele>
        <time>2013-09-03T18:32:26.341Z</time>
      </trkpt>
      <trkpt lat="48.87237" lon="2.35759">
        <ele>101.3</ele>
        <time>2013-09-03T18:32:27.187Z</time>
      </trkpt>
      <trkpt lat="48.87244" lon="2.35759">
        <ele>101.8</ele>
        <time>2013-09-03T18:32:29.205Z</time>
      </trkpt>
      <trkpt lat="48.87247" lon="2.3576">
        <ele>102.3</ele>
        <time>2013-09-03T18:32:30.335Z</time>
      </trkpt>
      <trkpt lat="48.87255" lon="2.35764">
        <ele>105.7</ele>
        <time>2013-09-03T18:32:34.218Z</time>
      </trkpt>
      <trkpt lat="48.87255" lon="2.35767">
        <ele>105.6</ele>
        <time>2013-09-03T18:32:35.300Z</time>
      </trkpt>
      <trkpt lat="48.87253" lon="2.35775">
        <ele>106.4</ele>
        <time>2013-09-03T18:32:37.307Z</time>
      </trkpt>
      <trkpt lat="48.87252" lon="2.3578">
        <ele>106.9</ele>
        <time>2013-09-03T18:32:38.177Z</time>
      </trkpt>
      <trkpt lat="48.87249" lon="2.3579">
        <ele>103.9</ele>
        <time>2013-09-03T18:32:40.283Z</time>
      </trkpt>
      <trkpt lat="48.87248" lon="2.35796">
        <ele>101.8</ele>
        <time>2013-09-03T18:32:41.234Z</time>
      </trkpt>
      <trkpt lat="48.87247" lon="2.35807">
        <ele>99.2</ele>
        <time>2013-09-03T18:32:43.195Z</time>
      </trkpt>
      <trkpt lat="48.87247" lon="2.35813">
        <ele>98.4</ele>
        <time>2013-09-03T18:32:44.346Z</time>
      </trkpt>
      <trkpt lat="48.87245" lon="2.35824">
        <ele>97.7</ele>
        <time>2013-09-03T18:32:46.293Z</time>
      </trkpt>
      <trkpt lat="48.87243" lon="2.35828">
        <ele>97.9</ele>
        <time>2013-09-03T18:32:47.236Z</time>
      </trkpt>
      <trkpt lat="48.87239" lon="2.35838">
        <ele>97.6</ele>
        <time>2013-09-03T18:32:49.304Z</time>
      </trkpt>
      <trkpt lat="48.87237" lon="2.35842">
        <ele>99</ele>
        <time>2013-09-03T18:32:50.245Z</time>
      </trkpt>
      <trkpt lat="48.87234" lon="2.35851">
        <ele>101.4</ele>
        <time>2013-09-03T18:32:52.196Z</time>
      </trkpt>
      <trkpt lat="48.87233" lon="2.35857">
        <ele>101.7</ele>
        <time>2013-09-03T18:32:53.286Z</time>
      </trkpt>
      <trkpt lat="48.87231" lon="2.35868">
        <ele>102.6</ele>
        <time>2013-09-03T18:32:55.283Z</time>
      </trkpt>
      <trkpt lat="48.8723" lon="2.35873">
        <ele>103</ele>
        <time>2013-09-03T18:32:56.303Z</time>
      </trkpt>
      <trkpt lat="48.87227" lon="2.35883">
        <ele>104.2</ele>
        <time>2013-09-03T18:32:58.318Z</time>
      </trkpt>
      <trkpt lat="48.87225" lon="2.35888">
        <ele>105.2</ele>
        <time>2013-09-03T18:32:59.209Z</time>
      </trkpt>
      <trkpt lat="48.87222" lon="2.35897">
        <ele>105.8</ele>
        <time>2013-09-03T18:33:01.176Z</time>
      </trkpt>
      <trkpt lat="48.8722" lon="2.35901">
        <ele>106.3</ele>
        <time>2013-09-03T18:33:02.215Z</time>
      </trkpt>
      <trkpt lat="48.87217" lon="2.35909">
        <ele>106.2</ele>
        <time>2013-09-03T18:33:04.197Z</time>
      </trkpt>
      <trkpt lat="48.87216" lon="2.35915">
        <ele>101.9</ele>
        <time>2013-09-03T18:33:05.241Z</time>
      </trkpt>
      <trkpt lat="48.87215" lon="2.35925">
        <ele>100.7</ele>
        <time>2013-09-03T18:33:07.191Z</time>
      </trkpt>
      <trkpt lat="48.87214" lon="2.35931">
        <ele>100.9</ele>
        <time>2013-09-03T18:33:08.191Z</time>
      </trkpt>
      <trkpt lat="48.87213" lon="2.35944">
        <ele>105.4</ele>
        <time>2013-09-03T18:33:11.194Z</time>
      </trkpt>
      <trkpt lat="48.87212" lon="2.35948">
        <ele>110.7</ele>
        <time>2013-09-03T18:33:12.201Z</time>
      </trkpt>
      <trkpt lat="48.87207" lon="2.35957">
        <ele>119.4</ele>
        <time>2013-09-03T18:33:15.210Z</time>
      </trkpt>
      <trkpt lat="48.87205" lon="2.3596">
        <ele>121</ele>
        <time>2013-09-03T18:33:16.223Z</time>
      </trkpt>
      <trkpt lat="48.87199" lon="2.35967">
        <ele>125.7</ele>
        <time>2013-09-03T18:33:19.199Z</time>
      </trkpt>
      <trkpt lat="48.87197" lon="2.3597">
        <ele>124.8</ele>
        <time>2013-09-03T18:33:20.201Z</time>
      </trkpt>
      <trkpt lat="48.87191" lon="2.35978">
        <ele>122</ele>
        <time>2013-09-03T18:33:22.217Z</time>
      </trkpt>
      <trkpt lat="48.87188" lon="2.35983">
        <ele>122.9</ele>
        <time>2013-09-03T18:33:23.214Z</time>
      </trkpt>
      <trkpt lat="48.87183" lon="2.35991">
        <ele>121.7</ele>
        <time>2013-09-03T18:33:25.208Z</time>
      </trkpt>
      <trkpt lat="48.8718" lon="2.35994">
        <ele>120.5</ele>
        <time>2013-09-03T18:33:26.222Z</time>
      </trkpt>
      <trkpt lat="48.87174" lon="2.36001">
        <ele>123.7</ele>
        <time>2013-09-03T18:33:28.188Z</time>
      </trkpt>
      <trkpt lat="48.8717" lon="2.36005">
        <ele>126.8</ele>
        <time>2013-09-03T18:33:29.355Z</time>
      </trkpt>
      <trkpt lat="48.87165" lon="2.3601">
        <ele>128.6</ele>
        <time>2013-09-03T18:33:31.274Z</time>
      </trkpt>
      <trkpt lat="48.87163" lon="2.36013">
        <ele>127.5</ele>
        <time>2013-09-03T18:33:32.345Z</time>
      </trkpt>
      <trkpt lat="48.87159" lon="2.36021">
        <ele>122.8</ele>
        <time>2013-09-03T18:33:34.325Z</time>
      </trkpt>
      <trkpt lat="48.87156" lon="2.36026">
        <ele>120.4</ele>
        <time>2013-09-03T18:33:35.237Z</time>
      </trkpt>
      <trkpt lat="48.87151" lon="2.36035">
        <ele>117.9</ele>
        <time>2013-09-03T18:33:37.226Z</time>
      </trkpt>
      <trkpt lat="48.87149" lon="2.3604">
        <ele>118.5</ele>
        <time>2013-09-03T18:33:38.352Z</time>
      </trkpt>
      <trkpt lat="48.87145" lon="2.36049">
        <ele>117.3</ele>
        <time>2013-09-03T18:33:40.284Z</time>
      </trkpt>
      <trkpt lat="48.87144" lon="2.36052">
        <ele>117.1</ele>
        <time>2013-09-03T18:33:41.346Z</time>
      </trkpt>
      <trkpt lat="48.87139" lon="2.36062">
        <ele>114.2</ele>
        <time>2013-09-03T18:33:44.206Z</time>
      </trkpt>
      <trkpt lat="48.87137" lon="2.36065">
        <ele>113.8</ele>
        <time>2013-09-03T18:33:45.378Z</time>
      </trkpt>
      <trkpt lat="48.87133" lon="2.36072">
        <ele>111.6</ele>
        <time>2013-09-03T18:33:47.288Z</time>
      </trkpt>
      <trkpt lat="48.87129" lon="2.36076">
        <ele>110.2</ele>
        <time>2013-09-03T18:33:48.355Z</time>
      </trkpt>
      <trkpt lat="48.87123" lon="2.36084">
        <ele>111.9</ele>
        <time>2013-09-03T18:33:50.319Z</time>
      </trkpt>
      <trkpt lat="48.8712" lon="2.36087">
        <ele>111.9</ele>
        <time>2013-09-03T18:33:51.208Z</time>
      </trkpt>
      <trkpt lat="48.87113" lon="2.36095">
        <ele>112.6</ele>
        <time>2013-09-03T18:33:58.275Z</time>
      </trkpt>
      <trkpt lat="48.87112" lon="2.36095">
        <ele>112.4</ele>
        <time>2013-09-03T18:33:59.294Z</time>
      </trkpt>
      <trkpt lat="48.87108" lon="2.36106">
        <ele>115</ele>
        <time>2013-09-03T18:34:05.234Z</time>
      </trkpt>
      <trkpt lat="48.87107" lon="2.36108">
        <ele>115.2</ele>
        <time>2013-09-03T18:34:06.181Z</time>
      </trkpt>
      <trkpt lat="48.8711" lon="2.36098">
        <ele>114.9</ele>
        <time>2013-09-03T18:34:25.264Z</time>
      </trkpt>
      <trkpt lat="48.87112" lon="2.36096">
        <ele>114.8</ele>
        <time>2013-09-03T18:34:26.324Z</time>
      </trkpt>
      <trkpt lat="48.87119" lon="2.36088">
        <ele>103.4</ele>
        <time>2013-09-03T18:34:29.325Z</time>
      </trkpt>
      <trkpt lat="48.87122" lon="2.36087">
        <ele>102.4</ele>
        <time>2013-09-03T18:34:30.193Z</time>
      </trkpt>
      <trkpt lat="48.87125" lon="2.36088">
        <ele>96.4</ele>
        <time>2013-09-03T18:34:36.205Z</time>
      </trkpt>
      <trkpt lat="48.87124" lon="2.36088">
        <ele>95.5</ele>
        <time>2013-09-03T18:34:37.201Z</time>
      </trkpt>
      <trkpt lat="48.87124" lon="2.36087">
        <ele>94.2</ele>
        <time>2013-09-03T18:34:38.204Z</time>
      </trkpt>
      <trkpt lat="48.87123" lon="2.36087">
        <ele>92</ele>
        <time>2013-09-03T18:34:39.176Z</time>
      </trkpt>
      <trkpt lat="48.87124" lon="2.36088">
        <ele>92.3</ele>
        <time>2013-09-03T18:34:40.271Z</time>
      </trkpt>
      <trkpt lat="48.87124" lon="2.36088">
        <ele>92.3</ele>
        <time>2013-09-03T18:34:41.206Z</time>
      </trkpt>
      <trkpt lat="48.87127" lon="2.36089">
        <ele>92.6</ele>
        <time>2013-09-03T18:34:43.295Z</time>
      </trkpt>
      <trkpt lat="48.87135" lon="2.36093">
        <ele>92.7</ele>
        <time>2013-09-03T18:34:46.205Z</time>
      </trkpt>
      <trkpt lat="48.87139" lon="2.36096">
        <ele>90.6</ele>
        <time>2013-09-03T18:34:47.304Z</time>
      </trkpt>
      <trkpt lat="48.87143" lon="2.36101">
        <ele>90.2</ele>
        <time>2013-09-03T18:34:48.224Z</time>
      </trkpt>
      <trkpt lat="48.87147" lon="2.36106">
        <ele>90</ele>
        <time>2013-09-03T18:34:49.322Z</time>
      </trkpt>
      <trkpt lat="48.87151" lon="2.36111">
        <ele>89.4</ele>
        <time>2013-09-03T18:34:50.196Z</time>
      </trkpt>
      <trkpt lat="48.87156" lon="2.36115">
        <ele>89.9</ele>
        <time>2013-09-03T18:34:51.257Z</time>
      </trkpt>
      <trkpt lat="48.8716" lon="2.36119">
        <ele>90.5</ele>
        <time>2013-09-03T18:34:52.321Z</time>
      </trkpt>
      <trkpt lat="48.87164" lon="2.36121">
        <ele>90.4</ele>
        <time>2013-09-03T18:34:53.214Z</time>
      </trkpt>
      <trkpt lat="48.87172" lon="2.36126">
        <ele>89.8</ele>
        <time>2013-09-03T18:34:55.216Z</time>
      </trkpt>
      <trkpt lat="48.87176" lon="2.36129">
        <ele>89.8</ele>
        <time>2013-09-03T18:34:56.286Z</time>
      </trkpt>
      <trkpt lat="48.87184" lon="2.36133">
        <ele>90.3</ele>
        <time>2013-09-03T18:34:58.304Z</time>
      </trkpt>
      <trkpt lat="48.87187" lon="2.36135">
        <ele>90.3</ele>
        <time>2013-09-03T18:34:59.283Z</time>
      </trkpt>
      <trkpt lat="48.87194" lon="2.3614">
        <ele>89.9</ele>
        <time>2013-09-03T18:35:01.288Z</time>
      </trkpt>
      <trkpt lat="48.87197" lon="2.36142">
        <ele>90.2</ele>
        <time>2013-09-03T18:35:02.200Z</time>
      </trkpt>
      <trkpt lat="48.87204" lon="2.36152">
        <ele>94.3</ele>
        <time>2013-09-03T18:35:04.222Z</time>
      </trkpt>
      <trkpt lat="48.87207" lon="2.36156">
        <ele>95.6</ele>
        <time>2013-09-03T18:35:05.207Z</time>
      </trkpt>
      <trkpt lat="48.87214" lon="2.36163">
        <ele>95.9</ele>
        <time>2013-09-03T18:35:07.286Z</time>
      </trkpt>
      <trkpt lat="48.87218" lon="2.36165">
        <ele>96.1</ele>
        <time>2013-09-03T18:35:08.345Z</time>
      </trkpt>
      <trkpt lat="48.87224" lon="2.36169">
        <ele>95.9</ele>
        <time>2013-09-03T18:35:10.311Z</time>
      </trkpt>
      <trkpt lat="48.87227" lon="2.36171">
        <ele>96.4</ele>
        <time>2013-09-03T18:35:11.206Z</time>
      </trkpt>
      <trkpt lat="48.87234" lon="2.36166">
        <ele>98.3</ele>
        <time>2013-09-03T18:35:17.306Z</time>
      </trkpt>
      <trkpt lat="48.87235" lon="2.36162">
        <ele>98</ele>
        <time>2013-09-03T18:35:18.202Z</time>
      </trkpt>
      <trkpt lat="48.87236" lon="2.36152">
        <ele>98.8</ele>
        <time>2013-09-03T18:35:20.235Z</time>
      </trkpt>
      <trkpt lat="48.87237" lon="2.36146">
        <ele>99.1</ele>
        <time>2013-09-03T18:35:21.306Z</time>
      </trkpt>
      <trkpt lat="48.87241" lon="2.36136">
        <ele>98.2</ele>
        <time>2013-09-03T18:35:23.268Z</time>
      </trkpt>
      <trkpt lat="48.87243" lon="2.36132">
        <ele>98.6</ele>
        <time>2013-09-03T18:35:24.308Z</time>
      </trkpt>
      <trkpt lat="48.87247" lon="2.36123">
        <ele>98.7</ele>
        <time>2013-09-03T18:35:27.227Z</time>
      </trkpt>
      <trkpt lat="48.87249" lon="2.36121">
        <ele>96.7</ele>
        <time>2013-09-03T18:35:28.205Z</time>
      </trkpt>
      <trkpt lat="48.87253" lon="2.36112">
        <ele>96.6</ele>
        <time>2013-09-03T18:35:31.285Z</time>
      </trkpt>
      <trkpt lat="48.87254" lon="2.36108">
        <ele>96.6</ele>
        <time>2013-09-03T18:35:32.275Z</time>
      </trkpt>
      <trkpt lat="48.87262" lon="2.36115">
        <ele>97.5</ele>
        <time>2013-09-03T18:35:43.195Z</time>
      </trkpt>
      <trkpt lat="48.87262" lon="2.36116">
        <ele>97.5</ele>
        <time>2013-09-03T18:35:44.216Z</time>
      </trkpt>
      <trkpt lat="48.87262" lon="2.36116">
        <ele>97.3</ele>
        <time>2013-09-03T18:35:48.284Z</time>
      </trkpt>
      <trkpt lat="48.87262" lon="2.36116">
        <ele>97.5</ele>
        <time>2013-09-03T18:35:49.302Z</time>
      </trkpt>
      <trkpt lat="48.87262" lon="2.36115">
        <ele>97.6</ele>
        <time>2013-09-03T18:35:50.181Z</time>
      </trkpt>
      <trkpt lat="48.87263" lon="2.36115">
        <ele>98.2</ele>
        <time>2013-09-03T18:35:51.355Z</time>
      </trkpt>
      <trkpt lat="48.87271" lon="2.36117">
        <ele>101.2</ele>
        <time>2013-09-03T18:35:56.315Z</time>
      </trkpt>
      <trkpt lat="48.87275" lon="2.36119">
        <ele>101.9</ele>
        <time>2013-09-03T18:35:57.234Z</time>
      </trkpt>
      <trkpt lat="48.87282" lon="2.36123">
        <ele>103.1</ele>
        <time>2013-09-03T18:35:59.220Z</time>
      </trkpt>
      <trkpt lat="48.87286" lon="2.36126">
        <ele>101.5</ele>
        <time>2013-09-03T18:36:00.344Z</time>
      </trkpt>
      <trkpt lat="48.87292" lon="2.36129">
        <ele>100.8</ele>
        <time>2013-09-03T18:36:02.324Z</time>
      </trkpt>
      <trkpt lat="48.87295" lon="2.36131">
        <ele>96.3</ele>
        <time>2013-09-03T18:36:03.329Z</time>
      </trkpt>
      <trkpt lat="48.87302" lon="2.36136">
        <ele>94.9</ele>
        <time>2013-09-03T18:36:06.183Z</time>
      </trkpt>
      <trkpt lat="48.87305" lon="2.36139">
        <ele>94.9</ele>
        <time>2013-09-03T18:36:07.364Z</time>
      </trkpt>
      <trkpt lat="48.87308" lon="2.36142">
        <ele>95.4</ele>
        <time>2013-09-03T18:36:08.263Z</time>
      </trkpt>
      <trkpt lat="48.87313" lon="2.36147">
        <ele>95.1</ele>
        <time>2013-09-03T18:36:09.364Z</time>
      </trkpt>
      <trkpt lat="48.87317" lon="2.36152">
        <ele>96.4</ele>
        <time>2013-09-03T18:36:10.331Z</time>
      </trkpt>
      <trkpt lat="48.87322" lon="2.36157">
        <ele>96.7</ele>
        <time>2013-09-03T18:36:11.307Z</time>
      </trkpt>
      <trkpt lat="48.87326" lon="2.36162">
        <ele>96.6</ele>
        <time>2013-09-03T18:36:12.365Z</time>
      </trkpt>
      <trkpt lat="48.87331" lon="2.36166">
        <ele>97.4</ele>
        <time>2013-09-03T18:36:13.254Z</time>
      </trkpt>
      <trkpt lat="48.87335" lon="2.3617">
        <ele>97</ele>
        <time>2013-09-03T18:36:14.353Z</time>
      </trkpt>
      <trkpt lat="48.87339" lon="2.36173">
        <ele>96.6</ele>
        <time>2013-09-03T18:36:15.218Z</time>
      </trkpt>
      <trkpt lat="48.87344" lon="2.36177">
        <ele>95.7</ele>
        <time>2013-09-03T18:36:16.397Z</time>
      </trkpt>
      <trkpt lat="48.87348" lon="2.36179">
        <ele>93</ele>
        <time>2013-09-03T18:36:17.242Z</time>
      </trkpt>
      <trkpt lat="48.87352" lon="2.36183">
        <ele>94.2</ele>
        <time>2013-09-03T18:36:18.329Z</time>
      </trkpt>
      <trkpt lat="48.87356" lon="2.36185">
        <ele>94.5</ele>
        <time>2013-09-03T18:36:19.374Z</time>
      </trkpt>
      <trkpt lat="48.87364" lon="2.36192">
        <ele>93.7</ele>
        <time>2013-09-03T18:36:21.418Z</time>
      </trkpt>
      <trkpt lat="48.87367" lon="2.36196">
        <ele>94.3</ele>
        <time>2013-09-03T18:36:22.208Z</time>
      </trkpt>
      <trkpt lat="48.87371" lon="2.36201">
        <ele>94.5</ele>
        <time>2013-09-03T18:36:23.385Z</time>
      </trkpt>
      <trkpt lat="48.87373" lon="2.36205">
        <ele>95</ele>
        <time>2013-09-03T18:36:24.227Z</time>
      </trkpt>
      <trkpt lat="48.87377" lon="2.3621">
        <ele>94.2</ele>
        <time>2013-09-03T18:36:25.367Z</time>
      </trkpt>
      <trkpt lat="48.87381" lon="2.36214">
        <ele>96.8</ele>
        <time>2013-09-03T18:36:26.304Z</time>
      </trkpt>
      <trkpt lat="48.87385" lon="2.36217">
        <ele>97.1</ele>
        <time>2013-09-03T18:36:27.306Z</time>
      </trkpt>
      <trkpt lat="48.87389" lon="2.3622">
        <ele>96.4</ele>
        <time>2013-09-03T18:36:28.354Z</time>
      </trkpt>
      <trkpt lat="48.87397" lon="2.36225">
        <ele>96.7</ele>
        <time>2013-09-03T18:36:30.368Z</time>
      </trkpt>
      <trkpt lat="48.87401" lon="2.36227">
        <ele>96.9</ele>
        <time>2013-09-03T18:36:31.227Z</time>
      </trkpt>
      <trkpt lat="48.87408" lon="2.36229">
        <ele>97.3</ele>
        <time>2013-09-03T18:36:33.248Z</time>
      </trkpt>
      <trkpt lat="48.87412" lon="2.3623">
        <ele>97.6</ele>
        <time>2013-09-03T18:36:34.331Z</time>
      </trkpt>
      <trkpt lat="48.87419" lon="2.36231">
        <ele>94.6</ele>
        <time>2013-09-03T18:36:36.293Z</time>
      </trkpt>
      <trkpt lat="48.87422" lon="2.36233">
        <ele>93.5</ele>
        <time>2013-09-03T18:36:37.401Z</time>
      </trkpt>
      <trkpt lat="48.87427" lon="2.36241">
        <ele>93.2</ele>
        <time>2013-09-03T18:36:40.251Z</time>
      </trkpt>
      <trkpt lat="48.87429" lon="2.36245">
        <ele>91.7</ele>
        <time>2013-09-03T18:36:41.353Z</time>
      </trkpt>
      <trkpt lat="48.87428" lon="2.36258">
        <ele>89.5</ele>
        <time>2013-09-03T18:36:44.216Z</time>
      </trkpt>
      <trkpt lat="48.87426" lon="2.36262">
        <ele>88.2</ele>
        <time>2013-09-03T18:36:45.201Z</time>
      </trkpt>
      <trkpt lat="48.87421" lon="2.36272">
        <ele>87.4</ele>
        <time>2013-09-03T18:36:48.364Z</time>
      </trkpt>
      <trkpt lat="48.87419" lon="2.36274">
        <ele>87.8</ele>
        <time>2013-09-03T18:36:49.336Z</time>
      </trkpt>
      <trkpt lat="48.87412" lon="2.36277">
        <ele>85.8</ele>
        <time>2013-09-03T18:36:51.371Z</time>
      </trkpt>
      <trkpt lat="48.87409" lon="2.36278">
        <ele>85.2</ele>
        <time>2013-09-03T18:36:52.253Z</time>
      </trkpt>
      <trkpt lat="48.87401" lon="2.36283">
        <ele>85.3</ele>
        <time>2013-09-03T18:36:54.211Z</time>
      </trkpt>
      <trkpt lat="48.87398" lon="2.36285">
        <ele>85.8</ele>
        <time>2013-09-03T18:36:55.217Z</time>
      </trkpt>
      <trkpt lat="48.87391" lon="2.36291">
        <ele>87.3</ele>
        <time>2013-09-03T18:36:57.222Z</time>
      </trkpt>
      <trkpt lat="48.87387" lon="2.36294">
        <ele>88.2</ele>
        <time>2013-09-03T18:36:58.237Z</time>
      </trkpt>
      <trkpt lat="48.8738" lon="2.363">
        <ele>88.1</ele>
        <time>2013-09-03T18:37:00.212Z</time>
      </trkpt>
      <trkpt lat="48.87377" lon="2.36303">
        <ele>86.5</ele>
        <time>2013-09-03T18:37:01.232Z</time>
      </trkpt>
      <trkpt lat="48.87373" lon="2.36307">
        <ele>86.4</ele>
        <time>2013-09-03T18:37:02.208Z</time>
      </trkpt>
      <trkpt lat="48.87369" lon="2.36312">
        <ele>86</ele>
        <time>2013-09-03T18:37:03.275Z</time>
      </trkpt>
      <trkpt lat="48.87365" lon="2.36316">
        <ele>85.7</ele>
        <time>2013-09-03T18:37:04.228Z</time>
      </trkpt>
      <trkpt lat="48.87361" lon="2.3632">
        <ele>85.8</ele>
        <time>2013-09-03T18:37:05.233Z</time>
      </trkpt>
      <trkpt lat="48.87356" lon="2.36325">
        <ele>85.1</ele>
        <time>2013-09-03T18:37:06.209Z</time>
      </trkpt>
      <trkpt lat="48.87352" lon="2.36329">
        <ele>85.9</ele>
        <time>2013-09-03T18:37:07.216Z</time>
      </trkpt>
      <trkpt lat="48.87347" lon="2.36333">
        <ele>86.1</ele>
        <time>2013-09-03T18:37:08.368Z</time>
      </trkpt>
      <trkpt lat="48.87343" lon="2.36336">
        <ele>86.8</ele>
        <time>2013-09-03T18:37:09.298Z</time>
      </trkpt>
      <trkpt lat="48.87338" lon="2.36341">
        <ele>85</ele>
        <time>2013-09-03T18:37:10.228Z</time>
      </trkpt>
      <trkpt lat="48.87332" lon="2.36347">
        <ele>85.3</ele>
        <time>2013-09-03T18:37:11.324Z</time>
      </trkpt>
      <trkpt lat="48.87328" lon="2.36352">
        <ele>86</ele>
        <time>2013-09-03T18:37:12.238Z</time>
      </trkpt>
      <trkpt lat="48.87323" lon="2.36358">
        <ele>84.8</ele>
        <time>2013-09-03T18:37:13.431Z</time>
      </trkpt>
      <trkpt lat="48.87319" lon="2.36361">
        <ele>85</ele>
        <time>2013-09-03T18:37:14.341Z</time>
      </trkpt>
      <trkpt lat="48.87315" lon="2.36365">
        <ele>85.8</ele>
        <time>2013-09-03T18:37:15.279Z</time>
      </trkpt>
      <trkpt lat="48.8731" lon="2.36369">
        <ele>86.1</ele>
        <time>2013-09-03T18:37:16.427Z</time>
      </trkpt>
      <trkpt lat="48.87306" lon="2.36372">
        <ele>86</ele>
        <time>2013-09-03T18:37:17.225Z</time>
      </trkpt>
      <trkpt lat="48.87301" lon="2.36378">
        <ele>86.8</ele>
        <time>2013-09-03T18:37:18.219Z</time>
      </trkpt>
      <trkpt lat="48.87295" lon="2.36384">
        <ele>88</ele>
        <time>2013-09-03T18:37:19.213Z</time>
      </trkpt>
      <trkpt lat="48.87288" lon="2.36389">
        <ele>87.5</ele>
        <time>2013-09-03T18:37:20.373Z</time>
      </trkpt>
      <trkpt lat="48.87283" lon="2.36393">
        <ele>88.1</ele>
        <time>2013-09-03T18:37:21.333Z</time>
      </trkpt>
      <trkpt lat="48.87278" lon="2.36398">
        <ele>88.5</ele>
        <time>2013-09-03T18:37:22.286Z</time>
      </trkpt>
      <trkpt lat="48.87272" lon="2.36401">
        <ele>87.8</ele>
        <time>2013-09-03T18:37:23.408Z</time>
      </trkpt>
      <trkpt lat="48.87268" lon="2.36403">
        <ele>87.2</ele>
        <time>2013-09-03T18:37:24.268Z</time>
      </trkpt>
      <trkpt lat="48.87262" lon="2.36407">
        <ele>87.1</ele>
        <time>2013-09-03T18:37:25.405Z</time>
      </trkpt>
      <trkpt lat="48.87259" lon="2.36411">
        <ele>87.2</ele>
        <time>2013-09-03T18:37:26.224Z</time>
      </trkpt>
      <trkpt lat="48.87253" lon="2.36416">
        <ele>87.6</ele>
        <time>2013-09-03T18:37:27.368Z</time>
      </trkpt>
      <trkpt lat="48.87249" lon="2.3642">
        <ele>87.6</ele>
        <time>2013-09-03T18:37:28.223Z</time>
      </trkpt>
      <trkpt lat="48.87243" lon="2.36426">
        <ele>87</ele>
        <time>2013-09-03T18:37:29.327Z</time>
      </trkpt>
      <trkpt lat="48.87237" lon="2.36433">
        <ele>86.4</ele>
        <time>2013-09-03T18:37:30.360Z</time>
      </trkpt>
      <trkpt lat="48.87231" lon="2.36438">
        <ele>88</ele>
        <time>2013-09-03T18:37:31.302Z</time>
      </trkpt>
      <trkpt lat="48.87224" lon="2.36445">
        <ele>86.4</ele>
        <time>2013-09-03T18:37:32.353Z</time>
      </trkpt>
      <trkpt lat="48.87218" lon="2.3645">
        <ele>88.9</ele>
        <time>2013-09-03T18:37:33.222Z</time>
      </trkpt>
      <trkpt lat="48.87212" lon="2.36453">
        <ele>87.8</ele>
        <time>2013-09-03T18:37:34.422Z</time>
      </trkpt>
      <trkpt lat="48.87208" lon="2.36455">
        <ele>88.3</ele>
        <time>2013-09-03T18:37:35.224Z</time>
      </trkpt>
      <trkpt lat="48.87204" lon="2.36459">
        <ele>89.7</ele>
        <time>2013-09-03T18:37:36.376Z</time>
      </trkpt>
      <trkpt lat="48.872" lon="2.36463">
        <ele>91.6</ele>
        <time>2013-09-03T18:37:37.376Z</time>
      </trkpt>
      <trkpt lat="48.87192" lon="2.36469">
        <ele>93</ele>
        <time>2013-09-03T18:37:39.416Z</time>
      </trkpt>
      <trkpt lat="48.8719" lon="2.36471">
        <ele>92.6</ele>
        <time>2013-09-03T18:37:40.275Z</time>
      </trkpt>
      <trkpt lat="48.87183" lon="2.36477">
        <ele>91.5</ele>
        <time>2013-09-03T18:37:42.211Z</time>
      </trkpt>
      <trkpt lat="48.87179" lon="2.3648">
        <ele>91.4</ele>
        <time>2013-09-03T18:37:43.398Z</time>
      </trkpt>
      <trkpt lat="48.87171" lon="2.36485">
        <ele>92.5</ele>
        <time>2013-09-03T18:37:46.380Z</time>
      </trkpt>
      <trkpt lat="48.87169" lon="2.36486">
        <ele>91.8</ele>
        <time>2013-09-03T18:37:47.265Z</time>
      </trkpt>
      <trkpt lat="48.87161" lon="2.36491">
        <ele>92.4</ele>
        <time>2013-09-03T18:37:50.402Z</time>
      </trkpt>
      <trkpt lat="48.87159" lon="2.36492">
        <ele>93.2</ele>
        <time>2013-09-03T18:37:51.226Z</time>
      </trkpt>
      <trkpt lat="48.87153" lon="2.36496">
        <ele>93.9</ele>
        <time>2013-09-03T18:37:53.322Z</time>
      </trkpt>
      <trkpt lat="48.8715" lon="2.36498">
        <ele>94.3</ele>
        <time>2013-09-03T18:37:54.301Z</time>
      </trkpt>
      <trkpt lat="48.87142" lon="2.36505">
        <ele>94.6</ele>
        <time>2013-09-03T18:37:56.234Z</time>
      </trkpt>
      <trkpt lat="48.87138" lon="2.36508">
        <ele>95</ele>
        <time>2013-09-03T18:37:57.386Z</time>
      </trkpt>
      <trkpt lat="48.87134" lon="2.36511">
        <ele>95.2</ele>
        <time>2013-09-03T18:37:58.220Z</time>
      </trkpt>
      <trkpt lat="48.8713" lon="2.36515">
        <ele>94.9</ele>
        <time>2013-09-03T18:37:59.391Z</time>
      </trkpt>
      <trkpt lat="48.87126" lon="2.36518">
        <ele>95.6</ele>
        <time>2013-09-03T18:38:00.196Z</time>
      </trkpt>
      <trkpt lat="48.87122" lon="2.36522">
        <ele>96</ele>
        <time>2013-09-03T18:38:01.232Z</time>
      </trkpt>
      <trkpt lat="48.87118" lon="2.36526">
        <ele>95.8</ele>
        <time>2013-09-03T18:38:02.217Z</time>
      </trkpt>
      <trkpt lat="48.87114" lon="2.3653">
        <ele>96.2</ele>
        <time>2013-09-03T18:38:03.206Z</time>
      </trkpt>
      <trkpt lat="48.87108" lon="2.36537">
        <ele>97.7</ele>
        <time>2013-09-03T18:38:05.215Z</time>
      </trkpt>
      <trkpt lat="48.87105" lon="2.3654">
        <ele>98.3</ele>
        <time>2013-09-03T18:38:06.205Z</time>
      </trkpt>
      <trkpt lat="48.87099" lon="2.36547">
        <ele>99</ele>
        <time>2013-09-03T18:38:08.227Z</time>
      </trkpt>
      <trkpt lat="48.87096" lon="2.36551">
        <ele>99</ele>
        <time>2013-09-03T18:38:09.233Z</time>
      </trkpt>
      <trkpt lat="48.8709" lon="2.36557">
        <ele>99.8</ele>
        <time>2013-09-03T18:38:11.227Z</time>
      </trkpt>
      <trkpt lat="48.87086" lon="2.3656">
        <ele>98.9</ele>
        <time>2013-09-03T18:38:12.209Z</time>
      </trkpt>
      <trkpt lat="48.87079" lon="2.36565">
        <ele>99.8</ele>
        <time>2013-09-03T18:38:14.218Z</time>
      </trkpt>
      <trkpt lat="48.87075" lon="2.36568">
        <ele>99.5</ele>
        <time>2013-09-03T18:38:15.215Z</time>
      </trkpt>
      <trkpt lat="48.87068" lon="2.36573">
        <ele>100.9</ele>
        <time>2013-09-03T18:38:17.215Z</time>
      </trkpt>
      <trkpt lat="48.87064" lon="2.36575">
        <ele>101.2</ele>
        <time>2013-09-03T18:38:18.219Z</time>
      </trkpt>
      <trkpt lat="48.87057" lon="2.36578">
        <ele>100.8</ele>
        <time>2013-09-03T18:38:20.244Z</time>
      </trkpt>
      <trkpt lat="48.87053" lon="2.3658">
        <ele>101</ele>
        <time>2013-09-03T18:38:21.324Z</time>
      </trkpt>
      <trkpt lat="48.87049" lon="2.36583">
        <ele>102.6</ele>
        <time>2013-09-03T18:38:22.363Z</time>
      </trkpt>
      <trkpt lat="48.87043" lon="2.36586">
        <ele>101.9</ele>
        <time>2013-09-03T18:38:23.316Z</time>
      </trkpt>
      <trkpt lat="48.87037" lon="2.36591">
        <ele>103.3</ele>
        <time>2013-09-03T18:38:24.231Z</time>
      </trkpt>
      <trkpt lat="48.87032" lon="2.36596">
        <ele>104.6</ele>
        <time>2013-09-03T18:38:25.204Z</time>
      </trkpt>
      <trkpt lat="48.87026" lon="2.36603">
        <ele>105.6</ele>
        <time>2013-09-03T18:38:26.247Z</time>
      </trkpt>
      <trkpt lat="48.87021" lon="2.36609">
        <ele>106.2</ele>
        <time>2013-09-03T18:38:27.195Z</time>
      </trkpt>
      <trkpt lat="48.87017" lon="2.36615">
        <ele>106.2</ele>
        <time>2013-09-03T18:38:28.215Z</time>
      </trkpt>
      <trkpt lat="48.87013" lon="2.36621">
        <ele>106.5</ele>
        <time>2013-09-03T18:38:29.215Z</time>
      </trkpt>
      <trkpt lat="48.87009" lon="2.36626">
        <ele>106.5</ele>
        <time>2013-09-03T18:38:30.205Z</time>
      </trkpt>
      <trkpt lat="48.87006" lon="2.36632">
        <ele>107.7</ele>
        <time>2013-09-03T18:38:31.218Z</time>
      </trkpt>
      <trkpt lat="48.87002" lon="2.36636">
        <ele>106.6</ele>
        <time>2013-09-03T18:38:32.205Z</time>
      </trkpt>
      <trkpt lat="48.86999" lon="2.3664">
        <ele>106.4</ele>
        <time>2013-09-03T18:38:33.227Z</time>
      </trkpt>
      <trkpt lat="48.86993" lon="2.36648">
        <ele>109.3</ele>
        <time>2013-09-03T18:38:35.235Z</time>
      </trkpt>
      <trkpt lat="48.86992" lon="2.36651">
        <ele>112.6</ele>
        <time>2013-09-03T18:38:36.220Z</time>
      </trkpt>
      <trkpt lat="48.86985" lon="2.36646">
        <ele>110.6</ele>
        <time>2013-09-03T18:38:44.247Z</time>
      </trkpt>
      <trkpt lat="48.86984" lon="2.36645">
        <ele>109.9</ele>
        <time>2013-09-03T18:38:45.221Z</time>
      </trkpt>
      <trkpt lat="48.86983" lon="2.3664">
        <ele>107.9</ele>
        <time>2013-09-03T18:38:54.262Z</time>
      </trkpt>
      <trkpt lat="48.86983" lon="2.3664">
        <ele>108.3</ele>
        <time>2013-09-03T18:38:55.396Z</time>
      </trkpt>
      <trkpt lat="48.86983" lon="2.36641">
        <ele>109.6</ele>
        <time>2013-09-03T18:39:43.406Z</time>
      </trkpt>
      <trkpt lat="48.86983" lon="2.36641">
        <ele>109.9</ele>
        <time>2013-09-03T18:39:44.237Z</time>
      </trkpt>
      <trkpt lat="48.86977" lon="2.36646">
        <ele>114.2</ele>
        <time>2013-09-03T18:39:52.221Z</time>
      </trkpt>
      <trkpt lat="48.86974" lon="2.36648">
        <ele>115</ele>
        <time>2013-09-03T18:39:53.224Z</time>
      </trkpt>
      <trkpt lat="48.86968" lon="2.36653">
        <ele>115.8</ele>
        <time>2013-09-03T18:39:55.247Z</time>
      </trkpt>
      <trkpt lat="48.86965" lon="2.36656">
        <ele>114.4</ele>
        <time>2013-09-03T18:39:56.214Z</time>
      </trkpt>
      <trkpt lat="48.86957" lon="2.36662">
        <ele>111.9</ele>
        <time>2013-09-03T18:39:58.202Z</time>
      </trkpt>
      <trkpt lat="48.86953" lon="2.36665">
        <ele>111.2</ele>
        <time>2013-09-03T18:39:59.253Z</time>
      </trkpt>
      <trkpt lat="48.86948" lon="2.36669">
        <ele>110.5</ele>
        <time>2013-09-03T18:40:00.222Z</time>
      </trkpt>
      <trkpt lat="48.86943" lon="2.36673">
        <ele>111.1</ele>
        <time>2013-09-03T18:40:01.241Z</time>
      </trkpt>
      <trkpt lat="48.86938" lon="2.36678">
        <ele>110.9</ele>
        <time>2013-09-03T18:40:02.228Z</time>
      </trkpt>
      <trkpt lat="48.86934" lon="2.36682">
        <ele>110.4</ele>
        <time>2013-09-03T18:40:03.229Z</time>
      </trkpt>
      <trkpt lat="48.86929" lon="2.36687">
        <ele>108.8</ele>
        <time>2013-09-03T18:40:04.230Z</time>
      </trkpt>
      <trkpt lat="48.86925" lon="2.36692">
        <ele>108.2</ele>
        <time>2013-09-03T18:40:05.248Z</time>
      </trkpt>
      <trkpt lat="48.86921" lon="2.36697">
        <ele>109.1</ele>
        <time>2013-09-03T18:40:06.244Z</time>
      </trkpt>
      <trkpt lat="48.86917" lon="2.36701">
        <ele>110</ele>
        <time>2013-09-03T18:40:07.234Z</time>
      </trkpt>
      <trkpt lat="48.86913" lon="2.36705">
        <ele>110.5</ele>
        <time>2013-09-03T18:40:08.244Z</time>
      </trkpt>
      <trkpt lat="48.86909" lon="2.36708">
        <ele>110.6</ele>
        <time>2013-09-03T18:40:09.228Z</time>
      </trkpt>
      <trkpt lat="48.86905" lon="2.36712">
        <ele>109.6</ele>
        <time>2013-09-03T18:40:10.246Z</time>
      </trkpt>
      <trkpt lat="48.86902" lon="2.36715">
        <ele>109.5</ele>
        <time>2013-09-03T18:40:11.211Z</time>
      </trkpt>
      <trkpt lat="48.86897" lon="2.36718">
        <ele>110.4</ele>
        <time>2013-09-03T18:40:12.244Z</time>
      </trkpt>
      <trkpt lat="48.86893" lon="2.36722">
        <ele>110.7</ele>
        <time>2013-09-03T18:40:13.228Z</time>
      </trkpt>
      <trkpt lat="48.86889" lon="2.36725">
        <ele>110.5</ele>
        <time>2013-09-03T18:40:14.220Z</time>
      </trkpt>
      <trkpt lat="48.86885" lon="2.36728">
        <ele>110</ele>
        <time>2013-09-03T18:40:15.231Z</time>
      </trkpt>
      <trkpt lat="48.86881" lon="2.36731">
        <ele>110</ele>
        <time>2013-09-03T18:40:16.243Z</time>
      </trkpt>
      <trkpt lat="48.86877" lon="2.36734">
        <ele>109.6</ele>
        <time>2013-09-03T18:40:17.265Z</time>
      </trkpt>
      <trkpt lat="48.86872" lon="2.36737">
        <ele>108</ele>
        <time>2013-09-03T18:40:18.237Z</time>
      </trkpt>
      <trkpt lat="48.86868" lon="2.3674">
        <ele>107.1</ele>
        <time>2013-09-03T18:40:19.235Z</time>
      </trkpt>
      <trkpt lat="48.86864" lon="2.36743">
        <ele>107.3</ele>
        <time>2013-09-03T18:40:20.226Z</time>
      </trkpt>
      <trkpt lat="48.8686" lon="2.36746">
        <ele>106.8</ele>
        <time>2013-09-03T18:40:21.232Z</time>
      </trkpt>
      <trkpt lat="48.86851" lon="2.36751">
        <ele>106.1</ele>
        <time>2013-09-03T18:40:23.245Z</time>
      </trkpt>
      <trkpt lat="48.86847" lon="2.36754">
        <ele>104.8</ele>
        <time>2013-09-03T18:40:24.377Z</time>
      </trkpt>
      <trkpt lat="48.86839" lon="2.36759">
        <ele>103.8</ele>
        <time>2013-09-03T18:40:26.385Z</time>
      </trkpt>
      <trkpt lat="48.86835" lon="2.36762">
        <ele>103.7</ele>
        <time>2013-09-03T18:40:27.309Z</time>
      </trkpt>
      <trkpt lat="48.86831" lon="2.36765">
        <ele>103.4</ele>
        <time>2013-09-03T18:40:28.335Z</time>
      </trkpt>
      <trkpt lat="48.86827" lon="2.36768">
        <ele>103.4</ele>
        <time>2013-09-03T18:40:29.384Z</time>
      </trkpt>
      <trkpt lat="48.86822" lon="2.36772">
        <ele>104.1</ele>
        <time>2013-09-03T18:40:30.252Z</time>
      </trkpt>
      <trkpt lat="48.86817" lon="2.36776">
        <ele>104.1</ele>
        <time>2013-09-03T18:40:31.359Z</time>
      </trkpt>
      <trkpt lat="48.86813" lon="2.36779">
        <ele>104.2</ele>
        <time>2013-09-03T18:40:32.238Z</time>
      </trkpt>
      <trkpt lat="48.86808" lon="2.36783">
        <ele>104.1</ele>
        <time>2013-09-03T18:40:33.385Z</time>
      </trkpt>
      <trkpt lat="48.86805" lon="2.36786">
        <ele>105.1</ele>
        <time>2013-09-03T18:40:34.241Z</time>
      </trkpt>
      <trkpt lat="48.868" lon="2.36789">
        <ele>104.4</ele>
        <time>2013-09-03T18:40:35.372Z</time>
      </trkpt>
      <trkpt lat="48.86796" lon="2.36791">
        <ele>104.5</ele>
        <time>2013-09-03T18:40:36.225Z</time>
      </trkpt>
      <trkpt lat="48.86791" lon="2.36796">
        <ele>105.8</ele>
        <time>2013-09-03T18:40:37.235Z</time>
      </trkpt>
      <trkpt lat="48.86786" lon="2.36801">
        <ele>107</ele>
        <time>2013-09-03T18:40:38.225Z</time>
      </trkpt>
      <trkpt lat="48.86781" lon="2.36805">
        <ele>107.1</ele>
        <time>2013-09-03T18:40:39.212Z</time>
      </trkpt>
      <trkpt lat="48.86774" lon="2.3681">
        <ele>104.1</ele>
        <time>2013-09-03T18:40:40.391Z</time>
      </trkpt>
      <trkpt lat="48.86769" lon="2.36813">
        <ele>101.9</ele>
        <time>2013-09-03T18:40:41.236Z</time>
      </trkpt>
      <trkpt lat="48.86763" lon="2.36817">
        <ele>101.6</ele>
        <time>2013-09-03T18:40:42.382Z</time>
      </trkpt>
      <trkpt lat="48.86758" lon="2.36819">
        <ele>100.5</ele>
        <time>2013-09-03T18:40:43.261Z</time>
      </trkpt>
      <trkpt lat="48.86753" lon="2.3682">
        <ele>99.3</ele>
        <time>2013-09-03T18:40:44.343Z</time>
      </trkpt>
      <trkpt lat="48.86748" lon="2.36822">
        <ele>97.7</ele>
        <time>2013-09-03T18:40:45.234Z</time>
      </trkpt>
      <trkpt lat="48.86743" lon="2.36823">
        <ele>98.3</ele>
        <time>2013-09-03T18:40:46.219Z</time>
      </trkpt>
      <trkpt lat="48.86738" lon="2.36826">
        <ele>98.4</ele>
        <time>2013-09-03T18:40:47.208Z</time>
      </trkpt>
      <trkpt lat="48.86733" lon="2.36829">
        <ele>98.8</ele>
        <time>2013-09-03T18:40:48.204Z</time>
      </trkpt>
      <trkpt lat="48.86729" lon="2.36833">
        <ele>98.5</ele>
        <time>2013-09-03T18:40:49.244Z</time>
      </trkpt>
      <trkpt lat="48.86725" lon="2.36836">
        <ele>98.3</ele>
        <time>2013-09-03T18:40:50.237Z</time>
      </trkpt>
      <trkpt lat="48.8672" lon="2.3684">
        <ele>97.9</ele>
        <time>2013-09-03T18:40:51.246Z</time>
      </trkpt>
      <trkpt lat="48.86716" lon="2.36844">
        <ele>98.3</ele>
        <time>2013-09-03T18:40:52.237Z</time>
      </trkpt>
      <trkpt lat="48.86711" lon="2.36848">
        <ele>98.9</ele>
        <time>2013-09-03T18:40:53.243Z</time>
      </trkpt>
      <trkpt lat="48.86705" lon="2.36852">
        <ele>99.8</ele>
        <time>2013-09-03T18:40:54.243Z</time>
      </trkpt>
      <trkpt lat="48.86699" lon="2.36855">
        <ele>99.9</ele>
        <time>2013-09-03T18:40:55.225Z</time>
      </trkpt>
      <trkpt lat="48.86693" lon="2.36861">
        <ele>99.6</ele>
        <time>2013-09-03T18:40:56.233Z</time>
      </trkpt>
      <trkpt lat="48.86687" lon="2.36868">
        <ele>99.1</ele>
        <time>2013-09-03T18:40:57.246Z</time>
      </trkpt>
      <trkpt lat="48.8668" lon="2.36875">
        <ele>99.2</ele>
        <time>2013-09-03T18:40:59.237Z</time>
      </trkpt>
      <trkpt lat="48.86677" lon="2.36876">
        <ele>99.3</ele>
        <time>2013-09-03T18:41:00.271Z</time>
      </trkpt>
      <trkpt lat="48.86671" lon="2.36882">
        <ele>99</ele>
        <time>2013-09-03T18:41:02.229Z</time>
      </trkpt>
      <trkpt lat="48.86668" lon="2.36886">
        <ele>99</ele>
        <time>2013-09-03T18:41:03.259Z</time>
      </trkpt>
      <trkpt lat="48.86661" lon="2.36894">
        <ele>98.4</ele>
        <time>2013-09-03T18:41:05.229Z</time>
      </trkpt>
      <trkpt lat="48.86658" lon="2.36893">
        <ele>96.2</ele>
        <time>2013-09-03T18:41:06.218Z</time>
      </trkpt>
      <trkpt lat="48.86651" lon="2.36901">
        <ele>80.9</ele>
        <time>2013-09-03T18:41:19.247Z</time>
      </trkpt>
      <trkpt lat="48.86651" lon="2.369">
        <ele>80.9</ele>
        <time>2013-09-03T18:41:20.245Z</time>
      </trkpt>
      <trkpt lat="48.86651" lon="2.36899">
        <ele>80.9</ele>
        <time>2013-09-03T18:41:21.247Z</time>
      </trkpt>
      <trkpt lat="48.8665" lon="2.36899">
        <ele>81.6</ele>
        <time>2013-09-03T18:41:24.238Z</time>
      </trkpt>
      <trkpt lat="48.8665" lon="2.36899">
        <ele>81.9</ele>
        <time>2013-09-03T18:41:25.236Z</time>
      </trkpt>
      <trkpt lat="48.8665" lon="2.36899">
        <ele>83.4</ele>
        <time>2013-09-03T18:41:55.227Z</time>
      </trkpt>
      <trkpt lat="48.86649" lon="2.36901">
        <ele>82.7</ele>
        <time>2013-09-03T18:41:56.233Z</time>
      </trkpt>
      <trkpt lat="48.86644" lon="2.36911">
        <ele>82.6</ele>
        <time>2013-09-03T18:41:59.240Z</time>
      </trkpt>
      <trkpt lat="48.86643" lon="2.36916">
        <ele>81.8</ele>
        <time>2013-09-03T18:42:00.222Z</time>
      </trkpt>
      <trkpt lat="48.86638" lon="2.36926">
        <ele>83</ele>
        <time>2013-09-03T18:42:03.290Z</time>
      </trkpt>
      <trkpt lat="48.86636" lon="2.36929">
        <ele>85.5</ele>
        <time>2013-09-03T18:42:04.424Z</time>
      </trkpt>
      <trkpt lat="48.86631" lon="2.36938">
        <ele>89.3</ele>
        <time>2013-09-03T18:42:06.431Z</time>
      </trkpt>
      <trkpt lat="48.86629" lon="2.36943">
        <ele>89.5</ele>
        <time>2013-09-03T18:42:07.231Z</time>
      </trkpt>
      <trkpt lat="48.86627" lon="2.36951">
        <ele>87</ele>
        <time>2013-09-03T18:42:08.367Z</time>
      </trkpt>
      <trkpt lat="48.86624" lon="2.36958">
        <ele>86.3</ele>
        <time>2013-09-03T18:42:09.335Z</time>
      </trkpt>
      <trkpt lat="48.86621" lon="2.36969">
        <ele>87.3</ele>
        <time>2013-09-03T18:42:10.345Z</time>
      </trkpt>
      <trkpt lat="48.8662" lon="2.36979">
        <ele>87.7</ele>
        <time>2013-09-03T18:42:11.441Z</time>
      </trkpt>
      <trkpt lat="48.86618" lon="2.36987">
        <ele>88.8</ele>
        <time>2013-09-03T18:42:12.262Z</time>
      </trkpt>
      <trkpt lat="48.86617" lon="2.36996">
        <ele>89.6</ele>
        <time>2013-09-03T18:42:13.436Z</time>
      </trkpt>
      <trkpt lat="48.86616" lon="2.37002">
        <ele>90.8</ele>
        <time>2013-09-03T18:42:14.243Z</time>
      </trkpt>
      <trkpt lat="48.86615" lon="2.3701">
        <ele>91.6</ele>
        <time>2013-09-03T18:42:15.414Z</time>
      </trkpt>
      <trkpt lat="48.86614" lon="2.37016">
        <ele>89.9</ele>
        <time>2013-09-03T18:42:16.285Z</time>
      </trkpt>
      <trkpt lat="48.86612" lon="2.37023">
        <ele>89.4</ele>
        <time>2013-09-03T18:42:17.377Z</time>
      </trkpt>
      <trkpt lat="48.86609" lon="2.37033">
        <ele>90.3</ele>
        <time>2013-09-03T18:42:19.307Z</time>
      </trkpt>
      <trkpt lat="48.86608" lon="2.37037">
        <ele>90.7</ele>
        <time>2013-09-03T18:42:20.433Z</time>
      </trkpt>
      <trkpt lat="48.86607" lon="2.37048">
        <ele>88.8</ele>
        <time>2013-09-03T18:42:22.425Z</time>
      </trkpt>
      <trkpt lat="48.86608" lon="2.37054">
        <ele>87.8</ele>
        <time>2013-09-03T18:42:23.245Z</time>
      </trkpt>
      <trkpt lat="48.86608" lon="2.37061">
        <ele>87.4</ele>
        <time>2013-09-03T18:42:24.264Z</time>
      </trkpt>
      <trkpt lat="48.86608" lon="2.37069">
        <ele>87</ele>
        <time>2013-09-03T18:42:25.341Z</time>
      </trkpt>
      <trkpt lat="48.86608" lon="2.37081">
        <ele>87.5</ele>
        <time>2013-09-03T18:42:27.414Z</time>
      </trkpt>
      <trkpt lat="48.86608" lon="2.37086">
        <ele>88.7</ele>
        <time>2013-09-03T18:42:28.268Z</time>
      </trkpt>
      <trkpt lat="48.8661" lon="2.37095">
        <ele>93.3</ele>
        <time>2013-09-03T18:42:30.250Z</time>
      </trkpt>
      <trkpt lat="48.86612" lon="2.37098">
        <ele>94.6</ele>
        <time>2013-09-03T18:42:31.433Z</time>
      </trkpt>
      <trkpt lat="48.8662" lon="2.37105">
        <ele>96.7</ele>
        <time>2013-09-03T18:42:34.283Z</time>
      </trkpt>
      <trkpt lat="48.86621" lon="2.37108">
        <ele>98.2</ele>
        <time>2013-09-03T18:42:35.255Z</time>
      </trkpt>
      <trkpt lat="48.86621" lon="2.37116">
        <ele>98.4</ele>
        <time>2013-09-03T18:42:37.254Z</time>
      </trkpt>
      <trkpt lat="48.86619" lon="2.37121">
        <ele>95.6</ele>
        <time>2013-09-03T18:42:38.223Z</time>
      </trkpt>
      <trkpt lat="48.86616" lon="2.37127">
        <ele>95.5</ele>
        <time>2013-09-03T18:42:39.245Z</time>
      </trkpt>
      <trkpt lat="48.86612" lon="2.37133">
        <ele>96.9</ele>
        <time>2013-09-03T18:42:40.254Z</time>
      </trkpt>
      <trkpt lat="48.86608" lon="2.37138">
        <ele>96.3</ele>
        <time>2013-09-03T18:42:41.243Z</time>
      </trkpt>
      <trkpt lat="48.86604" lon="2.37142">
        <ele>95.1</ele>
        <time>2013-09-03T18:42:42.260Z</time>
      </trkpt>
      <trkpt lat="48.86599" lon="2.37143">
        <ele>93.6</ele>
        <time>2013-09-03T18:42:43.234Z</time>
      </trkpt>
      <trkpt lat="48.86595" lon="2.37142">
        <ele>92.5</ele>
        <time>2013-09-03T18:42:44.261Z</time>
      </trkpt>
      <trkpt lat="48.86586" lon="2.37142">
        <ele>92.5</ele>
        <time>2013-09-03T18:42:46.244Z</time>
      </trkpt>
      <trkpt lat="48.86582" lon="2.37143">
        <ele>92.9</ele>
        <time>2013-09-03T18:42:47.235Z</time>
      </trkpt>
      <trkpt lat="48.86577" lon="2.37145">
        <ele>92.9</ele>
        <time>2013-09-03T18:42:48.255Z</time>
      </trkpt>
      <trkpt lat="48.86573" lon="2.37148">
        <ele>91.6</ele>
        <time>2013-09-03T18:42:49.261Z</time>
      </trkpt>
      <trkpt lat="48.86568" lon="2.37152">
        <ele>86.1</ele>
        <time>2013-09-03T18:42:50.243Z</time>
      </trkpt>
      <trkpt lat="48.86563" lon="2.37156">
        <ele>84.2</ele>
        <time>2013-09-03T18:42:51.247Z</time>
      </trkpt>
      <trkpt lat="48.86558" lon="2.37161">
        <ele>83.8</ele>
        <time>2013-09-03T18:42:52.244Z</time>
      </trkpt>
      <trkpt lat="48.86552" lon="2.37166">
        <ele>83.2</ele>
        <time>2013-09-03T18:42:53.257Z</time>
      </trkpt>
      <trkpt lat="48.86547" lon="2.3717">
        <ele>82.8</ele>
        <time>2013-09-03T18:42:54.238Z</time>
      </trkpt>
      <trkpt lat="48.86542" lon="2.37174">
        <ele>82.5</ele>
        <time>2013-09-03T18:42:55.253Z</time>
      </trkpt>
      <trkpt lat="48.86536" lon="2.37178">
        <ele>81.9</ele>
        <time>2013-09-03T18:42:56.245Z</time>
      </trkpt>
      <trkpt lat="48.8653" lon="2.37181">
        <ele>82.9</ele>
        <time>2013-09-03T18:42:57.269Z</time>
      </trkpt>
      <trkpt lat="48.86525" lon="2.37184">
        <ele>81.8</ele>
        <time>2013-09-03T18:42:58.235Z</time>
      </trkpt>
      <trkpt lat="48.86518" lon="2.3719">
        <ele>81.6</ele>
        <time>2013-09-03T18:42:59.237Z</time>
      </trkpt>
      <trkpt lat="48.86512" lon="2.37195">
        <ele>81.4</ele>
        <time>2013-09-03T18:43:00.297Z</time>
      </trkpt>
      <trkpt lat="48.86507" lon="2.37199">
        <ele>81.8</ele>
        <time>2013-09-03T18:43:01.222Z</time>
      </trkpt>
      <trkpt lat="48.86499" lon="2.37203">
        <ele>80.1</ele>
        <time>2013-09-03T18:43:03.242Z</time>
      </trkpt>
      <trkpt lat="48.86496" lon="2.37205">
        <ele>79.5</ele>
        <time>2013-09-03T18:43:04.250Z</time>
      </trkpt>
      <trkpt lat="48.86489" lon="2.37209">
        <ele>78.4</ele>
        <time>2013-09-03T18:43:06.233Z</time>
      </trkpt>
      <trkpt lat="48.86486" lon="2.37212">
        <ele>78</ele>
        <time>2013-09-03T18:43:07.253Z</time>
      </trkpt>
      <trkpt lat="48.8648" lon="2.37219">
        <ele>78</ele>
        <time>2013-09-03T18:43:09.246Z</time>
      </trkpt>
      <trkpt lat="48.86478" lon="2.37222">
        <ele>78.2</ele>
        <time>2013-09-03T18:43:10.235Z</time>
      </trkpt>
      <trkpt lat="48.86469" lon="2.37227">
        <ele>80.7</ele>
        <time>2013-09-03T18:43:13.247Z</time>
      </trkpt>
      <trkpt lat="48.86466" lon="2.37227">
        <ele>80.6</ele>
        <time>2013-09-03T18:43:14.234Z</time>
      </trkpt>
      <trkpt lat="48.86461" lon="2.37221">
        <ele>81.4</ele>
        <time>2013-09-03T18:43:16.326Z</time>
      </trkpt>
      <trkpt lat="48.86459" lon="2.37216">
        <ele>81.7</ele>
        <time>2013-09-03T18:43:17.247Z</time>
      </trkpt>
      <trkpt lat="48.86457" lon="2.37209">
        <ele>82.7</ele>
        <time>2013-09-03T18:43:18.311Z</time>
      </trkpt>
      <trkpt lat="48.86456" lon="2.37202">
        <ele>84.5</ele>
        <time>2013-09-03T18:43:19.385Z</time>
      </trkpt>
      <trkpt lat="48.86455" lon="2.37195">
        <ele>84.2</ele>
        <time>2013-09-03T18:43:20.263Z</time>
      </trkpt>
      <trkpt lat="48.86454" lon="2.37188">
        <ele>85.2</ele>
        <time>2013-09-03T18:43:21.255Z</time>
      </trkpt>
      <trkpt lat="48.86453" lon="2.3718">
        <ele>85.3</ele>
        <time>2013-09-03T18:43:22.251Z</time>
      </trkpt>
      <trkpt lat="48.86451" lon="2.37171">
        <ele>86</ele>
        <time>2013-09-03T18:43:23.364Z</time>
      </trkpt>
      <trkpt lat="48.8645" lon="2.37164">
        <ele>85.9</ele>
        <time>2013-09-03T18:43:24.306Z</time>
      </trkpt>
      <trkpt lat="48.86448" lon="2.37157">
        <ele>84.4</ele>
        <time>2013-09-03T18:43:25.335Z</time>
      </trkpt>
      <trkpt lat="48.86441" lon="2.37148">
        <ele>87.1</ele>
        <time>2013-09-03T18:43:27.415Z</time>
      </trkpt>
      <trkpt lat="48.86437" lon="2.37148">
        <ele>87.5</ele>
        <time>2013-09-03T18:43:28.242Z</time>
      </trkpt>
      <trkpt lat="48.8643" lon="2.3715">
        <ele>89.7</ele>
        <time>2013-09-03T18:43:30.247Z</time>
      </trkpt>
      <trkpt lat="48.86426" lon="2.37154">
        <ele>91.3</ele>
        <time>2013-09-03T18:43:31.235Z</time>
      </trkpt>
      <trkpt lat="48.86423" lon="2.3716">
        <ele>92.2</ele>
        <time>2013-09-03T18:43:32.240Z</time>
      </trkpt>
      <trkpt lat="48.86419" lon="2.37167">
        <ele>92.1</ele>
        <time>2013-09-03T18:43:33.249Z</time>
      </trkpt>
      <trkpt lat="48.86414" lon="2.37179">
        <ele>91.4</ele>
        <time>2013-09-03T18:43:34.275Z</time>
      </trkpt>
      <trkpt lat="48.8641" lon="2.37189">
        <ele>91.9</ele>
        <time>2013-09-03T18:43:35.255Z</time>
      </trkpt>
      <trkpt lat="48.86405" lon="2.37197">
        <ele>91.5</ele>
        <time>2013-09-03T18:43:36.255Z</time>
      </trkpt>
      <trkpt lat="48.864" lon="2.37204">
        <ele>90.9</ele>
        <time>2013-09-03T18:43:37.311Z</time>
      </trkpt>
      <trkpt lat="48.86395" lon="2.37209">
        <ele>90.7</ele>
        <time>2013-09-03T18:43:38.265Z</time>
      </trkpt>
      <trkpt lat="48.86391" lon="2.37213">
        <ele>90.1</ele>
        <time>2013-09-03T18:43:39.229Z</time>
      </trkpt>
      <trkpt lat="48.86387" lon="2.37218">
        <ele>88.5</ele>
        <time>2013-09-03T18:43:40.327Z</time>
      </trkpt>
      <trkpt lat="48.86383" lon="2.37223">
        <ele>88.6</ele>
        <time>2013-09-03T18:43:41.374Z</time>
      </trkpt>
      <trkpt lat="48.8638" lon="2.37227">
        <ele>88.3</ele>
        <time>2013-09-03T18:43:42.279Z</time>
      </trkpt>
      <trkpt lat="48.86375" lon="2.37233">
        <ele>88.3</ele>
        <time>2013-09-03T18:43:43.404Z</time>
      </trkpt>
      <trkpt lat="48.86372" lon="2.37237">
        <ele>87.6</ele>
        <time>2013-09-03T18:43:44.276Z</time>
      </trkpt>
      <trkpt lat="48.86368" lon="2.37243">
        <ele>85.4</ele>
        <time>2013-09-03T18:43:45.335Z</time>
      </trkpt>
      <trkpt lat="48.86365" lon="2.37249">
        <ele>86.3</ele>
        <time>2013-09-03T18:43:46.265Z</time>
      </trkpt>
      <trkpt lat="48.86359" lon="2.37259">
        <ele>85.8</ele>
        <time>2013-09-03T18:43:48.260Z</time>
      </trkpt>
      <trkpt lat="48.86356" lon="2.37263">
        <ele>84.7</ele>
        <time>2013-09-03T18:43:49.263Z</time>
      </trkpt>
      <trkpt lat="48.86352" lon="2.37267">
        <ele>84.1</ele>
        <time>2013-09-03T18:43:50.276Z</time>
      </trkpt>
      <trkpt lat="48.86348" lon="2.3727">
        <ele>82.5</ele>
        <time>2013-09-03T18:43:51.265Z</time>
      </trkpt>
      <trkpt lat="48.86344" lon="2.37276">
        <ele>81.9</ele>
        <time>2013-09-03T18:43:52.252Z</time>
      </trkpt>
      <trkpt lat="48.8634" lon="2.37282">
        <ele>81.5</ele>
        <time>2013-09-03T18:43:53.255Z</time>
      </trkpt>
      <trkpt lat="48.86336" lon="2.37288">
        <ele>82</ele>
        <time>2013-09-03T18:43:54.256Z</time>
      </trkpt>
      <trkpt lat="48.86332" lon="2.37294">
        <ele>82</ele>
        <time>2013-09-03T18:43:55.454Z</time>
      </trkpt>
      <trkpt lat="48.86329" lon="2.37298">
        <ele>82.9</ele>
        <time>2013-09-03T18:43:56.360Z</time>
      </trkpt>
      <trkpt lat="48.86325" lon="2.37302">
        <ele>82.1</ele>
        <time>2013-09-03T18:43:57.375Z</time>
      </trkpt>
      <trkpt lat="48.86321" lon="2.37307">
        <ele>82.6</ele>
        <time>2013-09-03T18:43:58.316Z</time>
      </trkpt>
      <trkpt lat="48.86317" lon="2.37311">
        <ele>83</ele>
        <time>2013-09-03T18:43:59.254Z</time>
      </trkpt>
      <trkpt lat="48.86309" lon="2.37316">
        <ele>82.8</ele>
        <time>2013-09-03T18:44:01.303Z</time>
      </trkpt>
      <trkpt lat="48.86305" lon="2.37317">
        <ele>84.1</ele>
        <time>2013-09-03T18:44:02.273Z</time>
      </trkpt>
      <trkpt lat="48.86298" lon="2.37325">
        <ele>85.2</ele>
        <time>2013-09-03T18:44:04.383Z</time>
      </trkpt>
      <trkpt lat="48.86295" lon="2.37329">
        <ele>85.6</ele>
        <time>2013-09-03T18:44:05.294Z</time>
      </trkpt>
      <trkpt lat="48.86288" lon="2.37338">
        <ele>85.6</ele>
        <time>2013-09-03T18:44:07.252Z</time>
      </trkpt>
      <trkpt lat="48.86285" lon="2.37342">
        <ele>85.2</ele>
        <time>2013-09-03T18:44:08.246Z</time>
      </trkpt>
      <trkpt lat="48.86281" lon="2.37346">
        <ele>84.4</ele>
        <time>2013-09-03T18:44:09.272Z</time>
      </trkpt>
      <trkpt lat="48.86277" lon="2.3735">
        <ele>87.9</ele>
        <time>2013-09-03T18:44:10.244Z</time>
      </trkpt>
      <trkpt lat="48.86273" lon="2.37354">
        <ele>89.1</ele>
        <time>2013-09-03T18:44:11.237Z</time>
      </trkpt>
      <trkpt lat="48.86268" lon="2.37357">
        <ele>89.5</ele>
        <time>2013-09-03T18:44:12.279Z</time>
      </trkpt>
      <trkpt lat="48.86263" lon="2.37362">
        <ele>88.2</ele>
        <time>2013-09-03T18:44:13.257Z</time>
      </trkpt>
      <trkpt lat="48.86259" lon="2.37369">
        <ele>88.1</ele>
        <time>2013-09-03T18:44:14.463Z</time>
      </trkpt>
      <trkpt lat="48.86256" lon="2.37373">
        <ele>88.7</ele>
        <time>2013-09-03T18:44:15.255Z</time>
      </trkpt>
      <trkpt lat="48.86251" lon="2.37378">
        <ele>87.3</ele>
        <time>2013-09-03T18:44:16.267Z</time>
      </trkpt>
      <trkpt lat="48.86247" lon="2.37384">
        <ele>87.5</ele>
        <time>2013-09-03T18:44:17.244Z</time>
      </trkpt>
      <trkpt lat="48.86243" lon="2.37389">
        <ele>86.7</ele>
        <time>2013-09-03T18:44:18.223Z</time>
      </trkpt>
      <trkpt lat="48.86238" lon="2.37394">
        <ele>86.3</ele>
        <time>2013-09-03T18:44:19.241Z</time>
      </trkpt>
      <trkpt lat="48.86234" lon="2.374">
        <ele>86.5</ele>
        <time>2013-09-03T18:44:20.285Z</time>
      </trkpt>
      <trkpt lat="48.8623" lon="2.37405">
        <ele>86.2</ele>
        <time>2013-09-03T18:44:21.271Z</time>
      </trkpt>
      <trkpt lat="48.86227" lon="2.3741">
        <ele>86.5</ele>
        <time>2013-09-03T18:44:22.265Z</time>
      </trkpt>
      <trkpt lat="48.86223" lon="2.37414">
        <ele>87</ele>
        <time>2013-09-03T18:44:23.240Z</time>
      </trkpt>
      <trkpt lat="48.86218" lon="2.37418">
        <ele>86.9</ele>
        <time>2013-09-03T18:44:24.266Z</time>
      </trkpt>
      <trkpt lat="48.86214" lon="2.37421">
        <ele>86.8</ele>
        <time>2013-09-03T18:44:25.275Z</time>
      </trkpt>
      <trkpt lat="48.8621" lon="2.37424">
        <ele>87.7</ele>
        <time>2013-09-03T18:44:26.232Z</time>
      </trkpt>
      <trkpt lat="48.86205" lon="2.37427">
        <ele>87.4</ele>
        <time>2013-09-03T18:44:27.258Z</time>
      </trkpt>
      <trkpt lat="48.86202" lon="2.37431">
        <ele>87.5</ele>
        <time>2013-09-03T18:44:28.221Z</time>
      </trkpt>
      <trkpt lat="48.86194" lon="2.37439">
        <ele>87</ele>
        <time>2013-09-03T18:44:30.228Z</time>
      </trkpt>
      <trkpt lat="48.86191" lon="2.37443">
        <ele>87.3</ele>
        <time>2013-09-03T18:44:31.287Z</time>
      </trkpt>
      <trkpt lat="48.86188" lon="2.37447">
        <ele>86.9</ele>
        <time>2013-09-03T18:44:32.234Z</time>
      </trkpt>
      <trkpt lat="48.86184" lon="2.37452">
        <ele>86.2</ele>
        <time>2013-09-03T18:44:33.265Z</time>
      </trkpt>
      <trkpt lat="48.8618" lon="2.37457">
        <ele>86.4</ele>
        <time>2013-09-03T18:44:34.236Z</time>
      </trkpt>
      <trkpt lat="48.86175" lon="2.37462">
        <ele>86.3</ele>
        <time>2013-09-03T18:44:35.264Z</time>
      </trkpt>
      <trkpt lat="48.86172" lon="2.37467">
        <ele>86.1</ele>
        <time>2013-09-03T18:44:36.244Z</time>
      </trkpt>
      <trkpt lat="48.86169" lon="2.37472">
        <ele>86.9</ele>
        <time>2013-09-03T18:44:37.266Z</time>
      </trkpt>
      <trkpt lat="48.86162" lon="2.3748">
        <ele>86</ele>
        <time>2013-09-03T18:44:39.255Z</time>
      </trkpt>
      <trkpt lat="48.86159" lon="2.37484">
        <ele>86.2</ele>
        <time>2013-09-03T18:44:40.242Z</time>
      </trkpt>
      <trkpt lat="48.86152" lon="2.37489">
        <ele>85.3</ele>
        <time>2013-09-03T18:44:42.239Z</time>
      </trkpt>
      <trkpt lat="48.86148" lon="2.37491">
        <ele>85.7</ele>
        <time>2013-09-03T18:44:43.256Z</time>
      </trkpt>
      <trkpt lat="48.8614" lon="2.37498">
        <ele>85</ele>
        <time>2013-09-03T18:44:45.244Z</time>
      </trkpt>
      <trkpt lat="48.86136" lon="2.375">
        <ele>84.5</ele>
        <time>2013-09-03T18:44:46.258Z</time>
      </trkpt>
      <trkpt lat="48.86129" lon="2.37505">
        <ele>82</ele>
        <time>2013-09-03T18:44:48.274Z</time>
      </trkpt>
      <trkpt lat="48.86126" lon="2.37508">
        <ele>82.5</ele>
        <time>2013-09-03T18:44:49.263Z</time>
      </trkpt>
      <trkpt lat="48.86118" lon="2.3751">
        <ele>84.7</ele>
        <time>2013-09-03T18:44:53.272Z</time>
      </trkpt>
      <trkpt lat="48.86117" lon="2.3751">
        <ele>84.6</ele>
        <time>2013-09-03T18:44:54.282Z</time>
      </trkpt>
      <trkpt lat="48.86111" lon="2.37508">
        <ele>84.1</ele>
        <time>2013-09-03T18:45:03.295Z</time>
      </trkpt>
      <trkpt lat="48.86111" lon="2.37508">
        <ele>84.9</ele>
        <time>2013-09-03T18:45:04.265Z</time>
      </trkpt>
      <trkpt lat="48.86111" lon="2.37508">
        <ele>84.5</ele>
        <time>2013-09-03T18:45:06.235Z</time>
      </trkpt>
      <trkpt lat="48.8611" lon="2.37508">
        <ele>84.9</ele>
        <time>2013-09-03T18:45:07.261Z</time>
      </trkpt>
      <trkpt lat="48.86108" lon="2.3751">
        <ele>85.5</ele>
        <time>2013-09-03T18:45:15.280Z</time>
      </trkpt>
      <trkpt lat="48.86108" lon="2.3751">
        <ele>85.5</ele>
        <time>2013-09-03T18:45:16.461Z</time>
      </trkpt>
      <trkpt lat="48.86108" lon="2.37512">
        <ele>87</ele>
        <time>2013-09-03T18:46:48.259Z</time>
      </trkpt>
      <trkpt lat="48.86107" lon="2.37513">
        <ele>88.2</ele>
        <time>2013-09-03T18:46:49.241Z</time>
      </trkpt>
      <trkpt lat="48.86098" lon="2.37513">
        <ele>91.8</ele>
        <time>2013-09-03T18:47:00.341Z</time>
      </trkpt>
      <trkpt lat="48.86098" lon="2.37512">
        <ele>92</ele>
        <time>2013-09-03T18:47:01.275Z</time>
      </trkpt>
      <trkpt lat="48.86097" lon="2.37512">
        <ele>92.3</ele>
        <time>2013-09-03T18:47:04.265Z</time>
      </trkpt>
      <trkpt lat="48.86097" lon="2.37512">
        <ele>92.3</ele>
        <time>2013-09-03T18:47:05.262Z</time>
      </trkpt>
      <trkpt lat="48.86097" lon="2.37513">
        <ele>92.2</ele>
        <time>2013-09-03T18:47:14.263Z</time>
      </trkpt>
      <trkpt lat="48.86096" lon="2.37514">
        <ele>91.6</ele>
        <time>2013-09-03T18:47:15.265Z</time>
      </trkpt>
      <trkpt lat="48.86092" lon="2.37521">
        <ele>91.4</ele>
        <time>2013-09-03T18:47:18.258Z</time>
      </trkpt>
      <trkpt lat="48.8609" lon="2.37524">
        <ele>91</ele>
        <time>2013-09-03T18:47:19.434Z</time>
      </trkpt>
      <trkpt lat="48.86087" lon="2.37534">
        <ele>90.4</ele>
        <time>2013-09-03T18:47:22.296Z</time>
      </trkpt>
      <trkpt lat="48.86087" lon="2.37539">
        <ele>91</ele>
        <time>2013-09-03T18:47:23.424Z</time>
      </trkpt>
      <trkpt lat="48.8609" lon="2.37549">
        <ele>93.4</ele>
        <time>2013-09-03T18:47:30.367Z</time>
      </trkpt>
      <trkpt lat="48.86092" lon="2.37551">
        <ele>93.7</ele>
        <time>2013-09-03T18:47:31.267Z</time>
      </trkpt>
      <trkpt lat="48.86097" lon="2.37561">
        <ele>92</ele>
        <time>2013-09-03T18:47:34.416Z</time>
      </trkpt>
      <trkpt lat="48.86099" lon="2.37565">
        <ele>91.1</ele>
        <time>2013-09-03T18:47:35.365Z</time>
      </trkpt>
      <trkpt lat="48.86102" lon="2.37574">
        <ele>91.4</ele>
        <time>2013-09-03T18:47:37.278Z</time>
      </trkpt>
      <trkpt lat="48.86104" lon="2.37578">
        <ele>90.8</ele>
        <time>2013-09-03T18:47:38.271Z</time>
      </trkpt>
      <trkpt lat="48.86107" lon="2.37587">
        <ele>90.9</ele>
        <time>2013-09-03T18:47:40.283Z</time>
      </trkpt>
      <trkpt lat="48.86109" lon="2.37592">
        <ele>91.2</ele>
        <time>2013-09-03T18:47:41.475Z</time>
      </trkpt>
      <trkpt lat="48.86113" lon="2.376">
        <ele>90</ele>
        <time>2013-09-03T18:47:43.361Z</time>
      </trkpt>
      <trkpt lat="48.86115" lon="2.37605">
        <ele>90</ele>
        <time>2013-09-03T18:47:44.386Z</time>
      </trkpt>
      <trkpt lat="48.86119" lon="2.37613">
        <ele>87.7</ele>
        <time>2013-09-03T18:47:46.252Z</time>
      </trkpt>
      <trkpt lat="48.86121" lon="2.37617">
        <ele>86.4</ele>
        <time>2013-09-03T18:47:47.258Z</time>
      </trkpt>
      <trkpt lat="48.86126" lon="2.37626">
        <ele>84.6</ele>
        <time>2013-09-03T18:47:49.254Z</time>
      </trkpt>
      <trkpt lat="48.86129" lon="2.3763">
        <ele>84</ele>
        <time>2013-09-03T18:47:50.265Z</time>
      </trkpt>
      <trkpt lat="48.86133" lon="2.37639">
        <ele>84</ele>
        <time>2013-09-03T18:47:52.272Z</time>
      </trkpt>
      <trkpt lat="48.86136" lon="2.37644">
        <ele>83.7</ele>
        <time>2013-09-03T18:47:53.272Z</time>
      </trkpt>
      <trkpt lat="48.86141" lon="2.37655">
        <ele>82.9</ele>
        <time>2013-09-03T18:47:55.276Z</time>
      </trkpt>
      <trkpt lat="48.86144" lon="2.3766">
        <ele>83.3</ele>
        <time>2013-09-03T18:47:56.254Z</time>
      </trkpt>
      <trkpt lat="48.8615" lon="2.37669">
        <ele>83.2</ele>
        <time>2013-09-03T18:47:58.274Z</time>
      </trkpt>
      <trkpt lat="48.86153" lon="2.37673">
        <ele>82.8</ele>
        <time>2013-09-03T18:47:59.260Z</time>
      </trkpt>
      <trkpt lat="48.86158" lon="2.37684">
        <ele>82.3</ele>
        <time>2013-09-03T18:48:01.274Z</time>
      </trkpt>
      <trkpt lat="48.8616" lon="2.3769">
        <ele>82.4</ele>
        <time>2013-09-03T18:48:02.274Z</time>
      </trkpt>
      <trkpt lat="48.86162" lon="2.37703">
        <ele>81.5</ele>
        <time>2013-09-03T18:48:04.265Z</time>
      </trkpt>
      <trkpt lat="48.86163" lon="2.3771">
        <ele>81.5</ele>
        <time>2013-09-03T18:48:05.261Z</time>
      </trkpt>
      <trkpt lat="48.86163" lon="2.37717">
        <ele>80.8</ele>
        <time>2013-09-03T18:48:06.260Z</time>
      </trkpt>
      <trkpt lat="48.86163" lon="2.37724">
        <ele>80.2</ele>
        <time>2013-09-03T18:48:07.274Z</time>
      </trkpt>
      <trkpt lat="48.86161" lon="2.37736">
        <ele>81</ele>
        <time>2013-09-03T18:48:09.276Z</time>
      </trkpt>
      <trkpt lat="48.86158" lon="2.3774">
        <ele>81.6</ele>
        <time>2013-09-03T18:48:10.274Z</time>
      </trkpt>
      <trkpt lat="48.86153" lon="2.37748">
        <ele>83.5</ele>
        <time>2013-09-03T18:48:12.272Z</time>
      </trkpt>
      <trkpt lat="48.86151" lon="2.37751">
        <ele>84.6</ele>
        <time>2013-09-03T18:48:13.238Z</time>
      </trkpt>
      <trkpt lat="48.86145" lon="2.37757">
        <ele>87.4</ele>
        <time>2013-09-03T18:48:15.266Z</time>
      </trkpt>
      <trkpt lat="48.86142" lon="2.3776">
        <ele>87.5</ele>
        <time>2013-09-03T18:48:16.286Z</time>
      </trkpt>
      <trkpt lat="48.86137" lon="2.37768">
        <ele>86.4</ele>
        <time>2013-09-03T18:48:18.283Z</time>
      </trkpt>
      <trkpt lat="48.86134" lon="2.37772">
        <ele>86.7</ele>
        <time>2013-09-03T18:48:19.323Z</time>
      </trkpt>
      <trkpt lat="48.86129" lon="2.37783">
        <ele>93.5</ele>
        <time>2013-09-03T18:48:23.286Z</time>
      </trkpt>
      <trkpt lat="48.86129" lon="2.37786">
        <ele>93.4</ele>
        <time>2013-09-03T18:48:24.258Z</time>
      </trkpt>
      <trkpt lat="48.86126" lon="2.37797">
        <ele>92.9</ele>
        <time>2013-09-03T18:48:31.284Z</time>
      </trkpt>
      <trkpt lat="48.86128" lon="2.37799">
        <ele>93</ele>
        <time>2013-09-03T18:48:32.286Z</time>
      </trkpt>
      <trkpt lat="48.86134" lon="2.37808">
        <ele>95.6</ele>
        <time>2013-09-03T18:48:35.285Z</time>
      </trkpt>
      <trkpt lat="48.86136" lon="2.37812">
        <ele>94.9</ele>
        <time>2013-09-03T18:48:36.275Z</time>
      </trkpt>
      <trkpt lat="48.86141" lon="2.37819">
        <ele>94.8</ele>
        <time>2013-09-03T18:48:38.248Z</time>
      </trkpt>
      <trkpt lat="48.86143" lon="2.37824">
        <ele>95.3</ele>
        <time>2013-09-03T18:48:39.270Z</time>
      </trkpt>
      <trkpt lat="48.86148" lon="2.37833">
        <ele>95.1</ele>
        <time>2013-09-03T18:48:41.283Z</time>
      </trkpt>
      <trkpt lat="48.8615" lon="2.37837">
        <ele>94.8</ele>
        <time>2013-09-03T18:48:42.264Z</time>
      </trkpt>
      <trkpt lat="48.86156" lon="2.37846">
        <ele>90</ele>
        <time>2013-09-03T18:48:45.304Z</time>
      </trkpt>
      <trkpt lat="48.86157" lon="2.37849">
        <ele>88.7</ele>
        <time>2013-09-03T18:48:46.274Z</time>
      </trkpt>
      <trkpt lat="48.86156" lon="2.37859">
        <ele>88.7</ele>
        <time>2013-09-03T18:48:49.275Z</time>
      </trkpt>
      <trkpt lat="48.86153" lon="2.37863">
        <ele>89.9</ele>
        <time>2013-09-03T18:48:50.267Z</time>
      </trkpt>
      <trkpt lat="48.86149" lon="2.37867">
        <ele>88.9</ele>
        <time>2013-09-03T18:48:51.265Z</time>
      </trkpt>
      <trkpt lat="48.86143" lon="2.37871">
        <ele>88.3</ele>
        <time>2013-09-03T18:48:52.293Z</time>
      </trkpt>
      <trkpt lat="48.86138" lon="2.37875">
        <ele>89.1</ele>
        <time>2013-09-03T18:48:53.293Z</time>
      </trkpt>
      <trkpt lat="48.86132" lon="2.37879">
        <ele>89.1</ele>
        <time>2013-09-03T18:48:54.269Z</time>
      </trkpt>
      <trkpt lat="48.86127" lon="2.37883">
        <ele>89.2</ele>
        <time>2013-09-03T18:48:55.336Z</time>
      </trkpt>
      <trkpt lat="48.86123" lon="2.37888">
        <ele>89.9</ele>
        <time>2013-09-03T18:48:56.382Z</time>
      </trkpt>
      <trkpt lat="48.86119" lon="2.37892">
        <ele>90.5</ele>
        <time>2013-09-03T18:48:57.417Z</time>
      </trkpt>
      <trkpt lat="48.86115" lon="2.37895">
        <ele>90.9</ele>
        <time>2013-09-03T18:48:58.302Z</time>
      </trkpt>
      <trkpt lat="48.86109" lon="2.37905">
        <ele>89.2</ele>
        <time>2013-09-03T18:49:00.265Z</time>
      </trkpt>
      <trkpt lat="48.86108" lon="2.37909">
        <ele>91.9</ele>
        <time>2013-09-03T18:49:01.268Z</time>
      </trkpt>
      <trkpt lat="48.8611" lon="2.37919">
        <ele>89.6</ele>
        <time>2013-09-03T18:49:03.251Z</time>
      </trkpt>
      <trkpt lat="48.86112" lon="2.37924">
        <ele>89.8</ele>
        <time>2013-09-03T18:49:04.277Z</time>
      </trkpt>
      <trkpt lat="48.86118" lon="2.37935">
        <ele>89</ele>
        <time>2013-09-03T18:49:06.303Z</time>
      </trkpt>
      <trkpt lat="48.8612" lon="2.37941">
        <ele>89</ele>
        <time>2013-09-03T18:49:07.275Z</time>
      </trkpt>
      <trkpt lat="48.86123" lon="2.37947">
        <ele>89.6</ele>
        <time>2013-09-03T18:49:08.295Z</time>
      </trkpt>
      <trkpt lat="48.86126" lon="2.37952">
        <ele>89.5</ele>
        <time>2013-09-03T18:49:09.283Z</time>
      </trkpt>
      <trkpt lat="48.86128" lon="2.37958">
        <ele>87.9</ele>
        <time>2013-09-03T18:49:10.294Z</time>
      </trkpt>
      <trkpt lat="48.8613" lon="2.37964">
        <ele>87.9</ele>
        <time>2013-09-03T18:49:11.283Z</time>
      </trkpt>
      <trkpt lat="48.86134" lon="2.37976">
        <ele>87.4</ele>
        <time>2013-09-03T18:49:13.296Z</time>
      </trkpt>
      <trkpt lat="48.86136" lon="2.37982">
        <ele>87.8</ele>
        <time>2013-09-03T18:49:14.271Z</time>
      </trkpt>
      <trkpt lat="48.86139" lon="2.37991">
        <ele>86.9</ele>
        <time>2013-09-03T18:49:16.255Z</time>
      </trkpt>
      <trkpt lat="48.86141" lon="2.37996">
        <ele>87.1</ele>
        <time>2013-09-03T18:49:17.275Z</time>
      </trkpt>
      <trkpt lat="48.86143" lon="2.38008">
        <ele>83.4</ele>
        <time>2013-09-03T18:49:20.305Z</time>
      </trkpt>
      <trkpt lat="48.86142" lon="2.38011">
        <ele>83.1</ele>
        <time>2013-09-03T18:49:21.285Z</time>
      </trkpt>
      <trkpt lat="48.86136" lon="2.38016">
        <ele>80.7</ele>
        <time>2013-09-03T18:49:31.286Z</time>
      </trkpt>
      <trkpt lat="48.86137" lon="2.38016">
        <ele>81.1</ele>
        <time>2013-09-03T18:49:32.265Z</time>
      </trkpt>
      <trkpt lat="48.86137" lon="2.38017">
        <ele>82.1</ele>
        <time>2013-09-03T18:49:33.287Z</time>
      </trkpt>
      <trkpt lat="48.86137" lon="2.38017">
        <ele>83.1</ele>
        <time>2013-09-03T18:49:34.256Z</time>
      </trkpt>
      <trkpt lat="48.86137" lon="2.38018">
        <ele>83.3</ele>
        <time>2013-09-03T18:49:36.274Z</time>
      </trkpt>
      <trkpt lat="48.86137" lon="2.38018">
        <ele>83.2</ele>
        <time>2013-09-03T18:49:37.334Z</time>
      </trkpt>
      <trkpt lat="48.86136" lon="2.38019">
        <ele>84.2</ele>
        <time>2013-09-03T18:49:49.474Z</time>
      </trkpt>
      <trkpt lat="48.86135" lon="2.3802">
        <ele>84.3</ele>
        <time>2013-09-03T18:49:50.312Z</time>
      </trkpt>
      <trkpt lat="48.86131" lon="2.38025">
        <ele>84.3</ele>
        <time>2013-09-03T18:49:53.329Z</time>
      </trkpt>
      <trkpt lat="48.86128" lon="2.38028">
        <ele>84.4</ele>
        <time>2013-09-03T18:49:54.445Z</time>
      </trkpt>
      <trkpt lat="48.86122" lon="2.38034">
        <ele>83.3</ele>
        <time>2013-09-03T18:49:56.353Z</time>
      </trkpt>
      <trkpt lat="48.86119" lon="2.38037">
        <ele>83.6</ele>
        <time>2013-09-03T18:49:57.277Z</time>
      </trkpt>
      <trkpt lat="48.86114" lon="2.38043">
        <ele>84.9</ele>
        <time>2013-09-03T18:49:59.274Z</time>
      </trkpt>
      <trkpt lat="48.86111" lon="2.38047">
        <ele>85</ele>
        <time>2013-09-03T18:50:00.266Z</time>
      </trkpt>
      <trkpt lat="48.86104" lon="2.38052">
        <ele>85.7</ele>
        <time>2013-09-03T18:50:03.264Z</time>
      </trkpt>
      <trkpt lat="48.86101" lon="2.3805">
        <ele>85.8</ele>
        <time>2013-09-03T18:50:04.257Z</time>
      </trkpt>
      <trkpt lat="48.86097" lon="2.38046">
        <ele>86.9</ele>
        <time>2013-09-03T18:50:05.267Z</time>
      </trkpt>
      <trkpt lat="48.86095" lon="2.3804">
        <ele>88.5</ele>
        <time>2013-09-03T18:50:06.306Z</time>
      </trkpt>
      <trkpt lat="48.86092" lon="2.38033">
        <ele>90.3</ele>
        <time>2013-09-03T18:50:07.278Z</time>
      </trkpt>
      <trkpt lat="48.8609" lon="2.38026">
        <ele>92.2</ele>
        <time>2013-09-03T18:50:08.276Z</time>
      </trkpt>
      <trkpt lat="48.86087" lon="2.38018">
        <ele>92.5</ele>
        <time>2013-09-03T18:50:09.276Z</time>
      </trkpt>
      <trkpt lat="48.86083" lon="2.38012">
        <ele>92.6</ele>
        <time>2013-09-03T18:50:10.292Z</time>
      </trkpt>
      <trkpt lat="48.86077" lon="2.38002">
        <ele>97.8</ele>
        <time>2013-09-03T18:50:12.279Z</time>
      </trkpt>
      <trkpt lat="48.86074" lon="2.38">
        <ele>101.9</ele>
        <time>2013-09-03T18:50:13.281Z</time>
      </trkpt>
      <trkpt lat="48.86066" lon="2.38005">
        <ele>104.5</ele>
        <time>2013-09-03T18:50:16.276Z</time>
      </trkpt>
      <trkpt lat="48.86063" lon="2.38009">
        <ele>104.6</ele>
        <time>2013-09-03T18:50:17.272Z</time>
      </trkpt>
      <trkpt lat="48.86056" lon="2.38017">
        <ele>105.1</ele>
        <time>2013-09-03T18:50:19.275Z</time>
      </trkpt>
      <trkpt lat="48.86052" lon="2.38021">
        <ele>101.5</ele>
        <time>2013-09-03T18:50:20.272Z</time>
      </trkpt>
      <trkpt lat="48.86048" lon="2.38025">
        <ele>99.5</ele>
        <time>2013-09-03T18:50:21.273Z</time>
      </trkpt>
      <trkpt lat="48.86043" lon="2.3803">
        <ele>97.1</ele>
        <time>2013-09-03T18:50:22.274Z</time>
      </trkpt>
      <trkpt lat="48.86037" lon="2.38034">
        <ele>97.2</ele>
        <time>2013-09-03T18:50:23.283Z</time>
      </trkpt>
      <trkpt lat="48.86032" lon="2.38038">
        <ele>96.6</ele>
        <time>2013-09-03T18:50:24.271Z</time>
      </trkpt>
      <trkpt lat="48.86027" lon="2.38042">
        <ele>98.7</ele>
        <time>2013-09-03T18:50:25.278Z</time>
      </trkpt>
      <trkpt lat="48.86022" lon="2.38046">
        <ele>98.5</ele>
        <time>2013-09-03T18:50:26.276Z</time>
      </trkpt>
      <trkpt lat="48.86017" lon="2.3805">
        <ele>97.2</ele>
        <time>2013-09-03T18:50:27.273Z</time>
      </trkpt>
      <trkpt lat="48.86012" lon="2.38053">
        <ele>97</ele>
        <time>2013-09-03T18:50:28.286Z</time>
      </trkpt>
      <trkpt lat="48.86008" lon="2.38056">
        <ele>98.1</ele>
        <time>2013-09-03T18:50:29.285Z</time>
      </trkpt>
      <trkpt lat="48.86004" lon="2.38058">
        <ele>97.1</ele>
        <time>2013-09-03T18:50:30.280Z</time>
      </trkpt>
      <trkpt lat="48.85996" lon="2.38063">
        <ele>95.1</ele>
        <time>2013-09-03T18:50:32.310Z</time>
      </trkpt>
      <trkpt lat="48.85992" lon="2.38066">
        <ele>94</ele>
        <time>2013-09-03T18:50:33.283Z</time>
      </trkpt>
      <trkpt lat="48.85987" lon="2.38069">
        <ele>94.4</ele>
        <time>2013-09-03T18:50:34.278Z</time>
      </trkpt>
      <trkpt lat="48.85983" lon="2.38071">
        <ele>93.9</ele>
        <time>2013-09-03T18:50:35.276Z</time>
      </trkpt>
      <trkpt lat="48.85978" lon="2.38074">
        <ele>93.8</ele>
        <time>2013-09-03T18:50:36.275Z</time>
      </trkpt>
      <trkpt lat="48.85973" lon="2.38076">
        <ele>94.1</ele>
        <time>2013-09-03T18:50:37.243Z</time>
      </trkpt>
      <trkpt lat="48.85969" lon="2.3808">
        <ele>95</ele>
        <time>2013-09-03T18:50:38.323Z</time>
      </trkpt>
      <trkpt lat="48.85965" lon="2.38083">
        <ele>96.2</ele>
        <time>2013-09-03T18:50:39.403Z</time>
      </trkpt>
      <trkpt lat="48.85958" lon="2.38091">
        <ele>98.3</ele>
        <time>2013-09-03T18:50:41.334Z</time>
      </trkpt>
      <trkpt lat="48.85954" lon="2.38095">
        <ele>97.8</ele>
        <time>2013-09-03T18:50:42.418Z</time>
      </trkpt>
      <trkpt lat="48.85947" lon="2.38103">
        <ele>99.5</ele>
        <time>2013-09-03T18:50:44.398Z</time>
      </trkpt>
      <trkpt lat="48.85943" lon="2.38106">
        <ele>98.1</ele>
        <time>2013-09-03T18:50:45.274Z</time>
      </trkpt>
      <trkpt lat="48.85936" lon="2.38112">
        <ele>98.6</ele>
        <time>2013-09-03T18:50:47.344Z</time>
      </trkpt>
      <trkpt lat="48.85932" lon="2.38115">
        <ele>99.2</ele>
        <time>2013-09-03T18:50:48.335Z</time>
      </trkpt>
      <trkpt lat="48.85925" lon="2.38123">
        <ele>102.5</ele>
        <time>2013-09-03T18:50:51.265Z</time>
      </trkpt>
      <trkpt lat="48.85923" lon="2.38125">
        <ele>101.5</ele>
        <time>2013-09-03T18:50:52.265Z</time>
      </trkpt>
      <trkpt lat="48.85918" lon="2.38134">
        <ele>103.4</ele>
        <time>2013-09-03T18:50:55.279Z</time>
      </trkpt>
      <trkpt lat="48.85917" lon="2.38139">
        <ele>103.4</ele>
        <time>2013-09-03T18:50:56.297Z</time>
      </trkpt>
      <trkpt lat="48.85917" lon="2.38152">
        <ele>103.7</ele>
        <time>2013-09-03T18:50:58.332Z</time>
      </trkpt>
      <trkpt lat="48.85917" lon="2.38158">
        <ele>103.6</ele>
        <time>2013-09-03T18:50:59.284Z</time>
      </trkpt>
      <trkpt lat="48.85918" lon="2.38165">
        <ele>103</ele>
        <time>2013-09-03T18:51:00.276Z</time>
      </trkpt>
      <trkpt lat="48.85919" lon="2.38172">
        <ele>103.6</ele>
        <time>2013-09-03T18:51:01.320Z</time>
      </trkpt>
      <trkpt lat="48.85922" lon="2.38183">
        <ele>104.6</ele>
        <time>2013-09-03T18:51:03.354Z</time>
      </trkpt>
      <trkpt lat="48.85925" lon="2.38188">
        <ele>104.7</ele>
        <time>2013-09-03T18:51:04.297Z</time>
      </trkpt>
      <trkpt lat="48.85929" lon="2.38192">
        <ele>104.6</ele>
        <time>2013-09-03T18:51:05.253Z</time>
      </trkpt>
      <trkpt lat="48.85933" lon="2.38197">
        <ele>105.3</ele>
        <time>2013-09-03T18:51:06.283Z</time>
      </trkpt>
      <trkpt lat="48.85938" lon="2.38201">
        <ele>105.2</ele>
        <time>2013-09-03T18:51:07.308Z</time>
      </trkpt>
      <trkpt lat="48.85943" lon="2.38206">
        <ele>105.1</ele>
        <time>2013-09-03T18:51:08.253Z</time>
      </trkpt>
      <trkpt lat="48.85947" lon="2.38212">
        <ele>104.8</ele>
        <time>2013-09-03T18:51:09.265Z</time>
      </trkpt>
      <trkpt lat="48.8595" lon="2.38217">
        <ele>104.9</ele>
        <time>2013-09-03T18:51:10.283Z</time>
      </trkpt>
      <trkpt lat="48.85952" lon="2.38229">
        <ele>103.2</ele>
        <time>2013-09-03T18:51:13.292Z</time>
      </trkpt>
      <trkpt lat="48.85951" lon="2.38236">
        <ele>101.2</ele>
        <time>2013-09-03T18:51:14.375Z</time>
      </trkpt>
      <trkpt lat="48.85951" lon="2.38247">
        <ele>100.1</ele>
        <time>2013-09-03T18:51:16.316Z</time>
      </trkpt>
      <trkpt lat="48.85951" lon="2.38252">
        <ele>100</ele>
        <time>2013-09-03T18:51:17.365Z</time>
      </trkpt>
      <trkpt lat="48.85948" lon="2.3826">
        <ele>99.9</ele>
        <time>2013-09-03T18:51:19.279Z</time>
      </trkpt>
      <trkpt lat="48.85945" lon="2.38263">
        <ele>101.3</ele>
        <time>2013-09-03T18:51:20.397Z</time>
      </trkpt>
      <trkpt lat="48.85936" lon="2.38267">
        <ele>102.9</ele>
        <time>2013-09-03T18:51:22.449Z</time>
      </trkpt>
      <trkpt lat="48.85932" lon="2.3827">
        <ele>102.6</ele>
        <time>2013-09-03T18:51:23.327Z</time>
      </trkpt>
      <trkpt lat="48.85927" lon="2.38273">
        <ele>103.8</ele>
        <time>2013-09-03T18:51:24.385Z</time>
      </trkpt>
      <trkpt lat="48.85923" lon="2.38276">
        <ele>103.2</ele>
        <time>2013-09-03T18:51:25.396Z</time>
      </trkpt>
      <trkpt lat="48.85919" lon="2.3828">
        <ele>101.4</ele>
        <time>2013-09-03T18:51:26.328Z</time>
      </trkpt>
      <trkpt lat="48.85916" lon="2.38285">
        <ele>98.4</ele>
        <time>2013-09-03T18:51:27.405Z</time>
      </trkpt>
      <trkpt lat="48.8591" lon="2.38293">
        <ele>97.3</ele>
        <time>2013-09-03T18:51:29.292Z</time>
      </trkpt>
      <trkpt lat="48.85908" lon="2.38297">
        <ele>98.1</ele>
        <time>2013-09-03T18:51:30.293Z</time>
      </trkpt>
      <trkpt lat="48.85903" lon="2.38304">
        <ele>98.1</ele>
        <time>2013-09-03T18:51:32.291Z</time>
      </trkpt>
      <trkpt lat="48.85901" lon="2.38308">
        <ele>98.5</ele>
        <time>2013-09-03T18:51:33.265Z</time>
      </trkpt>
      <trkpt lat="48.85896" lon="2.38313">
        <ele>100.2</ele>
        <time>2013-09-03T18:51:35.274Z</time>
      </trkpt>
      <trkpt lat="48.85893" lon="2.38315">
        <ele>100.7</ele>
        <time>2013-09-03T18:51:36.297Z</time>
      </trkpt>
      <trkpt lat="48.85887" lon="2.38319">
        <ele>101.6</ele>
        <time>2013-09-03T18:51:38.263Z</time>
      </trkpt>
      <trkpt lat="48.85884" lon="2.3832">
        <ele>101.9</ele>
        <time>2013-09-03T18:51:39.256Z</time>
      </trkpt>
      <trkpt lat="48.85876" lon="2.3832">
        <ele>99.6</ele>
        <time>2013-09-03T18:51:42.285Z</time>
      </trkpt>
      <trkpt lat="48.85873" lon="2.3832">
        <ele>100.7</ele>
        <time>2013-09-03T18:51:43.284Z</time>
      </trkpt>
      <trkpt lat="48.85868" lon="2.3833">
        <ele>98.9</ele>
        <time>2013-09-03T18:51:50.275Z</time>
      </trkpt>
      <trkpt lat="48.85869" lon="2.38333">
        <ele>99.5</ele>
        <time>2013-09-03T18:51:51.287Z</time>
      </trkpt>
      <trkpt lat="48.85869" lon="2.38342">
        <ele>99.1</ele>
        <time>2013-09-03T18:52:05.271Z</time>
      </trkpt>
      <trkpt lat="48.85869" lon="2.38342">
        <ele>99.3</ele>
        <time>2013-09-03T18:52:06.274Z</time>
      </trkpt>
      <trkpt lat="48.8587" lon="2.38343">
        <ele>100.5</ele>
        <time>2013-09-03T18:52:13.472Z</time>
      </trkpt>
      <trkpt lat="48.8587" lon="2.38344">
        <ele>103.3</ele>
        <time>2013-09-03T18:52:14.311Z</time>
      </trkpt>
      <trkpt lat="48.85871" lon="2.38357">
        <ele>106.5</ele>
        <time>2013-09-03T18:52:17.493Z</time>
      </trkpt>
      <trkpt lat="48.85873" lon="2.38362">
        <ele>107.6</ele>
        <time>2013-09-03T18:52:18.281Z</time>
      </trkpt>
      <trkpt lat="48.85876" lon="2.38369">
        <ele>108.3</ele>
        <time>2013-09-03T18:52:19.455Z</time>
      </trkpt>
      <trkpt lat="48.85878" lon="2.38376">
        <ele>107.9</ele>
        <time>2013-09-03T18:52:20.410Z</time>
      </trkpt>
      <trkpt lat="48.85881" lon="2.38383">
        <ele>105.3</ele>
        <time>2013-09-03T18:52:21.364Z</time>
      </trkpt>
      <trkpt lat="48.85883" lon="2.3839">
        <ele>105.6</ele>
        <time>2013-09-03T18:52:22.481Z</time>
      </trkpt>
      <trkpt lat="48.85886" lon="2.38396">
        <ele>106.8</ele>
        <time>2013-09-03T18:52:23.293Z</time>
      </trkpt>
      <trkpt lat="48.85888" lon="2.38403">
        <ele>105.9</ele>
        <time>2013-09-03T18:52:24.471Z</time>
      </trkpt>
      <trkpt lat="48.85893" lon="2.38413">
        <ele>105.9</ele>
        <time>2013-09-03T18:52:26.292Z</time>
      </trkpt>
      <trkpt lat="48.85896" lon="2.38417">
        <ele>106</ele>
        <time>2013-09-03T18:52:27.305Z</time>
      </trkpt>
      <trkpt lat="48.85899" lon="2.38426">
        <ele>105.9</ele>
        <time>2013-09-03T18:52:29.293Z</time>
      </trkpt>
      <trkpt lat="48.859" lon="2.3843">
        <ele>106.5</ele>
        <time>2013-09-03T18:52:30.320Z</time>
      </trkpt>
      <trkpt lat="48.85896" lon="2.38442">
        <ele>98.9</ele>
        <time>2013-09-03T18:52:33.303Z</time>
      </trkpt>
      <trkpt lat="48.85892" lon="2.38447">
        <ele>98.3</ele>
        <time>2013-09-03T18:52:34.277Z</time>
      </trkpt>
      <trkpt lat="48.85888" lon="2.38452">
        <ele>97</ele>
        <time>2013-09-03T18:52:35.296Z</time>
      </trkpt>
      <trkpt lat="48.85884" lon="2.38456">
        <ele>96.2</ele>
        <time>2013-09-03T18:52:36.297Z</time>
      </trkpt>
      <trkpt lat="48.8588" lon="2.3846">
        <ele>96.8</ele>
        <time>2013-09-03T18:52:37.296Z</time>
      </trkpt>
      <trkpt lat="48.85875" lon="2.38465">
        <ele>96.2</ele>
        <time>2013-09-03T18:52:38.455Z</time>
      </trkpt>
      <trkpt lat="48.8587" lon="2.38468">
        <ele>94.8</ele>
        <time>2013-09-03T18:52:39.295Z</time>
      </trkpt>
      <trkpt lat="48.85865" lon="2.38472">
        <ele>92.9</ele>
        <time>2013-09-03T18:52:40.368Z</time>
      </trkpt>
      <trkpt lat="48.85859" lon="2.38476">
        <ele>93.3</ele>
        <time>2013-09-03T18:52:41.463Z</time>
      </trkpt>
      <trkpt lat="48.85855" lon="2.3848">
        <ele>92.3</ele>
        <time>2013-09-03T18:52:42.285Z</time>
      </trkpt>
      <trkpt lat="48.85849" lon="2.38484">
        <ele>94.4</ele>
        <time>2013-09-03T18:52:43.454Z</time>
      </trkpt>
      <trkpt lat="48.85844" lon="2.38487">
        <ele>92.9</ele>
        <time>2013-09-03T18:52:44.293Z</time>
      </trkpt>
      <trkpt lat="48.85839" lon="2.38492">
        <ele>93.2</ele>
        <time>2013-09-03T18:52:45.487Z</time>
      </trkpt>
      <trkpt lat="48.85835" lon="2.38495">
        <ele>92.3</ele>
        <time>2013-09-03T18:52:46.305Z</time>
      </trkpt>
      <trkpt lat="48.8583" lon="2.38498">
        <ele>90.3</ele>
        <time>2013-09-03T18:52:47.384Z</time>
      </trkpt>
      <trkpt lat="48.85825" lon="2.38501">
        <ele>89.8</ele>
        <time>2013-09-03T18:52:48.434Z</time>
      </trkpt>
      <trkpt lat="48.85821" lon="2.38504">
        <ele>88.8</ele>
        <time>2013-09-03T18:52:49.345Z</time>
      </trkpt>
      <trkpt lat="48.85817" lon="2.38507">
        <ele>87.4</ele>
        <time>2013-09-03T18:52:50.413Z</time>
      </trkpt>
      <trkpt lat="48.8581" lon="2.38514">
        <ele>85.4</ele>
        <time>2013-09-03T18:52:52.428Z</time>
      </trkpt>
      <trkpt lat="48.85807" lon="2.38517">
        <ele>84.9</ele>
        <time>2013-09-03T18:52:53.287Z</time>
      </trkpt>
      <trkpt lat="48.85799" lon="2.38523">
        <ele>84.1</ele>
        <time>2013-09-03T18:52:55.312Z</time>
      </trkpt>
      <trkpt lat="48.85795" lon="2.38526">
        <ele>84.4</ele>
        <time>2013-09-03T18:52:56.316Z</time>
      </trkpt>
      <trkpt lat="48.85792" lon="2.3853">
        <ele>83.8</ele>
        <time>2013-09-03T18:52:57.275Z</time>
      </trkpt>
      <trkpt lat="48.85787" lon="2.38534">
        <ele>82.2</ele>
        <time>2013-09-03T18:52:58.422Z</time>
      </trkpt>
      <trkpt lat="48.85783" lon="2.38537">
        <ele>82.2</ele>
        <time>2013-09-03T18:52:59.325Z</time>
      </trkpt>
      <trkpt lat="48.85779" lon="2.38541">
        <ele>81.9</ele>
        <time>2013-09-03T18:53:00.411Z</time>
      </trkpt>
      <trkpt lat="48.85772" lon="2.38548">
        <ele>80.8</ele>
        <time>2013-09-03T18:53:02.330Z</time>
      </trkpt>
      <trkpt lat="48.85767" lon="2.38551">
        <ele>80.4</ele>
        <time>2013-09-03T18:53:03.438Z</time>
      </trkpt>
      <trkpt lat="48.8576" lon="2.38558">
        <ele>80.3</ele>
        <time>2013-09-03T18:53:05.422Z</time>
      </trkpt>
      <trkpt lat="48.85757" lon="2.38561">
        <ele>81.3</ele>
        <time>2013-09-03T18:53:06.294Z</time>
      </trkpt>
      <trkpt lat="48.85749" lon="2.38567">
        <ele>80.3</ele>
        <time>2013-09-03T18:53:08.419Z</time>
      </trkpt>
      <trkpt lat="48.85747" lon="2.38569">
        <ele>81.3</ele>
        <time>2013-09-03T18:53:09.355Z</time>
      </trkpt>
      <trkpt lat="48.85744" lon="2.38581">
        <ele>84.4</ele>
        <time>2013-09-03T18:53:13.358Z</time>
      </trkpt>
      <trkpt lat="48.85745" lon="2.38585">
        <ele>84.8</ele>
        <time>2013-09-03T18:53:14.304Z</time>
      </trkpt>
      <trkpt lat="48.85748" lon="2.38596">
        <ele>86</ele>
        <time>2013-09-03T18:53:18.312Z</time>
      </trkpt>
      <trkpt lat="48.85748" lon="2.38599">
        <ele>86</ele>
        <time>2013-09-03T18:53:19.307Z</time>
      </trkpt>
      <trkpt lat="48.85755" lon="2.38606">
        <ele>92.8</ele>
        <time>2013-09-03T18:53:25.357Z</time>
      </trkpt>
      <trkpt lat="48.85757" lon="2.38605">
        <ele>95.7</ele>
        <time>2013-09-03T18:53:26.412Z</time>
      </trkpt>
      <trkpt lat="48.85764" lon="2.386">
        <ele>95</ele>
        <time>2013-09-03T18:53:29.269Z</time>
      </trkpt>
      <trkpt lat="48.85768" lon="2.38597">
        <ele>92.1</ele>
        <time>2013-09-03T18:53:30.317Z</time>
      </trkpt>
      <trkpt lat="48.85775" lon="2.38591">
        <ele>92.3</ele>
        <time>2013-09-03T18:53:32.284Z</time>
      </trkpt>
      <trkpt lat="48.85779" lon="2.38588">
        <ele>92.3</ele>
        <time>2013-09-03T18:53:33.312Z</time>
      </trkpt>
      <trkpt lat="48.85787" lon="2.38583">
        <ele>93</ele>
        <time>2013-09-03T18:53:35.263Z</time>
      </trkpt>
      <trkpt lat="48.85791" lon="2.38581">
        <ele>94.1</ele>
        <time>2013-09-03T18:53:36.317Z</time>
      </trkpt>
      <trkpt lat="48.85799" lon="2.38578">
        <ele>94</ele>
        <time>2013-09-03T18:53:38.455Z</time>
      </trkpt>
      <trkpt lat="48.85802" lon="2.38577">
        <ele>93.6</ele>
        <time>2013-09-03T18:53:39.416Z</time>
      </trkpt>
      <trkpt lat="48.85808" lon="2.38579">
        <ele>94</ele>
        <time>2013-09-03T18:53:41.303Z</time>
      </trkpt>
      <trkpt lat="48.85811" lon="2.38581">
        <ele>94.1</ele>
        <time>2013-09-03T18:53:42.322Z</time>
      </trkpt>
      <trkpt lat="48.85818" lon="2.38587">
        <ele>94.2</ele>
        <time>2013-09-03T18:53:44.295Z</time>
      </trkpt>
      <trkpt lat="48.85821" lon="2.38591">
        <ele>95.1</ele>
        <time>2013-09-03T18:53:45.292Z</time>
      </trkpt>
      <trkpt lat="48.85825" lon="2.38597">
        <ele>95.7</ele>
        <time>2013-09-03T18:53:46.304Z</time>
      </trkpt>
      <trkpt lat="48.85828" lon="2.38602">
        <ele>95.5</ele>
        <time>2013-09-03T18:53:47.284Z</time>
      </trkpt>
      <trkpt lat="48.85832" lon="2.38608">
        <ele>96</ele>
        <time>2013-09-03T18:53:48.304Z</time>
      </trkpt>
      <trkpt lat="48.85835" lon="2.38614">
        <ele>96.6</ele>
        <time>2013-09-03T18:53:49.295Z</time>
      </trkpt>
      <trkpt lat="48.85837" lon="2.38622">
        <ele>98.3</ele>
        <time>2013-09-03T18:53:50.288Z</time>
      </trkpt>
      <trkpt lat="48.85838" lon="2.3863">
        <ele>99.2</ele>
        <time>2013-09-03T18:53:51.294Z</time>
      </trkpt>
      <trkpt lat="48.85839" lon="2.38638">
        <ele>99.7</ele>
        <time>2013-09-03T18:53:52.294Z</time>
      </trkpt>
      <trkpt lat="48.85841" lon="2.38647">
        <ele>99.8</ele>
        <time>2013-09-03T18:53:53.295Z</time>
      </trkpt>
      <trkpt lat="48.85842" lon="2.38656">
        <ele>99.8</ele>
        <time>2013-09-03T18:53:54.304Z</time>
      </trkpt>
      <trkpt lat="48.85843" lon="2.38664">
        <ele>100.2</ele>
        <time>2013-09-03T18:53:55.296Z</time>
      </trkpt>
      <trkpt lat="48.85844" lon="2.38672">
        <ele>100.4</ele>
        <time>2013-09-03T18:53:56.305Z</time>
      </trkpt>
      <trkpt lat="48.85845" lon="2.3868">
        <ele>100.8</ele>
        <time>2013-09-03T18:53:57.297Z</time>
      </trkpt>
      <trkpt lat="48.85846" lon="2.38688">
        <ele>100.7</ele>
        <time>2013-09-03T18:53:58.282Z</time>
      </trkpt>
      <trkpt lat="48.85847" lon="2.38696">
        <ele>100.6</ele>
        <time>2013-09-03T18:53:59.295Z</time>
      </trkpt>
      <trkpt lat="48.85848" lon="2.38704">
        <ele>101</ele>
        <time>2013-09-03T18:54:00.296Z</time>
      </trkpt>
      <trkpt lat="48.85848" lon="2.38711">
        <ele>100.9</ele>
        <time>2013-09-03T18:54:01.295Z</time>
      </trkpt>
      <trkpt lat="48.85849" lon="2.38719">
        <ele>100.8</ele>
        <time>2013-09-03T18:54:02.294Z</time>
      </trkpt>
      <trkpt lat="48.8585" lon="2.38726">
        <ele>100.8</ele>
        <time>2013-09-03T18:54:03.304Z</time>
      </trkpt>
      <trkpt lat="48.85858" lon="2.38726">
        <ele>96</ele>
        <time>2013-09-03T18:54:08.297Z</time>
      </trkpt>
      <trkpt lat="48.85862" lon="2.38723">
        <ele>95.7</ele>
        <time>2013-09-03T18:54:09.295Z</time>
      </trkpt>
      <trkpt lat="48.8587" lon="2.3872">
        <ele>95.9</ele>
        <time>2013-09-03T18:54:11.324Z</time>
      </trkpt>
      <trkpt lat="48.85875" lon="2.38719">
        <ele>96.3</ele>
        <time>2013-09-03T18:54:12.285Z</time>
      </trkpt>
      <trkpt lat="48.85883" lon="2.38717">
        <ele>97.2</ele>
        <time>2013-09-03T18:54:14.282Z</time>
      </trkpt>
      <trkpt lat="48.85886" lon="2.38714">
        <ele>98</ele>
        <time>2013-09-03T18:54:15.281Z</time>
      </trkpt>
      <trkpt lat="48.85893" lon="2.38707">
        <ele>98.5</ele>
        <time>2013-09-03T18:54:17.297Z</time>
      </trkpt>
      <trkpt lat="48.85897" lon="2.38703">
        <ele>98.2</ele>
        <time>2013-09-03T18:54:18.292Z</time>
      </trkpt>
      <trkpt lat="48.85903" lon="2.38696">
        <ele>99.7</ele>
        <time>2013-09-03T18:54:20.306Z</time>
      </trkpt>
      <trkpt lat="48.85906" lon="2.38693">
        <ele>99.9</ele>
        <time>2013-09-03T18:54:21.517Z</time>
      </trkpt>
      <trkpt lat="48.85911" lon="2.38689">
        <ele>95.5</ele>
        <time>2013-09-03T18:54:23.434Z</time>
      </trkpt>
      <trkpt lat="48.85914" lon="2.38687">
        <ele>94.5</ele>
        <time>2013-09-03T18:54:24.468Z</time>
      </trkpt>
      <trkpt lat="48.85922" lon="2.38683">
        <ele>92.6</ele>
        <time>2013-09-03T18:54:27.306Z</time>
      </trkpt>
      <trkpt lat="48.85924" lon="2.38682">
        <ele>93.5</ele>
        <time>2013-09-03T18:54:28.505Z</time>
      </trkpt>
      <trkpt lat="48.85928" lon="2.38687">
        <ele>85.9</ele>
        <time>2013-09-03T18:54:36.323Z</time>
      </trkpt>
      <trkpt lat="48.85928" lon="2.38687">
        <ele>85.6</ele>
        <time>2013-09-03T18:54:37.466Z</time>
      </trkpt>
      <trkpt lat="48.85929" lon="2.38687">
        <ele>85.9</ele>
        <time>2013-09-03T18:55:17.330Z</time>
      </trkpt>
      <trkpt lat="48.8593" lon="2.38688">
        <ele>86.5</ele>
        <time>2013-09-03T18:55:18.326Z</time>
      </trkpt>
      <trkpt lat="48.85934" lon="2.38698">
        <ele>86.1</ele>
        <time>2013-09-03T18:55:21.295Z</time>
      </trkpt>
      <trkpt lat="48.85936" lon="2.38703">
        <ele>87.4</ele>
        <time>2013-09-03T18:55:22.307Z</time>
      </trkpt>
      <trkpt lat="48.8594" lon="2.38715">
        <ele>89.4</ele>
        <time>2013-09-03T18:55:24.315Z</time>
      </trkpt>
      <trkpt lat="48.85941" lon="2.38721">
        <ele>89.4</ele>
        <time>2013-09-03T18:55:25.324Z</time>
      </trkpt>
      <trkpt lat="48.85944" lon="2.38733">
        <ele>89.9</ele>
        <time>2013-09-03T18:55:28.302Z</time>
      </trkpt>
      <trkpt lat="48.85944" lon="2.38737">
        <ele>88.9</ele>
        <time>2013-09-03T18:55:29.308Z</time>
      </trkpt>
      <trkpt lat="48.85947" lon="2.38747">
        <ele>92.7</ele>
        <time>2013-09-03T18:55:31.311Z</time>
      </trkpt>
      <trkpt lat="48.85949" lon="2.38752">
        <ele>93.7</ele>
        <time>2013-09-03T18:55:32.314Z</time>
      </trkpt>
      <trkpt lat="48.85953" lon="2.38761">
        <ele>95.7</ele>
        <time>2013-09-03T18:55:34.324Z</time>
      </trkpt>
      <trkpt lat="48.85956" lon="2.38766">
        <ele>96.2</ele>
        <time>2013-09-03T18:55:35.287Z</time>
      </trkpt>
      <trkpt lat="48.8596" lon="2.38774">
        <ele>96.2</ele>
        <time>2013-09-03T18:55:37.326Z</time>
      </trkpt>
      <trkpt lat="48.85963" lon="2.38778">
        <ele>95.8</ele>
        <time>2013-09-03T18:55:38.325Z</time>
      </trkpt>
      <trkpt lat="48.85968" lon="2.38787">
        <ele>95.8</ele>
        <time>2013-09-03T18:55:40.324Z</time>
      </trkpt>
      <trkpt lat="48.8597" lon="2.38792">
        <ele>96.5</ele>
        <time>2013-09-03T18:55:41.303Z</time>
      </trkpt>
      <trkpt lat="48.85975" lon="2.38801">
        <ele>95.8</ele>
        <time>2013-09-03T18:55:43.296Z</time>
      </trkpt>
      <trkpt lat="48.85977" lon="2.38807">
        <ele>95.8</ele>
        <time>2013-09-03T18:55:44.318Z</time>
      </trkpt>
      <trkpt lat="48.8598" lon="2.38817">
        <ele>96.9</ele>
        <time>2013-09-03T18:55:46.307Z</time>
      </trkpt>
      <trkpt lat="48.85982" lon="2.38822">
        <ele>97.8</ele>
        <time>2013-09-03T18:55:47.285Z</time>
      </trkpt>
      <trkpt lat="48.85985" lon="2.38832">
        <ele>99</ele>
        <time>2013-09-03T18:55:49.329Z</time>
      </trkpt>
      <trkpt lat="48.85985" lon="2.38835">
        <ele>99.5</ele>
        <time>2013-09-03T18:55:50.313Z</time>
      </trkpt>
      <trkpt lat="48.85987" lon="2.38846">
        <ele>97.2</ele>
        <time>2013-09-03T18:55:55.274Z</time>
      </trkpt>
      <trkpt lat="48.85988" lon="2.38849">
        <ele>97.7</ele>
        <time>2013-09-03T18:55:56.317Z</time>
      </trkpt>
      <trkpt lat="48.85988" lon="2.38861">
        <ele>97.7</ele>
        <time>2013-09-03T18:55:59.405Z</time>
      </trkpt>
      <trkpt lat="48.85986" lon="2.38863">
        <ele>97.9</ele>
        <time>2013-09-03T18:56:00.293Z</time>
      </trkpt>
      <trkpt lat="48.85979" lon="2.38868">
        <ele>98.1</ele>
        <time>2013-09-03T18:56:02.304Z</time>
      </trkpt>
      <trkpt lat="48.85976" lon="2.38869">
        <ele>98.2</ele>
        <time>2013-09-03T18:56:03.317Z</time>
      </trkpt>
      <trkpt lat="48.85969" lon="2.38871">
        <ele>97.9</ele>
        <time>2013-09-03T18:56:05.313Z</time>
      </trkpt>
      <trkpt lat="48.85966" lon="2.38873">
        <ele>98.2</ele>
        <time>2013-09-03T18:56:06.295Z</time>
      </trkpt>
      <trkpt lat="48.85959" lon="2.38877">
        <ele>99.3</ele>
        <time>2013-09-03T18:56:09.305Z</time>
      </trkpt>
      <trkpt lat="48.85956" lon="2.38879">
        <ele>100.2</ele>
        <time>2013-09-03T18:56:10.316Z</time>
      </trkpt>
      <trkpt lat="48.85952" lon="2.38883">
        <ele>100.1</ele>
        <time>2013-09-03T18:56:12.324Z</time>
      </trkpt>
      <trkpt lat="48.85948" lon="2.38885">
        <ele>101.6</ele>
        <time>2013-09-03T18:56:13.495Z</time>
      </trkpt>
      <trkpt lat="48.85942" lon="2.38889">
        <ele>101.6</ele>
        <time>2013-09-03T18:56:15.384Z</time>
      </trkpt>
      <trkpt lat="48.85938" lon="2.3889">
        <ele>101.5</ele>
        <time>2013-09-03T18:56:16.358Z</time>
      </trkpt>
      <trkpt lat="48.8593" lon="2.38894">
        <ele>101.5</ele>
        <time>2013-09-03T18:56:18.472Z</time>
      </trkpt>
      <trkpt lat="48.85926" lon="2.38896">
        <ele>102</ele>
        <time>2013-09-03T18:56:19.345Z</time>
      </trkpt>
      <trkpt lat="48.85918" lon="2.389">
        <ele>101.4</ele>
        <time>2013-09-03T18:56:21.318Z</time>
      </trkpt>
      <trkpt lat="48.85913" lon="2.38903">
        <ele>101.9</ele>
        <time>2013-09-03T18:56:22.468Z</time>
      </trkpt>
      <trkpt lat="48.85905" lon="2.38908">
        <ele>101.6</ele>
        <time>2013-09-03T18:56:24.464Z</time>
      </trkpt>
      <trkpt lat="48.85902" lon="2.3891">
        <ele>102</ele>
        <time>2013-09-03T18:56:25.373Z</time>
      </trkpt>
      <trkpt lat="48.85894" lon="2.38917">
        <ele>102.5</ele>
        <time>2013-09-03T18:56:27.493Z</time>
      </trkpt>
      <trkpt lat="48.8589" lon="2.38919">
        <ele>103.1</ele>
        <time>2013-09-03T18:56:28.327Z</time>
      </trkpt>
      <trkpt lat="48.85886" lon="2.38923">
        <ele>103.2</ele>
        <time>2013-09-03T18:56:29.328Z</time>
      </trkpt>
      <trkpt lat="48.85882" lon="2.38926">
        <ele>102.7</ele>
        <time>2013-09-03T18:56:30.305Z</time>
      </trkpt>
      <trkpt lat="48.85874" lon="2.38932">
        <ele>103.8</ele>
        <time>2013-09-03T18:56:32.386Z</time>
      </trkpt>
      <trkpt lat="48.8587" lon="2.38935">
        <ele>104.5</ele>
        <time>2013-09-03T18:56:33.434Z</time>
      </trkpt>
      <trkpt lat="48.85863" lon="2.38941">
        <ele>104.3</ele>
        <time>2013-09-03T18:56:35.324Z</time>
      </trkpt>
      <trkpt lat="48.85859" lon="2.38944">
        <ele>105.5</ele>
        <time>2013-09-03T18:56:36.310Z</time>
      </trkpt>
      <trkpt lat="48.85851" lon="2.38951">
        <ele>104.2</ele>
        <time>2013-09-03T18:56:38.325Z</time>
      </trkpt>
      <trkpt lat="48.85848" lon="2.38954">
        <ele>103.6</ele>
        <time>2013-09-03T18:56:39.288Z</time>
      </trkpt>
      <trkpt lat="48.85842" lon="2.38962">
        <ele>103.7</ele>
        <time>2013-09-03T18:56:41.297Z</time>
      </trkpt>
      <trkpt lat="48.8584" lon="2.38965">
        <ele>103.7</ele>
        <time>2013-09-03T18:56:42.314Z</time>
      </trkpt>
      <trkpt lat="48.85836" lon="2.38975">
        <ele>103.2</ele>
        <time>2013-09-03T18:56:51.342Z</time>
      </trkpt>
      <trkpt lat="48.85836" lon="2.38978">
        <ele>103.9</ele>
        <time>2013-09-03T18:56:52.325Z</time>
      </trkpt>
      <trkpt lat="48.85834" lon="2.38989">
        <ele>105.7</ele>
        <time>2013-09-03T18:56:55.323Z</time>
      </trkpt>
      <trkpt lat="48.85833" lon="2.38993">
        <ele>105.8</ele>
        <time>2013-09-03T18:56:56.337Z</time>
      </trkpt>
      <trkpt lat="48.85831" lon="2.39002">
        <ele>105.7</ele>
        <time>2013-09-03T18:56:58.322Z</time>
      </trkpt>
      <trkpt lat="48.8583" lon="2.39007">
        <ele>105.7</ele>
        <time>2013-09-03T18:56:59.336Z</time>
      </trkpt>
      <trkpt lat="48.85826" lon="2.39016">
        <ele>107.6</ele>
        <time>2013-09-03T18:57:01.325Z</time>
      </trkpt>
      <trkpt lat="48.85824" lon="2.39021">
        <ele>108.6</ele>
        <time>2013-09-03T18:57:02.322Z</time>
      </trkpt>
      <trkpt lat="48.8582" lon="2.39032">
        <ele>109.9</ele>
        <time>2013-09-03T18:57:04.317Z</time>
      </trkpt>
      <trkpt lat="48.85819" lon="2.39038">
        <ele>109.9</ele>
        <time>2013-09-03T18:57:05.315Z</time>
      </trkpt>
      <trkpt lat="48.85816" lon="2.3905">
        <ele>111.1</ele>
        <time>2013-09-03T18:57:07.311Z</time>
      </trkpt>
      <trkpt lat="48.85814" lon="2.39055">
        <ele>111.7</ele>
        <time>2013-09-03T18:57:08.317Z</time>
      </trkpt>
      <trkpt lat="48.85811" lon="2.39066">
        <ele>111.5</ele>
        <time>2013-09-03T18:57:10.310Z</time>
      </trkpt>
      <trkpt lat="48.85808" lon="2.39072">
        <ele>110</ele>
        <time>2013-09-03T18:57:11.307Z</time>
      </trkpt>
      <trkpt lat="48.85806" lon="2.39078">
        <ele>109.3</ele>
        <time>2013-09-03T18:57:12.306Z</time>
      </trkpt>
      <trkpt lat="48.85803" lon="2.39085">
        <ele>110</ele>
        <time>2013-09-03T18:57:13.308Z</time>
      </trkpt>
      <trkpt lat="48.85801" lon="2.39093">
        <ele>109.8</ele>
        <time>2013-09-03T18:57:14.318Z</time>
      </trkpt>
      <trkpt lat="48.858" lon="2.39101">
        <ele>109.3</ele>
        <time>2013-09-03T18:57:15.319Z</time>
      </trkpt>
      <trkpt lat="48.85798" lon="2.39109">
        <ele>109.2</ele>
        <time>2013-09-03T18:57:16.307Z</time>
      </trkpt>
      <trkpt lat="48.85796" lon="2.39117">
        <ele>109.6</ele>
        <time>2013-09-03T18:57:17.496Z</time>
      </trkpt>
      <trkpt lat="48.85792" lon="2.39128">
        <ele>110.5</ele>
        <time>2013-09-03T18:57:19.475Z</time>
      </trkpt>
      <trkpt lat="48.85791" lon="2.39132">
        <ele>111.1</ele>
        <time>2013-09-03T18:57:20.387Z</time>
      </trkpt>
      <trkpt lat="48.8579" lon="2.3914">
        <ele>110.9</ele>
        <time>2013-09-03T18:57:21.409Z</time>
      </trkpt>
      <trkpt lat="48.85789" lon="2.39146">
        <ele>113</ele>
        <time>2013-09-03T18:57:22.464Z</time>
      </trkpt>
      <trkpt lat="48.85789" lon="2.39159">
        <ele>116.3</ele>
        <time>2013-09-03T18:57:24.482Z</time>
      </trkpt>
      <trkpt lat="48.85788" lon="2.39164">
        <ele>116.7</ele>
        <time>2013-09-03T18:57:25.332Z</time>
      </trkpt>
      <trkpt lat="48.85788" lon="2.39176">
        <ele>118.5</ele>
        <time>2013-09-03T18:57:27.315Z</time>
      </trkpt>
      <trkpt lat="48.85786" lon="2.39181">
        <ele>118.8</ele>
        <time>2013-09-03T18:57:28.455Z</time>
      </trkpt>
      <trkpt lat="48.85781" lon="2.39191">
        <ele>119</ele>
        <time>2013-09-03T18:57:30.411Z</time>
      </trkpt>
      <trkpt lat="48.85779" lon="2.39196">
        <ele>119.5</ele>
        <time>2013-09-03T18:57:31.321Z</time>
      </trkpt>
      <trkpt lat="48.85775" lon="2.39207">
        <ele>118.9</ele>
        <time>2013-09-03T18:57:33.327Z</time>
      </trkpt>
      <trkpt lat="48.85772" lon="2.39214">
        <ele>118.4</ele>
        <time>2013-09-03T18:57:34.323Z</time>
      </trkpt>
      <trkpt lat="48.8577" lon="2.3922">
        <ele>117.6</ele>
        <time>2013-09-03T18:57:35.307Z</time>
      </trkpt>
      <trkpt lat="48.85767" lon="2.39226">
        <ele>117.6</ele>
        <time>2013-09-03T18:57:36.285Z</time>
      </trkpt>
      <trkpt lat="48.85764" lon="2.39232">
        <ele>117.5</ele>
        <time>2013-09-03T18:57:37.353Z</time>
      </trkpt>
      <trkpt lat="48.85761" lon="2.39238">
        <ele>116.9</ele>
        <time>2013-09-03T18:57:38.488Z</time>
      </trkpt>
      <trkpt lat="48.85756" lon="2.39244">
        <ele>115.8</ele>
        <time>2013-09-03T18:57:39.341Z</time>
      </trkpt>
      <trkpt lat="48.85752" lon="2.39251">
        <ele>117.8</ele>
        <time>2013-09-03T18:57:40.308Z</time>
      </trkpt>
      <trkpt lat="48.85747" lon="2.39256">
        <ele>117.7</ele>
        <time>2013-09-03T18:57:41.312Z</time>
      </trkpt>
      <trkpt lat="48.85744" lon="2.39262">
        <ele>116.7</ele>
        <time>2013-09-03T18:57:42.336Z</time>
      </trkpt>
      <trkpt lat="48.85741" lon="2.39267">
        <ele>118.1</ele>
        <time>2013-09-03T18:57:43.284Z</time>
      </trkpt>
      <trkpt lat="48.85737" lon="2.39272">
        <ele>117.8</ele>
        <time>2013-09-03T18:57:44.326Z</time>
      </trkpt>
      <trkpt lat="48.85735" lon="2.39279">
        <ele>120.1</ele>
        <time>2013-09-03T18:57:45.320Z</time>
      </trkpt>
      <trkpt lat="48.85732" lon="2.39285">
        <ele>121.8</ele>
        <time>2013-09-03T18:57:46.284Z</time>
      </trkpt>
      <trkpt lat="48.8573" lon="2.39292">
        <ele>123.5</ele>
        <time>2013-09-03T18:57:47.313Z</time>
      </trkpt>
      <trkpt lat="48.85727" lon="2.39299">
        <ele>124.5</ele>
        <time>2013-09-03T18:57:48.282Z</time>
      </trkpt>
      <trkpt lat="48.85724" lon="2.39306">
        <ele>125.7</ele>
        <time>2013-09-03T18:57:49.315Z</time>
      </trkpt>
      <trkpt lat="48.85721" lon="2.39314">
        <ele>125.6</ele>
        <time>2013-09-03T18:57:50.295Z</time>
      </trkpt>
      <trkpt lat="48.85718" lon="2.39321">
        <ele>127.1</ele>
        <time>2013-09-03T18:57:51.344Z</time>
      </trkpt>
      <trkpt lat="48.85716" lon="2.39327">
        <ele>128.9</ele>
        <time>2013-09-03T18:57:52.314Z</time>
      </trkpt>
      <trkpt lat="48.85713" lon="2.39334">
        <ele>128.6</ele>
        <time>2013-09-03T18:57:53.328Z</time>
      </trkpt>
      <trkpt lat="48.8571" lon="2.39341">
        <ele>128.9</ele>
        <time>2013-09-03T18:57:54.335Z</time>
      </trkpt>
      <trkpt lat="48.85707" lon="2.39348">
        <ele>129.4</ele>
        <time>2013-09-03T18:57:55.293Z</time>
      </trkpt>
      <trkpt lat="48.85703" lon="2.39355">
        <ele>128.4</ele>
        <time>2013-09-03T18:57:56.310Z</time>
      </trkpt>
      <trkpt lat="48.857" lon="2.39362">
        <ele>130.5</ele>
        <time>2013-09-03T18:57:57.301Z</time>
      </trkpt>
      <trkpt lat="48.85698" lon="2.39367">
        <ele>130.8</ele>
        <time>2013-09-03T18:57:58.306Z</time>
      </trkpt>
      <trkpt lat="48.85693" lon="2.39377">
        <ele>130.4</ele>
        <time>2013-09-03T18:58:00.286Z</time>
      </trkpt>
      <trkpt lat="48.85691" lon="2.39381">
        <ele>130.5</ele>
        <time>2013-09-03T18:58:01.319Z</time>
      </trkpt>
      <trkpt lat="48.85687" lon="2.39388">
        <ele>131.7</ele>
        <time>2013-09-03T18:58:03.352Z</time>
      </trkpt>
      <trkpt lat="48.85685" lon="2.39392">
        <ele>131.6</ele>
        <time>2013-09-03T18:58:04.474Z</time>
      </trkpt>
      <trkpt lat="48.85682" lon="2.39405">
        <ele>129.5</ele>
        <time>2013-09-03T18:58:10.365Z</time>
      </trkpt>
      <trkpt lat="48.85682" lon="2.39405">
        <ele>129.6</ele>
        <time>2013-09-03T18:58:11.406Z</time>
      </trkpt>
      <trkpt lat="48.85675" lon="2.39412">
        <ele>127.7</ele>
        <time>2013-09-03T18:58:26.407Z</time>
      </trkpt>
      <trkpt lat="48.85674" lon="2.39414">
        <ele>128.1</ele>
        <time>2013-09-03T18:58:27.463Z</time>
      </trkpt>
      <trkpt lat="48.85668" lon="2.39424">
        <ele>127.3</ele>
        <time>2013-09-03T18:58:30.335Z</time>
      </trkpt>
      <trkpt lat="48.85666" lon="2.39428">
        <ele>128.1</ele>
        <time>2013-09-03T18:58:31.466Z</time>
      </trkpt>
      <trkpt lat="48.85659" lon="2.39436">
        <ele>128.5</ele>
        <time>2013-09-03T18:58:33.402Z</time>
      </trkpt>
      <trkpt lat="48.85656" lon="2.3944">
        <ele>128.3</ele>
        <time>2013-09-03T18:58:34.347Z</time>
      </trkpt>
      <trkpt lat="48.85651" lon="2.39444">
        <ele>128.4</ele>
        <time>2013-09-03T18:58:35.352Z</time>
      </trkpt>
      <trkpt lat="48.85646" lon="2.39447">
        <ele>127.5</ele>
        <time>2013-09-03T18:58:36.514Z</time>
      </trkpt>
      <trkpt lat="48.85642" lon="2.3945">
        <ele>126.5</ele>
        <time>2013-09-03T18:58:37.317Z</time>
      </trkpt>
      <trkpt lat="48.85634" lon="2.39453">
        <ele>125.8</ele>
        <time>2013-09-03T18:58:38.476Z</time>
      </trkpt>
      <trkpt lat="48.85628" lon="2.39455">
        <ele>125.7</ele>
        <time>2013-09-03T18:58:39.336Z</time>
      </trkpt>
      <trkpt lat="48.85622" lon="2.39459">
        <ele>126</ele>
        <time>2013-09-03T18:58:40.425Z</time>
      </trkpt>
      <trkpt lat="48.85615" lon="2.39464">
        <ele>126.4</ele>
        <time>2013-09-03T18:58:42.384Z</time>
      </trkpt>
      <trkpt lat="48.85611" lon="2.39468">
        <ele>124.7</ele>
        <time>2013-09-03T18:58:43.490Z</time>
      </trkpt>
      <trkpt lat="48.85603" lon="2.39475">
        <ele>124.9</ele>
        <time>2013-09-03T18:58:45.508Z</time>
      </trkpt>
      <trkpt lat="48.856" lon="2.39478">
        <ele>123.8</ele>
        <time>2013-09-03T18:58:46.332Z</time>
      </trkpt>
      <trkpt lat="48.85596" lon="2.39482">
        <ele>123.8</ele>
        <time>2013-09-03T18:58:47.471Z</time>
      </trkpt>
      <trkpt lat="48.85592" lon="2.39486">
        <ele>123.8</ele>
        <time>2013-09-03T18:58:48.487Z</time>
      </trkpt>
      <trkpt lat="48.85589" lon="2.39489">
        <ele>122.6</ele>
        <time>2013-09-03T18:58:49.391Z</time>
      </trkpt>
      <trkpt lat="48.85584" lon="2.39493">
        <ele>119.4</ele>
        <time>2013-09-03T18:58:50.485Z</time>
      </trkpt>
      <trkpt lat="48.8558" lon="2.39496">
        <ele>118.8</ele>
        <time>2013-09-03T18:58:51.344Z</time>
      </trkpt>
      <trkpt lat="48.85575" lon="2.39499">
        <ele>117.7</ele>
        <time>2013-09-03T18:58:52.484Z</time>
      </trkpt>
      <trkpt lat="48.85571" lon="2.39502">
        <ele>115.2</ele>
        <time>2013-09-03T18:58:53.317Z</time>
      </trkpt>
      <trkpt lat="48.85566" lon="2.39506">
        <ele>113.1</ele>
        <time>2013-09-03T18:58:54.485Z</time>
      </trkpt>
      <trkpt lat="48.85562" lon="2.39509">
        <ele>112.1</ele>
        <time>2013-09-03T18:58:55.402Z</time>
      </trkpt>
      <trkpt lat="48.85557" lon="2.39512">
        <ele>111</ele>
        <time>2013-09-03T18:58:56.445Z</time>
      </trkpt>
      <trkpt lat="48.85549" lon="2.39518">
        <ele>112.6</ele>
        <time>2013-09-03T18:58:58.365Z</time>
      </trkpt>
      <trkpt lat="48.85546" lon="2.3952">
        <ele>113.4</ele>
        <time>2013-09-03T18:58:59.508Z</time>
      </trkpt>
      <trkpt lat="48.85538" lon="2.39522">
        <ele>115.8</ele>
        <time>2013-09-03T18:59:02.314Z</time>
      </trkpt>
      <trkpt lat="48.85536" lon="2.39519">
        <ele>114.8</ele>
        <time>2013-09-03T18:59:03.315Z</time>
      </trkpt>
      <trkpt lat="48.85533" lon="2.39508">
        <ele>115.3</ele>
        <time>2013-09-03T18:59:05.404Z</time>
      </trkpt>
      <trkpt lat="48.85531" lon="2.395">
        <ele>115.2</ele>
        <time>2013-09-03T18:59:06.485Z</time>
      </trkpt>
      <trkpt lat="48.8553" lon="2.39493">
        <ele>114.9</ele>
        <time>2013-09-03T18:59:07.337Z</time>
      </trkpt>
      <trkpt lat="48.85529" lon="2.39485">
        <ele>115</ele>
        <time>2013-09-03T18:59:08.484Z</time>
      </trkpt>
      <trkpt lat="48.85528" lon="2.39478">
        <ele>114.6</ele>
        <time>2013-09-03T18:59:09.324Z</time>
      </trkpt>
      <trkpt lat="48.85526" lon="2.3947">
        <ele>115.2</ele>
        <time>2013-09-03T18:59:10.478Z</time>
      </trkpt>
      <trkpt lat="48.85525" lon="2.39463">
        <ele>114.3</ele>
        <time>2013-09-03T18:59:11.377Z</time>
      </trkpt>
      <trkpt lat="48.85523" lon="2.39456">
        <ele>114.1</ele>
        <time>2013-09-03T18:59:12.426Z</time>
      </trkpt>
      <trkpt lat="48.85522" lon="2.39448">
        <ele>113.7</ele>
        <time>2013-09-03T18:59:13.429Z</time>
      </trkpt>
      <trkpt lat="48.8552" lon="2.39441">
        <ele>113.7</ele>
        <time>2013-09-03T18:59:14.372Z</time>
      </trkpt>
      <trkpt lat="48.85518" lon="2.39433">
        <ele>114.1</ele>
        <time>2013-09-03T18:59:15.465Z</time>
      </trkpt>
      <trkpt lat="48.85517" lon="2.39427">
        <ele>114.3</ele>
        <time>2013-09-03T18:59:16.325Z</time>
      </trkpt>
      <trkpt lat="48.85514" lon="2.39417">
        <ele>114.3</ele>
        <time>2013-09-03T18:59:17.482Z</time>
      </trkpt>
      <trkpt lat="48.85512" lon="2.39408">
        <ele>114</ele>
        <time>2013-09-03T18:59:18.327Z</time>
      </trkpt>
      <trkpt lat="48.85509" lon="2.39399">
        <ele>114</ele>
        <time>2013-09-03T18:59:19.428Z</time>
      </trkpt>
      <trkpt lat="48.85504" lon="2.39392">
        <ele>113.3</ele>
        <time>2013-09-03T18:59:20.419Z</time>
      </trkpt>
      <trkpt lat="48.855" lon="2.39385">
        <ele>112.9</ele>
        <time>2013-09-03T18:59:21.395Z</time>
      </trkpt>
      <trkpt lat="48.85496" lon="2.39377">
        <ele>112.7</ele>
        <time>2013-09-03T18:59:22.495Z</time>
      </trkpt>
      <trkpt lat="48.85493" lon="2.39371">
        <ele>113.5</ele>
        <time>2013-09-03T18:59:23.344Z</time>
      </trkpt>
      <trkpt lat="48.8549" lon="2.39363">
        <ele>114.2</ele>
        <time>2013-09-03T18:59:24.463Z</time>
      </trkpt>
      <trkpt lat="48.85496" lon="2.39356">
        <ele>113.1</ele>
        <time>2013-09-03T18:59:26.335Z</time>
      </trkpt>
      <trkpt lat="48.85501" lon="2.39352">
        <ele>113.2</ele>
        <time>2013-09-03T18:59:27.356Z</time>
      </trkpt>
      <trkpt lat="48.85505" lon="2.39351">
        <ele>112.5</ele>
        <time>2013-09-03T18:59:28.323Z</time>
      </trkpt>
      <trkpt lat="48.8551" lon="2.3935">
        <ele>112</ele>
        <time>2013-09-03T18:59:29.351Z</time>
      </trkpt>
      <trkpt lat="48.85515" lon="2.39347">
        <ele>111.1</ele>
        <time>2013-09-03T18:59:30.320Z</time>
      </trkpt>
      <trkpt lat="48.8552" lon="2.39345">
        <ele>111.4</ele>
        <time>2013-09-03T18:59:31.351Z</time>
      </trkpt>
      <trkpt lat="48.85527" lon="2.39338">
        <ele>111.6</ele>
        <time>2013-09-03T18:59:33.326Z</time>
      </trkpt>
      <trkpt lat="48.8553" lon="2.39336">
        <ele>111.6</ele>
        <time>2013-09-03T18:59:34.320Z</time>
      </trkpt>
      <trkpt lat="48.85537" lon="2.39331">
        <ele>110.4</ele>
        <time>2013-09-03T18:59:36.356Z</time>
      </trkpt>
      <trkpt lat="48.8554" lon="2.39328">
        <ele>109.4</ele>
        <time>2013-09-03T18:59:37.292Z</time>
      </trkpt>
      <trkpt lat="48.85546" lon="2.39321">
        <ele>108</ele>
        <time>2013-09-03T18:59:39.351Z</time>
      </trkpt>
      <trkpt lat="48.8555" lon="2.39318">
        <ele>108.8</ele>
        <time>2013-09-03T18:59:40.345Z</time>
      </trkpt>
      <trkpt lat="48.85555" lon="2.39313">
        <ele>107</ele>
        <time>2013-09-03T18:59:41.351Z</time>
      </trkpt>
      <trkpt lat="48.8556" lon="2.39309">
        <ele>106.8</ele>
        <time>2013-09-03T18:59:42.354Z</time>
      </trkpt>
      <trkpt lat="48.85565" lon="2.39305">
        <ele>106.1</ele>
        <time>2013-09-03T18:59:43.326Z</time>
      </trkpt>
      <trkpt lat="48.85569" lon="2.39302">
        <ele>105.6</ele>
        <time>2013-09-03T18:59:44.348Z</time>
      </trkpt>
      <trkpt lat="48.85576" lon="2.39297">
        <ele>107.3</ele>
        <time>2013-09-03T18:59:46.343Z</time>
      </trkpt>
      <trkpt lat="48.8558" lon="2.39295">
        <ele>107</ele>
        <time>2013-09-03T18:59:47.327Z</time>
      </trkpt>
      <trkpt lat="48.85585" lon="2.39291">
        <ele>106.4</ele>
        <time>2013-09-03T18:59:49.351Z</time>
      </trkpt>
      <trkpt lat="48.85588" lon="2.39289">
        <ele>106.4</ele>
        <time>2013-09-03T18:59:50.323Z</time>
      </trkpt>
      <trkpt lat="48.85591" lon="2.39279">
        <ele>106.1</ele>
        <time>2013-09-03T19:00:01.308Z</time>
      </trkpt>
      <trkpt lat="48.85591" lon="2.39279">
        <ele>106.1</ele>
        <time>2013-09-03T19:00:02.325Z</time>
      </trkpt>
      <trkpt lat="48.85593" lon="2.3928">
        <ele>105.3</ele>
        <time>2013-09-03T19:00:58.340Z</time>
      </trkpt>
      <trkpt lat="48.85593" lon="2.39279">
        <ele>104.7</ele>
        <time>2013-09-03T19:00:59.343Z</time>
      </trkpt>
      <trkpt lat="48.85594" lon="2.39267">
        <ele>105.2</ele>
        <time>2013-09-03T19:01:03.335Z</time>
      </trkpt>
      <trkpt lat="48.85593" lon="2.39263">
        <ele>106.4</ele>
        <time>2013-09-03T19:01:04.332Z</time>
      </trkpt>
      <trkpt lat="48.85591" lon="2.39254">
        <ele>110.5</ele>
        <time>2013-09-03T19:01:06.335Z</time>
      </trkpt>
      <trkpt lat="48.8559" lon="2.39249">
        <ele>111.6</ele>
        <time>2013-09-03T19:01:07.336Z</time>
      </trkpt>
      <trkpt lat="48.85587" lon="2.39239">
        <ele>110.4</ele>
        <time>2013-09-03T19:01:09.319Z</time>
      </trkpt>
      <trkpt lat="48.85586" lon="2.39233">
        <ele>110.1</ele>
        <time>2013-09-03T19:01:10.325Z</time>
      </trkpt>
      <trkpt lat="48.85583" lon="2.3922">
        <ele>112.4</ele>
        <time>2013-09-03T19:01:12.311Z</time>
      </trkpt>
      <trkpt lat="48.85582" lon="2.39214">
        <ele>113.3</ele>
        <time>2013-09-03T19:01:13.333Z</time>
      </trkpt>
      <trkpt lat="48.8558" lon="2.39206">
        <ele>114.6</ele>
        <time>2013-09-03T19:01:14.339Z</time>
      </trkpt>
      <trkpt lat="48.85578" lon="2.39195">
        <ele>113.2</ele>
        <time>2013-09-03T19:01:15.323Z</time>
      </trkpt>
      <trkpt lat="48.85575" lon="2.39185">
        <ele>112.1</ele>
        <time>2013-09-03T19:01:16.337Z</time>
      </trkpt>
      <trkpt lat="48.85573" lon="2.39176">
        <ele>111.5</ele>
        <time>2013-09-03T19:01:17.319Z</time>
      </trkpt>
      <trkpt lat="48.85572" lon="2.39166">
        <ele>111.8</ele>
        <time>2013-09-03T19:01:18.330Z</time>
      </trkpt>
      <trkpt lat="48.85571" lon="2.39157">
        <ele>111.5</ele>
        <time>2013-09-03T19:01:19.336Z</time>
      </trkpt>
      <trkpt lat="48.85569" lon="2.39148">
        <ele>112.1</ele>
        <time>2013-09-03T19:01:20.343Z</time>
      </trkpt>
      <trkpt lat="48.85568" lon="2.39137">
        <ele>111.1</ele>
        <time>2013-09-03T19:01:21.342Z</time>
      </trkpt>
      <trkpt lat="48.85567" lon="2.39128">
        <ele>110.5</ele>
        <time>2013-09-03T19:01:22.344Z</time>
      </trkpt>
      <trkpt lat="48.85567" lon="2.39117">
        <ele>110.6</ele>
        <time>2013-09-03T19:01:23.345Z</time>
      </trkpt>
      <trkpt lat="48.85566" lon="2.39106">
        <ele>111.2</ele>
        <time>2013-09-03T19:01:24.343Z</time>
      </trkpt>
      <trkpt lat="48.85565" lon="2.39093">
        <ele>111.3</ele>
        <time>2013-09-03T19:01:25.365Z</time>
      </trkpt>
      <trkpt lat="48.85564" lon="2.39083">
        <ele>111.3</ele>
        <time>2013-09-03T19:01:26.336Z</time>
      </trkpt>
      <trkpt lat="48.85563" lon="2.39075">
        <ele>111.9</ele>
        <time>2013-09-03T19:01:27.333Z</time>
      </trkpt>
      <trkpt lat="48.85562" lon="2.39067">
        <ele>110.8</ele>
        <time>2013-09-03T19:01:28.332Z</time>
      </trkpt>
      <trkpt lat="48.85561" lon="2.39061">
        <ele>110.9</ele>
        <time>2013-09-03T19:01:29.342Z</time>
      </trkpt>
      <trkpt lat="48.85559" lon="2.39051">
        <ele>112.7</ele>
        <time>2013-09-03T19:01:31.355Z</time>
      </trkpt>
      <trkpt lat="48.85558" lon="2.39046">
        <ele>113</ele>
        <time>2013-09-03T19:01:32.490Z</time>
      </trkpt>
      <trkpt lat="48.85556" lon="2.39034">
        <ele>113.8</ele>
        <time>2013-09-03T19:01:35.359Z</time>
      </trkpt>
      <trkpt lat="48.85555" lon="2.3903">
        <ele>114.2</ele>
        <time>2013-09-03T19:01:36.421Z</time>
      </trkpt>
      <trkpt lat="48.85547" lon="2.39033">
        <ele>111.2</ele>
        <time>2013-09-03T19:01:39.314Z</time>
      </trkpt>
      <trkpt lat="48.85542" lon="2.39036">
        <ele>112</ele>
        <time>2013-09-03T19:01:40.361Z</time>
      </trkpt>
      <trkpt lat="48.85538" lon="2.39039">
        <ele>111.5</ele>
        <time>2013-09-03T19:01:41.307Z</time>
      </trkpt>
      <trkpt lat="48.85533" lon="2.39043">
        <ele>111.2</ele>
        <time>2013-09-03T19:01:42.331Z</time>
      </trkpt>
      <trkpt lat="48.85527" lon="2.39046">
        <ele>111.5</ele>
        <time>2013-09-03T19:01:43.334Z</time>
      </trkpt>
      <trkpt lat="48.85522" lon="2.39049">
        <ele>110.4</ele>
        <time>2013-09-03T19:01:44.345Z</time>
      </trkpt>
      <trkpt lat="48.85517" lon="2.39052">
        <ele>110</ele>
        <time>2013-09-03T19:01:45.352Z</time>
      </trkpt>
      <trkpt lat="48.85512" lon="2.39054">
        <ele>109.4</ele>
        <time>2013-09-03T19:01:46.341Z</time>
      </trkpt>
      <trkpt lat="48.85504" lon="2.39059">
        <ele>105.9</ele>
        <time>2013-09-03T19:01:48.330Z</time>
      </trkpt>
      <trkpt lat="48.85501" lon="2.39062">
        <ele>101.4</ele>
        <time>2013-09-03T19:01:49.345Z</time>
      </trkpt>
      <trkpt lat="48.85495" lon="2.39067">
        <ele>97</ele>
        <time>2013-09-03T19:01:51.417Z</time>
      </trkpt>
      <trkpt lat="48.85492" lon="2.39068">
        <ele>94.9</ele>
        <time>2013-09-03T19:01:52.477Z</time>
      </trkpt>
      <trkpt lat="48.85485" lon="2.39072">
        <ele>94.4</ele>
        <time>2013-09-03T19:01:54.477Z</time>
      </trkpt>
      <trkpt lat="48.85482" lon="2.39075">
        <ele>92.9</ele>
        <time>2013-09-03T19:01:55.333Z</time>
      </trkpt>
      <trkpt lat="48.85476" lon="2.39082">
        <ele>92.1</ele>
        <time>2013-09-03T19:01:57.382Z</time>
      </trkpt>
      <trkpt lat="48.85472" lon="2.39085">
        <ele>92.5</ele>
        <time>2013-09-03T19:01:58.436Z</time>
      </trkpt>
      <trkpt lat="48.85465" lon="2.3909">
        <ele>91.1</ele>
        <time>2013-09-03T19:02:00.343Z</time>
      </trkpt>
      <trkpt lat="48.85461" lon="2.39093">
        <ele>89.8</ele>
        <time>2013-09-03T19:02:01.333Z</time>
      </trkpt>
      <trkpt lat="48.85454" lon="2.39099">
        <ele>88.8</ele>
        <time>2013-09-03T19:02:03.320Z</time>
      </trkpt>
      <trkpt lat="48.85449" lon="2.391">
        <ele>88.3</ele>
        <time>2013-09-03T19:02:04.328Z</time>
      </trkpt>
      <trkpt lat="48.85441" lon="2.39101">
        <ele>89.1</ele>
        <time>2013-09-03T19:02:06.337Z</time>
      </trkpt>
      <trkpt lat="48.85439" lon="2.391">
        <ele>89.8</ele>
        <time>2013-09-03T19:02:07.363Z</time>
      </trkpt>
      <trkpt lat="48.85435" lon="2.39089">
        <ele>91.1</ele>
        <time>2013-09-03T19:02:09.305Z</time>
      </trkpt>
      <trkpt lat="48.85433" lon="2.39082">
        <ele>91.6</ele>
        <time>2013-09-03T19:02:10.343Z</time>
      </trkpt>
      <trkpt lat="48.85431" lon="2.39072">
        <ele>91.8</ele>
        <time>2013-09-03T19:02:11.344Z</time>
      </trkpt>
      <trkpt lat="48.8543" lon="2.39061">
        <ele>92.5</ele>
        <time>2013-09-03T19:02:12.350Z</time>
      </trkpt>
      <trkpt lat="48.85428" lon="2.39051">
        <ele>92.7</ele>
        <time>2013-09-03T19:02:13.355Z</time>
      </trkpt>
      <trkpt lat="48.85426" lon="2.39044">
        <ele>91.7</ele>
        <time>2013-09-03T19:02:14.341Z</time>
      </trkpt>
      <trkpt lat="48.85424" lon="2.39037">
        <ele>90.7</ele>
        <time>2013-09-03T19:02:15.337Z</time>
      </trkpt>
      <trkpt lat="48.85422" lon="2.3903">
        <ele>91.8</ele>
        <time>2013-09-03T19:02:16.395Z</time>
      </trkpt>
      <trkpt lat="48.85425" lon="2.39018">
        <ele>96.3</ele>
        <time>2013-09-03T19:02:19.504Z</time>
      </trkpt>
      <trkpt lat="48.85428" lon="2.39017">
        <ele>96.9</ele>
        <time>2013-09-03T19:02:20.444Z</time>
      </trkpt>
      <trkpt lat="48.85433" lon="2.39012">
        <ele>100</ele>
        <time>2013-09-03T19:02:22.417Z</time>
      </trkpt>
      <trkpt lat="48.85437" lon="2.3901">
        <ele>100.9</ele>
        <time>2013-09-03T19:02:23.396Z</time>
      </trkpt>
      <trkpt lat="48.85441" lon="2.39008">
        <ele>101</ele>
        <time>2013-09-03T19:02:24.447Z</time>
      </trkpt>
      <trkpt lat="48.85446" lon="2.39008">
        <ele>101.1</ele>
        <time>2013-09-03T19:02:25.342Z</time>
      </trkpt>
      <trkpt lat="48.85452" lon="2.39008">
        <ele>100.8</ele>
        <time>2013-09-03T19:02:26.482Z</time>
      </trkpt>
      <trkpt lat="48.85457" lon="2.39008">
        <ele>100.4</ele>
        <time>2013-09-03T19:02:27.355Z</time>
      </trkpt>
      <trkpt lat="48.85464" lon="2.39007">
        <ele>100.1</ele>
        <time>2013-09-03T19:02:28.475Z</time>
      </trkpt>
      <trkpt lat="48.85468" lon="2.39005">
        <ele>102.5</ele>
        <time>2013-09-03T19:02:29.404Z</time>
      </trkpt>
      <trkpt lat="48.85472" lon="2.39002">
        <ele>103.5</ele>
        <time>2013-09-03T19:02:30.393Z</time>
      </trkpt>
      <trkpt lat="48.85477" lon="2.39">
        <ele>104.6</ele>
        <time>2013-09-03T19:02:31.451Z</time>
      </trkpt>
      <trkpt lat="48.85481" lon="2.38999">
        <ele>105</ele>
        <time>2013-09-03T19:02:32.364Z</time>
      </trkpt>
      <trkpt lat="48.85486" lon="2.38997">
        <ele>104.7</ele>
        <time>2013-09-03T19:02:33.462Z</time>
      </trkpt>
      <trkpt lat="48.8549" lon="2.38996">
        <ele>105</ele>
        <time>2013-09-03T19:02:34.325Z</time>
      </trkpt>
      <trkpt lat="48.85494" lon="2.38994">
        <ele>104.5</ele>
        <time>2013-09-03T19:02:35.441Z</time>
      </trkpt>
      <trkpt lat="48.85503" lon="2.38992">
        <ele>104.4</ele>
        <time>2013-09-03T19:02:37.458Z</time>
      </trkpt>
      <trkpt lat="48.85507" lon="2.38991">
        <ele>104</ele>
        <time>2013-09-03T19:02:38.426Z</time>
      </trkpt>
      <trkpt lat="48.85515" lon="2.3899">
        <ele>104.7</ele>
        <time>2013-09-03T19:02:41.367Z</time>
      </trkpt>
      <trkpt lat="48.85516" lon="2.3899">
        <ele>103.6</ele>
        <time>2013-09-03T19:02:42.452Z</time>
      </trkpt>
      <trkpt lat="48.85521" lon="2.3898">
        <ele>97.5</ele>
        <time>2013-09-03T19:02:49.471Z</time>
      </trkpt>
      <trkpt lat="48.85521" lon="2.38978">
        <ele>97.2</ele>
        <time>2013-09-03T19:02:50.336Z</time>
      </trkpt>
      <trkpt lat="48.85522" lon="2.3897">
        <ele>97.5</ele>
        <time>2013-09-03T19:03:01.408Z</time>
      </trkpt>
      <trkpt lat="48.85522" lon="2.3897">
        <ele>97.6</ele>
        <time>2013-09-03T19:03:02.432Z</time>
      </trkpt>
      <trkpt lat="48.85524" lon="2.38971">
        <ele>97.8</ele>
        <time>2013-09-03T19:03:13.347Z</time>
      </trkpt>
      <trkpt lat="48.85524" lon="2.38969">
        <ele>97.1</ele>
        <time>2013-09-03T19:03:14.357Z</time>
      </trkpt>
      <trkpt lat="48.85524" lon="2.38957">
        <ele>96.9</ele>
        <time>2013-09-03T19:03:17.331Z</time>
      </trkpt>
      <trkpt lat="48.85524" lon="2.38952">
        <ele>97.5</ele>
        <time>2013-09-03T19:03:18.341Z</time>
      </trkpt>
      <trkpt lat="48.85523" lon="2.3894">
        <ele>98.7</ele>
        <time>2013-09-03T19:03:20.327Z</time>
      </trkpt>
      <trkpt lat="48.85523" lon="2.38934">
        <ele>98.9</ele>
        <time>2013-09-03T19:03:21.347Z</time>
      </trkpt>
      <trkpt lat="48.85522" lon="2.38928">
        <ele>100.1</ele>
        <time>2013-09-03T19:03:22.334Z</time>
      </trkpt>
      <trkpt lat="48.85521" lon="2.38921">
        <ele>100.8</ele>
        <time>2013-09-03T19:03:23.337Z</time>
      </trkpt>
      <trkpt lat="48.85519" lon="2.38913">
        <ele>102.2</ele>
        <time>2013-09-03T19:03:24.344Z</time>
      </trkpt>
      <trkpt lat="48.85516" lon="2.38906">
        <ele>102.6</ele>
        <time>2013-09-03T19:03:25.346Z</time>
      </trkpt>
      <trkpt lat="48.85514" lon="2.38899">
        <ele>102.4</ele>
        <time>2013-09-03T19:03:26.329Z</time>
      </trkpt>
      <trkpt lat="48.85512" lon="2.38892">
        <ele>102.1</ele>
        <time>2013-09-03T19:03:27.345Z</time>
      </trkpt>
      <trkpt lat="48.85511" lon="2.38879">
        <ele>101.8</ele>
        <time>2013-09-03T19:03:29.355Z</time>
      </trkpt>
      <trkpt lat="48.8551" lon="2.38873">
        <ele>101.7</ele>
        <time>2013-09-03T19:03:30.331Z</time>
      </trkpt>
      <trkpt lat="48.8551" lon="2.38862">
        <ele>99.1</ele>
        <time>2013-09-03T19:03:32.356Z</time>
      </trkpt>
      <trkpt lat="48.8551" lon="2.38856">
        <ele>98.9</ele>
        <time>2013-09-03T19:03:33.327Z</time>
      </trkpt>
      <trkpt lat="48.8551" lon="2.38849">
        <ele>98.7</ele>
        <time>2013-09-03T19:03:34.344Z</time>
      </trkpt>
      <trkpt lat="48.85509" lon="2.38841">
        <ele>98.4</ele>
        <time>2013-09-03T19:03:35.343Z</time>
      </trkpt>
      <trkpt lat="48.8551" lon="2.38828">
        <ele>96.6</ele>
        <time>2013-09-03T19:03:36.332Z</time>
      </trkpt>
      <trkpt lat="48.85509" lon="2.38818">
        <ele>96.4</ele>
        <time>2013-09-03T19:03:37.343Z</time>
      </trkpt>
      <trkpt lat="48.85508" lon="2.38808">
        <ele>95.7</ele>
        <time>2013-09-03T19:03:38.354Z</time>
      </trkpt>
      <trkpt lat="48.85507" lon="2.38798">
        <ele>95.4</ele>
        <time>2013-09-03T19:03:39.337Z</time>
      </trkpt>
      <trkpt lat="48.85505" lon="2.38789">
        <ele>95.7</ele>
        <time>2013-09-03T19:03:40.345Z</time>
      </trkpt>
      <trkpt lat="48.85503" lon="2.38782">
        <ele>95.7</ele>
        <time>2013-09-03T19:03:41.353Z</time>
      </trkpt>
      <trkpt lat="48.85501" lon="2.38774">
        <ele>95.7</ele>
        <time>2013-09-03T19:03:42.333Z</time>
      </trkpt>
      <trkpt lat="48.85498" lon="2.38766">
        <ele>96</ele>
        <time>2013-09-03T19:03:43.332Z</time>
      </trkpt>
      <trkpt lat="48.85496" lon="2.38758">
        <ele>96</ele>
        <time>2013-09-03T19:03:44.341Z</time>
      </trkpt>
      <trkpt lat="48.85494" lon="2.38751">
        <ele>96.5</ele>
        <time>2013-09-03T19:03:45.336Z</time>
      </trkpt>
      <trkpt lat="48.85493" lon="2.38739">
        <ele>95.6</ele>
        <time>2013-09-03T19:03:47.341Z</time>
      </trkpt>
      <trkpt lat="48.85493" lon="2.38734">
        <ele>94.1</ele>
        <time>2013-09-03T19:03:48.351Z</time>
      </trkpt>
      <trkpt lat="48.85496" lon="2.38726">
        <ele>98.7</ele>
        <time>2013-09-03T19:03:49.338Z</time>
      </trkpt>
      <trkpt lat="48.855" lon="2.38719">
        <ele>100.5</ele>
        <time>2013-09-03T19:03:50.324Z</time>
      </trkpt>
      <trkpt lat="48.85506" lon="2.38712">
        <ele>100</ele>
        <time>2013-09-03T19:03:51.341Z</time>
      </trkpt>
      <trkpt lat="48.85512" lon="2.38707">
        <ele>99</ele>
        <time>2013-09-03T19:03:52.347Z</time>
      </trkpt>
      <trkpt lat="48.85517" lon="2.38701">
        <ele>98.5</ele>
        <time>2013-09-03T19:03:53.344Z</time>
      </trkpt>
      <trkpt lat="48.85522" lon="2.38696">
        <ele>98.7</ele>
        <time>2013-09-03T19:03:54.496Z</time>
      </trkpt>
      <trkpt lat="48.85526" lon="2.38692">
        <ele>99.3</ele>
        <time>2013-09-03T19:03:55.345Z</time>
      </trkpt>
      <trkpt lat="48.8553" lon="2.38688">
        <ele>97.1</ele>
        <time>2013-09-03T19:03:56.437Z</time>
      </trkpt>
      <trkpt lat="48.85537" lon="2.3868">
        <ele>94</ele>
        <time>2013-09-03T19:03:58.380Z</time>
      </trkpt>
      <trkpt lat="48.85541" lon="2.38676">
        <ele>92.7</ele>
        <time>2013-09-03T19:03:59.345Z</time>
      </trkpt>
      <trkpt lat="48.85548" lon="2.38669">
        <ele>92.7</ele>
        <time>2013-09-03T19:04:01.326Z</time>
      </trkpt>
      <trkpt lat="48.85552" lon="2.38668">
        <ele>93.2</ele>
        <time>2013-09-03T19:04:02.343Z</time>
      </trkpt>
      <trkpt lat="48.8556" lon="2.38675">
        <ele>94.8</ele>
        <time>2013-09-03T19:04:04.352Z</time>
      </trkpt>
      <trkpt lat="48.85563" lon="2.38681">
        <ele>96.5</ele>
        <time>2013-09-03T19:04:05.337Z</time>
      </trkpt>
      <trkpt lat="48.85565" lon="2.38688">
        <ele>97.7</ele>
        <time>2013-09-03T19:04:06.345Z</time>
      </trkpt>
      <trkpt lat="48.85567" lon="2.38695">
        <ele>98.4</ele>
        <time>2013-09-03T19:04:07.329Z</time>
      </trkpt>
      <trkpt lat="48.85569" lon="2.38704">
        <ele>98.4</ele>
        <time>2013-09-03T19:04:08.375Z</time>
      </trkpt>
      <trkpt lat="48.85571" lon="2.38711">
        <ele>98.7</ele>
        <time>2013-09-03T19:04:09.345Z</time>
      </trkpt>
      <trkpt lat="48.85573" lon="2.38718">
        <ele>98.9</ele>
        <time>2013-09-03T19:04:10.345Z</time>
      </trkpt>
      <trkpt lat="48.85574" lon="2.3873">
        <ele>99</ele>
        <time>2013-09-03T19:04:11.405Z</time>
      </trkpt>
      <trkpt lat="48.85574" lon="2.38742">
        <ele>98.4</ele>
        <time>2013-09-03T19:04:12.437Z</time>
      </trkpt>
      <trkpt lat="48.85574" lon="2.38754">
        <ele>97.8</ele>
        <time>2013-09-03T19:04:13.482Z</time>
      </trkpt>
      <trkpt lat="48.85575" lon="2.38764">
        <ele>97.2</ele>
        <time>2013-09-03T19:04:14.415Z</time>
      </trkpt>
      <trkpt lat="48.85577" lon="2.38774">
        <ele>98.1</ele>
        <time>2013-09-03T19:04:15.535Z</time>
      </trkpt>
      <trkpt lat="48.85578" lon="2.3878">
        <ele>98.9</ele>
        <time>2013-09-03T19:04:16.352Z</time>
      </trkpt>
      <trkpt lat="48.8558" lon="2.38789">
        <ele>99.4</ele>
        <time>2013-09-03T19:04:17.481Z</time>
      </trkpt>
      <trkpt lat="48.85581" lon="2.38795">
        <ele>99.5</ele>
        <time>2013-09-03T19:04:18.388Z</time>
      </trkpt>
      <trkpt lat="48.85583" lon="2.38803">
        <ele>99.8</ele>
        <time>2013-09-03T19:04:19.461Z</time>
      </trkpt>
      <trkpt lat="48.85586" lon="2.3881">
        <ele>99.9</ele>
        <time>2013-09-03T19:04:20.486Z</time>
      </trkpt>
      <trkpt lat="48.85588" lon="2.38816">
        <ele>99.8</ele>
        <time>2013-09-03T19:04:21.414Z</time>
      </trkpt>
      <trkpt lat="48.85592" lon="2.38824">
        <ele>100.3</ele>
        <time>2013-09-03T19:04:23.357Z</time>
      </trkpt>
      <trkpt lat="48.85597" lon="2.38825">
        <ele>99.8</ele>
        <time>2013-09-03T19:04:24.467Z</time>
      </trkpt>
      <trkpt lat="48.85602" lon="2.38825">
        <ele>101</ele>
        <time>2013-09-03T19:04:25.382Z</time>
      </trkpt>
      <trkpt lat="48.85607" lon="2.38822">
        <ele>102.7</ele>
        <time>2013-09-03T19:04:26.451Z</time>
      </trkpt>
      <trkpt lat="48.85614" lon="2.38816">
        <ele>101.6</ele>
        <time>2013-09-03T19:04:28.454Z</time>
      </trkpt>
      <trkpt lat="48.85618" lon="2.38815">
        <ele>101</ele>
        <time>2013-09-03T19:04:29.472Z</time>
      </trkpt>
      <trkpt lat="48.85625" lon="2.38811">
        <ele>100</ele>
        <time>2013-09-03T19:04:32.384Z</time>
      </trkpt>
      <trkpt lat="48.85628" lon="2.38811">
        <ele>99.5</ele>
        <time>2013-09-03T19:04:33.512Z</time>
      </trkpt>
      <trkpt lat="48.85634" lon="2.38809">
        <ele>99.5</ele>
        <time>2013-09-03T19:04:35.363Z</time>
      </trkpt>
      <trkpt lat="48.85638" lon="2.38807">
        <ele>100.3</ele>
        <time>2013-09-03T19:04:36.352Z</time>
      </trkpt>
      <trkpt lat="48.85645" lon="2.38803">
        <ele>105.1</ele>
        <time>2013-09-03T19:04:38.337Z</time>
      </trkpt>
      <trkpt lat="48.85649" lon="2.38802">
        <ele>104.4</ele>
        <time>2013-09-03T19:04:39.354Z</time>
      </trkpt>
      <trkpt lat="48.85657" lon="2.38799">
        <ele>101.4</ele>
        <time>2013-09-03T19:04:41.374Z</time>
      </trkpt>
      <trkpt lat="48.85661" lon="2.38798">
        <ele>101.2</ele>
        <time>2013-09-03T19:04:42.350Z</time>
      </trkpt>
      <trkpt lat="48.85668" lon="2.38794">
        <ele>102.6</ele>
        <time>2013-09-03T19:04:44.356Z</time>
      </trkpt>
      <trkpt lat="48.8567" lon="2.3879">
        <ele>102.4</ele>
        <time>2013-09-03T19:04:45.359Z</time>
      </trkpt>
      <trkpt lat="48.85671" lon="2.38779">
        <ele>102.3</ele>
        <time>2013-09-03T19:04:47.372Z</time>
      </trkpt>
      <trkpt lat="48.8567" lon="2.38772">
        <ele>102.4</ele>
        <time>2013-09-03T19:04:48.366Z</time>
      </trkpt>
      <trkpt lat="48.85667" lon="2.3876">
        <ele>102.8</ele>
        <time>2013-09-03T19:04:50.346Z</time>
      </trkpt>
      <trkpt lat="48.85666" lon="2.38754">
        <ele>103.7</ele>
        <time>2013-09-03T19:04:51.454Z</time>
      </trkpt>
      <trkpt lat="48.85663" lon="2.38744">
        <ele>103.4</ele>
        <time>2013-09-03T19:04:53.401Z</time>
      </trkpt>
      <trkpt lat="48.85662" lon="2.38739">
        <ele>104.2</ele>
        <time>2013-09-03T19:04:54.374Z</time>
      </trkpt>
      <trkpt lat="48.85659" lon="2.38727">
        <ele>103</ele>
        <time>2013-09-03T19:04:57.365Z</time>
      </trkpt>
      <trkpt lat="48.85659" lon="2.38725">
        <ele>102.2</ele>
        <time>2013-09-03T19:04:58.370Z</time>
      </trkpt>
      <trkpt lat="48.85656" lon="2.38715">
        <ele>104.1</ele>
        <time>2013-09-03T19:05:02.360Z</time>
      </trkpt>
      <trkpt lat="48.85654" lon="2.38711">
        <ele>103.9</ele>
        <time>2013-09-03T19:05:03.368Z</time>
      </trkpt>
      <trkpt lat="48.85651" lon="2.38701">
        <ele>103.9</ele>
        <time>2013-09-03T19:05:05.383Z</time>
      </trkpt>
      <trkpt lat="48.85648" lon="2.38696">
        <ele>103.7</ele>
        <time>2013-09-03T19:05:06.352Z</time>
      </trkpt>
      <trkpt lat="48.85646" lon="2.3869">
        <ele>103.7</ele>
        <time>2013-09-03T19:05:07.353Z</time>
      </trkpt>
      <trkpt lat="48.85644" lon="2.38683">
        <ele>103.5</ele>
        <time>2013-09-03T19:05:08.472Z</time>
      </trkpt>
      <trkpt lat="48.8564" lon="2.38671">
        <ele>103.6</ele>
        <time>2013-09-03T19:05:10.374Z</time>
      </trkpt>
      <trkpt lat="48.85638" lon="2.38665">
        <ele>103</ele>
        <time>2013-09-03T19:05:11.344Z</time>
      </trkpt>
      <trkpt lat="48.85635" lon="2.38654">
        <ele>103.6</ele>
        <time>2013-09-03T19:05:13.346Z</time>
      </trkpt>
      <trkpt lat="48.85633" lon="2.38648">
        <ele>103.3</ele>
        <time>2013-09-03T19:05:14.365Z</time>
      </trkpt>
      <trkpt lat="48.8563" lon="2.38637">
        <ele>102.9</ele>
        <time>2013-09-03T19:05:16.467Z</time>
      </trkpt>
      <trkpt lat="48.85629" lon="2.38631">
        <ele>103</ele>
        <time>2013-09-03T19:05:17.437Z</time>
      </trkpt>
      <trkpt lat="48.85626" lon="2.38619">
        <ele>102.9</ele>
        <time>2013-09-03T19:05:19.362Z</time>
      </trkpt>
      <trkpt lat="48.85625" lon="2.38614">
        <ele>101.4</ele>
        <time>2013-09-03T19:05:20.342Z</time>
      </trkpt>
      <trkpt lat="48.85625" lon="2.38601">
        <ele>101.4</ele>
        <time>2013-09-03T19:05:23.477Z</time>
      </trkpt>
      <trkpt lat="48.85626" lon="2.38597">
        <ele>101.5</ele>
        <time>2013-09-03T19:05:24.414Z</time>
      </trkpt>
      <trkpt lat="48.85629" lon="2.38591">
        <ele>101.7</ele>
        <time>2013-09-03T19:05:25.434Z</time>
      </trkpt>
      <trkpt lat="48.85632" lon="2.38585">
        <ele>101.2</ele>
        <time>2013-09-03T19:05:26.395Z</time>
      </trkpt>
      <trkpt lat="48.85636" lon="2.38579">
        <ele>101.6</ele>
        <time>2013-09-03T19:05:27.337Z</time>
      </trkpt>
      <trkpt lat="48.8564" lon="2.38574">
        <ele>100.5</ele>
        <time>2013-09-03T19:05:28.353Z</time>
      </trkpt>
      <trkpt lat="48.85644" lon="2.38569">
        <ele>101.2</ele>
        <time>2013-09-03T19:05:29.351Z</time>
      </trkpt>
      <trkpt lat="48.85649" lon="2.38565">
        <ele>99.8</ele>
        <time>2013-09-03T19:05:30.351Z</time>
      </trkpt>
      <trkpt lat="48.85653" lon="2.38561">
        <ele>98.5</ele>
        <time>2013-09-03T19:05:31.432Z</time>
      </trkpt>
      <trkpt lat="48.85658" lon="2.38558">
        <ele>96</ele>
        <time>2013-09-03T19:05:32.474Z</time>
      </trkpt>
      <trkpt lat="48.85663" lon="2.38553">
        <ele>95.6</ele>
        <time>2013-09-03T19:05:33.443Z</time>
      </trkpt>
      <trkpt lat="48.85668" lon="2.38548">
        <ele>95.6</ele>
        <time>2013-09-03T19:05:34.381Z</time>
      </trkpt>
      <trkpt lat="48.85673" lon="2.38543">
        <ele>94.4</ele>
        <time>2013-09-03T19:05:35.356Z</time>
      </trkpt>
      <trkpt lat="48.85678" lon="2.38537">
        <ele>94.5</ele>
        <time>2013-09-03T19:05:36.356Z</time>
      </trkpt>
      <trkpt lat="48.85682" lon="2.38532">
        <ele>95.1</ele>
        <time>2013-09-03T19:05:37.364Z</time>
      </trkpt>
      <trkpt lat="48.85685" lon="2.38526">
        <ele>94.9</ele>
        <time>2013-09-03T19:05:38.346Z</time>
      </trkpt>
      <trkpt lat="48.85693" lon="2.38521">
        <ele>96.2</ele>
        <time>2013-09-03T19:05:40.437Z</time>
      </trkpt>
      <trkpt lat="48.85697" lon="2.38519">
        <ele>96.5</ele>
        <time>2013-09-03T19:05:41.424Z</time>
      </trkpt>
      <trkpt lat="48.85702" lon="2.38512">
        <ele>96.6</ele>
        <time>2013-09-03T19:05:43.365Z</time>
      </trkpt>
      <trkpt lat="48.85704" lon="2.38507">
        <ele>97</ele>
        <time>2013-09-03T19:05:44.370Z</time>
      </trkpt>
      <trkpt lat="48.85706" lon="2.385">
        <ele>97.5</ele>
        <time>2013-09-03T19:05:45.340Z</time>
      </trkpt>
      <trkpt lat="48.85706" lon="2.38492">
        <ele>98.6</ele>
        <time>2013-09-03T19:05:46.355Z</time>
      </trkpt>
      <trkpt lat="48.85705" lon="2.38483">
        <ele>98.7</ele>
        <time>2013-09-03T19:05:47.381Z</time>
      </trkpt>
      <trkpt lat="48.85704" lon="2.38472">
        <ele>98.4</ele>
        <time>2013-09-03T19:05:48.435Z</time>
      </trkpt>
      <trkpt lat="48.85704" lon="2.38461">
        <ele>99.3</ele>
        <time>2013-09-03T19:05:49.412Z</time>
      </trkpt>
      <trkpt lat="48.85702" lon="2.38452">
        <ele>99.5</ele>
        <time>2013-09-03T19:05:50.388Z</time>
      </trkpt>
      <trkpt lat="48.85701" lon="2.38443">
        <ele>99.5</ele>
        <time>2013-09-03T19:05:51.354Z</time>
      </trkpt>
      <trkpt lat="48.857" lon="2.38434">
        <ele>99.5</ele>
        <time>2013-09-03T19:05:52.366Z</time>
      </trkpt>
      <trkpt lat="48.85698" lon="2.38425">
        <ele>99.9</ele>
        <time>2013-09-03T19:05:53.356Z</time>
      </trkpt>
      <trkpt lat="48.85697" lon="2.38416">
        <ele>99.9</ele>
        <time>2013-09-03T19:05:54.363Z</time>
      </trkpt>
      <trkpt lat="48.85694" lon="2.38408">
        <ele>99.2</ele>
        <time>2013-09-03T19:05:55.427Z</time>
      </trkpt>
      <trkpt lat="48.85692" lon="2.384">
        <ele>99.3</ele>
        <time>2013-09-03T19:05:56.460Z</time>
      </trkpt>
      <trkpt lat="48.8569" lon="2.38393">
        <ele>98.9</ele>
        <time>2013-09-03T19:05:57.405Z</time>
      </trkpt>
      <trkpt lat="48.85688" lon="2.38386">
        <ele>98.9</ele>
        <time>2013-09-03T19:05:58.359Z</time>
      </trkpt>
      <trkpt lat="48.85686" lon="2.38378">
        <ele>98.5</ele>
        <time>2013-09-03T19:05:59.361Z</time>
      </trkpt>
      <trkpt lat="48.85685" lon="2.38369">
        <ele>98.7</ele>
        <time>2013-09-03T19:06:00.365Z</time>
      </trkpt>
      <trkpt lat="48.85683" lon="2.38361">
        <ele>98.7</ele>
        <time>2013-09-03T19:06:01.355Z</time>
      </trkpt>
      <trkpt lat="48.85676" lon="2.38358">
        <ele>98.5</ele>
        <time>2013-09-03T19:06:02.366Z</time>
      </trkpt>
      <trkpt lat="48.8567" lon="2.38355">
        <ele>98.1</ele>
        <time>2013-09-03T19:06:03.368Z</time>
      </trkpt>
      <trkpt lat="48.85663" lon="2.38351">
        <ele>98.4</ele>
        <time>2013-09-03T19:06:04.444Z</time>
      </trkpt>
      <trkpt lat="48.85659" lon="2.38347">
        <ele>98.6</ele>
        <time>2013-09-03T19:06:05.452Z</time>
      </trkpt>
      <trkpt lat="48.85654" lon="2.38342">
        <ele>98.5</ele>
        <time>2013-09-03T19:06:06.400Z</time>
      </trkpt>
      <trkpt lat="48.8565" lon="2.38337">
        <ele>98.7</ele>
        <time>2013-09-03T19:06:07.374Z</time>
      </trkpt>
      <trkpt lat="48.85647" lon="2.38329">
        <ele>98.2</ele>
        <time>2013-09-03T19:06:08.364Z</time>
      </trkpt>
      <trkpt lat="48.85646" lon="2.38322">
        <ele>98.5</ele>
        <time>2013-09-03T19:06:09.363Z</time>
      </trkpt>
      <trkpt lat="48.85647" lon="2.38314">
        <ele>98.2</ele>
        <time>2013-09-03T19:06:10.340Z</time>
      </trkpt>
      <trkpt lat="48.85647" lon="2.383">
        <ele>98.4</ele>
        <time>2013-09-03T19:06:12.369Z</time>
      </trkpt>
      <trkpt lat="48.85647" lon="2.38295">
        <ele>98.3</ele>
        <time>2013-09-03T19:06:13.383Z</time>
      </trkpt>
      <trkpt lat="48.85639" lon="2.38299">
        <ele>96</ele>
        <time>2013-09-03T19:06:16.359Z</time>
      </trkpt>
      <trkpt lat="48.85634" lon="2.38303">
        <ele>95.5</ele>
        <time>2013-09-03T19:06:17.376Z</time>
      </trkpt>
      <trkpt lat="48.8563" lon="2.38297">
        <ele>90.7</ele>
        <time>2013-09-03T19:06:32.348Z</time>
      </trkpt>
      <trkpt lat="48.85629" lon="2.38297">
        <ele>90.3</ele>
        <time>2013-09-03T19:06:33.377Z</time>
      </trkpt>
      <trkpt lat="48.85629" lon="2.38297">
        <ele>89.9</ele>
        <time>2013-09-03T19:06:34.372Z</time>
      </trkpt>
      <trkpt lat="48.85628" lon="2.38297">
        <ele>90.3</ele>
        <time>2013-09-03T19:06:38.412Z</time>
      </trkpt>
      <trkpt lat="48.85628" lon="2.38297">
        <ele>90.3</ele>
        <time>2013-09-03T19:06:39.388Z</time>
      </trkpt>
      <trkpt lat="48.85628" lon="2.38296">
        <ele>90.6</ele>
        <time>2013-09-03T19:07:38.376Z</time>
      </trkpt>
      <trkpt lat="48.85628" lon="2.38294">
        <ele>90.4</ele>
        <time>2013-09-03T19:07:39.409Z</time>
      </trkpt>
      <trkpt lat="48.85626" lon="2.38286">
        <ele>89.5</ele>
        <time>2013-09-03T19:07:41.463Z</time>
      </trkpt>
      <trkpt lat="48.85625" lon="2.38281">
        <ele>89.5</ele>
        <time>2013-09-03T19:07:42.406Z</time>
      </trkpt>
      <trkpt lat="48.85623" lon="2.3827">
        <ele>90.3</ele>
        <time>2013-09-03T19:07:44.357Z</time>
      </trkpt>
      <trkpt lat="48.85622" lon="2.38266">
        <ele>90.1</ele>
        <time>2013-09-03T19:07:45.375Z</time>
      </trkpt>
      <trkpt lat="48.85616" lon="2.38261">
        <ele>99.1</ele>
        <time>2013-09-03T19:07:49.464Z</time>
      </trkpt>
      <trkpt lat="48.85614" lon="2.38261">
        <ele>99.2</ele>
        <time>2013-09-03T19:07:50.414Z</time>
      </trkpt>
      <trkpt lat="48.85607" lon="2.38265">
        <ele>101.4</ele>
        <time>2013-09-03T19:07:52.388Z</time>
      </trkpt>
      <trkpt lat="48.85604" lon="2.38268">
        <ele>102.5</ele>
        <time>2013-09-03T19:07:53.376Z</time>
      </trkpt>
      <trkpt lat="48.85597" lon="2.38275">
        <ele>99.4</ele>
        <time>2013-09-03T19:07:57.454Z</time>
      </trkpt>
      <trkpt lat="48.85596" lon="2.38276">
        <ele>99.2</ele>
        <time>2013-09-03T19:07:58.402Z</time>
      </trkpt>
      <trkpt lat="48.85589" lon="2.38269">
        <ele>100.7</ele>
        <time>2013-09-03T19:08:05.462Z</time>
      </trkpt>
      <trkpt lat="48.85587" lon="2.38266">
        <ele>100.6</ele>
        <time>2013-09-03T19:08:06.428Z</time>
      </trkpt>
      <trkpt lat="48.85582" lon="2.38255">
        <ele>102.4</ele>
        <time>2013-09-03T19:08:08.413Z</time>
      </trkpt>
      <trkpt lat="48.85579" lon="2.38249">
        <ele>103.4</ele>
        <time>2013-09-03T19:08:09.357Z</time>
      </trkpt>
      <trkpt lat="48.85576" lon="2.38242">
        <ele>104.3</ele>
        <time>2013-09-03T19:08:10.346Z</time>
      </trkpt>
      <trkpt lat="48.85574" lon="2.38235">
        <ele>104.1</ele>
        <time>2013-09-03T19:08:11.383Z</time>
      </trkpt>
      <trkpt lat="48.85572" lon="2.38229">
        <ele>104.4</ele>
        <time>2013-09-03T19:08:12.424Z</time>
      </trkpt>
      <trkpt lat="48.85569" lon="2.38223">
        <ele>104.4</ele>
        <time>2013-09-03T19:08:13.447Z</time>
      </trkpt>
      <trkpt lat="48.85565" lon="2.38212">
        <ele>104.2</ele>
        <time>2013-09-03T19:08:15.375Z</time>
      </trkpt>
      <trkpt lat="48.85563" lon="2.38207">
        <ele>103.4</ele>
        <time>2013-09-03T19:08:16.366Z</time>
      </trkpt>
      <trkpt lat="48.85559" lon="2.38199">
        <ele>91.6</ele>
        <time>2013-09-03T19:08:18.354Z</time>
      </trkpt>
      <trkpt lat="48.85557" lon="2.38197">
        <ele>91.1</ele>
        <time>2013-09-03T19:08:19.359Z</time>
      </trkpt>
      <trkpt lat="48.85548" lon="2.38196">
        <ele>88.6</ele>
        <time>2013-09-03T19:08:22.368Z</time>
      </trkpt>
      <trkpt lat="48.85544" lon="2.38196">
        <ele>88.2</ele>
        <time>2013-09-03T19:08:23.385Z</time>
      </trkpt>
      <trkpt lat="48.8554" lon="2.38197">
        <ele>90.2</ele>
        <time>2013-09-03T19:08:24.405Z</time>
      </trkpt>
      <trkpt lat="48.85535" lon="2.38199">
        <ele>90.7</ele>
        <time>2013-09-03T19:08:25.354Z</time>
      </trkpt>
      <trkpt lat="48.85531" lon="2.38202">
        <ele>90</ele>
        <time>2013-09-03T19:08:26.369Z</time>
      </trkpt>
      <trkpt lat="48.85526" lon="2.38206">
        <ele>89.8</ele>
        <time>2013-09-03T19:08:27.384Z</time>
      </trkpt>
      <trkpt lat="48.85522" lon="2.38209">
        <ele>88</ele>
        <time>2013-09-03T19:08:28.375Z</time>
      </trkpt>
      <trkpt lat="48.85518" lon="2.38213">
        <ele>86.6</ele>
        <time>2013-09-03T19:08:29.393Z</time>
      </trkpt>
      <trkpt lat="48.85511" lon="2.38219">
        <ele>85.8</ele>
        <time>2013-09-03T19:08:31.391Z</time>
      </trkpt>
      <trkpt lat="48.85507" lon="2.38222">
        <ele>86.3</ele>
        <time>2013-09-03T19:08:32.371Z</time>
      </trkpt>
      <trkpt lat="48.855" lon="2.38227">
        <ele>85.8</ele>
        <time>2013-09-03T19:08:34.364Z</time>
      </trkpt>
      <trkpt lat="48.85496" lon="2.3823">
        <ele>85.4</ele>
        <time>2013-09-03T19:08:35.393Z</time>
      </trkpt>
      <trkpt lat="48.85489" lon="2.38235">
        <ele>83.9</ele>
        <time>2013-09-03T19:08:37.357Z</time>
      </trkpt>
      <trkpt lat="48.85485" lon="2.38237">
        <ele>83.5</ele>
        <time>2013-09-03T19:08:38.375Z</time>
      </trkpt>
      <trkpt lat="48.85478" lon="2.38241">
        <ele>83</ele>
        <time>2013-09-03T19:08:40.376Z</time>
      </trkpt>
      <trkpt lat="48.85474" lon="2.38243">
        <ele>82.6</ele>
        <time>2013-09-03T19:08:41.413Z</time>
      </trkpt>
      <trkpt lat="48.85466" lon="2.38248">
        <ele>81.9</ele>
        <time>2013-09-03T19:08:43.393Z</time>
      </trkpt>
      <trkpt lat="48.85463" lon="2.3825">
        <ele>81.2</ele>
        <time>2013-09-03T19:08:44.365Z</time>
      </trkpt>
      <trkpt lat="48.85457" lon="2.38257">
        <ele>79.7</ele>
        <time>2013-09-03T19:08:46.382Z</time>
      </trkpt>
      <trkpt lat="48.85453" lon="2.38259">
        <ele>80.6</ele>
        <time>2013-09-03T19:08:47.389Z</time>
      </trkpt>
      <trkpt lat="48.85446" lon="2.38264">
        <ele>79.4</ele>
        <time>2013-09-03T19:08:49.414Z</time>
      </trkpt>
      <trkpt lat="48.85443" lon="2.38266">
        <ele>78.9</ele>
        <time>2013-09-03T19:08:50.404Z</time>
      </trkpt>
      <trkpt lat="48.85435" lon="2.38269">
        <ele>78.4</ele>
        <time>2013-09-03T19:08:52.396Z</time>
      </trkpt>
      <trkpt lat="48.85432" lon="2.3827">
        <ele>78.7</ele>
        <time>2013-09-03T19:08:53.397Z</time>
      </trkpt>
      <trkpt lat="48.85426" lon="2.38272">
        <ele>78.6</ele>
        <time>2013-09-03T19:08:55.398Z</time>
      </trkpt>
      <trkpt lat="48.85423" lon="2.38273">
        <ele>78.7</ele>
        <time>2013-09-03T19:08:56.368Z</time>
      </trkpt>
      <trkpt lat="48.8542" lon="2.38274">
        <ele>81.3</ele>
        <time>2013-09-03T19:09:17.371Z</time>
      </trkpt>
      <trkpt lat="48.8542" lon="2.38274">
        <ele>81.3</ele>
        <time>2013-09-03T19:09:18.390Z</time>
      </trkpt>
      <trkpt lat="48.8542" lon="2.38273">
        <ele>81.3</ele>
        <time>2013-09-03T19:09:21.386Z</time>
      </trkpt>
      <trkpt lat="48.8542" lon="2.38272">
        <ele>81.6</ele>
        <time>2013-09-03T19:09:22.364Z</time>
      </trkpt>
      <trkpt lat="48.85414" lon="2.38263">
        <ele>81.8</ele>
        <time>2013-09-03T19:09:25.363Z</time>
      </trkpt>
      <trkpt lat="48.8541" lon="2.38259">
        <ele>83</ele>
        <time>2013-09-03T19:09:26.373Z</time>
      </trkpt>
      <trkpt lat="48.85406" lon="2.38257">
        <ele>83.4</ele>
        <time>2013-09-03T19:09:27.364Z</time>
      </trkpt>
      <trkpt lat="48.85401" lon="2.38256">
        <ele>84.4</ele>
        <time>2013-09-03T19:09:28.404Z</time>
      </trkpt>
      <trkpt lat="48.85397" lon="2.38256">
        <ele>87.5</ele>
        <time>2013-09-03T19:09:29.384Z</time>
      </trkpt>
      <trkpt lat="48.85392" lon="2.38257">
        <ele>88.3</ele>
        <time>2013-09-03T19:09:30.374Z</time>
      </trkpt>
      <trkpt lat="48.85384" lon="2.38261">
        <ele>88.8</ele>
        <time>2013-09-03T19:09:32.361Z</time>
      </trkpt>
      <trkpt lat="48.8538" lon="2.38265">
        <ele>88.8</ele>
        <time>2013-09-03T19:09:33.444Z</time>
      </trkpt>
      <trkpt lat="48.85372" lon="2.3827">
        <ele>86.6</ele>
        <time>2013-09-03T19:09:35.413Z</time>
      </trkpt>
      <trkpt lat="48.85368" lon="2.38272">
        <ele>87.4</ele>
        <time>2013-09-03T19:09:36.483Z</time>
      </trkpt>
      <trkpt lat="48.85363" lon="2.38273">
        <ele>86.9</ele>
        <time>2013-09-03T19:09:37.365Z</time>
      </trkpt>
      <trkpt lat="48.85359" lon="2.38275">
        <ele>87.2</ele>
        <time>2013-09-03T19:09:38.377Z</time>
      </trkpt>
      <trkpt lat="48.85354" lon="2.38277">
        <ele>86.4</ele>
        <time>2013-09-03T19:09:39.380Z</time>
      </trkpt>
      <trkpt lat="48.85349" lon="2.38282">
        <ele>84.2</ele>
        <time>2013-09-03T19:09:40.494Z</time>
      </trkpt>
      <trkpt lat="48.85344" lon="2.38286">
        <ele>83</ele>
        <time>2013-09-03T19:09:41.454Z</time>
      </trkpt>
      <trkpt lat="48.8534" lon="2.38292">
        <ele>81.2</ele>
        <time>2013-09-03T19:09:42.449Z</time>
      </trkpt>
      <trkpt lat="48.85336" lon="2.38297">
        <ele>79.2</ele>
        <time>2013-09-03T19:09:43.484Z</time>
      </trkpt>
      <trkpt lat="48.85333" lon="2.38302">
        <ele>78.9</ele>
        <time>2013-09-03T19:09:44.362Z</time>
      </trkpt>
      <trkpt lat="48.85327" lon="2.38305">
        <ele>80.6</ele>
        <time>2013-09-03T19:09:45.572Z</time>
      </trkpt>
      <trkpt lat="48.85324" lon="2.38308">
        <ele>80.4</ele>
        <time>2013-09-03T19:09:46.424Z</time>
      </trkpt>
      <trkpt lat="48.85319" lon="2.38314">
        <ele>79.8</ele>
        <time>2013-09-03T19:09:47.476Z</time>
      </trkpt>
      <trkpt lat="48.85315" lon="2.38318">
        <ele>80.3</ele>
        <time>2013-09-03T19:09:48.442Z</time>
      </trkpt>
      <trkpt lat="48.85311" lon="2.38322">
        <ele>80.3</ele>
        <time>2013-09-03T19:09:49.502Z</time>
      </trkpt>
      <trkpt lat="48.85307" lon="2.38325">
        <ele>79.3</ele>
        <time>2013-09-03T19:09:50.508Z</time>
      </trkpt>
      <trkpt lat="48.85301" lon="2.38332">
        <ele>78.3</ele>
        <time>2013-09-03T19:09:52.515Z</time>
      </trkpt>
      <trkpt lat="48.85297" lon="2.38334">
        <ele>77.6</ele>
        <time>2013-09-03T19:09:53.384Z</time>
      </trkpt>
      <trkpt lat="48.8529" lon="2.38338">
        <ele>78.3</ele>
        <time>2013-09-03T19:09:55.378Z</time>
      </trkpt>
      <trkpt lat="48.85286" lon="2.38339">
        <ele>77.9</ele>
        <time>2013-09-03T19:09:56.377Z</time>
      </trkpt>
      <trkpt lat="48.8528" lon="2.38343">
        <ele>77.5</ele>
        <time>2013-09-03T19:09:58.395Z</time>
      </trkpt>
      <trkpt lat="48.85277" lon="2.38347">
        <ele>77.8</ele>
        <time>2013-09-03T19:09:59.496Z</time>
      </trkpt>
      <trkpt lat="48.85272" lon="2.38353">
        <ele>76.5</ele>
        <time>2013-09-03T19:10:01.508Z</time>
      </trkpt>
      <trkpt lat="48.8527" lon="2.38355">
        <ele>76.3</ele>
        <time>2013-09-03T19:10:02.394Z</time>
      </trkpt>
      <trkpt lat="48.85263" lon="2.38358">
        <ele>77.5</ele>
        <time>2013-09-03T19:10:04.373Z</time>
      </trkpt>
      <trkpt lat="48.85259" lon="2.3836">
        <ele>79</ele>
        <time>2013-09-03T19:10:05.474Z</time>
      </trkpt>
      <trkpt lat="48.85253" lon="2.38363">
        <ele>79.3</ele>
        <time>2013-09-03T19:10:07.433Z</time>
      </trkpt>
      <trkpt lat="48.8525" lon="2.38365">
        <ele>78.6</ele>
        <time>2013-09-03T19:10:08.394Z</time>
      </trkpt>
      <trkpt lat="48.85243" lon="2.3837">
        <ele>79.1</ele>
        <time>2013-09-03T19:10:10.370Z</time>
      </trkpt>
      <trkpt lat="48.85239" lon="2.38373">
        <ele>79.2</ele>
        <time>2013-09-03T19:10:11.382Z</time>
      </trkpt>
      <trkpt lat="48.85235" lon="2.38375">
        <ele>80.3</ele>
        <time>2013-09-03T19:10:12.376Z</time>
      </trkpt>
      <trkpt lat="48.8523" lon="2.38377">
        <ele>82.6</ele>
        <time>2013-09-03T19:10:13.396Z</time>
      </trkpt>
      <trkpt lat="48.85224" lon="2.38378">
        <ele>86.2</ele>
        <time>2013-09-03T19:10:14.386Z</time>
      </trkpt>
      <trkpt lat="48.85217" lon="2.38377">
        <ele>86.1</ele>
        <time>2013-09-03T19:10:15.382Z</time>
      </trkpt>
      <trkpt lat="48.85207" lon="2.38373">
        <ele>85.7</ele>
        <time>2013-09-03T19:10:16.368Z</time>
      </trkpt>
      <trkpt lat="48.85199" lon="2.38372">
        <ele>84.4</ele>
        <time>2013-09-03T19:10:17.479Z</time>
      </trkpt>
      <trkpt lat="48.85193" lon="2.38372">
        <ele>84.4</ele>
        <time>2013-09-03T19:10:18.397Z</time>
      </trkpt>
      <trkpt lat="48.85186" lon="2.38373">
        <ele>83.2</ele>
        <time>2013-09-03T19:10:19.467Z</time>
      </trkpt>
      <trkpt lat="48.85182" lon="2.38376">
        <ele>82.8</ele>
        <time>2013-09-03T19:10:20.372Z</time>
      </trkpt>
      <trkpt lat="48.85176" lon="2.38379">
        <ele>82.2</ele>
        <time>2013-09-03T19:10:21.485Z</time>
      </trkpt>
      <trkpt lat="48.85172" lon="2.38381">
        <ele>81.8</ele>
        <time>2013-09-03T19:10:22.465Z</time>
      </trkpt>
      <trkpt lat="48.85166" lon="2.38381">
        <ele>83.4</ele>
        <time>2013-09-03T19:10:23.419Z</time>
      </trkpt>
      <trkpt lat="48.8516" lon="2.3838">
        <ele>85</ele>
        <time>2013-09-03T19:10:24.555Z</time>
      </trkpt>
      <trkpt lat="48.85155" lon="2.3838">
        <ele>83.1</ele>
        <time>2013-09-03T19:10:25.385Z</time>
      </trkpt>
      <trkpt lat="48.8515" lon="2.3838">
        <ele>84.6</ele>
        <time>2013-09-03T19:10:26.586Z</time>
      </trkpt>
      <trkpt lat="48.85143" lon="2.38384">
        <ele>82.9</ele>
        <time>2013-09-03T19:10:28.516Z</time>
      </trkpt>
      <trkpt lat="48.8514" lon="2.38388">
        <ele>82.5</ele>
        <time>2013-09-03T19:10:29.441Z</time>
      </trkpt>
      <trkpt lat="48.85136" lon="2.38392">
        <ele>78.7</ele>
        <time>2013-09-03T19:10:30.460Z</time>
      </trkpt>
      <trkpt lat="48.85133" lon="2.38398">
        <ele>79.9</ele>
        <time>2013-09-03T19:10:31.572Z</time>
      </trkpt>
      <trkpt lat="48.85128" lon="2.38405">
        <ele>80.5</ele>
        <time>2013-09-03T19:10:32.416Z</time>
      </trkpt>
      <trkpt lat="48.85123" lon="2.38412">
        <ele>80.3</ele>
        <time>2013-09-03T19:10:33.527Z</time>
      </trkpt>
      <trkpt lat="48.85118" lon="2.38417">
        <ele>79.7</ele>
        <time>2013-09-03T19:10:34.378Z</time>
      </trkpt>
      <trkpt lat="48.85114" lon="2.38424">
        <ele>78.2</ele>
        <time>2013-09-03T19:10:35.415Z</time>
      </trkpt>
      <trkpt lat="48.85109" lon="2.3843">
        <ele>75.5</ele>
        <time>2013-09-03T19:10:36.391Z</time>
      </trkpt>
      <trkpt lat="48.85103" lon="2.38435">
        <ele>70.6</ele>
        <time>2013-09-03T19:10:37.394Z</time>
      </trkpt>
      <trkpt lat="48.85096" lon="2.38439">
        <ele>70.6</ele>
        <time>2013-09-03T19:10:38.380Z</time>
      </trkpt>
      <trkpt lat="48.8509" lon="2.38443">
        <ele>71.4</ele>
        <time>2013-09-03T19:10:39.353Z</time>
      </trkpt>
      <trkpt lat="48.85082" lon="2.38446">
        <ele>71.6</ele>
        <time>2013-09-03T19:10:41.353Z</time>
      </trkpt>
      <trkpt lat="48.85078" lon="2.38446">
        <ele>69.3</ele>
        <time>2013-09-03T19:10:42.355Z</time>
      </trkpt>
      <trkpt lat="48.85069" lon="2.38446">
        <ele>67.3</ele>
        <time>2013-09-03T19:10:45.366Z</time>
      </trkpt>
      <trkpt lat="48.85066" lon="2.38448">
        <ele>66.1</ele>
        <time>2013-09-03T19:10:46.394Z</time>
      </trkpt>
      <trkpt lat="48.8506" lon="2.38456">
        <ele>67.5</ele>
        <time>2013-09-03T19:10:49.383Z</time>
      </trkpt>
      <trkpt lat="48.85059" lon="2.3846">
        <ele>66.2</ele>
        <time>2013-09-03T19:10:50.409Z</time>
      </trkpt>
      <trkpt lat="48.8506" lon="2.38473">
        <ele>69.4</ele>
        <time>2013-09-03T19:10:54.395Z</time>
      </trkpt>
      <trkpt lat="48.8506" lon="2.38476">
        <ele>71.3</ele>
        <time>2013-09-03T19:10:55.381Z</time>
      </trkpt>
      <trkpt lat="48.85061" lon="2.38489">
        <ele>70.5</ele>
        <time>2013-09-03T19:10:58.412Z</time>
      </trkpt>
      <trkpt lat="48.85062" lon="2.38494">
        <ele>71.9</ele>
        <time>2013-09-03T19:10:59.393Z</time>
      </trkpt>
      <trkpt lat="48.85063" lon="2.38506">
        <ele>71.8</ele>
        <time>2013-09-03T19:11:01.404Z</time>
      </trkpt>
      <trkpt lat="48.85064" lon="2.38512">
        <ele>71.3</ele>
        <time>2013-09-03T19:11:02.372Z</time>
      </trkpt>
      <trkpt lat="48.85067" lon="2.38523">
        <ele>72.3</ele>
        <time>2013-09-03T19:11:04.372Z</time>
      </trkpt>
      <trkpt lat="48.85069" lon="2.38529">
        <ele>72.7</ele>
        <time>2013-09-03T19:11:05.401Z</time>
      </trkpt>
      <trkpt lat="48.85071" lon="2.38541">
        <ele>75.6</ele>
        <time>2013-09-03T19:11:07.546Z</time>
      </trkpt>
      <trkpt lat="48.85071" lon="2.38547">
        <ele>75.4</ele>
        <time>2013-09-03T19:11:08.391Z</time>
      </trkpt>
      <trkpt lat="48.85072" lon="2.38559">
        <ele>74.9</ele>
        <time>2013-09-03T19:11:10.503Z</time>
      </trkpt>
      <trkpt lat="48.85072" lon="2.38563">
        <ele>75.3</ele>
        <time>2013-09-03T19:11:11.432Z</time>
      </trkpt>
      <trkpt lat="48.85072" lon="2.38577">
        <ele>76.5</ele>
        <time>2013-09-03T19:11:15.389Z</time>
      </trkpt>
      <trkpt lat="48.85073" lon="2.38579">
        <ele>76.6</ele>
        <time>2013-09-03T19:11:16.516Z</time>
      </trkpt>
      <trkpt lat="48.8508" lon="2.3858">
        <ele>76.8</ele>
        <time>2013-09-03T19:11:19.485Z</time>
      </trkpt>
      <trkpt lat="48.85082" lon="2.38579">
        <ele>77</ele>
        <time>2013-09-03T19:11:20.405Z</time>
      </trkpt>
      <trkpt lat="48.85091" lon="2.38577">
        <ele>77.5</ele>
        <time>2013-09-03T19:11:23.451Z</time>
      </trkpt>
      <trkpt lat="48.85093" lon="2.38576">
        <ele>77.5</ele>
        <time>2013-09-03T19:11:24.394Z</time>
      </trkpt>
      <trkpt lat="48.851" lon="2.38575">
        <ele>77.5</ele>
        <time>2013-09-03T19:11:27.428Z</time>
      </trkpt>
      <trkpt lat="48.85103" lon="2.38575">
        <ele>77.4</ele>
        <time>2013-09-03T19:11:28.444Z</time>
      </trkpt>
      <trkpt lat="48.8511" lon="2.38577">
        <ele>77.6</ele>
        <time>2013-09-03T19:11:31.395Z</time>
      </trkpt>
      <trkpt lat="48.85112" lon="2.38577">
        <ele>77.6</ele>
        <time>2013-09-03T19:11:32.395Z</time>
      </trkpt>
      <trkpt lat="48.8512" lon="2.38579">
        <ele>77.8</ele>
        <time>2013-09-03T19:11:36.393Z</time>
      </trkpt>
      <trkpt lat="48.85122" lon="2.38578">
        <ele>77.5</ele>
        <time>2013-09-03T19:11:37.413Z</time>
      </trkpt>
      <trkpt lat="48.85129" lon="2.38573">
        <ele>79</ele>
        <time>2013-09-03T19:11:41.377Z</time>
      </trkpt>
      <trkpt lat="48.85133" lon="2.38571">
        <ele>78.8</ele>
        <time>2013-09-03T19:11:42.379Z</time>
      </trkpt>
      <trkpt lat="48.8514" lon="2.38566">
        <ele>78.3</ele>
        <time>2013-09-03T19:11:44.371Z</time>
      </trkpt>
      <trkpt lat="48.85143" lon="2.38563">
        <ele>78.7</ele>
        <time>2013-09-03T19:11:45.376Z</time>
      </trkpt>
      <trkpt lat="48.85149" lon="2.38553">
        <ele>80.4</ele>
        <time>2013-09-03T19:11:48.370Z</time>
      </trkpt>
      <trkpt lat="48.85149" lon="2.38548">
        <ele>80.4</ele>
        <time>2013-09-03T19:11:49.394Z</time>
      </trkpt>
      <trkpt lat="48.85147" lon="2.38537">
        <ele>79.9</ele>
        <time>2013-09-03T19:11:51.369Z</time>
      </trkpt>
      <trkpt lat="48.85145" lon="2.38532">
        <ele>79.9</ele>
        <time>2013-09-03T19:11:52.371Z</time>
      </trkpt>
      <trkpt lat="48.85143" lon="2.38522">
        <ele>79.9</ele>
        <time>2013-09-03T19:11:54.383Z</time>
      </trkpt>
      <trkpt lat="48.85142" lon="2.38518">
        <ele>79.8</ele>
        <time>2013-09-03T19:11:55.401Z</time>
      </trkpt>
      <trkpt lat="48.8514" lon="2.38506">
        <ele>79.7</ele>
        <time>2013-09-03T19:11:58.368Z</time>
      </trkpt>
      <trkpt lat="48.85139" lon="2.38503">
        <ele>79.6</ele>
        <time>2013-09-03T19:11:59.371Z</time>
      </trkpt>
      <trkpt lat="48.85139" lon="2.3849">
        <ele>81.1</ele>
        <time>2013-09-03T19:12:05.379Z</time>
      </trkpt>
      <trkpt lat="48.85139" lon="2.38488">
        <ele>81.5</ele>
        <time>2013-09-03T19:12:06.389Z</time>
      </trkpt>
      <trkpt lat="48.85143" lon="2.38481">
        <ele>82.9</ele>
        <time>2013-09-03T19:12:09.377Z</time>
      </trkpt>
      <trkpt lat="48.85146" lon="2.38479">
        <ele>83.1</ele>
        <time>2013-09-03T19:12:10.384Z</time>
      </trkpt>
      <trkpt lat="48.85153" lon="2.38475">
        <ele>82.2</ele>
        <time>2013-09-03T19:12:12.386Z</time>
      </trkpt>
      <trkpt lat="48.85157" lon="2.38474">
        <ele>82.5</ele>
        <time>2013-09-03T19:12:13.412Z</time>
      </trkpt>
      <trkpt lat="48.85166" lon="2.38476">
        <ele>83.4</ele>
        <time>2013-09-03T19:12:15.401Z</time>
      </trkpt>
      <trkpt lat="48.8517" lon="2.38478">
        <ele>83.4</ele>
        <time>2013-09-03T19:12:16.389Z</time>
      </trkpt>
      <trkpt lat="48.85174" lon="2.38481">
        <ele>82.8</ele>
        <time>2013-09-03T19:12:17.365Z</time>
      </trkpt>
      <trkpt lat="48.85178" lon="2.38484">
        <ele>82.9</ele>
        <time>2013-09-03T19:12:18.403Z</time>
      </trkpt>
      <trkpt lat="48.85186" lon="2.38487">
        <ele>83</ele>
        <time>2013-09-03T19:12:20.394Z</time>
      </trkpt>
      <trkpt lat="48.8519" lon="2.38488">
        <ele>83.7</ele>
        <time>2013-09-03T19:12:21.391Z</time>
      </trkpt>
      <trkpt lat="48.85197" lon="2.38488">
        <ele>82.5</ele>
        <time>2013-09-03T19:12:23.476Z</time>
      </trkpt>
      <trkpt lat="48.85201" lon="2.38488">
        <ele>81</ele>
        <time>2013-09-03T19:12:24.393Z</time>
      </trkpt>
      <trkpt lat="48.85209" lon="2.3849">
        <ele>81</ele>
        <time>2013-09-03T19:12:26.381Z</time>
      </trkpt>
      <trkpt lat="48.85214" lon="2.38491">
        <ele>80.3</ele>
        <time>2013-09-03T19:12:27.518Z</time>
      </trkpt>
      <trkpt lat="48.85223" lon="2.38493">
        <ele>79.6</ele>
        <time>2013-09-03T19:12:29.481Z</time>
      </trkpt>
      <trkpt lat="48.85227" lon="2.38493">
        <ele>79.6</ele>
        <time>2013-09-03T19:12:30.496Z</time>
      </trkpt>
      <trkpt lat="48.85234" lon="2.38491">
        <ele>77.3</ele>
        <time>2013-09-03T19:12:32.505Z</time>
      </trkpt>
      <trkpt lat="48.85238" lon="2.3849">
        <ele>75.8</ele>
        <time>2013-09-03T19:12:33.391Z</time>
      </trkpt>
      <trkpt lat="48.85246" lon="2.38487">
        <ele>68.6</ele>
        <time>2013-09-03T19:12:35.393Z</time>
      </trkpt>
      <trkpt lat="48.85251" lon="2.38486">
        <ele>68.3</ele>
        <time>2013-09-03T19:12:36.553Z</time>
      </trkpt>
      <trkpt lat="48.85259" lon="2.38486">
        <ele>70.1</ele>
        <time>2013-09-03T19:12:38.486Z</time>
      </trkpt>
      <trkpt lat="48.85263" lon="2.38489">
        <ele>71.8</ele>
        <time>2013-09-03T19:12:39.510Z</time>
      </trkpt>
      <trkpt lat="48.8527" lon="2.38496">
        <ele>72.9</ele>
        <time>2013-09-03T19:12:41.517Z</time>
      </trkpt>
      <trkpt lat="48.85272" lon="2.385">
        <ele>73.8</ele>
        <time>2013-09-03T19:12:42.399Z</time>
      </trkpt>
      <trkpt lat="48.8528" lon="2.38506">
        <ele>82.7</ele>
        <time>2013-09-03T19:12:45.508Z</time>
      </trkpt>
      <trkpt lat="48.85282" lon="2.38505">
        <ele>85.1</ele>
        <time>2013-09-03T19:12:46.489Z</time>
      </trkpt>
      <trkpt lat="48.8529" lon="2.38498">
        <ele>87.3</ele>
        <time>2013-09-03T19:12:49.366Z</time>
      </trkpt>
      <trkpt lat="48.85293" lon="2.38495">
        <ele>88.4</ele>
        <time>2013-09-03T19:12:50.513Z</time>
      </trkpt>
      <trkpt lat="48.85299" lon="2.38491">
        <ele>88.7</ele>
        <time>2013-09-03T19:12:52.386Z</time>
      </trkpt>
      <trkpt lat="48.85303" lon="2.38491">
        <ele>88.2</ele>
        <time>2013-09-03T19:12:53.388Z</time>
      </trkpt>
      <trkpt lat="48.85308" lon="2.38493">
        <ele>88.8</ele>
        <time>2013-09-03T19:12:54.396Z</time>
      </trkpt>
      <trkpt lat="48.85312" lon="2.38495">
        <ele>89</ele>
        <time>2013-09-03T19:12:55.390Z</time>
      </trkpt>
      <trkpt lat="48.85317" lon="2.385">
        <ele>90</ele>
        <time>2013-09-03T19:12:56.391Z</time>
      </trkpt>
      <trkpt lat="48.85321" lon="2.38505">
        <ele>90.4</ele>
        <time>2013-09-03T19:12:57.386Z</time>
      </trkpt>
      <trkpt lat="48.85327" lon="2.38514">
        <ele>90.4</ele>
        <time>2013-09-03T19:12:58.423Z</time>
      </trkpt>
      <trkpt lat="48.85332" lon="2.38518">
        <ele>92.8</ele>
        <time>2013-09-03T19:12:59.476Z</time>
      </trkpt>
      <trkpt lat="48.85336" lon="2.38521">
        <ele>93.4</ele>
        <time>2013-09-03T19:13:00.457Z</time>
      </trkpt>
      <trkpt lat="48.8534" lon="2.38523">
        <ele>93</ele>
        <time>2013-09-03T19:13:01.529Z</time>
      </trkpt>
      <trkpt lat="48.85348" lon="2.38524">
        <ele>93.8</ele>
        <time>2013-09-03T19:13:04.370Z</time>
      </trkpt>
      <trkpt lat="48.85352" lon="2.38523">
        <ele>94.9</ele>
        <time>2013-09-03T19:13:05.401Z</time>
      </trkpt>
      <trkpt lat="48.8536" lon="2.38521">
        <ele>95.6</ele>
        <time>2013-09-03T19:13:07.405Z</time>
      </trkpt>
      <trkpt lat="48.85365" lon="2.38519">
        <ele>95.9</ele>
        <time>2013-09-03T19:13:08.385Z</time>
      </trkpt>
      <trkpt lat="48.85372" lon="2.38514">
        <ele>94.2</ele>
        <time>2013-09-03T19:13:10.376Z</time>
      </trkpt>
      <trkpt lat="48.85376" lon="2.38511">
        <ele>94.2</ele>
        <time>2013-09-03T19:13:11.382Z</time>
      </trkpt>
      <trkpt lat="48.85383" lon="2.38506">
        <ele>94</ele>
        <time>2013-09-03T19:13:13.400Z</time>
      </trkpt>
      <trkpt lat="48.85387" lon="2.38503">
        <ele>93.7</ele>
        <time>2013-09-03T19:13:14.418Z</time>
      </trkpt>
      <trkpt lat="48.85392" lon="2.38495">
        <ele>95.1</ele>
        <time>2013-09-03T19:13:16.397Z</time>
      </trkpt>
      <trkpt lat="48.85395" lon="2.38491">
        <ele>96.2</ele>
        <time>2013-09-03T19:13:17.402Z</time>
      </trkpt>
      <trkpt lat="48.85402" lon="2.38484">
        <ele>97.3</ele>
        <time>2013-09-03T19:13:19.391Z</time>
      </trkpt>
      <trkpt lat="48.85405" lon="2.38481">
        <ele>97.1</ele>
        <time>2013-09-03T19:13:20.394Z</time>
      </trkpt>
      <trkpt lat="48.85412" lon="2.38475">
        <ele>95.9</ele>
        <time>2013-09-03T19:13:22.398Z</time>
      </trkpt>
      <trkpt lat="48.85416" lon="2.38473">
        <ele>94.4</ele>
        <time>2013-09-03T19:13:23.404Z</time>
      </trkpt>
      <trkpt lat="48.85424" lon="2.38468">
        <ele>93.5</ele>
        <time>2013-09-03T19:13:25.389Z</time>
      </trkpt>
      <trkpt lat="48.85429" lon="2.38469">
        <ele>88.9</ele>
        <time>2013-09-03T19:13:26.525Z</time>
      </trkpt>
      <trkpt lat="48.85434" lon="2.38472">
        <ele>88.1</ele>
        <time>2013-09-03T19:13:27.405Z</time>
      </trkpt>
      <trkpt lat="48.85439" lon="2.38477">
        <ele>88.2</ele>
        <time>2013-09-03T19:13:28.536Z</time>
      </trkpt>
      <trkpt lat="48.85443" lon="2.38482">
        <ele>88.4</ele>
        <time>2013-09-03T19:13:29.407Z</time>
      </trkpt>
      <trkpt lat="48.85447" lon="2.38489">
        <ele>88.7</ele>
        <time>2013-09-03T19:13:30.506Z</time>
      </trkpt>
      <trkpt lat="48.8545" lon="2.38496">
        <ele>89.7</ele>
        <time>2013-09-03T19:13:31.416Z</time>
      </trkpt>
      <trkpt lat="48.85452" lon="2.38503">
        <ele>90.1</ele>
        <time>2013-09-03T19:13:32.466Z</time>
      </trkpt>
      <trkpt lat="48.85455" lon="2.38515">
        <ele>89.6</ele>
        <time>2013-09-03T19:13:34.412Z</time>
      </trkpt>
      <trkpt lat="48.85456" lon="2.3852">
        <ele>89.6</ele>
        <time>2013-09-03T19:13:35.382Z</time>
      </trkpt>
      <trkpt lat="48.85461" lon="2.38517">
        <ele>88.8</ele>
        <time>2013-09-03T19:13:53.391Z</time>
      </trkpt>
      <trkpt lat="48.85462" lon="2.38517">
        <ele>88.9</ele>
        <time>2013-09-03T19:13:54.391Z</time>
      </trkpt>
      <trkpt lat="48.85463" lon="2.38519">
        <ele>90.6</ele>
        <time>2013-09-03T19:14:40.405Z</time>
      </trkpt>
      <trkpt lat="48.85464" lon="2.38518">
        <ele>91.4</ele>
        <time>2013-09-03T19:14:41.392Z</time>
      </trkpt>
      <trkpt lat="48.85469" lon="2.38514">
        <ele>91.4</ele>
        <time>2013-09-03T19:14:43.391Z</time>
      </trkpt>
      <trkpt lat="48.85472" lon="2.38511">
        <ele>91.3</ele>
        <time>2013-09-03T19:14:44.394Z</time>
      </trkpt>
      <trkpt lat="48.85476" lon="2.38508">
        <ele>91.2</ele>
        <time>2013-09-03T19:14:45.429Z</time>
      </trkpt>
      <trkpt lat="48.8548" lon="2.38504">
        <ele>91.3</ele>
        <time>2013-09-03T19:14:46.384Z</time>
      </trkpt>
      <trkpt lat="48.85484" lon="2.385">
        <ele>91.8</ele>
        <time>2013-09-03T19:14:47.436Z</time>
      </trkpt>
      <trkpt lat="48.85488" lon="2.38496">
        <ele>91.8</ele>
        <time>2013-09-03T19:14:48.448Z</time>
      </trkpt>
      <trkpt lat="48.85492" lon="2.38491">
        <ele>91.1</ele>
        <time>2013-09-03T19:14:49.372Z</time>
      </trkpt>
      <trkpt lat="48.85496" lon="2.38486">
        <ele>89.9</ele>
        <time>2013-09-03T19:14:50.369Z</time>
      </trkpt>
      <trkpt lat="48.85499" lon="2.3848">
        <ele>89.9</ele>
        <time>2013-09-03T19:14:51.370Z</time>
      </trkpt>
      <trkpt lat="48.85502" lon="2.38474">
        <ele>88.3</ele>
        <time>2013-09-03T19:14:52.400Z</time>
      </trkpt>
      <trkpt lat="48.85505" lon="2.38468">
        <ele>89.1</ele>
        <time>2013-09-03T19:14:53.419Z</time>
      </trkpt>
      <trkpt lat="48.85508" lon="2.38463">
        <ele>89</ele>
        <time>2013-09-03T19:14:54.419Z</time>
      </trkpt>
      <trkpt lat="48.85511" lon="2.38457">
        <ele>88</ele>
        <time>2013-09-03T19:14:55.414Z</time>
      </trkpt>
      <trkpt lat="48.85514" lon="2.38452">
        <ele>87.6</ele>
        <time>2013-09-03T19:14:56.412Z</time>
      </trkpt>
      <trkpt lat="48.85518" lon="2.38447">
        <ele>88.4</ele>
        <time>2013-09-03T19:14:57.404Z</time>
      </trkpt>
      <trkpt lat="48.85521" lon="2.38442">
        <ele>88</ele>
        <time>2013-09-03T19:14:58.451Z</time>
      </trkpt>
      <trkpt lat="48.85527" lon="2.38432">
        <ele>87.9</ele>
        <time>2013-09-03T19:15:00.401Z</time>
      </trkpt>
      <trkpt lat="48.8553" lon="2.38428">
        <ele>87.4</ele>
        <time>2013-09-03T19:15:01.404Z</time>
      </trkpt>
      <trkpt lat="48.85536" lon="2.38418">
        <ele>89.3</ele>
        <time>2013-09-03T19:15:03.435Z</time>
      </trkpt>
      <trkpt lat="48.85539" lon="2.38413">
        <ele>89.7</ele>
        <time>2013-09-03T19:15:04.561Z</time>
      </trkpt>
      <trkpt lat="48.85542" lon="2.38405">
        <ele>90.9</ele>
        <time>2013-09-03T19:15:05.407Z</time>
      </trkpt>
      <trkpt lat="48.85544" lon="2.38397">
        <ele>90.5</ele>
        <time>2013-09-03T19:15:06.556Z</time>
      </trkpt>
      <trkpt lat="48.85547" lon="2.3839">
        <ele>90.8</ele>
        <time>2013-09-03T19:15:07.409Z</time>
      </trkpt>
      <trkpt lat="48.85551" lon="2.38383">
        <ele>89.8</ele>
        <time>2013-09-03T19:15:08.515Z</time>
      </trkpt>
      <trkpt lat="48.85553" lon="2.38377">
        <ele>88.6</ele>
        <time>2013-09-03T19:15:09.582Z</time>
      </trkpt>
      <trkpt lat="48.85555" lon="2.38371">
        <ele>87.6</ele>
        <time>2013-09-03T19:15:10.461Z</time>
      </trkpt>
      <trkpt lat="48.8556" lon="2.3836">
        <ele>86.9</ele>
        <time>2013-09-03T19:15:12.407Z</time>
      </trkpt>
      <trkpt lat="48.85564" lon="2.38355">
        <ele>88.3</ele>
        <time>2013-09-03T19:15:13.564Z</time>
      </trkpt>
      <trkpt lat="48.85568" lon="2.38345">
        <ele>86</ele>
        <time>2013-09-03T19:15:15.564Z</time>
      </trkpt>
      <trkpt lat="48.85571" lon="2.38339">
        <ele>86</ele>
        <time>2013-09-03T19:15:16.496Z</time>
      </trkpt>
      <trkpt lat="48.85575" lon="2.38334">
        <ele>87.2</ele>
        <time>2013-09-03T19:15:17.493Z</time>
      </trkpt>
      <trkpt lat="48.8558" lon="2.3833">
        <ele>88.2</ele>
        <time>2013-09-03T19:15:18.634Z</time>
      </trkpt>
      <trkpt lat="48.85583" lon="2.38326">
        <ele>89.1</ele>
        <time>2013-09-03T19:15:19.417Z</time>
      </trkpt>
      <trkpt lat="48.85588" lon="2.38321">
        <ele>89.3</ele>
        <time>2013-09-03T19:15:20.633Z</time>
      </trkpt>
      <trkpt lat="48.85591" lon="2.38317">
        <ele>89.5</ele>
        <time>2013-09-03T19:15:21.400Z</time>
      </trkpt>
      <trkpt lat="48.85595" lon="2.38311">
        <ele>89.3</ele>
        <time>2013-09-03T19:15:22.596Z</time>
      </trkpt>
      <trkpt lat="48.85598" lon="2.38305">
        <ele>89.5</ele>
        <time>2013-09-03T19:15:23.407Z</time>
      </trkpt>
      <trkpt lat="48.85601" lon="2.38297">
        <ele>86.1</ele>
        <time>2013-09-03T19:15:24.541Z</time>
      </trkpt>
      <trkpt lat="48.85604" lon="2.38291">
        <ele>86.6</ele>
        <time>2013-09-03T19:15:25.510Z</time>
      </trkpt>
      <trkpt lat="48.85607" lon="2.38285">
        <ele>87.1</ele>
        <time>2013-09-03T19:15:26.453Z</time>
      </trkpt>
      <trkpt lat="48.8561" lon="2.3828">
        <ele>88.5</ele>
        <time>2013-09-03T19:15:27.395Z</time>
      </trkpt>
      <trkpt lat="48.85613" lon="2.38274">
        <ele>88.8</ele>
        <time>2013-09-03T19:15:28.417Z</time>
      </trkpt>
      <trkpt lat="48.85616" lon="2.38268">
        <ele>88.6</ele>
        <time>2013-09-03T19:15:29.606Z</time>
      </trkpt>
      <trkpt lat="48.85618" lon="2.38262">
        <ele>89</ele>
        <time>2013-09-03T19:15:30.426Z</time>
      </trkpt>
      <trkpt lat="48.85622" lon="2.38256">
        <ele>87.9</ele>
        <time>2013-09-03T19:15:31.534Z</time>
      </trkpt>
      <trkpt lat="48.85626" lon="2.38251">
        <ele>87.8</ele>
        <time>2013-09-03T19:15:32.502Z</time>
      </trkpt>
      <trkpt lat="48.85631" lon="2.38244">
        <ele>87.9</ele>
        <time>2013-09-03T19:15:33.474Z</time>
      </trkpt>
      <trkpt lat="48.85635" lon="2.38237">
        <ele>88.2</ele>
        <time>2013-09-03T19:15:34.539Z</time>
      </trkpt>
      <trkpt lat="48.85638" lon="2.38231">
        <ele>88.3</ele>
        <time>2013-09-03T19:15:35.405Z</time>
      </trkpt>
      <trkpt lat="48.85641" lon="2.38222">
        <ele>88.3</ele>
        <time>2013-09-03T19:15:36.554Z</time>
      </trkpt>
      <trkpt lat="48.85644" lon="2.38216">
        <ele>88.8</ele>
        <time>2013-09-03T19:15:37.413Z</time>
      </trkpt>
      <trkpt lat="48.85648" lon="2.38209">
        <ele>89.1</ele>
        <time>2013-09-03T19:15:38.581Z</time>
      </trkpt>
      <trkpt lat="48.85651" lon="2.38203">
        <ele>89.5</ele>
        <time>2013-09-03T19:15:39.419Z</time>
      </trkpt>
      <trkpt lat="48.85655" lon="2.38196">
        <ele>89.3</ele>
        <time>2013-09-03T19:15:40.545Z</time>
      </trkpt>
      <trkpt lat="48.85658" lon="2.3819">
        <ele>89</ele>
        <time>2013-09-03T19:15:41.511Z</time>
      </trkpt>
      <trkpt lat="48.85662" lon="2.38183">
        <ele>89.2</ele>
        <time>2013-09-03T19:15:42.471Z</time>
      </trkpt>
      <trkpt lat="48.85666" lon="2.38175">
        <ele>88.6</ele>
        <time>2013-09-03T19:15:43.551Z</time>
      </trkpt>
      <trkpt lat="48.85671" lon="2.38169">
        <ele>88.2</ele>
        <time>2013-09-03T19:15:44.399Z</time>
      </trkpt>
      <trkpt lat="48.85676" lon="2.38162">
        <ele>87.8</ele>
        <time>2013-09-03T19:15:45.558Z</time>
      </trkpt>
      <trkpt lat="48.85679" lon="2.38156">
        <ele>88.1</ele>
        <time>2013-09-03T19:15:46.413Z</time>
      </trkpt>
      <trkpt lat="48.85683" lon="2.38148">
        <ele>87.8</ele>
        <time>2013-09-03T19:15:47.553Z</time>
      </trkpt>
      <trkpt lat="48.85687" lon="2.38142">
        <ele>87.5</ele>
        <time>2013-09-03T19:15:48.505Z</time>
      </trkpt>
      <trkpt lat="48.85691" lon="2.38135">
        <ele>87.9</ele>
        <time>2013-09-03T19:15:49.466Z</time>
      </trkpt>
      <trkpt lat="48.85695" lon="2.38128">
        <ele>87</ele>
        <time>2013-09-03T19:15:50.543Z</time>
      </trkpt>
      <trkpt lat="48.857" lon="2.38122">
        <ele>87.7</ele>
        <time>2013-09-03T19:15:51.461Z</time>
      </trkpt>
      <trkpt lat="48.85705" lon="2.38115">
        <ele>87.1</ele>
        <time>2013-09-03T19:15:52.574Z</time>
      </trkpt>
      <trkpt lat="48.85709" lon="2.38109">
        <ele>87.3</ele>
        <time>2013-09-03T19:15:53.424Z</time>
      </trkpt>
      <trkpt lat="48.85714" lon="2.38101">
        <ele>87.5</ele>
        <time>2013-09-03T19:15:54.585Z</time>
      </trkpt>
      <trkpt lat="48.85717" lon="2.38096">
        <ele>87.3</ele>
        <time>2013-09-03T19:15:55.417Z</time>
      </trkpt>
      <trkpt lat="48.85721" lon="2.38089">
        <ele>88.4</ele>
        <time>2013-09-03T19:15:56.541Z</time>
      </trkpt>
      <trkpt lat="48.85724" lon="2.38082">
        <ele>88.1</ele>
        <time>2013-09-03T19:15:57.550Z</time>
      </trkpt>
      <trkpt lat="48.85727" lon="2.38076">
        <ele>87</ele>
        <time>2013-09-03T19:15:58.455Z</time>
      </trkpt>
      <trkpt lat="48.85731" lon="2.3807">
        <ele>86.6</ele>
        <time>2013-09-03T19:15:59.402Z</time>
      </trkpt>
      <trkpt lat="48.85735" lon="2.38064">
        <ele>86.7</ele>
        <time>2013-09-03T19:16:00.610Z</time>
      </trkpt>
      <trkpt lat="48.8574" lon="2.38053">
        <ele>89.2</ele>
        <time>2013-09-03T19:16:02.576Z</time>
      </trkpt>
      <trkpt lat="48.85743" lon="2.38049">
        <ele>92</ele>
        <time>2013-09-03T19:16:03.421Z</time>
      </trkpt>
      <trkpt lat="48.85751" lon="2.38042">
        <ele>92.5</ele>
        <time>2013-09-03T19:16:06.467Z</time>
      </trkpt>
      <trkpt lat="48.85752" lon="2.38041">
        <ele>93.1</ele>
        <time>2013-09-03T19:16:07.426Z</time>
      </trkpt>
      <trkpt lat="48.85754" lon="2.38041">
        <ele>89.3</ele>
        <time>2013-09-03T19:16:24.530Z</time>
      </trkpt>
      <trkpt lat="48.85754" lon="2.38041">
        <ele>88.9</ele>
        <time>2013-09-03T19:16:25.414Z</time>
      </trkpt>
      <trkpt lat="48.85755" lon="2.38042">
        <ele>89.1</ele>
        <time>2013-09-03T19:16:39.474Z</time>
      </trkpt>
      <trkpt lat="48.85757" lon="2.38041">
        <ele>88</ele>
        <time>2013-09-03T19:16:40.560Z</time>
      </trkpt>
      <trkpt lat="48.85765" lon="2.38035">
        <ele>87.8</ele>
        <time>2013-09-03T19:16:43.397Z</time>
      </trkpt>
      <trkpt lat="48.85769" lon="2.38034">
        <ele>87.4</ele>
        <time>2013-09-03T19:16:44.422Z</time>
      </trkpt>
      <trkpt lat="48.85777" lon="2.38031">
        <ele>86.7</ele>
        <time>2013-09-03T19:16:46.402Z</time>
      </trkpt>
      <trkpt lat="48.8578" lon="2.38029">
        <ele>86.5</ele>
        <time>2013-09-03T19:16:47.393Z</time>
      </trkpt>
      <trkpt lat="48.85785" lon="2.38022">
        <ele>86.5</ele>
        <time>2013-09-03T19:16:54.414Z</time>
      </trkpt>
      <trkpt lat="48.85784" lon="2.38023">
        <ele>86</ele>
        <time>2013-09-03T19:16:55.412Z</time>
      </trkpt>
      <trkpt lat="48.85785" lon="2.38023">
        <ele>84.9</ele>
        <time>2013-09-03T19:17:08.411Z</time>
      </trkpt>
      <trkpt lat="48.85785" lon="2.38022">
        <ele>84.9</ele>
        <time>2013-09-03T19:17:09.409Z</time>
      </trkpt>
      <trkpt lat="48.85787" lon="2.38011">
        <ele>84.4</ele>
        <time>2013-09-03T19:17:12.407Z</time>
      </trkpt>
      <trkpt lat="48.85789" lon="2.38004">
        <ele>85.8</ele>
        <time>2013-09-03T19:17:13.408Z</time>
      </trkpt>
      <trkpt lat="48.85791" lon="2.37995">
        <ele>86.3</ele>
        <time>2013-09-03T19:17:14.408Z</time>
      </trkpt>
      <trkpt lat="48.85795" lon="2.37983">
        <ele>86.5</ele>
        <time>2013-09-03T19:17:15.414Z</time>
      </trkpt>
      <trkpt lat="48.85799" lon="2.37972">
        <ele>87.2</ele>
        <time>2013-09-03T19:17:16.416Z</time>
      </trkpt>
      <trkpt lat="48.85802" lon="2.37962">
        <ele>87.6</ele>
        <time>2013-09-03T19:17:17.402Z</time>
      </trkpt>
      <trkpt lat="48.85807" lon="2.37956">
        <ele>86.5</ele>
        <time>2013-09-03T19:17:18.417Z</time>
      </trkpt>
      <trkpt lat="48.85811" lon="2.37947">
        <ele>86.9</ele>
        <time>2013-09-03T19:17:19.410Z</time>
      </trkpt>
      <trkpt lat="48.85816" lon="2.37939">
        <ele>85.8</ele>
        <time>2013-09-03T19:17:20.407Z</time>
      </trkpt>
      <trkpt lat="48.85821" lon="2.3793">
        <ele>85.1</ele>
        <time>2013-09-03T19:17:21.422Z</time>
      </trkpt>
      <trkpt lat="48.85825" lon="2.37923">
        <ele>85.1</ele>
        <time>2013-09-03T19:17:22.390Z</time>
      </trkpt>
      <trkpt lat="48.85829" lon="2.37915">
        <ele>84.7</ele>
        <time>2013-09-03T19:17:23.410Z</time>
      </trkpt>
      <trkpt lat="48.85833" lon="2.37907">
        <ele>85.1</ele>
        <time>2013-09-03T19:17:24.435Z</time>
      </trkpt>
      <trkpt lat="48.85837" lon="2.379">
        <ele>85.2</ele>
        <time>2013-09-03T19:17:25.385Z</time>
      </trkpt>
      <trkpt lat="48.85841" lon="2.37893">
        <ele>84.5</ele>
        <time>2013-09-03T19:17:26.412Z</time>
      </trkpt>
      <trkpt lat="48.85845" lon="2.37887">
        <ele>84.1</ele>
        <time>2013-09-03T19:17:27.414Z</time>
      </trkpt>
      <trkpt lat="48.85849" lon="2.37881">
        <ele>85</ele>
        <time>2013-09-03T19:17:28.435Z</time>
      </trkpt>
      <trkpt lat="48.85851" lon="2.37876">
        <ele>85.3</ele>
        <time>2013-09-03T19:17:29.416Z</time>
      </trkpt>
      <trkpt lat="48.85855" lon="2.37872">
        <ele>85.8</ele>
        <time>2013-09-03T19:17:30.418Z</time>
      </trkpt>
      <trkpt lat="48.85858" lon="2.37867">
        <ele>85.1</ele>
        <time>2013-09-03T19:17:31.402Z</time>
      </trkpt>
      <trkpt lat="48.85863" lon="2.37856">
        <ele>84.8</ele>
        <time>2013-09-03T19:17:33.430Z</time>
      </trkpt>
      <trkpt lat="48.85865" lon="2.37851">
        <ele>84.1</ele>
        <time>2013-09-03T19:17:34.392Z</time>
      </trkpt>
      <trkpt lat="48.85868" lon="2.37845">
        <ele>83.2</ele>
        <time>2013-09-03T19:17:35.417Z</time>
      </trkpt>
      <trkpt lat="48.85872" lon="2.3784">
        <ele>82.7</ele>
        <time>2013-09-03T19:17:36.397Z</time>
      </trkpt>
      <trkpt lat="48.85875" lon="2.37834">
        <ele>82.5</ele>
        <time>2013-09-03T19:17:37.429Z</time>
      </trkpt>
      <trkpt lat="48.85879" lon="2.37828">
        <ele>82.9</ele>
        <time>2013-09-03T19:17:38.423Z</time>
      </trkpt>
      <trkpt lat="48.85882" lon="2.37822">
        <ele>82.2</ele>
        <time>2013-09-03T19:17:39.414Z</time>
      </trkpt>
      <trkpt lat="48.85887" lon="2.37816">
        <ele>82.3</ele>
        <time>2013-09-03T19:17:40.407Z</time>
      </trkpt>
      <trkpt lat="48.85891" lon="2.37808">
        <ele>81.8</ele>
        <time>2013-09-03T19:17:41.411Z</time>
      </trkpt>
      <trkpt lat="48.85896" lon="2.37802">
        <ele>81</ele>
        <time>2013-09-03T19:17:42.457Z</time>
      </trkpt>
      <trkpt lat="48.85901" lon="2.37795">
        <ele>81</ele>
        <time>2013-09-03T19:17:43.532Z</time>
      </trkpt>
      <trkpt lat="48.85905" lon="2.3779">
        <ele>80.6</ele>
        <time>2013-09-03T19:17:44.424Z</time>
      </trkpt>
      <trkpt lat="48.8591" lon="2.37784">
        <ele>80.9</ele>
        <time>2013-09-03T19:17:45.546Z</time>
      </trkpt>
      <trkpt lat="48.85913" lon="2.37778">
        <ele>81.4</ele>
        <time>2013-09-03T19:17:46.403Z</time>
      </trkpt>
      <trkpt lat="48.85917" lon="2.37771">
        <ele>80.8</ele>
        <time>2013-09-03T19:17:47.563Z</time>
      </trkpt>
      <trkpt lat="48.85921" lon="2.37765">
        <ele>81.3</ele>
        <time>2013-09-03T19:17:48.434Z</time>
      </trkpt>
      <trkpt lat="48.85925" lon="2.37757">
        <ele>81.2</ele>
        <time>2013-09-03T19:17:49.513Z</time>
      </trkpt>
      <trkpt lat="48.8593" lon="2.37749">
        <ele>79.6</ele>
        <time>2013-09-03T19:17:50.572Z</time>
      </trkpt>
      <trkpt lat="48.85934" lon="2.37742">
        <ele>79.7</ele>
        <time>2013-09-03T19:17:51.435Z</time>
      </trkpt>
      <trkpt lat="48.85939" lon="2.37734">
        <ele>79.5</ele>
        <time>2013-09-03T19:17:52.529Z</time>
      </trkpt>
      <trkpt lat="48.85945" lon="2.37727">
        <ele>79.3</ele>
        <time>2013-09-03T19:17:53.425Z</time>
      </trkpt>
      <trkpt lat="48.85949" lon="2.37719">
        <ele>78.7</ele>
        <time>2013-09-03T19:17:54.541Z</time>
      </trkpt>
      <trkpt lat="48.85952" lon="2.37712">
        <ele>78.6</ele>
        <time>2013-09-03T19:17:55.421Z</time>
      </trkpt>
      <trkpt lat="48.85956" lon="2.37704">
        <ele>79</ele>
        <time>2013-09-03T19:17:56.545Z</time>
      </trkpt>
      <trkpt lat="48.8596" lon="2.37696">
        <ele>79</ele>
        <time>2013-09-03T19:17:57.520Z</time>
      </trkpt>
      <trkpt lat="48.85964" lon="2.37689">
        <ele>78.2</ele>
        <time>2013-09-03T19:17:58.462Z</time>
      </trkpt>
      <trkpt lat="48.85969" lon="2.37681">
        <ele>78.1</ele>
        <time>2013-09-03T19:17:59.572Z</time>
      </trkpt>
      <trkpt lat="48.85972" lon="2.37675">
        <ele>78.2</ele>
        <time>2013-09-03T19:18:00.428Z</time>
      </trkpt>
      <trkpt lat="48.85976" lon="2.37667">
        <ele>77.7</ele>
        <time>2013-09-03T19:18:01.491Z</time>
      </trkpt>
      <trkpt lat="48.85979" lon="2.3766">
        <ele>77.1</ele>
        <time>2013-09-03T19:18:02.409Z</time>
      </trkpt>
      <trkpt lat="48.85983" lon="2.37653">
        <ele>76.1</ele>
        <time>2013-09-03T19:18:03.550Z</time>
      </trkpt>
      <trkpt lat="48.85987" lon="2.37647">
        <ele>76.1</ele>
        <time>2013-09-03T19:18:04.503Z</time>
      </trkpt>
      <trkpt lat="48.85991" lon="2.37641">
        <ele>76.6</ele>
        <time>2013-09-03T19:18:05.490Z</time>
      </trkpt>
      <trkpt lat="48.85995" lon="2.37634">
        <ele>76</ele>
        <time>2013-09-03T19:18:06.585Z</time>
      </trkpt>
      <trkpt lat="48.85997" lon="2.37627">
        <ele>75.9</ele>
        <time>2013-09-03T19:18:07.468Z</time>
      </trkpt>
      <trkpt lat="48.86" lon="2.37619">
        <ele>76.9</ele>
        <time>2013-09-03T19:18:08.584Z</time>
      </trkpt>
      <trkpt lat="48.86001" lon="2.37611">
        <ele>76.2</ele>
        <time>2013-09-03T19:18:09.412Z</time>
      </trkpt>
      <trkpt lat="48.86004" lon="2.37605">
        <ele>76.1</ele>
        <time>2013-09-03T19:18:10.482Z</time>
      </trkpt>
      <trkpt lat="48.86005" lon="2.37599">
        <ele>75.5</ele>
        <time>2013-09-03T19:18:11.425Z</time>
      </trkpt>
      <trkpt lat="48.86008" lon="2.37592">
        <ele>75.9</ele>
        <time>2013-09-03T19:18:12.550Z</time>
      </trkpt>
      <trkpt lat="48.86011" lon="2.37584">
        <ele>76.4</ele>
        <time>2013-09-03T19:18:13.559Z</time>
      </trkpt>
      <trkpt lat="48.86013" lon="2.37578">
        <ele>76.9</ele>
        <time>2013-09-03T19:18:14.487Z</time>
      </trkpt>
      <trkpt lat="48.86017" lon="2.3757">
        <ele>76.3</ele>
        <time>2013-09-03T19:18:15.519Z</time>
      </trkpt>
      <trkpt lat="48.8602" lon="2.37565">
        <ele>77.4</ele>
        <time>2013-09-03T19:18:16.422Z</time>
      </trkpt>
      <trkpt lat="48.86024" lon="2.3756">
        <ele>76.5</ele>
        <time>2013-09-03T19:18:17.579Z</time>
      </trkpt>
      <trkpt lat="48.86028" lon="2.37555">
        <ele>76</ele>
        <time>2013-09-03T19:18:18.441Z</time>
      </trkpt>
      <trkpt lat="48.86032" lon="2.3755">
        <ele>76.4</ele>
        <time>2013-09-03T19:18:19.559Z</time>
      </trkpt>
      <trkpt lat="48.86036" lon="2.37547">
        <ele>76</ele>
        <time>2013-09-03T19:18:20.476Z</time>
      </trkpt>
      <trkpt lat="48.86043" lon="2.37539">
        <ele>79.3</ele>
        <time>2013-09-03T19:18:23.394Z</time>
      </trkpt>
      <trkpt lat="48.86044" lon="2.37537">
        <ele>77.6</ele>
        <time>2013-09-03T19:18:24.401Z</time>
      </trkpt>
      <trkpt lat="48.8605" lon="2.37528">
        <ele>82.4</ele>
        <time>2013-09-03T19:18:31.526Z</time>
      </trkpt>
      <trkpt lat="48.8605" lon="2.37526">
        <ele>83.1</ele>
        <time>2013-09-03T19:18:32.402Z</time>
      </trkpt>
      <trkpt lat="48.86048" lon="2.37513">
        <ele>83.8</ele>
        <time>2013-09-03T19:18:35.559Z</time>
      </trkpt>
      <trkpt lat="48.86046" lon="2.37508">
        <ele>84</ele>
        <time>2013-09-03T19:18:36.476Z</time>
      </trkpt>
      <trkpt lat="48.86042" lon="2.37496">
        <ele>84</ele>
        <time>2013-09-03T19:18:38.483Z</time>
      </trkpt>
      <trkpt lat="48.8604" lon="2.37491">
        <ele>84.2</ele>
        <time>2013-09-03T19:18:39.453Z</time>
      </trkpt>
      <trkpt lat="48.86036" lon="2.37482">
        <ele>83.6</ele>
        <time>2013-09-03T19:18:41.445Z</time>
      </trkpt>
      <trkpt lat="48.86033" lon="2.37478">
        <ele>83.7</ele>
        <time>2013-09-03T19:18:42.494Z</time>
      </trkpt>
      <trkpt lat="48.86027" lon="2.37469">
        <ele>84.3</ele>
        <time>2013-09-03T19:18:44.435Z</time>
      </trkpt>
      <trkpt lat="48.86025" lon="2.37464">
        <ele>84.4</ele>
        <time>2013-09-03T19:18:45.409Z</time>
      </trkpt>
      <trkpt lat="48.8602" lon="2.37453">
        <ele>82.2</ele>
        <time>2013-09-03T19:18:47.471Z</time>
      </trkpt>
      <trkpt lat="48.86018" lon="2.37448">
        <ele>81.7</ele>
        <time>2013-09-03T19:18:48.411Z</time>
      </trkpt>
      <trkpt lat="48.86015" lon="2.37438">
        <ele>81.7</ele>
        <time>2013-09-03T19:18:50.415Z</time>
      </trkpt>
      <trkpt lat="48.86013" lon="2.37434">
        <ele>81.8</ele>
        <time>2013-09-03T19:18:51.488Z</time>
      </trkpt>
      <trkpt lat="48.86008" lon="2.37424">
        <ele>88.5</ele>
        <time>2013-09-03T19:18:56.415Z</time>
      </trkpt>
      <trkpt lat="48.86006" lon="2.37424">
        <ele>89.2</ele>
        <time>2013-09-03T19:18:57.406Z</time>
      </trkpt>
      <trkpt lat="48.86011" lon="2.37413">
        <ele>96.8</ele>
        <time>2013-09-03T19:19:11.412Z</time>
      </trkpt>
      <trkpt lat="48.86012" lon="2.3741">
        <ele>96.7</ele>
        <time>2013-09-03T19:19:12.411Z</time>
      </trkpt>
      <trkpt lat="48.86014" lon="2.37405">
        <ele>95.9</ele>
        <time>2013-09-03T19:19:20.417Z</time>
      </trkpt>
      <trkpt lat="48.86015" lon="2.37405">
        <ele>95.9</ele>
        <time>2013-09-03T19:19:21.420Z</time>
      </trkpt>
      <trkpt lat="48.86015" lon="2.37404">
        <ele>96.5</ele>
        <time>2013-09-03T19:19:26.557Z</time>
      </trkpt>
      <trkpt lat="48.86015" lon="2.37403">
        <ele>96.4</ele>
        <time>2013-09-03T19:19:27.445Z</time>
      </trkpt>
      <trkpt lat="48.86011" lon="2.37393">
        <ele>98.8</ele>
        <time>2013-09-03T19:19:31.481Z</time>
      </trkpt>
      <trkpt lat="48.86009" lon="2.3739">
        <ele>98.2</ele>
        <time>2013-09-03T19:19:32.434Z</time>
      </trkpt>
      <trkpt lat="48.86004" lon="2.37383">
        <ele>97.7</ele>
        <time>2013-09-03T19:19:34.427Z</time>
      </trkpt>
      <trkpt lat="48.86002" lon="2.3738">
        <ele>98.6</ele>
        <time>2013-09-03T19:19:35.476Z</time>
      </trkpt>
      <trkpt lat="48.86009" lon="2.37382">
        <ele>102.7</ele>
        <time>2013-09-03T19:19:44.520Z</time>
      </trkpt>
      <trkpt lat="48.86011" lon="2.37385">
        <ele>100.1</ele>
        <time>2013-09-03T19:19:45.558Z</time>
      </trkpt>
      <trkpt lat="48.86014" lon="2.37397">
        <ele>99.1</ele>
        <time>2013-09-03T19:19:48.419Z</time>
      </trkpt>
      <trkpt lat="48.86015" lon="2.37401">
        <ele>99.5</ele>
        <time>2013-09-03T19:19:49.435Z</time>
      </trkpt>
      <trkpt lat="48.86018" lon="2.37409">
        <ele>102.6</ele>
        <time>2013-09-03T19:19:51.431Z</time>
      </trkpt>
      <trkpt lat="48.8602" lon="2.37413">
        <ele>101.9</ele>
        <time>2013-09-03T19:19:52.448Z</time>
      </trkpt>
      <trkpt lat="48.86024" lon="2.37423">
        <ele>106.3</ele>
        <time>2013-09-03T19:19:55.434Z</time>
      </trkpt>
      <trkpt lat="48.86026" lon="2.37427">
        <ele>108.1</ele>
        <time>2013-09-03T19:19:56.396Z</time>
      </trkpt>
      <trkpt lat="48.86029" lon="2.37438">
        <ele>108.1</ele>
        <time>2013-09-03T19:19:58.445Z</time>
      </trkpt>
      <trkpt lat="48.86031" lon="2.37444">
        <ele>107.8</ele>
        <time>2013-09-03T19:19:59.440Z</time>
      </trkpt>
      <trkpt lat="48.86032" lon="2.37456">
        <ele>108.2</ele>
        <time>2013-09-03T19:20:01.413Z</time>
      </trkpt>
      <trkpt lat="48.86033" lon="2.37462">
        <ele>108.9</ele>
        <time>2013-09-03T19:20:02.434Z</time>
      </trkpt>
      <trkpt lat="48.86035" lon="2.37475">
        <ele>109.5</ele>
        <time>2013-09-03T19:20:04.417Z</time>
      </trkpt>
      <trkpt lat="48.86036" lon="2.37481">
        <ele>110.1</ele>
        <time>2013-09-03T19:20:05.444Z</time>
      </trkpt>
      <trkpt lat="48.86038" lon="2.37492">
        <ele>109.7</ele>
        <time>2013-09-03T19:20:07.565Z</time>
      </trkpt>
      <trkpt lat="48.86039" lon="2.37497">
        <ele>110.4</ele>
        <time>2013-09-03T19:20:08.486Z</time>
      </trkpt>
      <trkpt lat="48.8604" lon="2.37506">
        <ele>110.1</ele>
        <time>2013-09-03T19:20:10.409Z</time>
      </trkpt>
      <trkpt lat="48.86041" lon="2.3751">
        <ele>110.1</ele>
        <time>2013-09-03T19:20:11.441Z</time>
      </trkpt>
      <trkpt lat="48.86043" lon="2.37523">
        <ele>112.1</ele>
        <time>2013-09-03T19:20:18.423Z</time>
      </trkpt>
      <trkpt lat="48.86044" lon="2.37524">
        <ele>111.5</ele>
        <time>2013-09-03T19:20:19.411Z</time>
      </trkpt>
      <trkpt lat="48.86052" lon="2.37522">
        <ele>113.1</ele>
        <time>2013-09-03T19:20:29.423Z</time>
      </trkpt>
      <trkpt lat="48.86054" lon="2.37521">
        <ele>113.6</ele>
        <time>2013-09-03T19:20:30.415Z</time>
      </trkpt>
      <trkpt lat="48.86059" lon="2.37516">
        <ele>112</ele>
        <time>2013-09-03T19:20:32.417Z</time>
      </trkpt>
      <trkpt lat="48.86062" lon="2.37513">
        <ele>113.1</ele>
        <time>2013-09-03T19:20:33.423Z</time>
      </trkpt>
      <trkpt lat="48.86069" lon="2.37505">
        <ele>112.9</ele>
        <time>2013-09-03T19:20:35.440Z</time>
      </trkpt>
      <trkpt lat="48.86072" lon="2.375">
        <ele>112.3</ele>
        <time>2013-09-03T19:20:36.432Z</time>
      </trkpt>
      <trkpt lat="48.86078" lon="2.37491">
        <ele>111</ele>
        <time>2013-09-03T19:20:38.424Z</time>
      </trkpt>
      <trkpt lat="48.86081" lon="2.37488">
        <ele>110.3</ele>
        <time>2013-09-03T19:20:39.428Z</time>
      </trkpt>
      <trkpt lat="48.86086" lon="2.37482">
        <ele>107.2</ele>
        <time>2013-09-03T19:20:41.427Z</time>
      </trkpt>
      <trkpt lat="48.86089" lon="2.37479">
        <ele>106.6</ele>
        <time>2013-09-03T19:20:42.414Z</time>
      </trkpt>
      <trkpt lat="48.86096" lon="2.37476">
        <ele>105.9</ele>
        <time>2013-09-03T19:20:45.417Z</time>
      </trkpt>
      <trkpt lat="48.86097" lon="2.37475">
        <ele>106.3</ele>
        <time>2013-09-03T19:20:46.419Z</time>
      </trkpt>
      <trkpt lat="48.86104" lon="2.37467">
        <ele>105.7</ele>
        <time>2013-09-03T19:20:50.415Z</time>
      </trkpt>
      <trkpt lat="48.86106" lon="2.37463">
        <ele>106</ele>
        <time>2013-09-03T19:20:51.429Z</time>
      </trkpt>
      <trkpt lat="48.86111" lon="2.37456">
        <ele>106</ele>
        <time>2013-09-03T19:20:53.399Z</time>
      </trkpt>
      <trkpt lat="48.86113" lon="2.37452">
        <ele>105.4</ele>
        <time>2013-09-03T19:20:54.424Z</time>
      </trkpt>
      <trkpt lat="48.86117" lon="2.37444">
        <ele>105.6</ele>
        <time>2013-09-03T19:20:56.423Z</time>
      </trkpt>
      <trkpt lat="48.86119" lon="2.37441">
        <ele>106.1</ele>
        <time>2013-09-03T19:20:57.427Z</time>
      </trkpt>
      <trkpt lat="48.86126" lon="2.37432">
        <ele>106.4</ele>
        <time>2013-09-03T19:21:00.431Z</time>
      </trkpt>
      <trkpt lat="48.86128" lon="2.37431">
        <ele>107</ele>
        <time>2013-09-03T19:21:01.440Z</time>
      </trkpt>
      <trkpt lat="48.86136" lon="2.37429">
        <ele>106.7</ele>
        <time>2013-09-03T19:21:05.435Z</time>
      </trkpt>
      <trkpt lat="48.86138" lon="2.37427">
        <ele>106.5</ele>
        <time>2013-09-03T19:21:06.428Z</time>
      </trkpt>
      <trkpt lat="48.86143" lon="2.37421">
        <ele>105.4</ele>
        <time>2013-09-03T19:21:08.445Z</time>
      </trkpt>
      <trkpt lat="48.86146" lon="2.37417">
        <ele>105.8</ele>
        <time>2013-09-03T19:21:09.423Z</time>
      </trkpt>
      <trkpt lat="48.86152" lon="2.37408">
        <ele>104.6</ele>
        <time>2013-09-03T19:21:11.436Z</time>
      </trkpt>
      <trkpt lat="48.86155" lon="2.37403">
        <ele>104</ele>
        <time>2013-09-03T19:21:12.424Z</time>
      </trkpt>
      <trkpt lat="48.86157" lon="2.37397">
        <ele>103.3</ele>
        <time>2013-09-03T19:21:13.435Z</time>
      </trkpt>
      <trkpt lat="48.8616" lon="2.3739">
        <ele>102.8</ele>
        <time>2013-09-03T19:21:14.462Z</time>
      </trkpt>
      <trkpt lat="48.86162" lon="2.37384">
        <ele>102.6</ele>
        <time>2013-09-03T19:21:15.410Z</time>
      </trkpt>
      <trkpt lat="48.86165" lon="2.37378">
        <ele>103.2</ele>
        <time>2013-09-03T19:21:16.422Z</time>
      </trkpt>
      <trkpt lat="48.86168" lon="2.37373">
        <ele>102.4</ele>
        <time>2013-09-03T19:21:17.427Z</time>
      </trkpt>
      <trkpt lat="48.86171" lon="2.37368">
        <ele>102.3</ele>
        <time>2013-09-03T19:21:18.430Z</time>
      </trkpt>
      <trkpt lat="48.86175" lon="2.37364">
        <ele>102</ele>
        <time>2013-09-03T19:21:19.430Z</time>
      </trkpt>
      <trkpt lat="48.86179" lon="2.3736">
        <ele>102</ele>
        <time>2013-09-03T19:21:20.428Z</time>
      </trkpt>
      <trkpt lat="48.86187" lon="2.37354">
        <ele>101.8</ele>
        <time>2013-09-03T19:21:22.435Z</time>
      </trkpt>
      <trkpt lat="48.8619" lon="2.37351">
        <ele>101.7</ele>
        <time>2013-09-03T19:21:23.439Z</time>
      </trkpt>
      <trkpt lat="48.86197" lon="2.37344">
        <ele>101.5</ele>
        <time>2013-09-03T19:21:25.432Z</time>
      </trkpt>
      <trkpt lat="48.862" lon="2.37341">
        <ele>100.8</ele>
        <time>2013-09-03T19:21:26.443Z</time>
      </trkpt>
      <trkpt lat="48.86206" lon="2.37332">
        <ele>100.2</ele>
        <time>2013-09-03T19:21:29.436Z</time>
      </trkpt>
      <trkpt lat="48.86207" lon="2.37327">
        <ele>100.7</ele>
        <time>2013-09-03T19:21:30.436Z</time>
      </trkpt>
      <trkpt lat="48.8621" lon="2.37317">
        <ele>100.9</ele>
        <time>2013-09-03T19:21:32.432Z</time>
      </trkpt>
      <trkpt lat="48.86211" lon="2.37311">
        <ele>101.5</ele>
        <time>2013-09-03T19:21:33.435Z</time>
      </trkpt>
      <trkpt lat="48.86215" lon="2.373">
        <ele>95.5</ele>
        <time>2013-09-03T19:21:35.453Z</time>
      </trkpt>
      <trkpt lat="48.86216" lon="2.37293">
        <ele>90.5</ele>
        <time>2013-09-03T19:21:36.436Z</time>
      </trkpt>
      <trkpt lat="48.86219" lon="2.37281">
        <ele>87.8</ele>
        <time>2013-09-03T19:21:38.404Z</time>
      </trkpt>
      <trkpt lat="48.86221" lon="2.37275">
        <ele>87.6</ele>
        <time>2013-09-03T19:21:39.408Z</time>
      </trkpt>
      <trkpt lat="48.86225" lon="2.37263">
        <ele>83.7</ele>
        <time>2013-09-03T19:21:41.433Z</time>
      </trkpt>
      <trkpt lat="48.86228" lon="2.37257">
        <ele>82.2</ele>
        <time>2013-09-03T19:21:42.432Z</time>
      </trkpt>
      <trkpt lat="48.86233" lon="2.37248">
        <ele>83.6</ele>
        <time>2013-09-03T19:21:44.425Z</time>
      </trkpt>
      <trkpt lat="48.86236" lon="2.37245">
        <ele>83</ele>
        <time>2013-09-03T19:21:45.451Z</time>
      </trkpt>
      <trkpt lat="48.86243" lon="2.3724">
        <ele>85</ele>
        <time>2013-09-03T19:21:47.436Z</time>
      </trkpt>
      <trkpt lat="48.86247" lon="2.37238">
        <ele>84.4</ele>
        <time>2013-09-03T19:21:48.469Z</time>
      </trkpt>
      <trkpt lat="48.86254" lon="2.37234">
        <ele>83.1</ele>
        <time>2013-09-03T19:21:50.416Z</time>
      </trkpt>
      <trkpt lat="48.86257" lon="2.37231">
        <ele>82.4</ele>
        <time>2013-09-03T19:21:51.462Z</time>
      </trkpt>
      <trkpt lat="48.86263" lon="2.37223">
        <ele>80.2</ele>
        <time>2013-09-03T19:21:53.451Z</time>
      </trkpt>
      <trkpt lat="48.86267" lon="2.37219">
        <ele>80.1</ele>
        <time>2013-09-03T19:21:54.435Z</time>
      </trkpt>
      <trkpt lat="48.86271" lon="2.37214">
        <ele>83.2</ele>
        <time>2013-09-03T19:21:55.426Z</time>
      </trkpt>
      <trkpt lat="48.86277" lon="2.37208">
        <ele>83.2</ele>
        <time>2013-09-03T19:21:56.437Z</time>
      </trkpt>
      <trkpt lat="48.86282" lon="2.37203">
        <ele>81.9</ele>
        <time>2013-09-03T19:21:57.427Z</time>
      </trkpt>
      <trkpt lat="48.86288" lon="2.37197">
        <ele>82.9</ele>
        <time>2013-09-03T19:21:58.446Z</time>
      </trkpt>
      <trkpt lat="48.86294" lon="2.37193">
        <ele>82.3</ele>
        <time>2013-09-03T19:21:59.433Z</time>
      </trkpt>
      <trkpt lat="48.863" lon="2.3719">
        <ele>83.6</ele>
        <time>2013-09-03T19:22:00.461Z</time>
      </trkpt>
      <trkpt lat="48.86306" lon="2.37186">
        <ele>84.2</ele>
        <time>2013-09-03T19:22:01.443Z</time>
      </trkpt>
      <trkpt lat="48.86311" lon="2.37182">
        <ele>85.4</ele>
        <time>2013-09-03T19:22:02.447Z</time>
      </trkpt>
      <trkpt lat="48.86316" lon="2.37178">
        <ele>86</ele>
        <time>2013-09-03T19:22:03.415Z</time>
      </trkpt>
      <trkpt lat="48.86322" lon="2.37174">
        <ele>86</ele>
        <time>2013-09-03T19:22:04.438Z</time>
      </trkpt>
      <trkpt lat="48.86326" lon="2.37171">
        <ele>84.8</ele>
        <time>2013-09-03T19:22:05.445Z</time>
      </trkpt>
      <trkpt lat="48.86331" lon="2.37167">
        <ele>85.8</ele>
        <time>2013-09-03T19:22:06.445Z</time>
      </trkpt>
      <trkpt lat="48.86336" lon="2.37162">
        <ele>86.8</ele>
        <time>2013-09-03T19:22:07.454Z</time>
      </trkpt>
      <trkpt lat="48.86341" lon="2.37158">
        <ele>86.8</ele>
        <time>2013-09-03T19:22:08.454Z</time>
      </trkpt>
      <trkpt lat="48.86346" lon="2.37153">
        <ele>86.8</ele>
        <time>2013-09-03T19:22:09.449Z</time>
      </trkpt>
      <trkpt lat="48.86352" lon="2.37148">
        <ele>86.8</ele>
        <time>2013-09-03T19:22:10.443Z</time>
      </trkpt>
      <trkpt lat="48.86358" lon="2.37143">
        <ele>86.4</ele>
        <time>2013-09-03T19:22:11.458Z</time>
      </trkpt>
      <trkpt lat="48.86364" lon="2.37139">
        <ele>85.8</ele>
        <time>2013-09-03T19:22:12.457Z</time>
      </trkpt>
      <trkpt lat="48.86369" lon="2.37135">
        <ele>86.4</ele>
        <time>2013-09-03T19:22:13.492Z</time>
      </trkpt>
      <trkpt lat="48.86374" lon="2.37132">
        <ele>85.8</ele>
        <time>2013-09-03T19:22:14.609Z</time>
      </trkpt>
      <trkpt lat="48.86378" lon="2.37129">
        <ele>86.1</ele>
        <time>2013-09-03T19:22:15.463Z</time>
      </trkpt>
      <trkpt lat="48.86384" lon="2.37125">
        <ele>83.8</ele>
        <time>2013-09-03T19:22:16.614Z</time>
      </trkpt>
      <trkpt lat="48.8639" lon="2.37122">
        <ele>82.3</ele>
        <time>2013-09-03T19:22:17.432Z</time>
      </trkpt>
      <trkpt lat="48.86394" lon="2.37118">
        <ele>81</ele>
        <time>2013-09-03T19:22:18.443Z</time>
      </trkpt>
      <trkpt lat="48.86399" lon="2.37111">
        <ele>80.7</ele>
        <time>2013-09-03T19:22:20.432Z</time>
      </trkpt>
      <trkpt lat="48.86401" lon="2.3711">
        <ele>81.3</ele>
        <time>2013-09-03T19:22:21.422Z</time>
      </trkpt>
      <trkpt lat="48.86406" lon="2.37116">
        <ele>81.8</ele>
        <time>2013-09-03T19:22:36.435Z</time>
      </trkpt>
      <trkpt lat="48.86406" lon="2.37116">
        <ele>82.2</ele>
        <time>2013-09-03T19:22:37.431Z</time>
      </trkpt>
      <trkpt lat="48.86406" lon="2.37114">
        <ele>82.1</ele>
        <time>2013-09-03T19:22:41.428Z</time>
      </trkpt>
      <trkpt lat="48.86407" lon="2.37114">
        <ele>82.3</ele>
        <time>2013-09-03T19:22:42.431Z</time>
      </trkpt>
      <trkpt lat="48.86414" lon="2.37109">
        <ele>78.8</ele>
        <time>2013-09-03T19:22:45.451Z</time>
      </trkpt>
      <trkpt lat="48.86417" lon="2.37105">
        <ele>80.6</ele>
        <time>2013-09-03T19:22:46.415Z</time>
      </trkpt>
      <trkpt lat="48.86422" lon="2.37102">
        <ele>81.6</ele>
        <time>2013-09-03T19:22:47.420Z</time>
      </trkpt>
      <trkpt lat="48.86427" lon="2.37099">
        <ele>80.7</ele>
        <time>2013-09-03T19:22:48.446Z</time>
      </trkpt>
      <trkpt lat="48.86432" lon="2.37095">
        <ele>81</ele>
        <time>2013-09-03T19:22:49.455Z</time>
      </trkpt>
      <trkpt lat="48.86438" lon="2.37092">
        <ele>80</ele>
        <time>2013-09-03T19:22:50.448Z</time>
      </trkpt>
      <trkpt lat="48.86446" lon="2.37087">
        <ele>78.5</ele>
        <time>2013-09-03T19:22:51.434Z</time>
      </trkpt>
      <trkpt lat="48.86455" lon="2.37082">
        <ele>77</ele>
        <time>2013-09-03T19:22:52.428Z</time>
      </trkpt>
      <trkpt lat="48.86462" lon="2.37077">
        <ele>76.2</ele>
        <time>2013-09-03T19:22:53.426Z</time>
      </trkpt>
      <trkpt lat="48.86469" lon="2.37073">
        <ele>77.2</ele>
        <time>2013-09-03T19:22:54.443Z</time>
      </trkpt>
      <trkpt lat="48.86475" lon="2.37069">
        <ele>78.3</ele>
        <time>2013-09-03T19:22:55.433Z</time>
      </trkpt>
      <trkpt lat="48.86478" lon="2.37064">
        <ele>80.9</ele>
        <time>2013-09-03T19:22:56.434Z</time>
      </trkpt>
      <trkpt lat="48.86483" lon="2.37059">
        <ele>80</ele>
        <time>2013-09-03T19:22:57.608Z</time>
      </trkpt>
      <trkpt lat="48.86486" lon="2.37054">
        <ele>80.2</ele>
        <time>2013-09-03T19:22:58.431Z</time>
      </trkpt>
      <trkpt lat="48.86491" lon="2.37048">
        <ele>79.2</ele>
        <time>2013-09-03T19:22:59.420Z</time>
      </trkpt>
      <trkpt lat="48.86497" lon="2.37044">
        <ele>79.2</ele>
        <time>2013-09-03T19:23:00.434Z</time>
      </trkpt>
      <trkpt lat="48.86502" lon="2.37039">
        <ele>79.3</ele>
        <time>2013-09-03T19:23:01.521Z</time>
      </trkpt>
      <trkpt lat="48.86506" lon="2.37034">
        <ele>79.3</ele>
        <time>2013-09-03T19:23:02.430Z</time>
      </trkpt>
      <trkpt lat="48.86511" lon="2.3703">
        <ele>80.5</ele>
        <time>2013-09-03T19:23:03.439Z</time>
      </trkpt>
      <trkpt lat="48.86516" lon="2.37025">
        <ele>80.3</ele>
        <time>2013-09-03T19:23:04.574Z</time>
      </trkpt>
      <trkpt lat="48.8652" lon="2.37022">
        <ele>80.2</ele>
        <time>2013-09-03T19:23:05.445Z</time>
      </trkpt>
      <trkpt lat="48.86525" lon="2.37019">
        <ele>80</ele>
        <time>2013-09-03T19:23:06.602Z</time>
      </trkpt>
      <trkpt lat="48.86532" lon="2.37013">
        <ele>79.6</ele>
        <time>2013-09-03T19:23:08.545Z</time>
      </trkpt>
      <trkpt lat="48.86536" lon="2.37009">
        <ele>79.9</ele>
        <time>2013-09-03T19:23:09.544Z</time>
      </trkpt>
      <trkpt lat="48.86544" lon="2.37004">
        <ele>79.5</ele>
        <time>2013-09-03T19:23:11.447Z</time>
      </trkpt>
      <trkpt lat="48.86548" lon="2.37003">
        <ele>79.9</ele>
        <time>2013-09-03T19:23:12.445Z</time>
      </trkpt>
      <trkpt lat="48.86556" lon="2.37">
        <ele>79.8</ele>
        <time>2013-09-03T19:23:14.435Z</time>
      </trkpt>
      <trkpt lat="48.8656" lon="2.36997">
        <ele>79.4</ele>
        <time>2013-09-03T19:23:15.614Z</time>
      </trkpt>
      <trkpt lat="48.86564" lon="2.36989">
        <ele>78.6</ele>
        <time>2013-09-03T19:23:17.586Z</time>
      </trkpt>
      <trkpt lat="48.86566" lon="2.36985">
        <ele>78.6</ele>
        <time>2013-09-03T19:23:18.626Z</time>
      </trkpt>
      <trkpt lat="48.86567" lon="2.36975">
        <ele>78.5</ele>
        <time>2013-09-03T19:23:20.421Z</time>
      </trkpt>
      <trkpt lat="48.86567" lon="2.3697">
        <ele>79.3</ele>
        <time>2013-09-03T19:23:21.446Z</time>
      </trkpt>
      <trkpt lat="48.86566" lon="2.3696">
        <ele>78.5</ele>
        <time>2013-09-03T19:23:23.435Z</time>
      </trkpt>
      <trkpt lat="48.86566" lon="2.36955">
        <ele>79.5</ele>
        <time>2013-09-03T19:23:24.454Z</time>
      </trkpt>
      <trkpt lat="48.86561" lon="2.36944">
        <ele>81.1</ele>
        <time>2013-09-03T19:23:27.452Z</time>
      </trkpt>
      <trkpt lat="48.86559" lon="2.36941">
        <ele>82.7</ele>
        <time>2013-09-03T19:23:28.452Z</time>
      </trkpt>
      <trkpt lat="48.86555" lon="2.36931">
        <ele>82.1</ele>
        <time>2013-09-03T19:23:30.460Z</time>
      </trkpt>
      <trkpt lat="48.86553" lon="2.36926">
        <ele>79.6</ele>
        <time>2013-09-03T19:23:31.447Z</time>
      </trkpt>
      <trkpt lat="48.86549" lon="2.36914">
        <ele>79.6</ele>
        <time>2013-09-03T19:23:33.441Z</time>
      </trkpt>
      <trkpt lat="48.86547" lon="2.36908">
        <ele>78.5</ele>
        <time>2013-09-03T19:23:34.443Z</time>
      </trkpt>
      <trkpt lat="48.86543" lon="2.36898">
        <ele>78</ele>
        <time>2013-09-03T19:23:36.439Z</time>
      </trkpt>
      <trkpt lat="48.8654" lon="2.36893">
        <ele>78</ele>
        <time>2013-09-03T19:23:37.440Z</time>
      </trkpt>
      <trkpt lat="48.86536" lon="2.36884">
        <ele>78.4</ele>
        <time>2013-09-03T19:23:39.455Z</time>
      </trkpt>
      <trkpt lat="48.86535" lon="2.3688">
        <ele>78.2</ele>
        <time>2013-09-03T19:23:40.413Z</time>
      </trkpt>
      <trkpt lat="48.86531" lon="2.36871">
        <ele>81</ele>
        <time>2013-09-03T19:23:42.442Z</time>
      </trkpt>
      <trkpt lat="48.86529" lon="2.36866">
        <ele>79.9</ele>
        <time>2013-09-03T19:23:43.453Z</time>
      </trkpt>
      <trkpt lat="48.86524" lon="2.36856">
        <ele>80.3</ele>
        <time>2013-09-03T19:23:45.437Z</time>
      </trkpt>
      <trkpt lat="48.86521" lon="2.3685">
        <ele>80.1</ele>
        <time>2013-09-03T19:23:46.489Z</time>
      </trkpt>
      <trkpt lat="48.86517" lon="2.36839">
        <ele>81.4</ele>
        <time>2013-09-03T19:23:48.474Z</time>
      </trkpt>
      <trkpt lat="48.86515" lon="2.36833">
        <ele>81.9</ele>
        <time>2013-09-03T19:23:49.538Z</time>
      </trkpt>
      <trkpt lat="48.86512" lon="2.36821">
        <ele>82.2</ele>
        <time>2013-09-03T19:23:51.476Z</time>
      </trkpt>
      <trkpt lat="48.86512" lon="2.36815">
        <ele>83.3</ele>
        <time>2013-09-03T19:23:52.594Z</time>
      </trkpt>
      <trkpt lat="48.86517" lon="2.36804">
        <ele>85.8</ele>
        <time>2013-09-03T19:23:55.561Z</time>
      </trkpt>
      <trkpt lat="48.8652" lon="2.36801">
        <ele>86.3</ele>
        <time>2013-09-03T19:23:56.558Z</time>
      </trkpt>
      <trkpt lat="48.86526" lon="2.36797">
        <ele>87.1</ele>
        <time>2013-09-03T19:23:58.455Z</time>
      </trkpt>
      <trkpt lat="48.8653" lon="2.36794">
        <ele>87.5</ele>
        <time>2013-09-03T19:23:59.425Z</time>
      </trkpt>
      <trkpt lat="48.86534" lon="2.36791">
        <ele>86.6</ele>
        <time>2013-09-03T19:24:00.474Z</time>
      </trkpt>
      <trkpt lat="48.86539" lon="2.36789">
        <ele>86.8</ele>
        <time>2013-09-03T19:24:01.456Z</time>
      </trkpt>
      <trkpt lat="48.86544" lon="2.36786">
        <ele>85.7</ele>
        <time>2013-09-03T19:24:02.432Z</time>
      </trkpt>
      <trkpt lat="48.86549" lon="2.36784">
        <ele>85</ele>
        <time>2013-09-03T19:24:03.449Z</time>
      </trkpt>
      <trkpt lat="48.86556" lon="2.36782">
        <ele>86</ele>
        <time>2013-09-03T19:24:04.431Z</time>
      </trkpt>
      <trkpt lat="48.86562" lon="2.36779">
        <ele>86.2</ele>
        <time>2013-09-03T19:24:05.464Z</time>
      </trkpt>
      <trkpt lat="48.86567" lon="2.36778">
        <ele>86.1</ele>
        <time>2013-09-03T19:24:06.448Z</time>
      </trkpt>
      <trkpt lat="48.86573" lon="2.36777">
        <ele>86</ele>
        <time>2013-09-03T19:24:07.430Z</time>
      </trkpt>
      <trkpt lat="48.86581" lon="2.36773">
        <ele>87.4</ele>
        <time>2013-09-03T19:24:09.463Z</time>
      </trkpt>
      <trkpt lat="48.86585" lon="2.3677">
        <ele>87</ele>
        <time>2013-09-03T19:24:10.451Z</time>
      </trkpt>
      <trkpt lat="48.8659" lon="2.36764">
        <ele>86.9</ele>
        <time>2013-09-03T19:24:12.450Z</time>
      </trkpt>
      <trkpt lat="48.86593" lon="2.36762">
        <ele>87</ele>
        <time>2013-09-03T19:24:13.481Z</time>
      </trkpt>
      <trkpt lat="48.866" lon="2.36757">
        <ele>87.1</ele>
        <time>2013-09-03T19:24:15.544Z</time>
      </trkpt>
      <trkpt lat="48.86604" lon="2.36756">
        <ele>87</ele>
        <time>2013-09-03T19:24:16.449Z</time>
      </trkpt>
      <trkpt lat="48.86611" lon="2.36753">
        <ele>87.6</ele>
        <time>2013-09-03T19:24:18.462Z</time>
      </trkpt>
      <trkpt lat="48.86614" lon="2.36751">
        <ele>87.1</ele>
        <time>2013-09-03T19:24:19.513Z</time>
      </trkpt>
      <trkpt lat="48.86616" lon="2.36743">
        <ele>88</ele>
        <time>2013-09-03T19:24:21.497Z</time>
      </trkpt>
      <trkpt lat="48.86616" lon="2.36737">
        <ele>88.3</ele>
        <time>2013-09-03T19:24:22.456Z</time>
      </trkpt>
      <trkpt lat="48.86616" lon="2.3673">
        <ele>88.7</ele>
        <time>2013-09-03T19:24:23.513Z</time>
      </trkpt>
      <trkpt lat="48.86615" lon="2.36723">
        <ele>88.8</ele>
        <time>2013-09-03T19:24:24.467Z</time>
      </trkpt>
      <trkpt lat="48.86614" lon="2.36716">
        <ele>88.7</ele>
        <time>2013-09-03T19:24:25.508Z</time>
      </trkpt>
      <trkpt lat="48.86613" lon="2.36709">
        <ele>89.8</ele>
        <time>2013-09-03T19:24:26.525Z</time>
      </trkpt>
      <trkpt lat="48.86609" lon="2.36698">
        <ele>90.2</ele>
        <time>2013-09-03T19:24:28.442Z</time>
      </trkpt>
      <trkpt lat="48.86607" lon="2.36692">
        <ele>89.9</ele>
        <time>2013-09-03T19:24:29.433Z</time>
      </trkpt>
      <trkpt lat="48.86603" lon="2.36682">
        <ele>89.8</ele>
        <time>2013-09-03T19:24:31.473Z</time>
      </trkpt>
      <trkpt lat="48.866" lon="2.36677">
        <ele>89.2</ele>
        <time>2013-09-03T19:24:32.508Z</time>
      </trkpt>
      <trkpt lat="48.86597" lon="2.36667">
        <ele>89.3</ele>
        <time>2013-09-03T19:24:34.535Z</time>
      </trkpt>
      <trkpt lat="48.86596" lon="2.36663">
        <ele>89.7</ele>
        <time>2013-09-03T19:24:35.583Z</time>
      </trkpt>
      <trkpt lat="48.86594" lon="2.36652">
        <ele>87.5</ele>
        <time>2013-09-03T19:24:37.616Z</time>
      </trkpt>
      <trkpt lat="48.86594" lon="2.36647">
        <ele>87.1</ele>
        <time>2013-09-03T19:24:38.474Z</time>
      </trkpt>
      <trkpt lat="48.86597" lon="2.36635">
        <ele>85.8</ele>
        <time>2013-09-03T19:24:40.472Z</time>
      </trkpt>
      <trkpt lat="48.866" lon="2.36629">
        <ele>84.4</ele>
        <time>2013-09-03T19:24:41.554Z</time>
      </trkpt>
      <trkpt lat="48.86603" lon="2.36625">
        <ele>83.7</ele>
        <time>2013-09-03T19:24:42.539Z</time>
      </trkpt>
      <trkpt lat="48.86607" lon="2.3662">
        <ele>82</ele>
        <time>2013-09-03T19:24:43.517Z</time>
      </trkpt>
      <trkpt lat="48.86611" lon="2.36615">
        <ele>81.8</ele>
        <time>2013-09-03T19:24:44.645Z</time>
      </trkpt>
      <trkpt lat="48.86615" lon="2.36611">
        <ele>81.1</ele>
        <time>2013-09-03T19:24:45.465Z</time>
      </trkpt>
      <trkpt lat="48.86619" lon="2.36606">
        <ele>79.1</ele>
        <time>2013-09-03T19:24:46.587Z</time>
      </trkpt>
      <trkpt lat="48.86622" lon="2.36601">
        <ele>78.4</ele>
        <time>2013-09-03T19:24:47.436Z</time>
      </trkpt>
      <trkpt lat="48.86625" lon="2.36595">
        <ele>78.3</ele>
        <time>2013-09-03T19:24:48.443Z</time>
      </trkpt>
      <trkpt lat="48.86628" lon="2.3659">
        <ele>78.9</ele>
        <time>2013-09-03T19:24:49.432Z</time>
      </trkpt>
      <trkpt lat="48.86631" lon="2.36584">
        <ele>79.9</ele>
        <time>2013-09-03T19:24:50.435Z</time>
      </trkpt>
      <trkpt lat="48.86634" lon="2.36579">
        <ele>80.3</ele>
        <time>2013-09-03T19:24:51.436Z</time>
      </trkpt>
      <trkpt lat="48.8664" lon="2.3657">
        <ele>80.3</ele>
        <time>2013-09-03T19:24:53.436Z</time>
      </trkpt>
      <trkpt lat="48.86643" lon="2.36565">
        <ele>79.6</ele>
        <time>2013-09-03T19:24:54.454Z</time>
      </trkpt>
      <trkpt lat="48.86649" lon="2.36558">
        <ele>80.2</ele>
        <time>2013-09-03T19:24:56.453Z</time>
      </trkpt>
      <trkpt lat="48.86652" lon="2.36554">
        <ele>79.7</ele>
        <time>2013-09-03T19:24:57.435Z</time>
      </trkpt>
      <trkpt lat="48.86657" lon="2.36547">
        <ele>79.3</ele>
        <time>2013-09-03T19:24:59.485Z</time>
      </trkpt>
      <trkpt lat="48.86659" lon="2.36544">
        <ele>78.9</ele>
        <time>2013-09-03T19:25:00.444Z</time>
      </trkpt>
      <trkpt lat="48.86662" lon="2.36536">
        <ele>79.2</ele>
        <time>2013-09-03T19:25:02.435Z</time>
      </trkpt>
      <trkpt lat="48.86664" lon="2.36533">
        <ele>79.9</ele>
        <time>2013-09-03T19:25:03.434Z</time>
      </trkpt>
      <trkpt lat="48.86668" lon="2.36525">
        <ele>80.4</ele>
        <time>2013-09-03T19:25:05.443Z</time>
      </trkpt>
      <trkpt lat="48.8667" lon="2.3652">
        <ele>80.5</ele>
        <time>2013-09-03T19:25:06.541Z</time>
      </trkpt>
      <trkpt lat="48.86673" lon="2.36509">
        <ele>82.2</ele>
        <time>2013-09-03T19:25:09.456Z</time>
      </trkpt>
      <trkpt lat="48.86674" lon="2.36505">
        <ele>82</ele>
        <time>2013-09-03T19:25:10.444Z</time>
      </trkpt>
      <trkpt lat="48.86679" lon="2.36494">
        <ele>84</ele>
        <time>2013-09-03T19:25:14.447Z</time>
      </trkpt>
      <trkpt lat="48.8668" lon="2.36492">
        <ele>84.9</ele>
        <time>2013-09-03T19:25:15.455Z</time>
      </trkpt>
      <trkpt lat="48.86683" lon="2.36483">
        <ele>84.1</ele>
        <time>2013-09-03T19:25:18.443Z</time>
      </trkpt>
      <trkpt lat="48.86684" lon="2.3648">
        <ele>84</ele>
        <time>2013-09-03T19:25:19.452Z</time>
      </trkpt>
      <trkpt lat="48.86688" lon="2.36468">
        <ele>81.9</ele>
        <time>2013-09-03T19:25:22.454Z</time>
      </trkpt>
      <trkpt lat="48.8669" lon="2.36464">
        <ele>81.4</ele>
        <time>2013-09-03T19:25:23.444Z</time>
      </trkpt>
      <trkpt lat="48.86693" lon="2.36455">
        <ele>82.3</ele>
        <time>2013-09-03T19:25:25.443Z</time>
      </trkpt>
      <trkpt lat="48.86695" lon="2.36451">
        <ele>83.7</ele>
        <time>2013-09-03T19:25:26.444Z</time>
      </trkpt>
      <trkpt lat="48.86698" lon="2.36443">
        <ele>82.9</ele>
        <time>2013-09-03T19:25:28.461Z</time>
      </trkpt>
      <trkpt lat="48.867" lon="2.36439">
        <ele>84.5</ele>
        <time>2013-09-03T19:25:29.453Z</time>
      </trkpt>
      <trkpt lat="48.86706" lon="2.3643">
        <ele>86.2</ele>
        <time>2013-09-03T19:25:33.474Z</time>
      </trkpt>
      <trkpt lat="48.86707" lon="2.36429">
        <ele>87</ele>
        <time>2013-09-03T19:25:34.428Z</time>
      </trkpt>
      <trkpt lat="48.86708" lon="2.36428">
        <ele>92.3</ele>
        <time>2013-09-03T19:25:40.546Z</time>
      </trkpt>
      <trkpt lat="48.86708" lon="2.36429">
        <ele>92.3</ele>
        <time>2013-09-03T19:25:41.522Z</time>
      </trkpt>
      <trkpt lat="48.86708" lon="2.3643">
        <ele>91.8</ele>
        <time>2013-09-03T19:25:42.483Z</time>
      </trkpt>
      <trkpt lat="48.86708" lon="2.36431">
        <ele>91.7</ele>
        <time>2013-09-03T19:25:43.482Z</time>
      </trkpt>
      <trkpt lat="48.86708" lon="2.36435">
        <ele>91.5</ele>
        <time>2013-09-03T19:25:52.456Z</time>
      </trkpt>
      <trkpt lat="48.86708" lon="2.36435">
        <ele>91.6</ele>
        <time>2013-09-03T19:25:53.461Z</time>
      </trkpt>
      <trkpt lat="48.86707" lon="2.36433">
        <ele>94.1</ele>
        <time>2013-09-03T19:26:07.458Z</time>
      </trkpt>
      <trkpt lat="48.86707" lon="2.36432">
        <ele>94.3</ele>
        <time>2013-09-03T19:26:08.440Z</time>
      </trkpt>
      <trkpt lat="48.86706" lon="2.36432">
        <ele>94.3</ele>
        <time>2013-09-03T19:26:09.454Z</time>
      </trkpt>
      <trkpt lat="48.86706" lon="2.36433">
        <ele>95.4</ele>
        <time>2013-09-03T19:27:01.450Z</time>
      </trkpt>
      <trkpt lat="48.86706" lon="2.36434">
        <ele>96.1</ele>
        <time>2013-09-03T19:27:02.462Z</time>
      </trkpt>
      <trkpt lat="48.86706" lon="2.36434">
        <ele>97.2</ele>
        <time>2013-09-03T19:27:03.468Z</time>
      </trkpt>
      <trkpt lat="48.86706" lon="2.36434">
        <ele>97.1</ele>
        <time>2013-09-03T19:27:04.462Z</time>
      </trkpt>
      <trkpt lat="48.86707" lon="2.36434">
        <ele>97.7</ele>
        <time>2013-09-03T19:27:09.527Z</time>
      </trkpt>
      <trkpt lat="48.86707" lon="2.36434">
        <ele>97.7</ele>
        <time>2013-09-03T19:27:10.686Z</time>
      </trkpt>
      <trkpt lat="48.86707" lon="2.36436">
        <ele>98.8</ele>
        <time>2013-09-03T19:27:14.619Z</time>
      </trkpt>
      <trkpt lat="48.86707" lon="2.36436">
        <ele>99.2</ele>
        <time>2013-09-03T19:27:15.541Z</time>
      </trkpt>
      <trkpt lat="48.86706" lon="2.36435">
        <ele>100.3</ele>
        <time>2013-09-03T19:28:24.455Z</time>
      </trkpt>
      <trkpt lat="48.86706" lon="2.36436">
        <ele>99</ele>
        <time>2013-09-03T19:28:25.589Z</time>
      </trkpt>
      <trkpt lat="48.86713" lon="2.36442">
        <ele>94.8</ele>
        <time>2013-09-03T19:28:33.484Z</time>
      </trkpt>
      <trkpt lat="48.86714" lon="2.36442">
        <ele>94.6</ele>
        <time>2013-09-03T19:28:34.640Z</time>
      </trkpt>
      <trkpt lat="48.86715" lon="2.36444">
        <ele>94.4</ele>
        <time>2013-09-03T19:28:39.647Z</time>
      </trkpt>
      <trkpt lat="48.86715" lon="2.36443">
        <ele>94.9</ele>
        <time>2013-09-03T19:28:40.475Z</time>
      </trkpt>
      <trkpt lat="48.86715" lon="2.36443">
        <ele>94.9</ele>
        <time>2013-09-03T19:28:41.483Z</time>
      </trkpt>
      <trkpt lat="48.86714" lon="2.36442">
        <ele>95.2</ele>
        <time>2013-09-03T19:28:42.473Z</time>
      </trkpt>
      <trkpt lat="48.86713" lon="2.36438">
        <ele>95.8</ele>
        <time>2013-09-03T19:28:49.455Z</time>
      </trkpt>
      <trkpt lat="48.86713" lon="2.36438">
        <ele>95.8</ele>
        <time>2013-09-03T19:28:50.481Z</time>
      </trkpt>
      <trkpt lat="48.86713" lon="2.36437">
        <ele>97.2</ele>
        <time>2013-09-03T19:28:51.554Z</time>
      </trkpt>
      <trkpt lat="48.8671" lon="2.36434">
        <ele>98.9</ele>
        <time>2013-09-03T19:29:00.453Z</time>
      </trkpt>
      <trkpt lat="48.8671" lon="2.36434">
        <ele>98.9</ele>
        <time>2013-09-03T19:29:01.453Z</time>
      </trkpt>
      <trkpt lat="48.86709" lon="2.36433">
        <ele>100.7</ele>
        <time>2013-09-03T19:29:14.505Z</time>
      </trkpt>
      <trkpt lat="48.8671" lon="2.36433">
        <ele>99.2</ele>
        <time>2013-09-03T19:29:15.573Z</time>
      </trkpt>
      <trkpt lat="48.86711" lon="2.36434">
        <ele>98.5</ele>
        <time>2013-09-03T19:29:17.598Z</time>
      </trkpt>
      <trkpt lat="48.86711" lon="2.36434">
        <ele>99.8</ele>
        <time>2013-09-03T19:29:18.519Z</time>
      </trkpt>
      <trkpt lat="48.86711" lon="2.36433">
        <ele>99.8</ele>
        <time>2013-09-03T19:29:19.486Z</time>
      </trkpt>
      <trkpt lat="48.8671" lon="2.36433">
        <ele>99.6</ele>
        <time>2013-09-03T19:29:20.463Z</time>
      </trkpt>
      <trkpt lat="48.8671" lon="2.36422">
        <ele>98.5</ele>
        <time>2013-09-03T19:29:24.465Z</time>
      </trkpt>
      <trkpt lat="48.8671" lon="2.36418">
        <ele>98.6</ele>
        <time>2013-09-03T19:29:25.454Z</time>
      </trkpt>
      <trkpt lat="48.86712" lon="2.36406">
        <ele>94.7</ele>
        <time>2013-09-03T19:29:28.437Z</time>
      </trkpt>
      <trkpt lat="48.86713" lon="2.36402">
        <ele>94.4</ele>
        <time>2013-09-03T19:29:29.439Z</time>
      </trkpt>
      <trkpt lat="48.86718" lon="2.36392">
        <ele>91.5</ele>
        <time>2013-09-03T19:29:32.439Z</time>
      </trkpt>
      <trkpt lat="48.8672" lon="2.36388">
        <ele>90.8</ele>
        <time>2013-09-03T19:29:33.438Z</time>
      </trkpt>
      <trkpt lat="48.86723" lon="2.36378">
        <ele>90.1</ele>
        <time>2013-09-03T19:29:35.439Z</time>
      </trkpt>
      <trkpt lat="48.86725" lon="2.36373">
        <ele>89.2</ele>
        <time>2013-09-03T19:29:36.441Z</time>
      </trkpt>
      <trkpt lat="48.86728" lon="2.36364">
        <ele>88.6</ele>
        <time>2013-09-03T19:29:38.489Z</time>
      </trkpt>
      <trkpt lat="48.8673" lon="2.36359">
        <ele>88</ele>
        <time>2013-09-03T19:29:39.484Z</time>
      </trkpt>
      <trkpt lat="48.86734" lon="2.3635">
        <ele>86.5</ele>
        <time>2013-09-03T19:29:41.465Z</time>
      </trkpt>
      <trkpt lat="48.86736" lon="2.36346">
        <ele>86.4</ele>
        <time>2013-09-03T19:29:42.430Z</time>
      </trkpt>
      <trkpt lat="48.86741" lon="2.36338">
        <ele>86.8</ele>
        <time>2013-09-03T19:29:44.431Z</time>
      </trkpt>
      <trkpt lat="48.86743" lon="2.36334">
        <ele>86.4</ele>
        <time>2013-09-03T19:29:45.465Z</time>
      </trkpt>
      <trkpt lat="48.86748" lon="2.36323">
        <ele>87.8</ele>
        <time>2013-09-03T19:29:49.474Z</time>
      </trkpt>
      <trkpt lat="48.86748" lon="2.36322">
        <ele>88.2</ele>
        <time>2013-09-03T19:29:50.465Z</time>
      </trkpt>
      <trkpt lat="48.86745" lon="2.3632">
        <ele>91</ele>
        <time>2013-09-03T19:30:00.485Z</time>
      </trkpt>
      <trkpt lat="48.86745" lon="2.3632">
        <ele>91</ele>
        <time>2013-09-03T19:30:01.648Z</time>
      </trkpt>
      <trkpt lat="48.86745" lon="2.3632">
        <ele>91.3</ele>
        <time>2013-09-03T19:30:14.532Z</time>
      </trkpt>
      <trkpt lat="48.86744" lon="2.36319">
        <ele>91</ele>
        <time>2013-09-03T19:30:15.509Z</time>
      </trkpt>
      <trkpt lat="48.86736" lon="2.36315">
        <ele>88.9</ele>
        <time>2013-09-03T19:30:19.443Z</time>
      </trkpt>
      <trkpt lat="48.86733" lon="2.36313">
        <ele>88</ele>
        <time>2013-09-03T19:30:20.577Z</time>
      </trkpt>
      <trkpt lat="48.86727" lon="2.36309">
        <ele>87.5</ele>
        <time>2013-09-03T19:30:22.543Z</time>
      </trkpt>
      <trkpt lat="48.86724" lon="2.36307">
        <ele>88.3</ele>
        <time>2013-09-03T19:30:23.496Z</time>
      </trkpt>
      <trkpt lat="48.86719" lon="2.36299">
        <ele>89.2</ele>
        <time>2013-09-03T19:30:25.493Z</time>
      </trkpt>
      <trkpt lat="48.86716" lon="2.36295">
        <ele>89.7</ele>
        <time>2013-09-03T19:30:26.536Z</time>
      </trkpt>
      <trkpt lat="48.8671" lon="2.36285">
        <ele>89.4</ele>
        <time>2013-09-03T19:30:28.584Z</time>
      </trkpt>
      <trkpt lat="48.86707" lon="2.3628">
        <ele>89</ele>
        <time>2013-09-03T19:30:29.565Z</time>
      </trkpt>
      <trkpt lat="48.86703" lon="2.36272">
        <ele>89.1</ele>
        <time>2013-09-03T19:30:30.515Z</time>
      </trkpt>
      <trkpt lat="48.867" lon="2.36265">
        <ele>89.8</ele>
        <time>2013-09-03T19:30:31.483Z</time>
      </trkpt>
      <trkpt lat="48.86697" lon="2.36257">
        <ele>89.6</ele>
        <time>2013-09-03T19:30:32.493Z</time>
      </trkpt>
      <trkpt lat="48.86694" lon="2.3625">
        <ele>90</ele>
        <time>2013-09-03T19:30:33.482Z</time>
      </trkpt>
      <trkpt lat="48.86692" lon="2.36243">
        <ele>90.3</ele>
        <time>2013-09-03T19:30:34.527Z</time>
      </trkpt>
      <trkpt lat="48.8669" lon="2.36237">
        <ele>91.3</ele>
        <time>2013-09-03T19:30:35.582Z</time>
      </trkpt>
      <trkpt lat="48.86685" lon="2.36226">
        <ele>91.3</ele>
        <time>2013-09-03T19:30:37.544Z</time>
      </trkpt>
      <trkpt lat="48.86684" lon="2.36219">
        <ele>90.3</ele>
        <time>2013-09-03T19:30:38.514Z</time>
      </trkpt>
      <trkpt lat="48.86684" lon="2.36208">
        <ele>89.2</ele>
        <time>2013-09-03T19:30:39.515Z</time>
      </trkpt>
      <trkpt lat="48.86687" lon="2.36198">
        <ele>88.3</ele>
        <time>2013-09-03T19:30:40.496Z</time>
      </trkpt>
      <trkpt lat="48.86689" lon="2.36188">
        <ele>88.4</ele>
        <time>2013-09-03T19:30:41.472Z</time>
      </trkpt>
      <trkpt lat="48.86691" lon="2.36179">
        <ele>87.8</ele>
        <time>2013-09-03T19:30:42.488Z</time>
      </trkpt>
      <trkpt lat="48.86693" lon="2.3617">
        <ele>86.9</ele>
        <time>2013-09-03T19:30:43.487Z</time>
      </trkpt>
      <trkpt lat="48.86694" lon="2.36163">
        <ele>87.2</ele>
        <time>2013-09-03T19:30:44.476Z</time>
      </trkpt>
      <trkpt lat="48.86699" lon="2.36151">
        <ele>86.9</ele>
        <time>2013-09-03T19:30:46.453Z</time>
      </trkpt>
      <trkpt lat="48.867" lon="2.36145">
        <ele>87.5</ele>
        <time>2013-09-03T19:30:47.501Z</time>
      </trkpt>
      <trkpt lat="48.86701" lon="2.36138">
        <ele>87.1</ele>
        <time>2013-09-03T19:30:48.480Z</time>
      </trkpt>
      <trkpt lat="48.867" lon="2.36131">
        <ele>88</ele>
        <time>2013-09-03T19:30:49.476Z</time>
      </trkpt>
      <trkpt lat="48.86699" lon="2.36124">
        <ele>87.9</ele>
        <time>2013-09-03T19:30:50.492Z</time>
      </trkpt>
      <trkpt lat="48.86699" lon="2.36117">
        <ele>88.2</ele>
        <time>2013-09-03T19:30:51.483Z</time>
      </trkpt>
      <trkpt lat="48.86699" lon="2.36109">
        <ele>88.6</ele>
        <time>2013-09-03T19:30:52.504Z</time>
      </trkpt>
      <trkpt lat="48.86699" lon="2.36101">
        <ele>88.5</ele>
        <time>2013-09-03T19:30:53.460Z</time>
      </trkpt>
      <trkpt lat="48.86698" lon="2.36093">
        <ele>88.4</ele>
        <time>2013-09-03T19:30:54.539Z</time>
      </trkpt>
      <trkpt lat="48.86697" lon="2.36085">
        <ele>88.4</ele>
        <time>2013-09-03T19:30:55.523Z</time>
      </trkpt>
      <trkpt lat="48.86696" lon="2.36077">
        <ele>88.4</ele>
        <time>2013-09-03T19:30:56.500Z</time>
      </trkpt>
      <trkpt lat="48.86695" lon="2.36068">
        <ele>88.8</ele>
        <time>2013-09-03T19:30:57.605Z</time>
      </trkpt>
      <trkpt lat="48.86695" lon="2.36062">
        <ele>89</ele>
        <time>2013-09-03T19:30:58.465Z</time>
      </trkpt>
      <trkpt lat="48.86695" lon="2.36053">
        <ele>88.9</ele>
        <time>2013-09-03T19:30:59.575Z</time>
      </trkpt>
      <trkpt lat="48.86696" lon="2.3604">
        <ele>88.5</ele>
        <time>2013-09-03T19:31:01.514Z</time>
      </trkpt>
      <trkpt lat="48.86696" lon="2.36034">
        <ele>88.9</ele>
        <time>2013-09-03T19:31:02.502Z</time>
      </trkpt>
      <trkpt lat="48.86698" lon="2.36021">
        <ele>87.3</ele>
        <time>2013-09-03T19:31:04.471Z</time>
      </trkpt>
      <trkpt lat="48.86699" lon="2.36015">
        <ele>88.5</ele>
        <time>2013-09-03T19:31:05.456Z</time>
      </trkpt>
      <trkpt lat="48.86702" lon="2.36008">
        <ele>88</ele>
        <time>2013-09-03T19:31:06.476Z</time>
      </trkpt>
      <trkpt lat="48.86704" lon="2.35999">
        <ele>89.8</ele>
        <time>2013-09-03T19:31:07.460Z</time>
      </trkpt>
      <trkpt lat="48.86706" lon="2.3599">
        <ele>90.1</ele>
        <time>2013-09-03T19:31:08.498Z</time>
      </trkpt>
      <trkpt lat="48.86708" lon="2.35983">
        <ele>90</ele>
        <time>2013-09-03T19:31:09.472Z</time>
      </trkpt>
      <trkpt lat="48.86708" lon="2.35975">
        <ele>89.6</ele>
        <time>2013-09-03T19:31:10.473Z</time>
      </trkpt>
      <trkpt lat="48.86707" lon="2.35968">
        <ele>89.2</ele>
        <time>2013-09-03T19:31:11.500Z</time>
      </trkpt>
      <trkpt lat="48.86706" lon="2.35955">
        <ele>89.5</ele>
        <time>2013-09-03T19:31:13.463Z</time>
      </trkpt>
      <trkpt lat="48.86706" lon="2.35948">
        <ele>89.4</ele>
        <time>2013-09-03T19:31:14.485Z</time>
      </trkpt>
      <trkpt lat="48.86706" lon="2.35935">
        <ele>89.3</ele>
        <time>2013-09-03T19:31:16.479Z</time>
      </trkpt>
      <trkpt lat="48.86706" lon="2.35928">
        <ele>89.1</ele>
        <time>2013-09-03T19:31:17.474Z</time>
      </trkpt>
      <trkpt lat="48.86705" lon="2.35921">
        <ele>90.7</ele>
        <time>2013-09-03T19:31:18.465Z</time>
      </trkpt>
      <trkpt lat="48.86704" lon="2.35914">
        <ele>90.5</ele>
        <time>2013-09-03T19:31:19.486Z</time>
      </trkpt>
      <trkpt lat="48.86702" lon="2.35902">
        <ele>92.3</ele>
        <time>2013-09-03T19:31:21.472Z</time>
      </trkpt>
      <trkpt lat="48.86701" lon="2.35896">
        <ele>92.5</ele>
        <time>2013-09-03T19:31:22.507Z</time>
      </trkpt>
      <trkpt lat="48.86701" lon="2.35885">
        <ele>91.7</ele>
        <time>2013-09-03T19:31:24.480Z</time>
      </trkpt>
      <trkpt lat="48.86701" lon="2.35879">
        <ele>92.1</ele>
        <time>2013-09-03T19:31:25.450Z</time>
      </trkpt>
      <trkpt lat="48.86703" lon="2.35867">
        <ele>87.6</ele>
        <time>2013-09-03T19:31:27.474Z</time>
      </trkpt>
      <trkpt lat="48.86703" lon="2.35862">
        <ele>89.1</ele>
        <time>2013-09-03T19:31:28.467Z</time>
      </trkpt>
      <trkpt lat="48.86698" lon="2.35853">
        <ele>89.6</ele>
        <time>2013-09-03T19:31:31.450Z</time>
      </trkpt>
      <trkpt lat="48.86695" lon="2.35852">
        <ele>89.6</ele>
        <time>2013-09-03T19:31:32.475Z</time>
      </trkpt>
      <trkpt lat="48.8669" lon="2.3585">
        <ele>89</ele>
        <time>2013-09-03T19:31:33.468Z</time>
      </trkpt>
      <trkpt lat="48.86686" lon="2.35846">
        <ele>89.2</ele>
        <time>2013-09-03T19:31:34.473Z</time>
      </trkpt>
      <trkpt lat="48.86679" lon="2.3584">
        <ele>92.3</ele>
        <time>2013-09-03T19:31:37.470Z</time>
      </trkpt>
      <trkpt lat="48.86677" lon="2.35838">
        <ele>92.4</ele>
        <time>2013-09-03T19:31:38.483Z</time>
      </trkpt>
      <trkpt lat="48.86672" lon="2.35833">
        <ele>92.6</ele>
        <time>2013-09-03T19:31:40.494Z</time>
      </trkpt>
      <trkpt lat="48.86668" lon="2.3583">
        <ele>92.9</ele>
        <time>2013-09-03T19:31:41.481Z</time>
      </trkpt>
      <trkpt lat="48.86661" lon="2.35826">
        <ele>93</ele>
        <time>2013-09-03T19:31:43.475Z</time>
      </trkpt>
      <trkpt lat="48.86657" lon="2.35823">
        <ele>93.1</ele>
        <time>2013-09-03T19:31:44.507Z</time>
      </trkpt>
      <trkpt lat="48.8665" lon="2.35819">
        <ele>92.6</ele>
        <time>2013-09-03T19:31:46.468Z</time>
      </trkpt>
      <trkpt lat="48.86647" lon="2.35818">
        <ele>92.2</ele>
        <time>2013-09-03T19:31:47.473Z</time>
      </trkpt>
      <trkpt lat="48.86638" lon="2.35814">
        <ele>92.2</ele>
        <time>2013-09-03T19:31:50.491Z</time>
      </trkpt>
      <trkpt lat="48.86635" lon="2.35813">
        <ele>92.5</ele>
        <time>2013-09-03T19:31:51.528Z</time>
      </trkpt>
      <trkpt lat="48.86629" lon="2.35809">
        <ele>92.5</ele>
        <time>2013-09-03T19:31:53.481Z</time>
      </trkpt>
      <trkpt lat="48.86626" lon="2.35806">
        <ele>92.7</ele>
        <time>2013-09-03T19:31:54.488Z</time>
      </trkpt>
      <trkpt lat="48.86619" lon="2.35801">
        <ele>88.9</ele>
        <time>2013-09-03T19:31:56.466Z</time>
      </trkpt>
      <trkpt lat="48.86615" lon="2.358">
        <ele>87.6</ele>
        <time>2013-09-03T19:31:57.471Z</time>
      </trkpt>
      <trkpt lat="48.86608" lon="2.35796">
        <ele>88</ele>
        <time>2013-09-03T19:31:59.512Z</time>
      </trkpt>
      <trkpt lat="48.86605" lon="2.35793">
        <ele>87.1</ele>
        <time>2013-09-03T19:32:00.566Z</time>
      </trkpt>
      <trkpt lat="48.86603" lon="2.35782">
        <ele>83.8</ele>
        <time>2013-09-03T19:32:02.485Z</time>
      </trkpt>
      <trkpt lat="48.86604" lon="2.35774">
        <ele>83.7</ele>
        <time>2013-09-03T19:32:03.503Z</time>
      </trkpt>
      <trkpt lat="48.86606" lon="2.35766">
        <ele>83.6</ele>
        <time>2013-09-03T19:32:04.479Z</time>
      </trkpt>
      <trkpt lat="48.86608" lon="2.35758">
        <ele>83.9</ele>
        <time>2013-09-03T19:32:05.507Z</time>
      </trkpt>
      <trkpt lat="48.86611" lon="2.35751">
        <ele>84.5</ele>
        <time>2013-09-03T19:32:06.484Z</time>
      </trkpt>
      <trkpt lat="48.86614" lon="2.35745">
        <ele>85.2</ele>
        <time>2013-09-03T19:32:07.550Z</time>
      </trkpt>
      <trkpt lat="48.86618" lon="2.35733">
        <ele>83.6</ele>
        <time>2013-09-03T19:32:09.519Z</time>
      </trkpt>
      <trkpt lat="48.86618" lon="2.35728">
        <ele>83.3</ele>
        <time>2013-09-03T19:32:10.484Z</time>
      </trkpt>
      <trkpt lat="48.86616" lon="2.35719">
        <ele>84.5</ele>
        <time>2013-09-03T19:32:12.512Z</time>
      </trkpt>
      <trkpt lat="48.86613" lon="2.35716">
        <ele>84.7</ele>
        <time>2013-09-03T19:32:13.477Z</time>
      </trkpt>
      <trkpt lat="48.86606" lon="2.35712">
        <ele>86</ele>
        <time>2013-09-03T19:32:15.494Z</time>
      </trkpt>
      <trkpt lat="48.86602" lon="2.3571">
        <ele>86.6</ele>
        <time>2013-09-03T19:32:16.488Z</time>
      </trkpt>
      <trkpt lat="48.86595" lon="2.35708">
        <ele>86.9</ele>
        <time>2013-09-03T19:32:18.492Z</time>
      </trkpt>
      <trkpt lat="48.86592" lon="2.35707">
        <ele>86.6</ele>
        <time>2013-09-03T19:32:19.516Z</time>
      </trkpt>
      <trkpt lat="48.86586" lon="2.35704">
        <ele>86.3</ele>
        <time>2013-09-03T19:32:21.504Z</time>
      </trkpt>
      <trkpt lat="48.86583" lon="2.35703">
        <ele>87.3</ele>
        <time>2013-09-03T19:32:22.514Z</time>
      </trkpt>
      <trkpt lat="48.86576" lon="2.35697">
        <ele>89.4</ele>
        <time>2013-09-03T19:32:25.502Z</time>
      </trkpt>
      <trkpt lat="48.86574" lon="2.35695">
        <ele>87.4</ele>
        <time>2013-09-03T19:32:26.486Z</time>
      </trkpt>
      <trkpt lat="48.86566" lon="2.3569">
        <ele>83.5</ele>
        <time>2013-09-03T19:32:30.489Z</time>
      </trkpt>
      <trkpt lat="48.86566" lon="2.35689">
        <ele>83.1</ele>
        <time>2013-09-03T19:32:31.486Z</time>
      </trkpt>
      <trkpt lat="48.86565" lon="2.35684">
        <ele>81.6</ele>
        <time>2013-09-03T19:32:39.492Z</time>
      </trkpt>
      <trkpt lat="48.86565" lon="2.35684">
        <ele>81.4</ele>
        <time>2013-09-03T19:32:40.496Z</time>
      </trkpt>
      <trkpt lat="48.86564" lon="2.35685">
        <ele>82.5</ele>
        <time>2013-09-03T19:32:48.465Z</time>
      </trkpt>
      <trkpt lat="48.86564" lon="2.35685">
        <ele>82.2</ele>
        <time>2013-09-03T19:32:49.474Z</time>
      </trkpt>
      <trkpt lat="48.86559" lon="2.35676">
        <ele>80.6</ele>
        <time>2013-09-03T19:32:52.490Z</time>
      </trkpt>
      <trkpt lat="48.86556" lon="2.3567">
        <ele>80.1</ele>
        <time>2013-09-03T19:32:53.501Z</time>
      </trkpt>
      <trkpt lat="48.86554" lon="2.35663">
        <ele>81.1</ele>
        <time>2013-09-03T19:32:54.497Z</time>
      </trkpt>
      <trkpt lat="48.86552" lon="2.35656">
        <ele>84.8</ele>
        <time>2013-09-03T19:32:55.515Z</time>
      </trkpt>
      <trkpt lat="48.86551" lon="2.35649">
        <ele>84.4</ele>
        <time>2013-09-03T19:32:56.558Z</time>
      </trkpt>
      <trkpt lat="48.86549" lon="2.35643">
        <ele>84.3</ele>
        <time>2013-09-03T19:32:57.536Z</time>
      </trkpt>
      <trkpt lat="48.86547" lon="2.35633">
        <ele>87.8</ele>
        <time>2013-09-03T19:32:59.494Z</time>
      </trkpt>
      <trkpt lat="48.86546" lon="2.3563">
        <ele>88.4</ele>
        <time>2013-09-03T19:33:00.524Z</time>
      </trkpt>
      <trkpt lat="48.86548" lon="2.3562">
        <ele>90.7</ele>
        <time>2013-09-03T19:33:13.538Z</time>
      </trkpt>
      <trkpt lat="48.86548" lon="2.3562">
        <ele>92.7</ele>
        <time>2013-09-03T19:33:14.513Z</time>
      </trkpt>
      <trkpt lat="48.86547" lon="2.35618">
        <ele>92.3</ele>
        <time>2013-09-03T19:33:15.503Z</time>
      </trkpt>
      <trkpt lat="48.86544" lon="2.35606">
        <ele>92.5</ele>
        <time>2013-09-03T19:33:18.604Z</time>
      </trkpt>
      <trkpt lat="48.86543" lon="2.35602">
        <ele>92.3</ele>
        <time>2013-09-03T19:33:19.585Z</time>
      </trkpt>
      <trkpt lat="48.8654" lon="2.35592">
        <ele>92.2</ele>
        <time>2013-09-03T19:33:21.513Z</time>
      </trkpt>
      <trkpt lat="48.86538" lon="2.35587">
        <ele>90.4</ele>
        <time>2013-09-03T19:33:22.481Z</time>
      </trkpt>
      <trkpt lat="48.86533" lon="2.35578">
        <ele>89.7</ele>
        <time>2013-09-03T19:33:24.476Z</time>
      </trkpt>
      <trkpt lat="48.8653" lon="2.35575">
        <ele>89.4</ele>
        <time>2013-09-03T19:33:25.472Z</time>
      </trkpt>
      <trkpt lat="48.86526" lon="2.35571">
        <ele>92.3</ele>
        <time>2013-09-03T19:33:26.477Z</time>
      </trkpt>
      <trkpt lat="48.86521" lon="2.35567">
        <ele>91</ele>
        <time>2013-09-03T19:33:27.522Z</time>
      </trkpt>
      <trkpt lat="48.86516" lon="2.35565">
        <ele>90.7</ele>
        <time>2013-09-03T19:33:28.524Z</time>
      </trkpt>
      <trkpt lat="48.8651" lon="2.35562">
        <ele>91.2</ele>
        <time>2013-09-03T19:33:29.479Z</time>
      </trkpt>
      <trkpt lat="48.86504" lon="2.35561">
        <ele>92.1</ele>
        <time>2013-09-03T19:33:30.494Z</time>
      </trkpt>
      <trkpt lat="48.86498" lon="2.35559">
        <ele>92.4</ele>
        <time>2013-09-03T19:33:31.503Z</time>
      </trkpt>
      <trkpt lat="48.86493" lon="2.35558">
        <ele>92.7</ele>
        <time>2013-09-03T19:33:32.610Z</time>
      </trkpt>
      <trkpt lat="48.86488" lon="2.35556">
        <ele>92.8</ele>
        <time>2013-09-03T19:33:33.580Z</time>
      </trkpt>
      <trkpt lat="48.86479" lon="2.35554">
        <ele>95.1</ele>
        <time>2013-09-03T19:33:35.448Z</time>
      </trkpt>
      <trkpt lat="48.8645" lon="2.35541">
        <ele>92.5</ele>
        <time>2013-09-03T19:33:41.409Z</time>
      </trkpt>
      <trkpt lat="48.86444" lon="2.35537">
        <ele>92.7</ele>
        <time>2013-09-03T19:33:42.467Z</time>
      </trkpt>
      <trkpt lat="48.86436" lon="2.35535">
        <ele>91.1</ele>
        <time>2013-09-03T19:33:43.473Z</time>
      </trkpt>
      <trkpt lat="48.8643" lon="2.35533">
        <ele>91.5</ele>
        <time>2013-09-03T19:33:44.460Z</time>
      </trkpt>
      <trkpt lat="48.86424" lon="2.3553">
        <ele>91.8</ele>
        <time>2013-09-03T19:33:45.467Z</time>
      </trkpt>
      <trkpt lat="48.8642" lon="2.35528">
        <ele>91.5</ele>
        <time>2013-09-03T19:33:46.467Z</time>
      </trkpt>
      <trkpt lat="48.86415" lon="2.35526">
        <ele>92</ele>
        <time>2013-09-03T19:33:47.486Z</time>
      </trkpt>
      <trkpt lat="48.8641" lon="2.35523">
        <ele>92</ele>
        <time>2013-09-03T19:33:48.467Z</time>
      </trkpt>
      <trkpt lat="48.86405" lon="2.35519">
        <ele>91.5</ele>
        <time>2013-09-03T19:33:49.469Z</time>
      </trkpt>
      <trkpt lat="48.864" lon="2.35515">
        <ele>91.2</ele>
        <time>2013-09-03T19:33:50.485Z</time>
      </trkpt>
      <trkpt lat="48.86395" lon="2.35512">
        <ele>91.5</ele>
        <time>2013-09-03T19:33:51.478Z</time>
      </trkpt>
      <trkpt lat="48.86389" lon="2.35509">
        <ele>91.2</ele>
        <time>2013-09-03T19:33:52.471Z</time>
      </trkpt>
      <trkpt lat="48.86383" lon="2.35506">
        <ele>90.8</ele>
        <time>2013-09-03T19:33:53.491Z</time>
      </trkpt>
      <trkpt lat="48.86378" lon="2.35503">
        <ele>90.6</ele>
        <time>2013-09-03T19:33:54.484Z</time>
      </trkpt>
      <trkpt lat="48.86373" lon="2.35499">
        <ele>90.2</ele>
        <time>2013-09-03T19:33:55.480Z</time>
      </trkpt>
      <trkpt lat="48.86365" lon="2.35495">
        <ele>89.3</ele>
        <time>2013-09-03T19:33:57.461Z</time>
      </trkpt>
      <trkpt lat="48.86361" lon="2.35494">
        <ele>89.7</ele>
        <time>2013-09-03T19:33:58.467Z</time>
      </trkpt>
      <trkpt lat="48.86354" lon="2.35489">
        <ele>90.1</ele>
        <time>2013-09-03T19:34:00.495Z</time>
      </trkpt>
      <trkpt lat="48.86349" lon="2.35486">
        <ele>91</ele>
        <time>2013-09-03T19:34:01.505Z</time>
      </trkpt>
      <trkpt lat="48.86345" lon="2.35483">
        <ele>91.1</ele>
        <time>2013-09-03T19:34:02.462Z</time>
      </trkpt>
      <trkpt lat="48.8634" lon="2.35481">
        <ele>91.6</ele>
        <time>2013-09-03T19:34:03.461Z</time>
      </trkpt>
      <trkpt lat="48.86336" lon="2.35478">
        <ele>91</ele>
        <time>2013-09-03T19:34:04.477Z</time>
      </trkpt>
      <trkpt lat="48.86331" lon="2.35476">
        <ele>91.1</ele>
        <time>2013-09-03T19:34:05.476Z</time>
      </trkpt>
      <trkpt lat="48.86327" lon="2.35473">
        <ele>91.1</ele>
        <time>2013-09-03T19:34:06.462Z</time>
      </trkpt>
      <trkpt lat="48.86322" lon="2.35471">
        <ele>91.7</ele>
        <time>2013-09-03T19:34:07.470Z</time>
      </trkpt>
      <trkpt lat="48.86315" lon="2.35468">
        <ele>89.7</ele>
        <time>2013-09-03T19:34:10.493Z</time>
      </trkpt>
      <trkpt lat="48.86313" lon="2.35465">
        <ele>88.2</ele>
        <time>2013-09-03T19:34:11.495Z</time>
      </trkpt>
      <trkpt lat="48.86308" lon="2.35462">
        <ele>88.6</ele>
        <time>2013-09-03T19:34:12.463Z</time>
      </trkpt>
      <trkpt lat="48.86303" lon="2.35459">
        <ele>88.8</ele>
        <time>2013-09-03T19:34:13.545Z</time>
      </trkpt>
      <trkpt lat="48.86298" lon="2.35456">
        <ele>88.7</ele>
        <time>2013-09-03T19:34:14.486Z</time>
      </trkpt>
      <trkpt lat="48.86292" lon="2.35453">
        <ele>88.7</ele>
        <time>2013-09-03T19:34:15.508Z</time>
      </trkpt>
      <trkpt lat="48.86285" lon="2.35451">
        <ele>88.9</ele>
        <time>2013-09-03T19:34:17.463Z</time>
      </trkpt>
      <trkpt lat="48.86282" lon="2.3545">
        <ele>89.5</ele>
        <time>2013-09-03T19:34:18.463Z</time>
      </trkpt>
      <trkpt lat="48.86274" lon="2.35447">
        <ele>92.2</ele>
        <time>2013-09-03T19:34:22.473Z</time>
      </trkpt>
      <trkpt lat="48.86272" lon="2.35445">
        <ele>92.5</ele>
        <time>2013-09-03T19:34:23.527Z</time>
      </trkpt>
      <trkpt lat="48.86265" lon="2.35441">
        <ele>96.1</ele>
        <time>2013-09-03T19:34:26.495Z</time>
      </trkpt>
      <trkpt lat="48.86263" lon="2.35438">
        <ele>96.9</ele>
        <time>2013-09-03T19:34:27.560Z</time>
      </trkpt>
      <trkpt lat="48.86257" lon="2.35434">
        <ele>93.1</ele>
        <time>2013-09-03T19:34:29.463Z</time>
      </trkpt>
      <trkpt lat="48.86254" lon="2.35431">
        <ele>92.3</ele>
        <time>2013-09-03T19:34:30.493Z</time>
      </trkpt>
      <trkpt lat="48.86245" lon="2.35427">
        <ele>90.6</ele>
        <time>2013-09-03T19:34:32.488Z</time>
      </trkpt>
      <trkpt lat="48.8624" lon="2.35424">
        <ele>91.5</ele>
        <time>2013-09-03T19:34:33.664Z</time>
      </trkpt>
      <trkpt lat="48.86236" lon="2.35422">
        <ele>91.3</ele>
        <time>2013-09-03T19:34:34.487Z</time>
      </trkpt>
      <trkpt lat="48.8623" lon="2.3542">
        <ele>91.1</ele>
        <time>2013-09-03T19:34:35.648Z</time>
      </trkpt>
      <trkpt lat="48.86225" lon="2.35417">
        <ele>92</ele>
        <time>2013-09-03T19:34:36.471Z</time>
      </trkpt>
      <trkpt lat="48.86219" lon="2.35414">
        <ele>91.8</ele>
        <time>2013-09-03T19:34:37.574Z</time>
      </trkpt>
      <trkpt lat="48.86213" lon="2.35411">
        <ele>91.5</ele>
        <time>2013-09-03T19:34:38.607Z</time>
      </trkpt>
      <trkpt lat="48.86209" lon="2.35409">
        <ele>92.3</ele>
        <time>2013-09-03T19:34:39.545Z</time>
      </trkpt>
      <trkpt lat="48.86204" lon="2.35406">
        <ele>92</ele>
        <time>2013-09-03T19:34:40.642Z</time>
      </trkpt>
      <trkpt lat="48.862" lon="2.35404">
        <ele>91.7</ele>
        <time>2013-09-03T19:34:41.519Z</time>
      </trkpt>
      <trkpt lat="48.86196" lon="2.35401">
        <ele>91.6</ele>
        <time>2013-09-03T19:34:42.482Z</time>
      </trkpt>
      <trkpt lat="48.86191" lon="2.35398">
        <ele>91.5</ele>
        <time>2013-09-03T19:34:43.499Z</time>
      </trkpt>
      <trkpt lat="48.86186" lon="2.35395">
        <ele>91.3</ele>
        <time>2013-09-03T19:34:44.465Z</time>
      </trkpt>
      <trkpt lat="48.86181" lon="2.35391">
        <ele>91.7</ele>
        <time>2013-09-03T19:34:45.472Z</time>
      </trkpt>
      <trkpt lat="48.86176" lon="2.35389">
        <ele>91.5</ele>
        <time>2013-09-03T19:34:46.473Z</time>
      </trkpt>
      <trkpt lat="48.86172" lon="2.35387">
        <ele>91</ele>
        <time>2013-09-03T19:34:47.545Z</time>
      </trkpt>
      <trkpt lat="48.86164" lon="2.35382">
        <ele>89.5</ele>
        <time>2013-09-03T19:34:49.488Z</time>
      </trkpt>
      <trkpt lat="48.86159" lon="2.35379">
        <ele>89.4</ele>
        <time>2013-09-03T19:34:50.472Z</time>
      </trkpt>
      <trkpt lat="48.86155" lon="2.35378">
        <ele>88</ele>
        <time>2013-09-03T19:34:51.482Z</time>
      </trkpt>
      <trkpt lat="48.8615" lon="2.35378">
        <ele>86.6</ele>
        <time>2013-09-03T19:34:52.527Z</time>
      </trkpt>
      <trkpt lat="48.86144" lon="2.35377">
        <ele>86.7</ele>
        <time>2013-09-03T19:34:53.577Z</time>
      </trkpt>
      <trkpt lat="48.86138" lon="2.35376">
        <ele>87.4</ele>
        <time>2013-09-03T19:34:54.553Z</time>
      </trkpt>
      <trkpt lat="48.86133" lon="2.35376">
        <ele>87.7</ele>
        <time>2013-09-03T19:34:55.531Z</time>
      </trkpt>
      <trkpt lat="48.86128" lon="2.35373">
        <ele>87.4</ele>
        <time>2013-09-03T19:34:56.503Z</time>
      </trkpt>
      <trkpt lat="48.86123" lon="2.35369">
        <ele>88.5</ele>
        <time>2013-09-03T19:34:57.475Z</time>
      </trkpt>
      <trkpt lat="48.86118" lon="2.35365">
        <ele>89.7</ele>
        <time>2013-09-03T19:34:58.482Z</time>
      </trkpt>
      <trkpt lat="48.86113" lon="2.35361">
        <ele>90.9</ele>
        <time>2013-09-03T19:34:59.522Z</time>
      </trkpt>
      <trkpt lat="48.86107" lon="2.35355">
        <ele>92.4</ele>
        <time>2013-09-03T19:35:00.586Z</time>
      </trkpt>
      <trkpt lat="48.86102" lon="2.3535">
        <ele>93.9</ele>
        <time>2013-09-03T19:35:01.598Z</time>
      </trkpt>
      <trkpt lat="48.86097" lon="2.35345">
        <ele>95.5</ele>
        <time>2013-09-03T19:35:02.586Z</time>
      </trkpt>
      <trkpt lat="48.86091" lon="2.35339">
        <ele>95.7</ele>
        <time>2013-09-03T19:35:03.560Z</time>
      </trkpt>
      <trkpt lat="48.86085" lon="2.35335">
        <ele>98.1</ele>
        <time>2013-09-03T19:35:04.512Z</time>
      </trkpt>
      <trkpt lat="48.8608" lon="2.35331">
        <ele>99.1</ele>
        <time>2013-09-03T19:35:05.515Z</time>
      </trkpt>
      <trkpt lat="48.86074" lon="2.35328">
        <ele>99.2</ele>
        <time>2013-09-03T19:35:06.504Z</time>
      </trkpt>
      <trkpt lat="48.86069" lon="2.35324">
        <ele>98.9</ele>
        <time>2013-09-03T19:35:07.475Z</time>
      </trkpt>
      <trkpt lat="48.86064" lon="2.35321">
        <ele>100.1</ele>
        <time>2013-09-03T19:35:08.544Z</time>
      </trkpt>
      <trkpt lat="48.86059" lon="2.35318">
        <ele>99.4</ele>
        <time>2013-09-03T19:35:09.594Z</time>
      </trkpt>
      <trkpt lat="48.86054" lon="2.35315">
        <ele>99.8</ele>
        <time>2013-09-03T19:35:10.574Z</time>
      </trkpt>
      <trkpt lat="48.86049" lon="2.35312">
        <ele>101</ele>
        <time>2013-09-03T19:35:11.554Z</time>
      </trkpt>
      <trkpt lat="48.86043" lon="2.35308">
        <ele>101.6</ele>
        <time>2013-09-03T19:35:12.571Z</time>
      </trkpt>
      <trkpt lat="48.86037" lon="2.35304">
        <ele>101.2</ele>
        <time>2013-09-03T19:35:13.475Z</time>
      </trkpt>
      <trkpt lat="48.86031" lon="2.35299">
        <ele>102.2</ele>
        <time>2013-09-03T19:35:14.484Z</time>
      </trkpt>
      <trkpt lat="48.86025" lon="2.35293">
        <ele>102.6</ele>
        <time>2013-09-03T19:35:15.475Z</time>
      </trkpt>
      <trkpt lat="48.86019" lon="2.3529">
        <ele>102.4</ele>
        <time>2013-09-03T19:35:16.627Z</time>
      </trkpt>
      <trkpt lat="48.86014" lon="2.35288">
        <ele>103.1</ele>
        <time>2013-09-03T19:35:17.657Z</time>
      </trkpt>
      <trkpt lat="48.86009" lon="2.35286">
        <ele>103.2</ele>
        <time>2013-09-03T19:35:18.549Z</time>
      </trkpt>
      <trkpt lat="48.86003" lon="2.35283">
        <ele>103.9</ele>
        <time>2013-09-03T19:35:19.553Z</time>
      </trkpt>
      <trkpt lat="48.85997" lon="2.35282">
        <ele>104.9</ele>
        <time>2013-09-03T19:35:20.500Z</time>
      </trkpt>
      <trkpt lat="48.85992" lon="2.3528">
        <ele>105.1</ele>
        <time>2013-09-03T19:35:21.475Z</time>
      </trkpt>
      <trkpt lat="48.85986" lon="2.35278">
        <ele>105.2</ele>
        <time>2013-09-03T19:35:22.483Z</time>
      </trkpt>
      <trkpt lat="48.85981" lon="2.35275">
        <ele>104.6</ele>
        <time>2013-09-03T19:35:23.497Z</time>
      </trkpt>
      <trkpt lat="48.85975" lon="2.35273">
        <ele>105</ele>
        <time>2013-09-03T19:35:24.586Z</time>
      </trkpt>
      <trkpt lat="48.8597" lon="2.3527">
        <ele>104.8</ele>
        <time>2013-09-03T19:35:25.587Z</time>
      </trkpt>
      <trkpt lat="48.85966" lon="2.35266">
        <ele>105.5</ele>
        <time>2013-09-03T19:35:26.581Z</time>
      </trkpt>
      <trkpt lat="48.85959" lon="2.35259">
        <ele>108.5</ele>
        <time>2013-09-03T19:35:28.522Z</time>
      </trkpt>
      <trkpt lat="48.85956" lon="2.35257">
        <ele>109.6</ele>
        <time>2013-09-03T19:35:29.475Z</time>
      </trkpt>
      <trkpt lat="48.85953" lon="2.35248">
        <ele>110.4</ele>
        <time>2013-09-03T19:35:32.597Z</time>
      </trkpt>
      <trkpt lat="48.85952" lon="2.35243">
        <ele>109.9</ele>
        <time>2013-09-03T19:35:33.675Z</time>
      </trkpt>
      <trkpt lat="48.85952" lon="2.35238">
        <ele>113.6</ele>
        <time>2013-09-03T19:35:38.485Z</time>
      </trkpt>
      <trkpt lat="48.85952" lon="2.35239">
        <ele>114.5</ele>
        <time>2013-09-03T19:35:39.479Z</time>
      </trkpt>
      <trkpt lat="48.85952" lon="2.35241">
        <ele>113.7</ele>
        <time>2013-09-03T19:35:40.554Z</time>
      </trkpt>
      <trkpt lat="48.85957" lon="2.35232">
        <ele>106.5</ele>
        <time>2013-09-03T19:35:52.517Z</time>
      </trkpt>
      <trkpt lat="48.85959" lon="2.35229">
        <ele>107</ele>
        <time>2013-09-03T19:35:53.480Z</time>
      </trkpt>
      <trkpt lat="48.85963" lon="2.35217">
        <ele>104.9</ele>
        <time>2013-09-03T19:35:56.597Z</time>
      </trkpt>
      <trkpt lat="48.85965" lon="2.35212">
        <ele>102.4</ele>
        <time>2013-09-03T19:35:57.605Z</time>
      </trkpt>
      <trkpt lat="48.85968" lon="2.35203">
        <ele>100</ele>
        <time>2013-09-03T19:35:59.525Z</time>
      </trkpt>
      <trkpt lat="48.8597" lon="2.35199">
        <ele>99.6</ele>
        <time>2013-09-03T19:36:00.495Z</time>
      </trkpt>
      <trkpt lat="48.85974" lon="2.35187">
        <ele>99.4</ele>
        <time>2013-09-03T19:36:03.488Z</time>
      </trkpt>
      <trkpt lat="48.85975" lon="2.35183">
        <ele>99.5</ele>
        <time>2013-09-03T19:36:04.551Z</time>
      </trkpt>
      <trkpt lat="48.85977" lon="2.35171">
        <ele>97</ele>
        <time>2013-09-03T19:36:07.528Z</time>
      </trkpt>
      <trkpt lat="48.85978" lon="2.35168">
        <ele>97.1</ele>
        <time>2013-09-03T19:36:08.493Z</time>
      </trkpt>
      <trkpt lat="48.85982" lon="2.35159">
        <ele>95.3</ele>
        <time>2013-09-03T19:36:11.496Z</time>
      </trkpt>
      <trkpt lat="48.85983" lon="2.35156">
        <ele>94.9</ele>
        <time>2013-09-03T19:36:12.543Z</time>
      </trkpt>
      <trkpt lat="48.85987" lon="2.35147">
        <ele>90.1</ele>
        <time>2013-09-03T19:36:15.537Z</time>
      </trkpt>
      <trkpt lat="48.85988" lon="2.35144">
        <ele>92.9</ele>
        <time>2013-09-03T19:36:16.495Z</time>
      </trkpt>
      <trkpt lat="48.85995" lon="2.35137">
        <ele>96.2</ele>
        <time>2013-09-03T19:36:21.562Z</time>
      </trkpt>
      <trkpt lat="48.85996" lon="2.35135">
        <ele>95.9</ele>
        <time>2013-09-03T19:36:22.557Z</time>
      </trkpt>
      <trkpt lat="48.85997" lon="2.35125">
        <ele>97.4</ele>
        <time>2013-09-03T19:36:25.488Z</time>
      </trkpt>
      <trkpt lat="48.85998" lon="2.3512">
        <ele>96.9</ele>
        <time>2013-09-03T19:36:26.488Z</time>
      </trkpt>
      <trkpt lat="48.86" lon="2.35109">
        <ele>94.2</ele>
        <time>2013-09-03T19:36:29.585Z</time>
      </trkpt>
      <trkpt lat="48.86001" lon="2.35105">
        <ele>93.4</ele>
        <time>2013-09-03T19:36:30.570Z</time>
      </trkpt>
      <trkpt lat="48.86005" lon="2.35095">
        <ele>94.3</ele>
        <time>2013-09-03T19:36:33.496Z</time>
      </trkpt>
      <trkpt lat="48.86006" lon="2.35091">
        <ele>94.6</ele>
        <time>2013-09-03T19:36:34.489Z</time>
      </trkpt>
      <trkpt lat="48.86011" lon="2.35083">
        <ele>96.1</ele>
        <time>2013-09-03T19:36:36.562Z</time>
      </trkpt>
      <trkpt lat="48.86013" lon="2.35079">
        <ele>96.6</ele>
        <time>2013-09-03T19:36:37.652Z</time>
      </trkpt>
      <trkpt lat="48.86016" lon="2.3507">
        <ele>96.6</ele>
        <time>2013-09-03T19:36:39.528Z</time>
      </trkpt>
      <trkpt lat="48.86018" lon="2.35065">
        <ele>96.4</ele>
        <time>2013-09-03T19:36:40.503Z</time>
      </trkpt>
      <trkpt lat="48.8602" lon="2.35055">
        <ele>96.4</ele>
        <time>2013-09-03T19:36:42.498Z</time>
      </trkpt>
      <trkpt lat="48.8602" lon="2.3505">
        <ele>96.1</ele>
        <time>2013-09-03T19:36:43.482Z</time>
      </trkpt>
      <trkpt lat="48.86022" lon="2.35041">
        <ele>96</ele>
        <time>2013-09-03T19:36:45.577Z</time>
      </trkpt>
      <trkpt lat="48.86023" lon="2.35036">
        <ele>96.3</ele>
        <time>2013-09-03T19:36:46.552Z</time>
      </trkpt>
      <trkpt lat="48.86026" lon="2.35028">
        <ele>97.4</ele>
        <time>2013-09-03T19:36:48.505Z</time>
      </trkpt>
      <trkpt lat="48.86028" lon="2.35024">
        <ele>98.2</ele>
        <time>2013-09-03T19:36:49.498Z</time>
      </trkpt>
      <trkpt lat="48.86035" lon="2.35017">
        <ele>98.1</ele>
        <time>2013-09-03T19:36:52.545Z</time>
      </trkpt>
      <trkpt lat="48.86038" lon="2.35017">
        <ele>98.3</ele>
        <time>2013-09-03T19:36:53.581Z</time>
      </trkpt>
      <trkpt lat="48.86044" lon="2.3502">
        <ele>99.2</ele>
        <time>2013-09-03T19:36:55.531Z</time>
      </trkpt>
      <trkpt lat="48.86046" lon="2.35022">
        <ele>100.8</ele>
        <time>2013-09-03T19:36:56.498Z</time>
      </trkpt>
      <trkpt lat="48.86051" lon="2.35028">
        <ele>101.2</ele>
        <time>2013-09-03T19:36:58.499Z</time>
      </trkpt>
      <trkpt lat="48.86053" lon="2.35031">
        <ele>101.3</ele>
        <time>2013-09-03T19:36:59.484Z</time>
      </trkpt>
      <trkpt lat="48.8606" lon="2.35038">
        <ele>100.3</ele>
        <time>2013-09-03T19:37:02.564Z</time>
      </trkpt>
      <trkpt lat="48.86062" lon="2.35039">
        <ele>99.7</ele>
        <time>2013-09-03T19:37:03.506Z</time>
      </trkpt>
      <trkpt lat="48.8607" lon="2.35042">
        <ele>100.4</ele>
        <time>2013-09-03T19:37:06.483Z</time>
      </trkpt>
      <trkpt lat="48.86072" lon="2.35043">
        <ele>100.9</ele>
        <time>2013-09-03T19:37:07.500Z</time>
      </trkpt>
      <trkpt lat="48.86078" lon="2.35044">
        <ele>99.5</ele>
        <time>2013-09-03T19:37:09.542Z</time>
      </trkpt>
      <trkpt lat="48.86081" lon="2.35046">
        <ele>99.5</ele>
        <time>2013-09-03T19:37:10.554Z</time>
      </trkpt>
      <trkpt lat="48.86087" lon="2.35049">
        <ele>99.9</ele>
        <time>2013-09-03T19:37:12.483Z</time>
      </trkpt>
      <trkpt lat="48.86091" lon="2.35051">
        <ele>100.6</ele>
        <time>2013-09-03T19:37:13.563Z</time>
      </trkpt>
      <trkpt lat="48.86097" lon="2.35056">
        <ele>100.7</ele>
        <time>2013-09-03T19:37:15.533Z</time>
      </trkpt>
      <trkpt lat="48.861" lon="2.35059">
        <ele>100.4</ele>
        <time>2013-09-03T19:37:16.558Z</time>
      </trkpt>
      <trkpt lat="48.86106" lon="2.35063">
        <ele>101.3</ele>
        <time>2013-09-03T19:37:18.525Z</time>
      </trkpt>
      <trkpt lat="48.86109" lon="2.35064">
        <ele>101.3</ele>
        <time>2013-09-03T19:37:19.518Z</time>
      </trkpt>
      <trkpt lat="48.86117" lon="2.35066">
        <ele>101.8</ele>
        <time>2013-09-03T19:37:22.485Z</time>
      </trkpt>
      <trkpt lat="48.8612" lon="2.35066">
        <ele>102.7</ele>
        <time>2013-09-03T19:37:23.486Z</time>
      </trkpt>
      <trkpt lat="48.86127" lon="2.35067">
        <ele>102.2</ele>
        <time>2013-09-03T19:37:26.549Z</time>
      </trkpt>
      <trkpt lat="48.86129" lon="2.35068">
        <ele>101.7</ele>
        <time>2013-09-03T19:37:27.509Z</time>
      </trkpt>
      <trkpt lat="48.86136" lon="2.35072">
        <ele>102</ele>
        <time>2013-09-03T19:37:30.493Z</time>
      </trkpt>
      <trkpt lat="48.86139" lon="2.35073">
        <ele>102.4</ele>
        <time>2013-09-03T19:37:31.559Z</time>
      </trkpt>
      <trkpt lat="48.86146" lon="2.35079">
        <ele>102.5</ele>
        <time>2013-09-03T19:37:34.578Z</time>
      </trkpt>
      <trkpt lat="48.86148" lon="2.3508">
        <ele>102.8</ele>
        <time>2013-09-03T19:37:35.511Z</time>
      </trkpt>
      <trkpt lat="48.86156" lon="2.35075">
        <ele>97.1</ele>
        <time>2013-09-03T19:37:40.558Z</time>
      </trkpt>
      <trkpt lat="48.86157" lon="2.35073">
        <ele>95.5</ele>
        <time>2013-09-03T19:37:41.598Z</time>
      </trkpt>
      <trkpt lat="48.86163" lon="2.35064">
        <ele>101.6</ele>
        <time>2013-09-03T19:37:50.552Z</time>
      </trkpt>
      <trkpt lat="48.86164" lon="2.35064">
        <ele>102.2</ele>
        <time>2013-09-03T19:37:51.573Z</time>
      </trkpt>
      <trkpt lat="48.86164" lon="2.35065">
        <ele>102.4</ele>
        <time>2013-09-03T19:37:55.487Z</time>
      </trkpt>
      <trkpt lat="48.86164" lon="2.35065">
        <ele>102.5</ele>
        <time>2013-09-03T19:37:56.535Z</time>
      </trkpt>
      <trkpt lat="48.86164" lon="2.35066">
        <ele>102.7</ele>
        <time>2013-09-03T19:37:58.552Z</time>
      </trkpt>
      <trkpt lat="48.86164" lon="2.35066">
        <ele>102.5</ele>
        <time>2013-09-03T19:37:59.522Z</time>
      </trkpt>
      <trkpt lat="48.86164" lon="2.35068">
        <ele>102.4</ele>
        <time>2013-09-03T19:38:04.542Z</time>
      </trkpt>
      <trkpt lat="48.86164" lon="2.35068">
        <ele>102.3</ele>
        <time>2013-09-03T19:38:05.593Z</time>
      </trkpt>
      <trkpt lat="48.86165" lon="2.35068">
        <ele>102.2</ele>
        <time>2013-09-03T19:38:37.497Z</time>
      </trkpt>
      <trkpt lat="48.86166" lon="2.35069">
        <ele>101.5</ele>
        <time>2013-09-03T19:38:38.611Z</time>
      </trkpt>
      <trkpt lat="48.86173" lon="2.35075">
        <ele>103</ele>
        <time>2013-09-03T19:38:42.491Z</time>
      </trkpt>
      <trkpt lat="48.86175" lon="2.35076">
        <ele>103.7</ele>
        <time>2013-09-03T19:38:43.498Z</time>
      </trkpt>
      <trkpt lat="48.86181" lon="2.35079">
        <ele>105</ele>
        <time>2013-09-03T19:38:45.525Z</time>
      </trkpt>
      <trkpt lat="48.86184" lon="2.3508">
        <ele>105.3</ele>
        <time>2013-09-03T19:38:46.493Z</time>
      </trkpt>
      <trkpt lat="48.86192" lon="2.35083">
        <ele>106.2</ele>
        <time>2013-09-03T19:38:48.513Z</time>
      </trkpt>
      <trkpt lat="48.86197" lon="2.35084">
        <ele>107.5</ele>
        <time>2013-09-03T19:38:49.505Z</time>
      </trkpt>
      <trkpt lat="48.86206" lon="2.35086">
        <ele>107.2</ele>
        <time>2013-09-03T19:38:51.572Z</time>
      </trkpt>
      <trkpt lat="48.86209" lon="2.35087">
        <ele>106.8</ele>
        <time>2013-09-03T19:38:52.561Z</time>
      </trkpt>
      <trkpt lat="48.86217" lon="2.35088">
        <ele>107</ele>
        <time>2013-09-03T19:38:54.516Z</time>
      </trkpt>
      <trkpt lat="48.8622" lon="2.3509">
        <ele>105.9</ele>
        <time>2013-09-03T19:38:55.509Z</time>
      </trkpt>
      <trkpt lat="48.86227" lon="2.35095">
        <ele>105.7</ele>
        <time>2013-09-03T19:38:57.482Z</time>
      </trkpt>
      <trkpt lat="48.8623" lon="2.35098">
        <ele>107.1</ele>
        <time>2013-09-03T19:38:58.501Z</time>
      </trkpt>
      <trkpt lat="48.86237" lon="2.35103">
        <ele>108</ele>
        <time>2013-09-03T19:39:00.511Z</time>
      </trkpt>
      <trkpt lat="48.8624" lon="2.35106">
        <ele>108.1</ele>
        <time>2013-09-03T19:39:01.561Z</time>
      </trkpt>
      <trkpt lat="48.86248" lon="2.3511">
        <ele>108.2</ele>
        <time>2013-09-03T19:39:03.579Z</time>
      </trkpt>
      <trkpt lat="48.86252" lon="2.35112">
        <ele>108.5</ele>
        <time>2013-09-03T19:39:04.508Z</time>
      </trkpt>
      <trkpt lat="48.86257" lon="2.35114">
        <ele>108.1</ele>
        <time>2013-09-03T19:39:05.590Z</time>
      </trkpt>
      <trkpt lat="48.86261" lon="2.35116">
        <ele>109.3</ele>
        <time>2013-09-03T19:39:06.632Z</time>
      </trkpt>
      <trkpt lat="48.86269" lon="2.35119">
        <ele>108.3</ele>
        <time>2013-09-03T19:39:08.508Z</time>
      </trkpt>
      <trkpt lat="48.86272" lon="2.3512">
        <ele>107.4</ele>
        <time>2013-09-03T19:39:09.581Z</time>
      </trkpt>
      <trkpt lat="48.86279" lon="2.35122">
        <ele>107.5</ele>
        <time>2013-09-03T19:39:11.533Z</time>
      </trkpt>
      <trkpt lat="48.86282" lon="2.35124">
        <ele>107.8</ele>
        <time>2013-09-03T19:39:12.590Z</time>
      </trkpt>
      <trkpt lat="48.86289" lon="2.35129">
        <ele>108.5</ele>
        <time>2013-09-03T19:39:14.565Z</time>
      </trkpt>
      <trkpt lat="48.86292" lon="2.3513">
        <ele>108.6</ele>
        <time>2013-09-03T19:39:15.502Z</time>
      </trkpt>
      <trkpt lat="48.86299" lon="2.35132">
        <ele>104.9</ele>
        <time>2013-09-03T19:39:17.692Z</time>
      </trkpt>
      <trkpt lat="48.86302" lon="2.35132">
        <ele>104.2</ele>
        <time>2013-09-03T19:39:18.574Z</time>
      </trkpt>
      <trkpt lat="48.8631" lon="2.35129">
        <ele>100.3</ele>
        <time>2013-09-03T19:39:20.503Z</time>
      </trkpt>
      <trkpt lat="48.86314" lon="2.35125">
        <ele>97.1</ele>
        <time>2013-09-03T19:39:21.623Z</time>
      </trkpt>
      <trkpt lat="48.86319" lon="2.35116">
        <ele>93.6</ele>
        <time>2013-09-03T19:39:23.632Z</time>
      </trkpt>
      <trkpt lat="48.8632" lon="2.35111">
        <ele>92.5</ele>
        <time>2013-09-03T19:39:24.575Z</time>
      </trkpt>
      <trkpt lat="48.86323" lon="2.351">
        <ele>89.4</ele>
        <time>2013-09-03T19:39:26.637Z</time>
      </trkpt>
      <trkpt lat="48.86324" lon="2.35097">
        <ele>92.1</ele>
        <time>2013-09-03T19:39:27.535Z</time>
      </trkpt>
      <trkpt lat="48.86332" lon="2.3509">
        <ele>86.1</ele>
        <time>2013-09-03T19:39:43.551Z</time>
      </trkpt>
      <trkpt lat="48.86334" lon="2.35087">
        <ele>86</ele>
        <time>2013-09-03T19:39:44.615Z</time>
      </trkpt>
      <trkpt lat="48.86338" lon="2.35079">
        <ele>84.1</ele>
        <time>2013-09-03T19:39:46.654Z</time>
      </trkpt>
      <trkpt lat="48.8634" lon="2.35075">
        <ele>83.7</ele>
        <time>2013-09-03T19:39:47.503Z</time>
      </trkpt>
      <trkpt lat="48.86343" lon="2.35069">
        <ele>83.2</ele>
        <time>2013-09-03T19:39:48.494Z</time>
      </trkpt>
      <trkpt lat="48.86345" lon="2.35062">
        <ele>85.4</ele>
        <time>2013-09-03T19:39:49.662Z</time>
      </trkpt>
      <trkpt lat="48.86349" lon="2.35055">
        <ele>85.8</ele>
        <time>2013-09-03T19:39:50.582Z</time>
      </trkpt>
      <trkpt lat="48.86352" lon="2.35046">
        <ele>85.2</ele>
        <time>2013-09-03T19:39:51.753Z</time>
      </trkpt>
      <trkpt lat="48.86354" lon="2.3504">
        <ele>84.7</ele>
        <time>2013-09-03T19:39:52.513Z</time>
      </trkpt>
      <trkpt lat="48.86355" lon="2.35031">
        <ele>84</ele>
        <time>2013-09-03T19:39:53.695Z</time>
      </trkpt>
      <trkpt lat="48.86357" lon="2.35024">
        <ele>83.9</ele>
        <time>2013-09-03T19:39:54.513Z</time>
      </trkpt>
      <trkpt lat="48.86359" lon="2.35016">
        <ele>82.9</ele>
        <time>2013-09-03T19:39:55.673Z</time>
      </trkpt>
      <trkpt lat="48.8636" lon="2.35008">
        <ele>83.3</ele>
        <time>2013-09-03T19:39:56.585Z</time>
      </trkpt>
      <trkpt lat="48.86361" lon="2.34999">
        <ele>83</ele>
        <time>2013-09-03T19:39:57.615Z</time>
      </trkpt>
      <trkpt lat="48.86363" lon="2.34991">
        <ele>83.3</ele>
        <time>2013-09-03T19:39:58.648Z</time>
      </trkpt>
      <trkpt lat="48.86365" lon="2.34984">
        <ele>83.6</ele>
        <time>2013-09-03T19:39:59.561Z</time>
      </trkpt>
      <trkpt lat="48.86368" lon="2.34976">
        <ele>83.1</ele>
        <time>2013-09-03T19:40:00.498Z</time>
      </trkpt>
      <trkpt lat="48.8637" lon="2.34968">
        <ele>81.6</ele>
        <time>2013-09-03T19:40:01.505Z</time>
      </trkpt>
      <trkpt lat="48.86373" lon="2.3496">
        <ele>80</ele>
        <time>2013-09-03T19:40:02.513Z</time>
      </trkpt>
      <trkpt lat="48.86376" lon="2.34953">
        <ele>80.3</ele>
        <time>2013-09-03T19:40:03.524Z</time>
      </trkpt>
      <trkpt lat="48.86377" lon="2.34946">
        <ele>80.5</ele>
        <time>2013-09-03T19:40:04.533Z</time>
      </trkpt>
      <trkpt lat="48.86378" lon="2.3494">
        <ele>80.5</ele>
        <time>2013-09-03T19:40:05.515Z</time>
      </trkpt>
      <trkpt lat="48.8638" lon="2.34927">
        <ele>82.1</ele>
        <time>2013-09-03T19:40:08.602Z</time>
      </trkpt>
      <trkpt lat="48.86381" lon="2.34925">
        <ele>81.4</ele>
        <time>2013-09-03T19:40:09.667Z</time>
      </trkpt>
      <trkpt lat="48.86384" lon="2.34918">
        <ele>79.9</ele>
        <time>2013-09-03T19:40:27.580Z</time>
      </trkpt>
      <trkpt lat="48.86384" lon="2.34918">
        <ele>79.9</ele>
        <time>2013-09-03T19:40:28.684Z</time>
      </trkpt>
      <trkpt lat="48.86384" lon="2.34918">
        <ele>80.1</ele>
        <time>2013-09-03T19:40:29.565Z</time>
      </trkpt>
      <trkpt lat="48.86385" lon="2.34916">
        <ele>82.5</ele>
        <time>2013-09-03T19:40:30.737Z</time>
      </trkpt>
      <trkpt lat="48.86386" lon="2.34907">
        <ele>83</ele>
        <time>2013-09-03T19:40:33.603Z</time>
      </trkpt>
      <trkpt lat="48.86387" lon="2.34899">
        <ele>82.7</ele>
        <time>2013-09-03T19:40:34.595Z</time>
      </trkpt>
      <trkpt lat="48.86389" lon="2.3489">
        <ele>82.4</ele>
        <time>2013-09-03T19:40:36.556Z</time>
      </trkpt>
      <trkpt lat="48.8639" lon="2.34884">
        <ele>83.6</ele>
        <time>2013-09-03T19:40:37.753Z</time>
      </trkpt>
      <trkpt lat="48.86392" lon="2.34872">
        <ele>83.9</ele>
        <time>2013-09-03T19:40:39.713Z</time>
      </trkpt>
      <trkpt lat="48.86394" lon="2.34866">
        <ele>85.5</ele>
        <time>2013-09-03T19:40:40.502Z</time>
      </trkpt>
      <trkpt lat="48.86395" lon="2.34859">
        <ele>85.8</ele>
        <time>2013-09-03T19:40:41.507Z</time>
      </trkpt>
      <trkpt lat="48.86396" lon="2.34852">
        <ele>86.2</ele>
        <time>2013-09-03T19:40:42.675Z</time>
      </trkpt>
      <trkpt lat="48.86397" lon="2.34844">
        <ele>86</ele>
        <time>2013-09-03T19:40:43.578Z</time>
      </trkpt>
      <trkpt lat="48.86399" lon="2.34836">
        <ele>85.4</ele>
        <time>2013-09-03T19:40:44.671Z</time>
      </trkpt>
      <trkpt lat="48.86401" lon="2.34829">
        <ele>85.9</ele>
        <time>2013-09-03T19:40:45.508Z</time>
      </trkpt>
      <trkpt lat="48.86403" lon="2.34821">
        <ele>85.7</ele>
        <time>2013-09-03T19:40:46.668Z</time>
      </trkpt>
      <trkpt lat="48.86405" lon="2.34815">
        <ele>85.6</ele>
        <time>2013-09-03T19:40:47.511Z</time>
      </trkpt>
      <trkpt lat="48.86407" lon="2.34808">
        <ele>85.2</ele>
        <time>2013-09-03T19:40:48.628Z</time>
      </trkpt>
      <trkpt lat="48.86409" lon="2.34802">
        <ele>85.1</ele>
        <time>2013-09-03T19:40:49.581Z</time>
      </trkpt>
      <trkpt lat="48.8641" lon="2.34794">
        <ele>86</ele>
        <time>2013-09-03T19:40:50.596Z</time>
      </trkpt>
      <trkpt lat="48.86411" lon="2.34785">
        <ele>86.3</ele>
        <time>2013-09-03T19:40:51.660Z</time>
      </trkpt>
      <trkpt lat="48.86413" lon="2.34777">
        <ele>86.2</ele>
        <time>2013-09-03T19:40:52.518Z</time>
      </trkpt>
      <trkpt lat="48.86415" lon="2.34769">
        <ele>86.1</ele>
        <time>2013-09-03T19:40:53.533Z</time>
      </trkpt>
      <trkpt lat="48.86417" lon="2.34761">
        <ele>86.1</ele>
        <time>2013-09-03T19:40:54.502Z</time>
      </trkpt>
      <trkpt lat="48.86419" lon="2.34754">
        <ele>86.5</ele>
        <time>2013-09-03T19:40:55.533Z</time>
      </trkpt>
      <trkpt lat="48.86423" lon="2.34749">
        <ele>87.3</ele>
        <time>2013-09-03T19:40:56.533Z</time>
      </trkpt>
      <trkpt lat="48.86427" lon="2.34743">
        <ele>87</ele>
        <time>2013-09-03T19:40:57.510Z</time>
      </trkpt>
      <trkpt lat="48.86429" lon="2.34735">
        <ele>86.9</ele>
        <time>2013-09-03T19:40:58.694Z</time>
      </trkpt>
      <trkpt lat="48.86431" lon="2.34729">
        <ele>86.6</ele>
        <time>2013-09-03T19:40:59.558Z</time>
      </trkpt>
      <trkpt lat="48.86432" lon="2.3472">
        <ele>86.5</ele>
        <time>2013-09-03T19:41:00.645Z</time>
      </trkpt>
      <trkpt lat="48.86434" lon="2.34712">
        <ele>86.3</ele>
        <time>2013-09-03T19:41:01.523Z</time>
      </trkpt>
      <trkpt lat="48.86436" lon="2.34703">
        <ele>86.4</ele>
        <time>2013-09-03T19:41:02.644Z</time>
      </trkpt>
      <trkpt lat="48.86437" lon="2.34697">
        <ele>85.8</ele>
        <time>2013-09-03T19:41:03.517Z</time>
      </trkpt>
      <trkpt lat="48.86439" lon="2.34688">
        <ele>85.7</ele>
        <time>2013-09-03T19:41:04.645Z</time>
      </trkpt>
      <trkpt lat="48.8644" lon="2.3468">
        <ele>85.8</ele>
        <time>2013-09-03T19:41:05.597Z</time>
      </trkpt>
      <trkpt lat="48.86441" lon="2.34673">
        <ele>86.3</ele>
        <time>2013-09-03T19:41:06.612Z</time>
      </trkpt>
      <trkpt lat="48.8644" lon="2.34665">
        <ele>85.9</ele>
        <time>2013-09-03T19:41:07.517Z</time>
      </trkpt>
      <trkpt lat="48.86441" lon="2.34656">
        <ele>86.4</ele>
        <time>2013-09-03T19:41:08.517Z</time>
      </trkpt>
      <trkpt lat="48.86443" lon="2.34649">
        <ele>86.3</ele>
        <time>2013-09-03T19:41:09.671Z</time>
      </trkpt>
      <trkpt lat="48.86446" lon="2.34643">
        <ele>86</ele>
        <time>2013-09-03T19:41:10.517Z</time>
      </trkpt>
      <trkpt lat="48.86448" lon="2.34636">
        <ele>85.3</ele>
        <time>2013-09-03T19:41:11.670Z</time>
      </trkpt>
      <trkpt lat="48.8645" lon="2.34629">
        <ele>85.3</ele>
        <time>2013-09-03T19:41:12.535Z</time>
      </trkpt>
      <trkpt lat="48.86452" lon="2.34621">
        <ele>86.1</ele>
        <time>2013-09-03T19:41:13.623Z</time>
      </trkpt>
      <trkpt lat="48.86453" lon="2.34612">
        <ele>86.7</ele>
        <time>2013-09-03T19:41:14.671Z</time>
      </trkpt>
      <trkpt lat="48.86456" lon="2.34606">
        <ele>86.2</ele>
        <time>2013-09-03T19:41:15.519Z</time>
      </trkpt>
      <trkpt lat="48.86458" lon="2.34598">
        <ele>86.5</ele>
        <time>2013-09-03T19:41:16.503Z</time>
      </trkpt>
      <trkpt lat="48.8646" lon="2.34591">
        <ele>86.3</ele>
        <time>2013-09-03T19:41:17.503Z</time>
      </trkpt>
      <trkpt lat="48.86463" lon="2.34582">
        <ele>86.7</ele>
        <time>2013-09-03T19:41:18.679Z</time>
      </trkpt>
      <trkpt lat="48.86463" lon="2.34575">
        <ele>86.5</ele>
        <time>2013-09-03T19:41:19.525Z</time>
      </trkpt>
      <trkpt lat="48.86464" lon="2.34568">
        <ele>86.8</ele>
        <time>2013-09-03T19:41:20.648Z</time>
      </trkpt>
      <trkpt lat="48.86468" lon="2.34556">
        <ele>86.7</ele>
        <time>2013-09-03T19:41:22.629Z</time>
      </trkpt>
      <trkpt lat="48.86469" lon="2.34549">
        <ele>87.2</ele>
        <time>2013-09-03T19:41:23.680Z</time>
      </trkpt>
      <trkpt lat="48.86469" lon="2.3454">
        <ele>87.5</ele>
        <time>2013-09-03T19:41:24.535Z</time>
      </trkpt>
      <trkpt lat="48.86468" lon="2.34529">
        <ele>88</ele>
        <time>2013-09-03T19:41:25.519Z</time>
      </trkpt>
      <trkpt lat="48.86472" lon="2.34519">
        <ele>88.2</ele>
        <time>2013-09-03T19:41:28.582Z</time>
      </trkpt>
      <trkpt lat="48.86473" lon="2.34515">
        <ele>89.4</ele>
        <time>2013-09-03T19:41:29.640Z</time>
      </trkpt>
      <trkpt lat="48.86476" lon="2.34505">
        <ele>88.7</ele>
        <time>2013-09-03T19:41:33.528Z</time>
      </trkpt>
      <trkpt lat="48.86477" lon="2.34502">
        <ele>89.4</ele>
        <time>2013-09-03T19:41:34.732Z</time>
      </trkpt>
      <trkpt lat="48.8648" lon="2.3449">
        <ele>89.6</ele>
        <time>2013-09-03T19:41:37.505Z</time>
      </trkpt>
      <trkpt lat="48.86481" lon="2.34484">
        <ele>88.7</ele>
        <time>2013-09-03T19:41:38.520Z</time>
      </trkpt>
      <trkpt lat="48.86484" lon="2.34472">
        <ele>89</ele>
        <time>2013-09-03T19:41:40.563Z</time>
      </trkpt>
      <trkpt lat="48.86485" lon="2.34466">
        <ele>89</ele>
        <time>2013-09-03T19:41:41.514Z</time>
      </trkpt>
      <trkpt lat="48.86488" lon="2.34454">
        <ele>89.1</ele>
        <time>2013-09-03T19:41:43.545Z</time>
      </trkpt>
      <trkpt lat="48.8649" lon="2.34449">
        <ele>88.8</ele>
        <time>2013-09-03T19:41:44.513Z</time>
      </trkpt>
      <trkpt lat="48.86493" lon="2.34437">
        <ele>87.1</ele>
        <time>2013-09-03T19:41:46.505Z</time>
      </trkpt>
      <trkpt lat="48.86495" lon="2.3443">
        <ele>87.3</ele>
        <time>2013-09-03T19:41:47.513Z</time>
      </trkpt>
      <trkpt lat="48.86496" lon="2.34421">
        <ele>87.5</ele>
        <time>2013-09-03T19:41:48.512Z</time>
      </trkpt>
      <trkpt lat="48.86498" lon="2.34413">
        <ele>86.8</ele>
        <time>2013-09-03T19:41:49.513Z</time>
      </trkpt>
      <trkpt lat="48.865" lon="2.34405">
        <ele>86.5</ele>
        <time>2013-09-03T19:41:50.505Z</time>
      </trkpt>
      <trkpt lat="48.86502" lon="2.34398">
        <ele>86.9</ele>
        <time>2013-09-03T19:41:51.513Z</time>
      </trkpt>
      <trkpt lat="48.86503" lon="2.3439">
        <ele>87.3</ele>
        <time>2013-09-03T19:41:52.505Z</time>
      </trkpt>
      <trkpt lat="48.86503" lon="2.34382">
        <ele>87.4</ele>
        <time>2013-09-03T19:41:53.513Z</time>
      </trkpt>
      <trkpt lat="48.86504" lon="2.34374">
        <ele>87.3</ele>
        <time>2013-09-03T19:41:54.529Z</time>
      </trkpt>
      <trkpt lat="48.86505" lon="2.34367">
        <ele>88.4</ele>
        <time>2013-09-03T19:41:55.512Z</time>
      </trkpt>
      <trkpt lat="48.86507" lon="2.34361">
        <ele>88.4</ele>
        <time>2013-09-03T19:41:56.523Z</time>
      </trkpt>
      <trkpt lat="48.86508" lon="2.34355">
        <ele>87.9</ele>
        <time>2013-09-03T19:41:57.512Z</time>
      </trkpt>
      <trkpt lat="48.86512" lon="2.34343">
        <ele>90</ele>
        <time>2013-09-03T19:41:59.522Z</time>
      </trkpt>
      <trkpt lat="48.86515" lon="2.34338">
        <ele>91.3</ele>
        <time>2013-09-03T19:42:00.505Z</time>
      </trkpt>
      <trkpt lat="48.86518" lon="2.34328">
        <ele>89.8</ele>
        <time>2013-09-03T19:42:02.531Z</time>
      </trkpt>
      <trkpt lat="48.8652" lon="2.34325">
        <ele>88.7</ele>
        <time>2013-09-03T19:42:03.512Z</time>
      </trkpt>
      <trkpt lat="48.86526" lon="2.34315">
        <ele>84.4</ele>
        <time>2013-09-03T19:42:17.515Z</time>
      </trkpt>
      <trkpt lat="48.86527" lon="2.34316">
        <ele>84.5</ele>
        <time>2013-09-03T19:42:18.515Z</time>
      </trkpt>
      <trkpt lat="48.86533" lon="2.34306">
        <ele>85.5</ele>
        <time>2013-09-03T19:42:23.514Z</time>
      </trkpt>
      <trkpt lat="48.86534" lon="2.34302">
        <ele>84.5</ele>
        <time>2013-09-03T19:42:24.522Z</time>
      </trkpt>
      <trkpt lat="48.86536" lon="2.34292">
        <ele>85.1</ele>
        <time>2013-09-03T19:42:26.532Z</time>
      </trkpt>
      <trkpt lat="48.86537" lon="2.34287">
        <ele>85.4</ele>
        <time>2013-09-03T19:42:27.515Z</time>
      </trkpt>
      <trkpt lat="48.8654" lon="2.34276">
        <ele>85.1</ele>
        <time>2013-09-03T19:42:29.515Z</time>
      </trkpt>
      <trkpt lat="48.86542" lon="2.3427">
        <ele>84.7</ele>
        <time>2013-09-03T19:42:30.511Z</time>
      </trkpt>
      <trkpt lat="48.86544" lon="2.34259">
        <ele>85.5</ele>
        <time>2013-09-03T19:42:32.565Z</time>
      </trkpt>
      <trkpt lat="48.86545" lon="2.34253">
        <ele>86</ele>
        <time>2013-09-03T19:42:33.623Z</time>
      </trkpt>
      <trkpt lat="48.86547" lon="2.34242">
        <ele>86.1</ele>
        <time>2013-09-03T19:42:35.574Z</time>
      </trkpt>
      <trkpt lat="48.86549" lon="2.34235">
        <ele>86.2</ele>
        <time>2013-09-03T19:42:36.672Z</time>
      </trkpt>
      <trkpt lat="48.8655" lon="2.34222">
        <ele>86.5</ele>
        <time>2013-09-03T19:42:38.715Z</time>
      </trkpt>
      <trkpt lat="48.86551" lon="2.34217">
        <ele>84</ele>
        <time>2013-09-03T19:42:39.543Z</time>
      </trkpt>
      <trkpt lat="48.86554" lon="2.34205">
        <ele>82.6</ele>
        <time>2013-09-03T19:42:41.613Z</time>
      </trkpt>
      <trkpt lat="48.86556" lon="2.342">
        <ele>81</ele>
        <time>2013-09-03T19:42:42.603Z</time>
      </trkpt>
      <trkpt lat="48.86561" lon="2.34189">
        <ele>82.7</ele>
        <time>2013-09-03T19:42:44.541Z</time>
      </trkpt>
      <trkpt lat="48.86562" lon="2.34183">
        <ele>82.7</ele>
        <time>2013-09-03T19:42:45.670Z</time>
      </trkpt>
      <trkpt lat="48.86565" lon="2.34171">
        <ele>83.3</ele>
        <time>2013-09-03T19:42:47.630Z</time>
      </trkpt>
      <trkpt lat="48.86566" lon="2.34166">
        <ele>83.7</ele>
        <time>2013-09-03T19:42:48.527Z</time>
      </trkpt>
      <trkpt lat="48.86567" lon="2.34153">
        <ele>88.1</ele>
        <time>2013-09-03T19:42:51.572Z</time>
      </trkpt>
      <trkpt lat="48.86568" lon="2.34149">
        <ele>88.8</ele>
        <time>2013-09-03T19:42:52.708Z</time>
      </trkpt>
      <trkpt lat="48.86572" lon="2.3414">
        <ele>89.4</ele>
        <time>2013-09-03T19:42:55.525Z</time>
      </trkpt>
      <trkpt lat="48.86574" lon="2.34137">
        <ele>90.3</ele>
        <time>2013-09-03T19:42:56.680Z</time>
      </trkpt>
      <trkpt lat="48.86579" lon="2.34129">
        <ele>90.5</ele>
        <time>2013-09-03T19:42:58.606Z</time>
      </trkpt>
      <trkpt lat="48.86581" lon="2.34124">
        <ele>89.2</ele>
        <time>2013-09-03T19:42:59.685Z</time>
      </trkpt>
      <trkpt lat="48.86583" lon="2.34113">
        <ele>90.1</ele>
        <time>2013-09-03T19:43:01.719Z</time>
      </trkpt>
      <trkpt lat="48.86583" lon="2.34108">
        <ele>91</ele>
        <time>2013-09-03T19:43:02.528Z</time>
      </trkpt>
      <trkpt lat="48.86579" lon="2.34098">
        <ele>92.6</ele>
        <time>2013-09-03T19:43:04.583Z</time>
      </trkpt>
      <trkpt lat="48.86575" lon="2.34095">
        <ele>90.5</ele>
        <time>2013-09-03T19:43:05.655Z</time>
      </trkpt>
      <trkpt lat="48.86567" lon="2.34094">
        <ele>92.3</ele>
        <time>2013-09-03T19:43:07.533Z</time>
      </trkpt>
      <trkpt lat="48.86562" lon="2.34098">
        <ele>92.5</ele>
        <time>2013-09-03T19:43:08.518Z</time>
      </trkpt>
      <trkpt lat="48.86559" lon="2.34103">
        <ele>92.9</ele>
        <time>2013-09-03T19:43:09.533Z</time>
      </trkpt>
      <trkpt lat="48.86557" lon="2.3411">
        <ele>92.8</ele>
        <time>2013-09-03T19:43:10.526Z</time>
      </trkpt>
      <trkpt lat="48.86556" lon="2.34121">
        <ele>94.1</ele>
        <time>2013-09-03T19:43:12.510Z</time>
      </trkpt>
      <trkpt lat="48.86558" lon="2.34126">
        <ele>94.5</ele>
        <time>2013-09-03T19:43:13.518Z</time>
      </trkpt>
      <trkpt lat="48.86565" lon="2.34128">
        <ele>95.2</ele>
        <time>2013-09-03T19:43:15.567Z</time>
      </trkpt>
      <trkpt lat="48.86569" lon="2.34126">
        <ele>93.8</ele>
        <time>2013-09-03T19:43:16.660Z</time>
      </trkpt>
      <trkpt lat="48.86573" lon="2.34122">
        <ele>94.2</ele>
        <time>2013-09-03T19:43:17.687Z</time>
      </trkpt>
      <trkpt lat="48.86577" lon="2.34115">
        <ele>94.8</ele>
        <time>2013-09-03T19:43:18.615Z</time>
      </trkpt>
      <trkpt lat="48.86579" lon="2.34107">
        <ele>94.1</ele>
        <time>2013-09-03T19:43:19.681Z</time>
      </trkpt>
      <trkpt lat="48.86581" lon="2.341">
        <ele>93.4</ele>
        <time>2013-09-03T19:43:20.545Z</time>
      </trkpt>
      <trkpt lat="48.86582" lon="2.3409">
        <ele>93.4</ele>
        <time>2013-09-03T19:43:21.735Z</time>
      </trkpt>
      <trkpt lat="48.86582" lon="2.34083">
        <ele>93.2</ele>
        <time>2013-09-03T19:43:22.527Z</time>
      </trkpt>
      <trkpt lat="48.86581" lon="2.34075">
        <ele>93.2</ele>
        <time>2013-09-03T19:43:23.721Z</time>
      </trkpt>
      <trkpt lat="48.86579" lon="2.34068">
        <ele>93.5</ele>
        <time>2013-09-03T19:43:24.585Z</time>
      </trkpt>
      <trkpt lat="48.86578" lon="2.3406">
        <ele>92.8</ele>
        <time>2013-09-03T19:43:25.651Z</time>
      </trkpt>
      <trkpt lat="48.8658" lon="2.34052">
        <ele>93</ele>
        <time>2013-09-03T19:43:26.658Z</time>
      </trkpt>
      <trkpt lat="48.86583" lon="2.34045">
        <ele>91.1</ele>
        <time>2013-09-03T19:43:27.578Z</time>
      </trkpt>
      <trkpt lat="48.86587" lon="2.34039">
        <ele>88</ele>
        <time>2013-09-03T19:43:28.658Z</time>
      </trkpt>
      <trkpt lat="48.8659" lon="2.34028">
        <ele>86.4</ele>
        <time>2013-09-03T19:43:30.673Z</time>
      </trkpt>
      <trkpt lat="48.86591" lon="2.34023">
        <ele>85.2</ele>
        <time>2013-09-03T19:43:31.522Z</time>
      </trkpt>
      <trkpt lat="48.86593" lon="2.34012">
        <ele>85.3</ele>
        <time>2013-09-03T19:43:33.563Z</time>
      </trkpt>
      <trkpt lat="48.86594" lon="2.34006">
        <ele>84.9</ele>
        <time>2013-09-03T19:43:34.602Z</time>
      </trkpt>
      <trkpt lat="48.86597" lon="2.33996">
        <ele>85</ele>
        <time>2013-09-03T19:43:36.547Z</time>
      </trkpt>
      <trkpt lat="48.86598" lon="2.33992">
        <ele>85.6</ele>
        <time>2013-09-03T19:43:37.712Z</time>
      </trkpt>
      <trkpt lat="48.86602" lon="2.33993">
        <ele>86</ele>
        <time>2013-09-03T19:43:46.523Z</time>
      </trkpt>
      <trkpt lat="48.86602" lon="2.33994">
        <ele>85.9</ele>
        <time>2013-09-03T19:43:47.524Z</time>
      </trkpt>
      <trkpt lat="48.86603" lon="2.33993">
        <ele>86.4</ele>
        <time>2013-09-03T19:43:57.523Z</time>
      </trkpt>
      <trkpt lat="48.86603" lon="2.33994">
        <ele>86.6</ele>
        <time>2013-09-03T19:43:58.529Z</time>
      </trkpt>
      <trkpt lat="48.86604" lon="2.33994">
        <ele>86.9</ele>
        <time>2013-09-03T19:44:00.521Z</time>
      </trkpt>
      <trkpt lat="48.86604" lon="2.33994">
        <ele>87.1</ele>
        <time>2013-09-03T19:44:01.523Z</time>
      </trkpt>
      <trkpt lat="48.86604" lon="2.33994">
        <ele>87.2</ele>
        <time>2013-09-03T19:44:02.516Z</time>
      </trkpt>
      <trkpt lat="48.86604" lon="2.33993">
        <ele>87.2</ele>
        <time>2013-09-03T19:44:03.522Z</time>
      </trkpt>
      <trkpt lat="48.86604" lon="2.33986">
        <ele>86</ele>
        <time>2013-09-03T19:44:05.523Z</time>
      </trkpt>
      <trkpt lat="48.86605" lon="2.33977">
        <ele>87</ele>
        <time>2013-09-03T19:44:06.532Z</time>
      </trkpt>
      <trkpt lat="48.86606" lon="2.33968">
        <ele>87.4</ele>
        <time>2013-09-03T19:44:07.642Z</time>
      </trkpt>
      <trkpt lat="48.86607" lon="2.3396">
        <ele>86.7</ele>
        <time>2013-09-03T19:44:08.530Z</time>
      </trkpt>
      <trkpt lat="48.86609" lon="2.33952">
        <ele>86.8</ele>
        <time>2013-09-03T19:44:09.540Z</time>
      </trkpt>
      <trkpt lat="48.86611" lon="2.33944">
        <ele>86.8</ele>
        <time>2013-09-03T19:44:10.533Z</time>
      </trkpt>
      <trkpt lat="48.86613" lon="2.33936">
        <ele>86.6</ele>
        <time>2013-09-03T19:44:11.627Z</time>
      </trkpt>
      <trkpt lat="48.86614" lon="2.3393">
        <ele>86.4</ele>
        <time>2013-09-03T19:44:12.533Z</time>
      </trkpt>
      <trkpt lat="48.86616" lon="2.33922">
        <ele>86</ele>
        <time>2013-09-03T19:44:13.621Z</time>
      </trkpt>
      <trkpt lat="48.86618" lon="2.33916">
        <ele>85.5</ele>
        <time>2013-09-03T19:44:14.605Z</time>
      </trkpt>
      <trkpt lat="48.8662" lon="2.33909">
        <ele>85.2</ele>
        <time>2013-09-03T19:44:15.580Z</time>
      </trkpt>
      <trkpt lat="48.86621" lon="2.33902">
        <ele>84.6</ele>
        <time>2013-09-03T19:44:16.635Z</time>
      </trkpt>
      <trkpt lat="48.86623" lon="2.33896">
        <ele>84.4</ele>
        <time>2013-09-03T19:44:17.524Z</time>
      </trkpt>
      <trkpt lat="48.86624" lon="2.33888">
        <ele>84.1</ele>
        <time>2013-09-03T19:44:18.629Z</time>
      </trkpt>
      <trkpt lat="48.86626" lon="2.33882">
        <ele>84.2</ele>
        <time>2013-09-03T19:44:19.554Z</time>
      </trkpt>
      <trkpt lat="48.86627" lon="2.33875">
        <ele>83.4</ele>
        <time>2013-09-03T19:44:20.636Z</time>
      </trkpt>
      <trkpt lat="48.86627" lon="2.33864">
        <ele>83.8</ele>
        <time>2013-09-03T19:44:22.664Z</time>
      </trkpt>
      <trkpt lat="48.86626" lon="2.3386">
        <ele>84.5</ele>
        <time>2013-09-03T19:44:23.697Z</time>
      </trkpt>
      <trkpt lat="48.86619" lon="2.33854">
        <ele>85.1</ele>
        <time>2013-09-03T19:44:26.533Z</time>
      </trkpt>
      <trkpt lat="48.86616" lon="2.33853">
        <ele>85.5</ele>
        <time>2013-09-03T19:44:27.669Z</time>
      </trkpt>
      <trkpt lat="48.86609" lon="2.33846">
        <ele>83.3</ele>
        <time>2013-09-03T19:44:31.565Z</time>
      </trkpt>
      <trkpt lat="48.86609" lon="2.33842">
        <ele>83.2</ele>
        <time>2013-09-03T19:44:32.622Z</time>
      </trkpt>
      <trkpt lat="48.86611" lon="2.33833">
        <ele>79.9</ele>
        <time>2013-09-03T19:44:34.695Z</time>
      </trkpt>
      <trkpt lat="48.86612" lon="2.33828">
        <ele>80.2</ele>
        <time>2013-09-03T19:44:35.556Z</time>
      </trkpt>
      <trkpt lat="48.86615" lon="2.33819">
        <ele>80.5</ele>
        <time>2013-09-03T19:44:37.623Z</time>
      </trkpt>
      <trkpt lat="48.86616" lon="2.33815">
        <ele>81.8</ele>
        <time>2013-09-03T19:44:38.606Z</time>
      </trkpt>
      <trkpt lat="48.86617" lon="2.33806">
        <ele>81.9</ele>
        <time>2013-09-03T19:44:40.561Z</time>
      </trkpt>
      <trkpt lat="48.86618" lon="2.338">
        <ele>82.2</ele>
        <time>2013-09-03T19:44:41.583Z</time>
      </trkpt>
      <trkpt lat="48.8662" lon="2.33789">
        <ele>82.8</ele>
        <time>2013-09-03T19:44:43.629Z</time>
      </trkpt>
      <trkpt lat="48.86621" lon="2.33783">
        <ele>82.9</ele>
        <time>2013-09-03T19:44:44.564Z</time>
      </trkpt>
      <trkpt lat="48.86623" lon="2.33772">
        <ele>82</ele>
        <time>2013-09-03T19:44:46.605Z</time>
      </trkpt>
      <trkpt lat="48.86624" lon="2.33767">
        <ele>82.2</ele>
        <time>2013-09-03T19:44:47.568Z</time>
      </trkpt>
      <trkpt lat="48.86627" lon="2.33755">
        <ele>84.7</ele>
        <time>2013-09-03T19:44:51.535Z</time>
      </trkpt>
      <trkpt lat="48.86628" lon="2.33752">
        <ele>85</ele>
        <time>2013-09-03T19:44:52.608Z</time>
      </trkpt>
      <trkpt lat="48.86622" lon="2.33746">
        <ele>86</ele>
        <time>2013-09-03T19:44:57.582Z</time>
      </trkpt>
      <trkpt lat="48.86619" lon="2.33745">
        <ele>87</ele>
        <time>2013-09-03T19:44:58.527Z</time>
      </trkpt>
      <trkpt lat="48.8661" lon="2.33741">
        <ele>87.2</ele>
        <time>2013-09-03T19:45:00.561Z</time>
      </trkpt>
      <trkpt lat="48.86606" lon="2.33739">
        <ele>87.3</ele>
        <time>2013-09-03T19:45:01.695Z</time>
      </trkpt>
      <trkpt lat="48.86597" lon="2.33734">
        <ele>88</ele>
        <time>2013-09-03T19:45:03.560Z</time>
      </trkpt>
      <trkpt lat="48.86593" lon="2.33732">
        <ele>88</ele>
        <time>2013-09-03T19:45:04.592Z</time>
      </trkpt>
      <trkpt lat="48.86585" lon="2.33726">
        <ele>88.2</ele>
        <time>2013-09-03T19:45:06.593Z</time>
      </trkpt>
      <trkpt lat="48.86582" lon="2.33723">
        <ele>89</ele>
        <time>2013-09-03T19:45:07.558Z</time>
      </trkpt>
      <trkpt lat="48.86578" lon="2.33719">
        <ele>87.9</ele>
        <time>2013-09-03T19:45:08.596Z</time>
      </trkpt>
      <trkpt lat="48.86574" lon="2.33716">
        <ele>88.7</ele>
        <time>2013-09-03T19:45:09.594Z</time>
      </trkpt>
      <trkpt lat="48.8657" lon="2.33713">
        <ele>89.1</ele>
        <time>2013-09-03T19:45:10.591Z</time>
      </trkpt>
      <trkpt lat="48.86566" lon="2.3371">
        <ele>89.8</ele>
        <time>2013-09-03T19:45:11.617Z</time>
      </trkpt>
      <trkpt lat="48.86558" lon="2.33706">
        <ele>89.2</ele>
        <time>2013-09-03T19:45:13.610Z</time>
      </trkpt>
      <trkpt lat="48.86554" lon="2.33704">
        <ele>89.6</ele>
        <time>2013-09-03T19:45:14.553Z</time>
      </trkpt>
      <trkpt lat="48.86548" lon="2.337">
        <ele>90.8</ele>
        <time>2013-09-03T19:45:16.538Z</time>
      </trkpt>
      <trkpt lat="48.86544" lon="2.33699">
        <ele>90.4</ele>
        <time>2013-09-03T19:45:17.696Z</time>
      </trkpt>
      <trkpt lat="48.86538" lon="2.33696">
        <ele>90.6</ele>
        <time>2013-09-03T19:45:19.570Z</time>
      </trkpt>
      <trkpt lat="48.86534" lon="2.33695">
        <ele>91</ele>
        <time>2013-09-03T19:45:20.624Z</time>
      </trkpt>
      <trkpt lat="48.8653" lon="2.33693">
        <ele>90</ele>
        <time>2013-09-03T19:45:21.538Z</time>
      </trkpt>
      <trkpt lat="48.86523" lon="2.3369">
        <ele>88.7</ele>
        <time>2013-09-03T19:45:22.666Z</time>
      </trkpt>
      <trkpt lat="48.86517" lon="2.33687">
        <ele>89</ele>
        <time>2013-09-03T19:45:23.537Z</time>
      </trkpt>
      <trkpt lat="48.86512" lon="2.33684">
        <ele>90.5</ele>
        <time>2013-09-03T19:45:24.625Z</time>
      </trkpt>
      <trkpt lat="48.86503" lon="2.3368">
        <ele>91</ele>
        <time>2013-09-03T19:45:26.603Z</time>
      </trkpt>
      <trkpt lat="48.86499" lon="2.33678">
        <ele>90.6</ele>
        <time>2013-09-03T19:45:27.741Z</time>
      </trkpt>
      <trkpt lat="48.86492" lon="2.33674">
        <ele>91.9</ele>
        <time>2013-09-03T19:45:29.544Z</time>
      </trkpt>
      <trkpt lat="48.86489" lon="2.33673">
        <ele>92.7</ele>
        <time>2013-09-03T19:45:30.522Z</time>
      </trkpt>
      <trkpt lat="48.86482" lon="2.33669">
        <ele>91</ele>
        <time>2013-09-03T19:45:32.545Z</time>
      </trkpt>
      <trkpt lat="48.86478" lon="2.33667">
        <ele>90.5</ele>
        <time>2013-09-03T19:45:33.578Z</time>
      </trkpt>
      <trkpt lat="48.86471" lon="2.33665">
        <ele>90.2</ele>
        <time>2013-09-03T19:45:35.571Z</time>
      </trkpt>
      <trkpt lat="48.86467" lon="2.33664">
        <ele>91.3</ele>
        <time>2013-09-03T19:45:36.626Z</time>
      </trkpt>
      <trkpt lat="48.86461" lon="2.33663">
        <ele>92.2</ele>
        <time>2013-09-03T19:45:38.579Z</time>
      </trkpt>
      <trkpt lat="48.86458" lon="2.33663">
        <ele>92.5</ele>
        <time>2013-09-03T19:45:39.547Z</time>
      </trkpt>
      <trkpt lat="48.8645" lon="2.33661">
        <ele>92.5</ele>
        <time>2013-09-03T19:45:41.580Z</time>
      </trkpt>
      <trkpt lat="48.86447" lon="2.33659">
        <ele>92</ele>
        <time>2013-09-03T19:45:42.603Z</time>
      </trkpt>
      <trkpt lat="48.86439" lon="2.33657">
        <ele>92.7</ele>
        <time>2013-09-03T19:45:44.540Z</time>
      </trkpt>
      <trkpt lat="48.86435" lon="2.33656">
        <ele>93.4</ele>
        <time>2013-09-03T19:45:45.586Z</time>
      </trkpt>
      <trkpt lat="48.86427" lon="2.33654">
        <ele>94.8</ele>
        <time>2013-09-03T19:45:47.595Z</time>
      </trkpt>
      <trkpt lat="48.86422" lon="2.33653">
        <ele>95.8</ele>
        <time>2013-09-03T19:45:48.603Z</time>
      </trkpt>
      <trkpt lat="48.86413" lon="2.3365">
        <ele>96.6</ele>
        <time>2013-09-03T19:45:50.627Z</time>
      </trkpt>
      <trkpt lat="48.8641" lon="2.33648">
        <ele>98.2</ele>
        <time>2013-09-03T19:45:51.545Z</time>
      </trkpt>
      <trkpt lat="48.86403" lon="2.33639">
        <ele>98.1</ele>
        <time>2013-09-03T19:45:53.540Z</time>
      </trkpt>
      <trkpt lat="48.86401" lon="2.33633">
        <ele>97.9</ele>
        <time>2013-09-03T19:45:54.681Z</time>
      </trkpt>
      <trkpt lat="48.86399" lon="2.3362">
        <ele>98.8</ele>
        <time>2013-09-03T19:45:56.653Z</time>
      </trkpt>
      <trkpt lat="48.864" lon="2.33614">
        <ele>97.7</ele>
        <time>2013-09-03T19:45:57.573Z</time>
      </trkpt>
      <trkpt lat="48.86402" lon="2.33604">
        <ele>98.1</ele>
        <time>2013-09-03T19:45:59.645Z</time>
      </trkpt>
      <trkpt lat="48.86404" lon="2.33602">
        <ele>99.9</ele>
        <time>2013-09-03T19:46:00.555Z</time>
      </trkpt>
      <trkpt lat="48.86401" lon="2.3359">
        <ele>88.2</ele>
        <time>2013-09-03T19:46:05.549Z</time>
      </trkpt>
      <trkpt lat="48.864" lon="2.33585">
        <ele>86.8</ele>
        <time>2013-09-03T19:46:06.533Z</time>
      </trkpt>
      <trkpt lat="48.86397" lon="2.33575">
        <ele>86.5</ele>
        <time>2013-09-03T19:46:08.628Z</time>
      </trkpt>
      <trkpt lat="48.86396" lon="2.33571">
        <ele>85.4</ele>
        <time>2013-09-03T19:46:09.658Z</time>
      </trkpt>
      <trkpt lat="48.86391" lon="2.33562">
        <ele>86.3</ele>
        <time>2013-09-03T19:46:19.672Z</time>
      </trkpt>
      <trkpt lat="48.86391" lon="2.33562">
        <ele>86.1</ele>
        <time>2013-09-03T19:46:20.565Z</time>
      </trkpt>
      <trkpt lat="48.86392" lon="2.33561">
        <ele>86.2</ele>
        <time>2013-09-03T19:46:21.714Z</time>
      </trkpt>
      <trkpt lat="48.86392" lon="2.3356">
        <ele>85.8</ele>
        <time>2013-09-03T19:46:22.544Z</time>
      </trkpt>
      <trkpt lat="48.86393" lon="2.33559">
        <ele>85.7</ele>
        <time>2013-09-03T19:46:27.574Z</time>
      </trkpt>
      <trkpt lat="48.86393" lon="2.33559">
        <ele>85.6</ele>
        <time>2013-09-03T19:46:28.641Z</time>
      </trkpt>
      <trkpt lat="48.86392" lon="2.33559">
        <ele>85.7</ele>
        <time>2013-09-03T19:46:42.733Z</time>
      </trkpt>
      <trkpt lat="48.86392" lon="2.33558">
        <ele>86.5</ele>
        <time>2013-09-03T19:46:43.593Z</time>
      </trkpt>
      <trkpt lat="48.86392" lon="2.33547">
        <ele>91.3</ele>
        <time>2013-09-03T19:46:46.761Z</time>
      </trkpt>
      <trkpt lat="48.86392" lon="2.33543">
        <ele>93.1</ele>
        <time>2013-09-03T19:46:47.558Z</time>
      </trkpt>
      <trkpt lat="48.86392" lon="2.33531">
        <ele>93</ele>
        <time>2013-09-03T19:46:50.564Z</time>
      </trkpt>
      <trkpt lat="48.86393" lon="2.33528">
        <ele>93.8</ele>
        <time>2013-09-03T19:46:51.532Z</time>
      </trkpt>
      <trkpt lat="48.86395" lon="2.33516">
        <ele>94.2</ele>
        <time>2013-09-03T19:46:55.538Z</time>
      </trkpt>
      <trkpt lat="48.86395" lon="2.33513">
        <ele>97.4</ele>
        <time>2013-09-03T19:46:56.528Z</time>
      </trkpt>
      <trkpt lat="48.86398" lon="2.33504">
        <ele>102.8</ele>
        <time>2013-09-03T19:46:59.544Z</time>
      </trkpt>
      <trkpt lat="48.864" lon="2.33501">
        <ele>104.3</ele>
        <time>2013-09-03T19:47:00.538Z</time>
      </trkpt>
      <trkpt lat="48.86407" lon="2.33497">
        <ele>103.2</ele>
        <time>2013-09-03T19:47:02.690Z</time>
      </trkpt>
      <trkpt lat="48.8641" lon="2.33495">
        <ele>103.3</ele>
        <time>2013-09-03T19:47:03.536Z</time>
      </trkpt>
      <trkpt lat="48.86415" lon="2.33492">
        <ele>102.6</ele>
        <time>2013-09-03T19:47:04.530Z</time>
      </trkpt>
      <trkpt lat="48.8642" lon="2.3349">
        <ele>101.7</ele>
        <time>2013-09-03T19:47:05.536Z</time>
      </trkpt>
      <trkpt lat="48.86425" lon="2.33488">
        <ele>102.7</ele>
        <time>2013-09-03T19:47:06.746Z</time>
      </trkpt>
      <trkpt lat="48.8643" lon="2.33486">
        <ele>103.6</ele>
        <time>2013-09-03T19:47:07.536Z</time>
      </trkpt>
      <trkpt lat="48.86435" lon="2.33484">
        <ele>103.8</ele>
        <time>2013-09-03T19:47:08.672Z</time>
      </trkpt>
      <trkpt lat="48.8644" lon="2.33481">
        <ele>103.5</ele>
        <time>2013-09-03T19:47:09.652Z</time>
      </trkpt>
      <trkpt lat="48.86446" lon="2.33477">
        <ele>103.1</ele>
        <time>2013-09-03T19:47:10.625Z</time>
      </trkpt>
      <trkpt lat="48.86452" lon="2.33475">
        <ele>102.1</ele>
        <time>2013-09-03T19:47:11.576Z</time>
      </trkpt>
      <trkpt lat="48.86458" lon="2.33473">
        <ele>100.8</ele>
        <time>2013-09-03T19:47:12.545Z</time>
      </trkpt>
      <trkpt lat="48.86464" lon="2.3347">
        <ele>100.5</ele>
        <time>2013-09-03T19:47:13.698Z</time>
      </trkpt>
      <trkpt lat="48.86468" lon="2.33467">
        <ele>100.3</ele>
        <time>2013-09-03T19:47:14.554Z</time>
      </trkpt>
      <trkpt lat="48.86474" lon="2.33464">
        <ele>100.5</ele>
        <time>2013-09-03T19:47:15.684Z</time>
      </trkpt>
      <trkpt lat="48.86478" lon="2.33461">
        <ele>101.7</ele>
        <time>2013-09-03T19:47:16.658Z</time>
      </trkpt>
      <trkpt lat="48.86482" lon="2.33457">
        <ele>100.7</ele>
        <time>2013-09-03T19:47:17.699Z</time>
      </trkpt>
      <trkpt lat="48.86487" lon="2.33455">
        <ele>101.1</ele>
        <time>2013-09-03T19:47:18.740Z</time>
      </trkpt>
      <trkpt lat="48.86491" lon="2.33454">
        <ele>100.9</ele>
        <time>2013-09-03T19:47:19.603Z</time>
      </trkpt>
      <trkpt lat="48.86496" lon="2.33451">
        <ele>101.8</ele>
        <time>2013-09-03T19:47:20.748Z</time>
      </trkpt>
      <trkpt lat="48.865" lon="2.33449">
        <ele>102</ele>
        <time>2013-09-03T19:47:21.544Z</time>
      </trkpt>
      <trkpt lat="48.86506" lon="2.33446">
        <ele>103.3</ele>
        <time>2013-09-03T19:47:22.807Z</time>
      </trkpt>
      <trkpt lat="48.8651" lon="2.33444">
        <ele>102.9</ele>
        <time>2013-09-03T19:47:23.572Z</time>
      </trkpt>
      <trkpt lat="48.86515" lon="2.33442">
        <ele>102.1</ele>
        <time>2013-09-03T19:47:24.693Z</time>
      </trkpt>
      <trkpt lat="48.8652" lon="2.3344">
        <ele>101.5</ele>
        <time>2013-09-03T19:47:25.555Z</time>
      </trkpt>
      <trkpt lat="48.86525" lon="2.33436">
        <ele>101.8</ele>
        <time>2013-09-03T19:47:26.593Z</time>
      </trkpt>
      <trkpt lat="48.8653" lon="2.33434">
        <ele>102.3</ele>
        <time>2013-09-03T19:47:27.540Z</time>
      </trkpt>
      <trkpt lat="48.86535" lon="2.33433">
        <ele>102.4</ele>
        <time>2013-09-03T19:47:28.589Z</time>
      </trkpt>
      <trkpt lat="48.8654" lon="2.33431">
        <ele>103.3</ele>
        <time>2013-09-03T19:47:29.550Z</time>
      </trkpt>
      <trkpt lat="48.86545" lon="2.3343">
        <ele>103.4</ele>
        <time>2013-09-03T19:47:30.567Z</time>
      </trkpt>
      <trkpt lat="48.8655" lon="2.33427">
        <ele>103.8</ele>
        <time>2013-09-03T19:47:31.780Z</time>
      </trkpt>
      <trkpt lat="48.86554" lon="2.33425">
        <ele>102.8</ele>
        <time>2013-09-03T19:47:32.593Z</time>
      </trkpt>
      <trkpt lat="48.8656" lon="2.33424">
        <ele>102.8</ele>
        <time>2013-09-03T19:47:33.643Z</time>
      </trkpt>
      <trkpt lat="48.86565" lon="2.33423">
        <ele>103</ele>
        <time>2013-09-03T19:47:34.718Z</time>
      </trkpt>
      <trkpt lat="48.8657" lon="2.33422">
        <ele>103</ele>
        <time>2013-09-03T19:47:35.555Z</time>
      </trkpt>
      <trkpt lat="48.86575" lon="2.33421">
        <ele>103</ele>
        <time>2013-09-03T19:47:36.554Z</time>
      </trkpt>
      <trkpt lat="48.8658" lon="2.3342">
        <ele>104.4</ele>
        <time>2013-09-03T19:47:37.557Z</time>
      </trkpt>
      <trkpt lat="48.86584" lon="2.33418">
        <ele>104.3</ele>
        <time>2013-09-03T19:47:38.546Z</time>
      </trkpt>
      <trkpt lat="48.86589" lon="2.33417">
        <ele>104</ele>
        <time>2013-09-03T19:47:39.555Z</time>
      </trkpt>
      <trkpt lat="48.86597" lon="2.33414">
        <ele>102.7</ele>
        <time>2013-09-03T19:47:41.569Z</time>
      </trkpt>
      <trkpt lat="48.86601" lon="2.3341">
        <ele>102.1</ele>
        <time>2013-09-03T19:47:42.542Z</time>
      </trkpt>
      <trkpt lat="48.86607" lon="2.33405">
        <ele>100.7</ele>
        <time>2013-09-03T19:47:44.572Z</time>
      </trkpt>
      <trkpt lat="48.8661" lon="2.33404">
        <ele>100.4</ele>
        <time>2013-09-03T19:47:45.540Z</time>
      </trkpt>
      <trkpt lat="48.86617" lon="2.3341">
        <ele>97</ele>
        <time>2013-09-03T19:47:55.551Z</time>
      </trkpt>
      <trkpt lat="48.86618" lon="2.33411">
        <ele>96.9</ele>
        <time>2013-09-03T19:47:56.533Z</time>
      </trkpt>
      <trkpt lat="48.86619" lon="2.33413">
        <ele>92.2</ele>
        <time>2013-09-03T19:48:05.543Z</time>
      </trkpt>
      <trkpt lat="48.86619" lon="2.33413">
        <ele>91.9</ele>
        <time>2013-09-03T19:48:06.558Z</time>
      </trkpt>
      <trkpt lat="48.86619" lon="2.33412">
        <ele>91.9</ele>
        <time>2013-09-03T19:48:10.543Z</time>
      </trkpt>
      <trkpt lat="48.86619" lon="2.33412">
        <ele>90.9</ele>
        <time>2013-09-03T19:48:11.543Z</time>
      </trkpt>
      <trkpt lat="48.86624" lon="2.33401">
        <ele>91.4</ele>
        <time>2013-09-03T19:48:30.545Z</time>
      </trkpt>
      <trkpt lat="48.86625" lon="2.33402">
        <ele>91.9</ele>
        <time>2013-09-03T19:48:31.535Z</time>
      </trkpt>
      <trkpt lat="48.86632" lon="2.33408">
        <ele>93</ele>
        <time>2013-09-03T19:48:36.568Z</time>
      </trkpt>
      <trkpt lat="48.86633" lon="2.3341">
        <ele>92.6</ele>
        <time>2013-09-03T19:48:37.538Z</time>
      </trkpt>
      <trkpt lat="48.86641" lon="2.33413">
        <ele>93.9</ele>
        <time>2013-09-03T19:48:42.704Z</time>
      </trkpt>
      <trkpt lat="48.86643" lon="2.33412">
        <ele>93.9</ele>
        <time>2013-09-03T19:48:43.562Z</time>
      </trkpt>
      <trkpt lat="48.86649" lon="2.3341">
        <ele>93.3</ele>
        <time>2013-09-03T19:48:46.630Z</time>
      </trkpt>
      <trkpt lat="48.86652" lon="2.33409">
        <ele>93.1</ele>
        <time>2013-09-03T19:48:47.668Z</time>
      </trkpt>
      <trkpt lat="48.86659" lon="2.33408">
        <ele>92.5</ele>
        <time>2013-09-03T19:48:50.571Z</time>
      </trkpt>
      <trkpt lat="48.86662" lon="2.33409">
        <ele>92.9</ele>
        <time>2013-09-03T19:48:51.662Z</time>
      </trkpt>
      <trkpt lat="48.86669" lon="2.33412">
        <ele>92</ele>
        <time>2013-09-03T19:48:53.650Z</time>
      </trkpt>
      <trkpt lat="48.86672" lon="2.33412">
        <ele>93.6</ele>
        <time>2013-09-03T19:48:54.658Z</time>
      </trkpt>
      <trkpt lat="48.8668" lon="2.3341">
        <ele>93.4</ele>
        <time>2013-09-03T19:48:57.540Z</time>
      </trkpt>
      <trkpt lat="48.86682" lon="2.33408">
        <ele>93.4</ele>
        <time>2013-09-03T19:48:58.538Z</time>
      </trkpt>
      <trkpt lat="48.8669" lon="2.33404">
        <ele>92.3</ele>
        <time>2013-09-03T19:49:01.580Z</time>
      </trkpt>
      <trkpt lat="48.86692" lon="2.33402">
        <ele>92.8</ele>
        <time>2013-09-03T19:49:02.613Z</time>
      </trkpt>
      <trkpt lat="48.86695" lon="2.33398">
        <ele>91.9</ele>
        <time>2013-09-03T19:49:03.649Z</time>
      </trkpt>
      <trkpt lat="48.86697" lon="2.33381">
        <ele>90.5</ele>
        <time>2013-09-03T19:49:04.563Z</time>
      </trkpt>
      <trkpt lat="48.86699" lon="2.33369">
        <ele>90.2</ele>
        <time>2013-09-03T19:49:05.658Z</time>
      </trkpt>
      <trkpt lat="48.867" lon="2.3336">
        <ele>90.7</ele>
        <time>2013-09-03T19:49:06.547Z</time>
      </trkpt>
      <trkpt lat="48.86697" lon="2.33348">
        <ele>90.9</ele>
        <time>2013-09-03T19:49:11.580Z</time>
      </trkpt>
      <trkpt lat="48.86694" lon="2.33348">
        <ele>91</ele>
        <time>2013-09-03T19:49:12.635Z</time>
      </trkpt>
      <trkpt lat="48.86686" lon="2.33347">
        <ele>91.1</ele>
        <time>2013-09-03T19:49:14.651Z</time>
      </trkpt>
      <trkpt lat="48.86682" lon="2.33345">
        <ele>91.7</ele>
        <time>2013-09-03T19:49:15.556Z</time>
      </trkpt>
      <trkpt lat="48.86675" lon="2.3334">
        <ele>91.1</ele>
        <time>2013-09-03T19:49:17.540Z</time>
      </trkpt>
      <trkpt lat="48.86671" lon="2.33337">
        <ele>91.1</ele>
        <time>2013-09-03T19:49:18.546Z</time>
      </trkpt>
      <trkpt lat="48.86665" lon="2.33332">
        <ele>91</ele>
        <time>2013-09-03T19:49:20.555Z</time>
      </trkpt>
      <trkpt lat="48.86662" lon="2.3333">
        <ele>91.5</ele>
        <time>2013-09-03T19:49:21.555Z</time>
      </trkpt>
      <trkpt lat="48.86659" lon="2.33329">
        <ele>92.9</ele>
        <time>2013-09-03T19:49:27.586Z</time>
      </trkpt>
      <trkpt lat="48.8666" lon="2.3333">
        <ele>93.3</ele>
        <time>2013-09-03T19:49:28.540Z</time>
      </trkpt>
      <trkpt lat="48.86661" lon="2.3333">
        <ele>93.5</ele>
        <time>2013-09-03T19:49:29.541Z</time>
      </trkpt>
      <trkpt lat="48.86661" lon="2.33331">
        <ele>93.2</ele>
        <time>2013-09-03T19:49:30.558Z</time>
      </trkpt>
      <trkpt lat="48.86662" lon="2.33331">
        <ele>93.3</ele>
        <time>2013-09-03T19:49:34.548Z</time>
      </trkpt>
      <trkpt lat="48.86662" lon="2.33331">
        <ele>94.1</ele>
        <time>2013-09-03T19:49:35.563Z</time>
      </trkpt>
      <trkpt lat="48.86663" lon="2.3333">
        <ele>94</ele>
        <time>2013-09-03T19:49:38.556Z</time>
      </trkpt>
      <trkpt lat="48.86663" lon="2.3333">
        <ele>94.2</ele>
        <time>2013-09-03T19:49:39.549Z</time>
      </trkpt>
      <trkpt lat="48.86664" lon="2.33326">
        <ele>94.4</ele>
        <time>2013-09-03T19:49:46.565Z</time>
      </trkpt>
      <trkpt lat="48.86664" lon="2.33326">
        <ele>94.4</ele>
        <time>2013-09-03T19:49:47.565Z</time>
      </trkpt>
      <trkpt lat="48.86663" lon="2.33327">
        <ele>94.6</ele>
        <time>2013-09-03T19:50:10.575Z</time>
      </trkpt>
      <trkpt lat="48.86662" lon="2.33327">
        <ele>94.2</ele>
        <time>2013-09-03T19:50:11.610Z</time>
      </trkpt>
      <trkpt lat="48.86655" lon="2.33323">
        <ele>96.2</ele>
        <time>2013-09-03T19:50:14.553Z</time>
      </trkpt>
      <trkpt lat="48.86651" lon="2.33321">
        <ele>96.7</ele>
        <time>2013-09-03T19:50:15.601Z</time>
      </trkpt>
      <trkpt lat="48.86642" lon="2.33315">
        <ele>96.8</ele>
        <time>2013-09-03T19:50:17.545Z</time>
      </trkpt>
      <trkpt lat="48.86638" lon="2.33313">
        <ele>96.6</ele>
        <time>2013-09-03T19:50:18.546Z</time>
      </trkpt>
      <trkpt lat="48.8663" lon="2.33306">
        <ele>97.7</ele>
        <time>2013-09-03T19:50:20.545Z</time>
      </trkpt>
      <trkpt lat="48.86627" lon="2.33303">
        <ele>97</ele>
        <time>2013-09-03T19:50:21.553Z</time>
      </trkpt>
      <trkpt lat="48.8662" lon="2.33296">
        <ele>96.7</ele>
        <time>2013-09-03T19:50:23.559Z</time>
      </trkpt>
      <trkpt lat="48.86617" lon="2.33293">
        <ele>96.9</ele>
        <time>2013-09-03T19:50:24.545Z</time>
      </trkpt>
      <trkpt lat="48.8661" lon="2.33287">
        <ele>97.7</ele>
        <time>2013-09-03T19:50:26.552Z</time>
      </trkpt>
      <trkpt lat="48.86607" lon="2.33283">
        <ele>96.8</ele>
        <time>2013-09-03T19:50:27.553Z</time>
      </trkpt>
      <trkpt lat="48.866" lon="2.33278">
        <ele>96.5</ele>
        <time>2013-09-03T19:50:29.634Z</time>
      </trkpt>
      <trkpt lat="48.86596" lon="2.33275">
        <ele>98.5</ele>
        <time>2013-09-03T19:50:30.553Z</time>
      </trkpt>
      <trkpt lat="48.86589" lon="2.33271">
        <ele>96.6</ele>
        <time>2013-09-03T19:50:32.553Z</time>
      </trkpt>
      <trkpt lat="48.86584" lon="2.33269">
        <ele>95.5</ele>
        <time>2013-09-03T19:50:33.553Z</time>
      </trkpt>
      <trkpt lat="48.8658" lon="2.33267">
        <ele>94.4</ele>
        <time>2013-09-03T19:50:34.563Z</time>
      </trkpt>
      <trkpt lat="48.86576" lon="2.33265">
        <ele>94.6</ele>
        <time>2013-09-03T19:50:35.545Z</time>
      </trkpt>
      <trkpt lat="48.86571" lon="2.33262">
        <ele>96.1</ele>
        <time>2013-09-03T19:50:36.552Z</time>
      </trkpt>
      <trkpt lat="48.86566" lon="2.33258">
        <ele>97.5</ele>
        <time>2013-09-03T19:50:37.565Z</time>
      </trkpt>
      <trkpt lat="48.86562" lon="2.33255">
        <ele>97.9</ele>
        <time>2013-09-03T19:50:38.547Z</time>
      </trkpt>
      <trkpt lat="48.86557" lon="2.33251">
        <ele>97.4</ele>
        <time>2013-09-03T19:50:39.576Z</time>
      </trkpt>
      <trkpt lat="48.86553" lon="2.33247">
        <ele>97.4</ele>
        <time>2013-09-03T19:50:40.555Z</time>
      </trkpt>
      <trkpt lat="48.86549" lon="2.33243">
        <ele>96.9</ele>
        <time>2013-09-03T19:50:41.570Z</time>
      </trkpt>
      <trkpt lat="48.86541" lon="2.33235">
        <ele>96.1</ele>
        <time>2013-09-03T19:50:43.554Z</time>
      </trkpt>
      <trkpt lat="48.86538" lon="2.33231">
        <ele>96.2</ele>
        <time>2013-09-03T19:50:44.563Z</time>
      </trkpt>
      <trkpt lat="48.8653" lon="2.33224">
        <ele>94.3</ele>
        <time>2013-09-03T19:50:46.574Z</time>
      </trkpt>
      <trkpt lat="48.86527" lon="2.33222">
        <ele>94.1</ele>
        <time>2013-09-03T19:50:47.555Z</time>
      </trkpt>
      <trkpt lat="48.8652" lon="2.33216">
        <ele>93.5</ele>
        <time>2013-09-03T19:50:49.556Z</time>
      </trkpt>
      <trkpt lat="48.86517" lon="2.33214">
        <ele>89.1</ele>
        <time>2013-09-03T19:50:50.563Z</time>
      </trkpt>
      <trkpt lat="48.86509" lon="2.33211">
        <ele>86.7</ele>
        <time>2013-09-03T19:50:52.549Z</time>
      </trkpt>
      <trkpt lat="48.86504" lon="2.3321">
        <ele>88</ele>
        <time>2013-09-03T19:50:53.555Z</time>
      </trkpt>
      <trkpt lat="48.86499" lon="2.33209">
        <ele>90.2</ele>
        <time>2013-09-03T19:50:54.556Z</time>
      </trkpt>
      <trkpt lat="48.86494" lon="2.33208">
        <ele>93.9</ele>
        <time>2013-09-03T19:50:55.545Z</time>
      </trkpt>
      <trkpt lat="48.86486" lon="2.33205">
        <ele>92.2</ele>
        <time>2013-09-03T19:50:57.547Z</time>
      </trkpt>
      <trkpt lat="48.86483" lon="2.33203">
        <ele>90.8</ele>
        <time>2013-09-03T19:50:58.575Z</time>
      </trkpt>
      <trkpt lat="48.86477" lon="2.33198">
        <ele>89.2</ele>
        <time>2013-09-03T19:51:00.562Z</time>
      </trkpt>
      <trkpt lat="48.86473" lon="2.33195">
        <ele>89.2</ele>
        <time>2013-09-03T19:51:01.556Z</time>
      </trkpt>
      <trkpt lat="48.86469" lon="2.33192">
        <ele>89</ele>
        <time>2013-09-03T19:51:02.546Z</time>
      </trkpt>
      <trkpt lat="48.86462" lon="2.33187">
        <ele>89</ele>
        <time>2013-09-03T19:51:03.661Z</time>
      </trkpt>
      <trkpt lat="48.86457" lon="2.33183">
        <ele>86.9</ele>
        <time>2013-09-03T19:51:04.581Z</time>
      </trkpt>
      <trkpt lat="48.86453" lon="2.33179">
        <ele>87.5</ele>
        <time>2013-09-03T19:51:05.574Z</time>
      </trkpt>
      <trkpt lat="48.86448" lon="2.33175">
        <ele>86.8</ele>
        <time>2013-09-03T19:51:06.558Z</time>
      </trkpt>
      <trkpt lat="48.86443" lon="2.33172">
        <ele>85.3</ele>
        <time>2013-09-03T19:51:07.556Z</time>
      </trkpt>
      <trkpt lat="48.86439" lon="2.33169">
        <ele>85.1</ele>
        <time>2013-09-03T19:51:08.653Z</time>
      </trkpt>
      <trkpt lat="48.86435" lon="2.33165">
        <ele>82.7</ele>
        <time>2013-09-03T19:51:09.555Z</time>
      </trkpt>
      <trkpt lat="48.86431" lon="2.33162">
        <ele>81.5</ele>
        <time>2013-09-03T19:51:10.565Z</time>
      </trkpt>
      <trkpt lat="48.86427" lon="2.33157">
        <ele>81.3</ele>
        <time>2013-09-03T19:51:11.548Z</time>
      </trkpt>
      <trkpt lat="48.86422" lon="2.33155">
        <ele>81.6</ele>
        <time>2013-09-03T19:51:12.565Z</time>
      </trkpt>
      <trkpt lat="48.86417" lon="2.3315">
        <ele>82.3</ele>
        <time>2013-09-03T19:51:13.593Z</time>
      </trkpt>
      <trkpt lat="48.86412" lon="2.33146">
        <ele>81.3</ele>
        <time>2013-09-03T19:51:14.614Z</time>
      </trkpt>
      <trkpt lat="48.86409" lon="2.33141">
        <ele>80.6</ele>
        <time>2013-09-03T19:51:15.584Z</time>
      </trkpt>
      <trkpt lat="48.86408" lon="2.33128">
        <ele>84.4</ele>
        <time>2013-09-03T19:51:17.710Z</time>
      </trkpt>
      <trkpt lat="48.86409" lon="2.33123">
        <ele>85.7</ele>
        <time>2013-09-03T19:51:18.565Z</time>
      </trkpt>
      <trkpt lat="48.86411" lon="2.33116">
        <ele>84.8</ele>
        <time>2013-09-03T19:51:19.566Z</time>
      </trkpt>
      <trkpt lat="48.86413" lon="2.3311">
        <ele>87</ele>
        <time>2013-09-03T19:51:20.561Z</time>
      </trkpt>
      <trkpt lat="48.86416" lon="2.33104">
        <ele>87.9</ele>
        <time>2013-09-03T19:51:21.568Z</time>
      </trkpt>
      <trkpt lat="48.86418" lon="2.33095">
        <ele>88.6</ele>
        <time>2013-09-03T19:51:22.631Z</time>
      </trkpt>
      <trkpt lat="48.86421" lon="2.33087">
        <ele>85.1</ele>
        <time>2013-09-03T19:51:23.548Z</time>
      </trkpt>
      <trkpt lat="48.86423" lon="2.33079">
        <ele>85.3</ele>
        <time>2013-09-03T19:51:24.573Z</time>
      </trkpt>
      <trkpt lat="48.86426" lon="2.33072">
        <ele>85.8</ele>
        <time>2013-09-03T19:51:25.582Z</time>
      </trkpt>
      <trkpt lat="48.86428" lon="2.33064">
        <ele>85.7</ele>
        <time>2013-09-03T19:51:26.605Z</time>
      </trkpt>
      <trkpt lat="48.8643" lon="2.33057">
        <ele>86.3</ele>
        <time>2013-09-03T19:51:27.567Z</time>
      </trkpt>
      <trkpt lat="48.86432" lon="2.33051">
        <ele>85.1</ele>
        <time>2013-09-03T19:51:28.572Z</time>
      </trkpt>
      <trkpt lat="48.86436" lon="2.33038">
        <ele>84.2</ele>
        <time>2013-09-03T19:51:30.593Z</time>
      </trkpt>
      <trkpt lat="48.86437" lon="2.33032">
        <ele>85.3</ele>
        <time>2013-09-03T19:51:31.558Z</time>
      </trkpt>
      <trkpt lat="48.86441" lon="2.33021">
        <ele>84.1</ele>
        <time>2013-09-03T19:51:33.593Z</time>
      </trkpt>
      <trkpt lat="48.86443" lon="2.33015">
        <ele>84.4</ele>
        <time>2013-09-03T19:51:34.575Z</time>
      </trkpt>
      <trkpt lat="48.86445" lon="2.33008">
        <ele>83.6</ele>
        <time>2013-09-03T19:51:35.595Z</time>
      </trkpt>
      <trkpt lat="48.86447" lon="2.33002">
        <ele>84</ele>
        <time>2013-09-03T19:51:36.546Z</time>
      </trkpt>
      <trkpt lat="48.86449" lon="2.32996">
        <ele>82.9</ele>
        <time>2013-09-03T19:51:37.569Z</time>
      </trkpt>
      <trkpt lat="48.86451" lon="2.32989">
        <ele>83</ele>
        <time>2013-09-03T19:51:38.558Z</time>
      </trkpt>
      <trkpt lat="48.86452" lon="2.32982">
        <ele>83.1</ele>
        <time>2013-09-03T19:51:39.569Z</time>
      </trkpt>
      <trkpt lat="48.86454" lon="2.32975">
        <ele>83</ele>
        <time>2013-09-03T19:51:40.564Z</time>
      </trkpt>
      <trkpt lat="48.86457" lon="2.32968">
        <ele>83.7</ele>
        <time>2013-09-03T19:51:41.560Z</time>
      </trkpt>
      <trkpt lat="48.8646" lon="2.32962">
        <ele>83.2</ele>
        <time>2013-09-03T19:51:42.566Z</time>
      </trkpt>
      <trkpt lat="48.86464" lon="2.3295">
        <ele>83.7</ele>
        <time>2013-09-03T19:51:44.550Z</time>
      </trkpt>
      <trkpt lat="48.86465" lon="2.32944">
        <ele>84.1</ele>
        <time>2013-09-03T19:51:45.561Z</time>
      </trkpt>
      <trkpt lat="48.86467" lon="2.32937">
        <ele>83.6</ele>
        <time>2013-09-03T19:51:46.573Z</time>
      </trkpt>
      <trkpt lat="48.86469" lon="2.32931">
        <ele>83.4</ele>
        <time>2013-09-03T19:51:47.574Z</time>
      </trkpt>
      <trkpt lat="48.86471" lon="2.32925">
        <ele>84.7</ele>
        <time>2013-09-03T19:51:48.560Z</time>
      </trkpt>
      <trkpt lat="48.86473" lon="2.32919">
        <ele>82</ele>
        <time>2013-09-03T19:51:49.555Z</time>
      </trkpt>
      <trkpt lat="48.86476" lon="2.32913">
        <ele>81.8</ele>
        <time>2013-09-03T19:51:50.561Z</time>
      </trkpt>
      <trkpt lat="48.86478" lon="2.32907">
        <ele>81.5</ele>
        <time>2013-09-03T19:51:51.594Z</time>
      </trkpt>
      <trkpt lat="48.8648" lon="2.329">
        <ele>82</ele>
        <time>2013-09-03T19:51:52.552Z</time>
      </trkpt>
      <trkpt lat="48.86482" lon="2.32894">
        <ele>81.7</ele>
        <time>2013-09-03T19:51:53.578Z</time>
      </trkpt>
      <trkpt lat="48.86485" lon="2.32888">
        <ele>82.2</ele>
        <time>2013-09-03T19:51:54.592Z</time>
      </trkpt>
      <trkpt lat="48.86487" lon="2.32881">
        <ele>80.7</ele>
        <time>2013-09-03T19:51:55.584Z</time>
      </trkpt>
      <trkpt lat="48.86491" lon="2.32869">
        <ele>80.3</ele>
        <time>2013-09-03T19:51:57.577Z</time>
      </trkpt>
      <trkpt lat="48.86493" lon="2.32863">
        <ele>80.1</ele>
        <time>2013-09-03T19:51:58.626Z</time>
      </trkpt>
      <trkpt lat="48.86497" lon="2.32851">
        <ele>79</ele>
        <time>2013-09-03T19:52:00.554Z</time>
      </trkpt>
      <trkpt lat="48.86499" lon="2.32845">
        <ele>80.7</ele>
        <time>2013-09-03T19:52:01.561Z</time>
      </trkpt>
      <trkpt lat="48.86501" lon="2.32839">
        <ele>79.9</ele>
        <time>2013-09-03T19:52:02.633Z</time>
      </trkpt>
      <trkpt lat="48.86503" lon="2.32833">
        <ele>80</ele>
        <time>2013-09-03T19:52:03.560Z</time>
      </trkpt>
      <trkpt lat="48.86505" lon="2.32826">
        <ele>80.6</ele>
        <time>2013-09-03T19:52:04.562Z</time>
      </trkpt>
      <trkpt lat="48.86507" lon="2.32819">
        <ele>80.7</ele>
        <time>2013-09-03T19:52:05.574Z</time>
      </trkpt>
      <trkpt lat="48.8651" lon="2.32807">
        <ele>82.1</ele>
        <time>2013-09-03T19:52:07.577Z</time>
      </trkpt>
      <trkpt lat="48.86511" lon="2.32801">
        <ele>82.8</ele>
        <time>2013-09-03T19:52:08.569Z</time>
      </trkpt>
      <trkpt lat="48.86513" lon="2.32789">
        <ele>82.6</ele>
        <time>2013-09-03T19:52:10.562Z</time>
      </trkpt>
      <trkpt lat="48.86517" lon="2.32782">
        <ele>81.7</ele>
        <time>2013-09-03T19:52:11.564Z</time>
      </trkpt>
      <trkpt lat="48.8652" lon="2.32776">
        <ele>81.5</ele>
        <time>2013-09-03T19:52:12.575Z</time>
      </trkpt>
      <trkpt lat="48.86522" lon="2.3277">
        <ele>81.2</ele>
        <time>2013-09-03T19:52:13.576Z</time>
      </trkpt>
      <trkpt lat="48.86526" lon="2.32759">
        <ele>80.9</ele>
        <time>2013-09-03T19:52:15.555Z</time>
      </trkpt>
      <trkpt lat="48.86527" lon="2.32754">
        <ele>81</ele>
        <time>2013-09-03T19:52:16.564Z</time>
      </trkpt>
      <trkpt lat="48.8653" lon="2.32744">
        <ele>80</ele>
        <time>2013-09-03T19:52:18.573Z</time>
      </trkpt>
      <trkpt lat="48.86532" lon="2.32741">
        <ele>80.9</ele>
        <time>2013-09-03T19:52:19.563Z</time>
      </trkpt>
      <trkpt lat="48.86538" lon="2.32739">
        <ele>79.7</ele>
        <time>2013-09-03T19:52:21.604Z</time>
      </trkpt>
      <trkpt lat="48.86542" lon="2.32744">
        <ele>78.9</ele>
        <time>2013-09-03T19:52:22.585Z</time>
      </trkpt>
      <trkpt lat="48.86548" lon="2.32753">
        <ele>79.2</ele>
        <time>2013-09-03T19:52:24.555Z</time>
      </trkpt>
      <trkpt lat="48.86551" lon="2.32756">
        <ele>81</ele>
        <time>2013-09-03T19:52:25.564Z</time>
      </trkpt>
      <trkpt lat="48.86557" lon="2.32761">
        <ele>81.3</ele>
        <time>2013-09-03T19:52:27.588Z</time>
      </trkpt>
      <trkpt lat="48.8656" lon="2.32764">
        <ele>82.2</ele>
        <time>2013-09-03T19:52:28.572Z</time>
      </trkpt>
      <trkpt lat="48.86567" lon="2.32771">
        <ele>82.9</ele>
        <time>2013-09-03T19:52:30.555Z</time>
      </trkpt>
      <trkpt lat="48.86571" lon="2.32775">
        <ele>83.5</ele>
        <time>2013-09-03T19:52:31.578Z</time>
      </trkpt>
      <trkpt lat="48.86577" lon="2.32782">
        <ele>84.3</ele>
        <time>2013-09-03T19:52:33.562Z</time>
      </trkpt>
      <trkpt lat="48.8658" lon="2.32786">
        <ele>83.6</ele>
        <time>2013-09-03T19:52:34.571Z</time>
      </trkpt>
      <trkpt lat="48.86587" lon="2.32793">
        <ele>81.7</ele>
        <time>2013-09-03T19:52:37.556Z</time>
      </trkpt>
      <trkpt lat="48.8659" lon="2.32794">
        <ele>80.9</ele>
        <time>2013-09-03T19:52:38.563Z</time>
      </trkpt>
      <trkpt lat="48.86598" lon="2.32799">
        <ele>79.2</ele>
        <time>2013-09-03T19:52:42.557Z</time>
      </trkpt>
      <trkpt lat="48.866" lon="2.328">
        <ele>79.2</ele>
        <time>2013-09-03T19:52:43.565Z</time>
      </trkpt>
      <trkpt lat="48.86607" lon="2.32806">
        <ele>80.2</ele>
        <time>2013-09-03T19:52:46.572Z</time>
      </trkpt>
      <trkpt lat="48.8661" lon="2.32809">
        <ele>80.1</ele>
        <time>2013-09-03T19:52:47.582Z</time>
      </trkpt>
      <trkpt lat="48.86616" lon="2.32815">
        <ele>81.2</ele>
        <time>2013-09-03T19:52:49.565Z</time>
      </trkpt>
      <trkpt lat="48.86619" lon="2.32818">
        <ele>81.4</ele>
        <time>2013-09-03T19:52:50.565Z</time>
      </trkpt>
      <trkpt lat="48.86623" lon="2.32822">
        <ele>81.8</ele>
        <time>2013-09-03T19:52:51.566Z</time>
      </trkpt>
      <trkpt lat="48.86628" lon="2.32825">
        <ele>82.1</ele>
        <time>2013-09-03T19:52:52.592Z</time>
      </trkpt>
      <trkpt lat="48.86632" lon="2.32828">
        <ele>82.4</ele>
        <time>2013-09-03T19:52:53.565Z</time>
      </trkpt>
      <trkpt lat="48.86636" lon="2.32832">
        <ele>81.8</ele>
        <time>2013-09-03T19:52:54.590Z</time>
      </trkpt>
      <trkpt lat="48.86644" lon="2.32838">
        <ele>82.3</ele>
        <time>2013-09-03T19:52:56.566Z</time>
      </trkpt>
      <trkpt lat="48.86647" lon="2.32841">
        <ele>81.8</ele>
        <time>2013-09-03T19:52:57.558Z</time>
      </trkpt>
      <trkpt lat="48.86653" lon="2.32848">
        <ele>83.8</ele>
        <time>2013-09-03T19:52:59.567Z</time>
      </trkpt>
      <trkpt lat="48.86656" lon="2.32851">
        <ele>83.9</ele>
        <time>2013-09-03T19:53:00.555Z</time>
      </trkpt>
      <trkpt lat="48.86662" lon="2.32856">
        <ele>82.2</ele>
        <time>2013-09-03T19:53:02.567Z</time>
      </trkpt>
      <trkpt lat="48.86666" lon="2.32858">
        <ele>81.9</ele>
        <time>2013-09-03T19:53:03.575Z</time>
      </trkpt>
      <trkpt lat="48.86673" lon="2.32863">
        <ele>79.7</ele>
        <time>2013-09-03T19:53:05.565Z</time>
      </trkpt>
      <trkpt lat="48.86677" lon="2.32866">
        <ele>80.7</ele>
        <time>2013-09-03T19:53:06.590Z</time>
      </trkpt>
      <trkpt lat="48.86682" lon="2.32869">
        <ele>79.5</ele>
        <time>2013-09-03T19:53:07.623Z</time>
      </trkpt>
      <trkpt lat="48.86686" lon="2.32873">
        <ele>78.4</ele>
        <time>2013-09-03T19:53:08.591Z</time>
      </trkpt>
      <trkpt lat="48.86691" lon="2.32876">
        <ele>78.9</ele>
        <time>2013-09-03T19:53:09.584Z</time>
      </trkpt>
      <trkpt lat="48.86696" lon="2.32879">
        <ele>78.1</ele>
        <time>2013-09-03T19:53:10.608Z</time>
      </trkpt>
      <trkpt lat="48.867" lon="2.32883">
        <ele>78.2</ele>
        <time>2013-09-03T19:53:11.645Z</time>
      </trkpt>
      <trkpt lat="48.86705" lon="2.32886">
        <ele>80.9</ele>
        <time>2013-09-03T19:53:12.678Z</time>
      </trkpt>
      <trkpt lat="48.86712" lon="2.32893">
        <ele>83.9</ele>
        <time>2013-09-03T19:53:14.646Z</time>
      </trkpt>
      <trkpt lat="48.86716" lon="2.32897">
        <ele>83.6</ele>
        <time>2013-09-03T19:53:15.624Z</time>
      </trkpt>
      <trkpt lat="48.86722" lon="2.32907">
        <ele>86.5</ele>
        <time>2013-09-03T19:53:17.687Z</time>
      </trkpt>
      <trkpt lat="48.86723" lon="2.32912">
        <ele>87.2</ele>
        <time>2013-09-03T19:53:18.584Z</time>
      </trkpt>
      <trkpt lat="48.86724" lon="2.32923">
        <ele>92.1</ele>
        <time>2013-09-03T19:53:20.575Z</time>
      </trkpt>
      <trkpt lat="48.86724" lon="2.32926">
        <ele>91.1</ele>
        <time>2013-09-03T19:53:21.558Z</time>
      </trkpt>
      <trkpt lat="48.86727" lon="2.32939">
        <ele>93.3</ele>
        <time>2013-09-03T19:53:30.568Z</time>
      </trkpt>
      <trkpt lat="48.86728" lon="2.3294">
        <ele>93</ele>
        <time>2013-09-03T19:53:31.568Z</time>
      </trkpt>
      <trkpt lat="48.86735" lon="2.32948">
        <ele>93.1</ele>
        <time>2013-09-03T19:53:37.567Z</time>
      </trkpt>
      <trkpt lat="48.86735" lon="2.32949">
        <ele>92.7</ele>
        <time>2013-09-03T19:53:38.615Z</time>
      </trkpt>
      <trkpt lat="48.86738" lon="2.3296">
        <ele>97.1</ele>
        <time>2013-09-03T19:53:51.646Z</time>
      </trkpt>
      <trkpt lat="48.86739" lon="2.32961">
        <ele>97.7</ele>
        <time>2013-09-03T19:53:52.578Z</time>
      </trkpt>
      <trkpt lat="48.86746" lon="2.32967">
        <ele>97.4</ele>
        <time>2013-09-03T19:53:57.578Z</time>
      </trkpt>
      <trkpt lat="48.86747" lon="2.32968">
        <ele>98.4</ele>
        <time>2013-09-03T19:53:58.591Z</time>
      </trkpt>
      <trkpt lat="48.86755" lon="2.32972">
        <ele>99.7</ele>
        <time>2013-09-03T19:54:03.576Z</time>
      </trkpt>
      <trkpt lat="48.86757" lon="2.32972">
        <ele>99.6</ele>
        <time>2013-09-03T19:54:04.562Z</time>
      </trkpt>
      <trkpt lat="48.86763" lon="2.32971">
        <ele>98.8</ele>
        <time>2013-09-03T19:54:07.595Z</time>
      </trkpt>
      <trkpt lat="48.86766" lon="2.32971">
        <ele>98.6</ele>
        <time>2013-09-03T19:54:08.592Z</time>
      </trkpt>
      <trkpt lat="48.86774" lon="2.32973">
        <ele>102.9</ele>
        <time>2013-09-03T19:54:11.639Z</time>
      </trkpt>
      <trkpt lat="48.86777" lon="2.32974">
        <ele>103.2</ele>
        <time>2013-09-03T19:54:12.741Z</time>
      </trkpt>
      <trkpt lat="48.86785" lon="2.32979">
        <ele>102.5</ele>
        <time>2013-09-03T19:54:15.630Z</time>
      </trkpt>
      <trkpt lat="48.86787" lon="2.32981">
        <ele>102.2</ele>
        <time>2013-09-03T19:54:16.716Z</time>
      </trkpt>
      <trkpt lat="48.86795" lon="2.32985">
        <ele>109.2</ele>
        <time>2013-09-03T19:54:20.590Z</time>
      </trkpt>
      <trkpt lat="48.86796" lon="2.32985">
        <ele>109</ele>
        <time>2013-09-03T19:54:21.566Z</time>
      </trkpt>
      <trkpt lat="48.86802" lon="2.3299">
        <ele>111.5</ele>
        <time>2013-09-03T19:54:24.723Z</time>
      </trkpt>
      <trkpt lat="48.86805" lon="2.32993">
        <ele>111.1</ele>
        <time>2013-09-03T19:54:25.661Z</time>
      </trkpt>
      <trkpt lat="48.8681" lon="2.33">
        <ele>109.9</ele>
        <time>2013-09-03T19:54:27.591Z</time>
      </trkpt>
      <trkpt lat="48.86812" lon="2.33004">
        <ele>103.8</ele>
        <time>2013-09-03T19:54:28.566Z</time>
      </trkpt>
      <trkpt lat="48.8682" lon="2.33008">
        <ele>96.3</ele>
        <time>2013-09-03T19:54:31.645Z</time>
      </trkpt>
      <trkpt lat="48.86823" lon="2.33007">
        <ele>95</ele>
        <time>2013-09-03T19:54:32.727Z</time>
      </trkpt>
      <trkpt lat="48.86829" lon="2.33001">
        <ele>96.6</ele>
        <time>2013-09-03T19:54:34.659Z</time>
      </trkpt>
      <trkpt lat="48.86832" lon="2.32997">
        <ele>97.3</ele>
        <time>2013-09-03T19:54:35.758Z</time>
      </trkpt>
      <trkpt lat="48.86838" lon="2.32988">
        <ele>96.6</ele>
        <time>2013-09-03T19:54:37.749Z</time>
      </trkpt>
      <trkpt lat="48.86841" lon="2.32984">
        <ele>95.6</ele>
        <time>2013-09-03T19:54:38.576Z</time>
      </trkpt>
      <trkpt lat="48.86847" lon="2.32974">
        <ele>96.5</ele>
        <time>2013-09-03T19:54:40.623Z</time>
      </trkpt>
      <trkpt lat="48.86849" lon="2.32969">
        <ele>97.1</ele>
        <time>2013-09-03T19:54:41.569Z</time>
      </trkpt>
      <trkpt lat="48.86856" lon="2.3296">
        <ele>96.9</ele>
        <time>2013-09-03T19:54:43.573Z</time>
      </trkpt>
      <trkpt lat="48.86859" lon="2.32956">
        <ele>96</ele>
        <time>2013-09-03T19:54:44.576Z</time>
      </trkpt>
      <trkpt lat="48.86865" lon="2.32948">
        <ele>96.3</ele>
        <time>2013-09-03T19:54:46.569Z</time>
      </trkpt>
      <trkpt lat="48.86868" lon="2.32945">
        <ele>97.1</ele>
        <time>2013-09-03T19:54:47.575Z</time>
      </trkpt>
      <trkpt lat="48.86874" lon="2.32938">
        <ele>96.9</ele>
        <time>2013-09-03T19:54:49.568Z</time>
      </trkpt>
      <trkpt lat="48.86877" lon="2.32935">
        <ele>97.6</ele>
        <time>2013-09-03T19:54:50.575Z</time>
      </trkpt>
      <trkpt lat="48.86883" lon="2.32929">
        <ele>97.3</ele>
        <time>2013-09-03T19:54:52.567Z</time>
      </trkpt>
      <trkpt lat="48.86887" lon="2.32925">
        <ele>96.9</ele>
        <time>2013-09-03T19:54:53.574Z</time>
      </trkpt>
      <trkpt lat="48.86893" lon="2.32916">
        <ele>94.8</ele>
        <time>2013-09-03T19:54:55.568Z</time>
      </trkpt>
      <trkpt lat="48.86897" lon="2.32911">
        <ele>95.4</ele>
        <time>2013-09-03T19:54:56.578Z</time>
      </trkpt>
      <trkpt lat="48.869" lon="2.32905">
        <ele>95.2</ele>
        <time>2013-09-03T19:54:57.566Z</time>
      </trkpt>
      <trkpt lat="48.86905" lon="2.329">
        <ele>94.9</ele>
        <time>2013-09-03T19:54:58.582Z</time>
      </trkpt>
      <trkpt lat="48.8691" lon="2.32895">
        <ele>94.6</ele>
        <time>2013-09-03T19:54:59.568Z</time>
      </trkpt>
      <trkpt lat="48.86914" lon="2.32892">
        <ele>93.9</ele>
        <time>2013-09-03T19:55:00.575Z</time>
      </trkpt>
      <trkpt lat="48.86918" lon="2.32886">
        <ele>92.8</ele>
        <time>2013-09-03T19:55:01.577Z</time>
      </trkpt>
      <trkpt lat="48.86922" lon="2.32882">
        <ele>92.3</ele>
        <time>2013-09-03T19:55:02.571Z</time>
      </trkpt>
      <trkpt lat="48.86926" lon="2.32877">
        <ele>89.8</ele>
        <time>2013-09-03T19:55:03.575Z</time>
      </trkpt>
      <trkpt lat="48.8693" lon="2.32873">
        <ele>90.5</ele>
        <time>2013-09-03T19:55:04.586Z</time>
      </trkpt>
      <trkpt lat="48.86937" lon="2.32864">
        <ele>92.2</ele>
        <time>2013-09-03T19:55:06.585Z</time>
      </trkpt>
      <trkpt lat="48.8694" lon="2.32861">
        <ele>91.8</ele>
        <time>2013-09-03T19:55:07.577Z</time>
      </trkpt>
      <trkpt lat="48.86947" lon="2.32854">
        <ele>91.3</ele>
        <time>2013-09-03T19:55:09.575Z</time>
      </trkpt>
      <trkpt lat="48.8695" lon="2.32851">
        <ele>91</ele>
        <time>2013-09-03T19:55:10.604Z</time>
      </trkpt>
      <trkpt lat="48.86956" lon="2.32843">
        <ele>90.8</ele>
        <time>2013-09-03T19:55:12.569Z</time>
      </trkpt>
      <trkpt lat="48.86959" lon="2.32838">
        <ele>90.1</ele>
        <time>2013-09-03T19:55:13.584Z</time>
      </trkpt>
      <trkpt lat="48.86963" lon="2.32832">
        <ele>89.2</ele>
        <time>2013-09-03T19:55:14.593Z</time>
      </trkpt>
      <trkpt lat="48.86966" lon="2.32827">
        <ele>89.1</ele>
        <time>2013-09-03T19:55:15.579Z</time>
      </trkpt>
      <trkpt lat="48.86969" lon="2.32822">
        <ele>89.7</ele>
        <time>2013-09-03T19:55:16.608Z</time>
      </trkpt>
      <trkpt lat="48.86972" lon="2.32817">
        <ele>89.3</ele>
        <time>2013-09-03T19:55:17.664Z</time>
      </trkpt>
      <trkpt lat="48.86979" lon="2.32809">
        <ele>87.7</ele>
        <time>2013-09-03T19:55:19.583Z</time>
      </trkpt>
      <trkpt lat="48.86983" lon="2.32805">
        <ele>86.3</ele>
        <time>2013-09-03T19:55:20.604Z</time>
      </trkpt>
      <trkpt lat="48.86987" lon="2.32802">
        <ele>86.6</ele>
        <time>2013-09-03T19:55:21.577Z</time>
      </trkpt>
      <trkpt lat="48.86991" lon="2.328">
        <ele>86.1</ele>
        <time>2013-09-03T19:55:22.590Z</time>
      </trkpt>
      <trkpt lat="48.86999" lon="2.32799">
        <ele>85.6</ele>
        <time>2013-09-03T19:55:24.602Z</time>
      </trkpt>
      <trkpt lat="48.87002" lon="2.32799">
        <ele>86.5</ele>
        <time>2013-09-03T19:55:25.589Z</time>
      </trkpt>
      <trkpt lat="48.87009" lon="2.32808">
        <ele>89.1</ele>
        <time>2013-09-03T19:55:29.588Z</time>
      </trkpt>
      <trkpt lat="48.87008" lon="2.3281">
        <ele>88.9</ele>
        <time>2013-09-03T19:55:30.596Z</time>
      </trkpt>
      <trkpt lat="48.87008" lon="2.32821">
        <ele>92.7</ele>
        <time>2013-09-03T19:55:42.588Z</time>
      </trkpt>
      <trkpt lat="48.87009" lon="2.32826">
        <ele>93.1</ele>
        <time>2013-09-03T19:55:43.586Z</time>
      </trkpt>
      <trkpt lat="48.87011" lon="2.32837">
        <ele>94.6</ele>
        <time>2013-09-03T19:55:45.581Z</time>
      </trkpt>
      <trkpt lat="48.87013" lon="2.32842">
        <ele>94</ele>
        <time>2013-09-03T19:55:46.594Z</time>
      </trkpt>
      <trkpt lat="48.87015" lon="2.32853">
        <ele>94.9</ele>
        <time>2013-09-03T19:55:48.596Z</time>
      </trkpt>
      <trkpt lat="48.87016" lon="2.32859">
        <ele>95.9</ele>
        <time>2013-09-03T19:55:49.604Z</time>
      </trkpt>
      <trkpt lat="48.87019" lon="2.32871">
        <ele>96.5</ele>
        <time>2013-09-03T19:55:51.583Z</time>
      </trkpt>
      <trkpt lat="48.87021" lon="2.32876">
        <ele>96.7</ele>
        <time>2013-09-03T19:55:52.581Z</time>
      </trkpt>
      <trkpt lat="48.87024" lon="2.32888">
        <ele>96.9</ele>
        <time>2013-09-03T19:55:54.581Z</time>
      </trkpt>
      <trkpt lat="48.87025" lon="2.32893">
        <ele>97.1</ele>
        <time>2013-09-03T19:55:55.581Z</time>
      </trkpt>
      <trkpt lat="48.8703" lon="2.32901">
        <ele>97.4</ele>
        <time>2013-09-03T19:55:57.604Z</time>
      </trkpt>
      <trkpt lat="48.87032" lon="2.32904">
        <ele>97.8</ele>
        <time>2013-09-03T19:55:58.581Z</time>
      </trkpt>
      <trkpt lat="48.87038" lon="2.32908">
        <ele>97.8</ele>
        <time>2013-09-03T19:56:00.605Z</time>
      </trkpt>
      <trkpt lat="48.87041" lon="2.32909">
        <ele>97.7</ele>
        <time>2013-09-03T19:56:01.583Z</time>
      </trkpt>
      <trkpt lat="48.87048" lon="2.3291">
        <ele>99.1</ele>
        <time>2013-09-03T19:56:03.580Z</time>
      </trkpt>
      <trkpt lat="48.87051" lon="2.3291">
        <ele>99.4</ele>
        <time>2013-09-03T19:56:04.582Z</time>
      </trkpt>
      <trkpt lat="48.87058" lon="2.32909">
        <ele>98.9</ele>
        <time>2013-09-03T19:56:06.582Z</time>
      </trkpt>
      <trkpt lat="48.87062" lon="2.32909">
        <ele>100</ele>
        <time>2013-09-03T19:56:07.663Z</time>
      </trkpt>
      <trkpt lat="48.87069" lon="2.32908">
        <ele>100.5</ele>
        <time>2013-09-03T19:56:09.582Z</time>
      </trkpt>
      <trkpt lat="48.87073" lon="2.32909">
        <ele>102.6</ele>
        <time>2013-09-03T19:56:10.581Z</time>
      </trkpt>
      <trkpt lat="48.87078" lon="2.3291">
        <ele>102.6</ele>
        <time>2013-09-03T19:56:11.590Z</time>
      </trkpt>
      <trkpt lat="48.87082" lon="2.32911">
        <ele>101.7</ele>
        <time>2013-09-03T19:56:12.605Z</time>
      </trkpt>
      <trkpt lat="48.87091" lon="2.32915">
        <ele>102.6</ele>
        <time>2013-09-03T19:56:14.584Z</time>
      </trkpt>
      <trkpt lat="48.87095" lon="2.32917">
        <ele>102</ele>
        <time>2013-09-03T19:56:15.605Z</time>
      </trkpt>
      <trkpt lat="48.87099" lon="2.32919">
        <ele>102.5</ele>
        <time>2013-09-03T19:56:16.592Z</time>
      </trkpt>
      <trkpt lat="48.87104" lon="2.32922">
        <ele>102.6</ele>
        <time>2013-09-03T19:56:17.707Z</time>
      </trkpt>
      <trkpt lat="48.87109" lon="2.32922">
        <ele>102.1</ele>
        <time>2013-09-03T19:56:18.574Z</time>
      </trkpt>
      <trkpt lat="48.87114" lon="2.32921">
        <ele>102.3</ele>
        <time>2013-09-03T19:56:19.591Z</time>
      </trkpt>
      <trkpt lat="48.87118" lon="2.3291">
        <ele>103</ele>
        <time>2013-09-03T19:56:21.584Z</time>
      </trkpt>
      <trkpt lat="48.87119" lon="2.32905">
        <ele>102.3</ele>
        <time>2013-09-03T19:56:22.576Z</time>
      </trkpt>
      <trkpt lat="48.87119" lon="2.32893">
        <ele>103.4</ele>
        <time>2013-09-03T19:56:26.575Z</time>
      </trkpt>
      <trkpt lat="48.8712" lon="2.32891">
        <ele>103</ele>
        <time>2013-09-03T19:56:27.582Z</time>
      </trkpt>
      <trkpt lat="48.87124" lon="2.3288">
        <ele>102.8</ele>
        <time>2013-09-03T19:56:32.583Z</time>
      </trkpt>
      <trkpt lat="48.87124" lon="2.32878">
        <ele>102.8</ele>
        <time>2013-09-03T19:56:33.585Z</time>
      </trkpt>
      <trkpt lat="48.87132" lon="2.32872">
        <ele>103</ele>
        <time>2013-09-03T19:56:40.605Z</time>
      </trkpt>
      <trkpt lat="48.87134" lon="2.32875">
        <ele>103.1</ele>
        <time>2013-09-03T19:56:41.607Z</time>
      </trkpt>
      <trkpt lat="48.87139" lon="2.3288">
        <ele>103.5</ele>
        <time>2013-09-03T19:56:43.584Z</time>
      </trkpt>
      <trkpt lat="48.87142" lon="2.32883">
        <ele>103.7</ele>
        <time>2013-09-03T19:56:44.575Z</time>
      </trkpt>
      <trkpt lat="48.87149" lon="2.32887">
        <ele>102.8</ele>
        <time>2013-09-03T19:56:46.629Z</time>
      </trkpt>
      <trkpt lat="48.87154" lon="2.3289">
        <ele>102.1</ele>
        <time>2013-09-03T19:56:47.577Z</time>
      </trkpt>
      <trkpt lat="48.87159" lon="2.32892">
        <ele>103.1</ele>
        <time>2013-09-03T19:56:48.577Z</time>
      </trkpt>
      <trkpt lat="48.87164" lon="2.32894">
        <ele>103</ele>
        <time>2013-09-03T19:56:49.611Z</time>
      </trkpt>
      <trkpt lat="48.87169" lon="2.32896">
        <ele>102.4</ele>
        <time>2013-09-03T19:56:50.576Z</time>
      </trkpt>
      <trkpt lat="48.87173" lon="2.32896">
        <ele>103.4</ele>
        <time>2013-09-03T19:56:51.585Z</time>
      </trkpt>
      <trkpt lat="48.8718" lon="2.32897">
        <ele>102.2</ele>
        <time>2013-09-03T19:56:53.601Z</time>
      </trkpt>
      <trkpt lat="48.87183" lon="2.32898">
        <ele>101.8</ele>
        <time>2013-09-03T19:56:54.578Z</time>
      </trkpt>
      <trkpt lat="48.8719" lon="2.32901">
        <ele>101.4</ele>
        <time>2013-09-03T19:56:57.593Z</time>
      </trkpt>
      <trkpt lat="48.87193" lon="2.32903">
        <ele>100.8</ele>
        <time>2013-09-03T19:56:58.585Z</time>
      </trkpt>
      <trkpt lat="48.87202" lon="2.32906">
        <ele>100</ele>
        <time>2013-09-03T19:57:01.585Z</time>
      </trkpt>
      <trkpt lat="48.87204" lon="2.32905">
        <ele>99.1</ele>
        <time>2013-09-03T19:57:02.586Z</time>
      </trkpt>
      <trkpt lat="48.87211" lon="2.32905">
        <ele>97.1</ele>
        <time>2013-09-03T19:57:04.592Z</time>
      </trkpt>
      <trkpt lat="48.87214" lon="2.32905">
        <ele>96.3</ele>
        <time>2013-09-03T19:57:05.592Z</time>
      </trkpt>
      <trkpt lat="48.8722" lon="2.32913">
        <ele>94</ele>
        <time>2013-09-03T19:57:09.577Z</time>
      </trkpt>
      <trkpt lat="48.87221" lon="2.32914">
        <ele>94.2</ele>
        <time>2013-09-03T19:57:10.585Z</time>
      </trkpt>
      <trkpt lat="48.87224" lon="2.32919">
        <ele>95.9</ele>
        <time>2013-09-03T19:57:21.589Z</time>
      </trkpt>
      <trkpt lat="48.87223" lon="2.32919">
        <ele>96.1</ele>
        <time>2013-09-03T19:57:22.580Z</time>
      </trkpt>
      <trkpt lat="48.87223" lon="2.32918">
        <ele>96.6</ele>
        <time>2013-09-03T19:57:35.702Z</time>
      </trkpt>
      <trkpt lat="48.87223" lon="2.32919">
        <ele>95.8</ele>
        <time>2013-09-03T19:57:36.653Z</time>
      </trkpt>
      <trkpt lat="48.87227" lon="2.32926">
        <ele>97.4</ele>
        <time>2013-09-03T19:57:39.709Z</time>
      </trkpt>
      <trkpt lat="48.87229" lon="2.3293">
        <ele>99.6</ele>
        <time>2013-09-03T19:57:40.596Z</time>
      </trkpt>
      <trkpt lat="48.87232" lon="2.3294">
        <ele>101.2</ele>
        <time>2013-09-03T19:57:42.684Z</time>
      </trkpt>
      <trkpt lat="48.87233" lon="2.32944">
        <ele>101.9</ele>
        <time>2013-09-03T19:57:43.645Z</time>
      </trkpt>
      <trkpt lat="48.87235" lon="2.32957">
        <ele>105.7</ele>
        <time>2013-09-03T19:57:48.731Z</time>
      </trkpt>
      <trkpt lat="48.87235" lon="2.32957">
        <ele>105.9</ele>
        <time>2013-09-03T19:57:49.667Z</time>
      </trkpt>
      <trkpt lat="48.87238" lon="2.32957">
        <ele>106.3</ele>
        <time>2013-09-03T19:58:01.606Z</time>
      </trkpt>
      <trkpt lat="48.87238" lon="2.32957">
        <ele>106.6</ele>
        <time>2013-09-03T19:58:02.758Z</time>
      </trkpt>
      <trkpt lat="48.87238" lon="2.32956">
        <ele>108.7</ele>
        <time>2013-09-03T19:58:15.671Z</time>
      </trkpt>
      <trkpt lat="48.87238" lon="2.32955">
        <ele>105.6</ele>
        <time>2013-09-03T19:58:16.743Z</time>
      </trkpt>
      <trkpt lat="48.87243" lon="2.3295">
        <ele>100.7</ele>
        <time>2013-09-03T19:58:19.599Z</time>
      </trkpt>
      <trkpt lat="48.87245" lon="2.32945">
        <ele>98.4</ele>
        <time>2013-09-03T19:58:20.742Z</time>
      </trkpt>
      <trkpt lat="48.87251" lon="2.32937">
        <ele>100.2</ele>
        <time>2013-09-03T19:58:22.717Z</time>
      </trkpt>
      <trkpt lat="48.87253" lon="2.32932">
        <ele>98.1</ele>
        <time>2013-09-03T19:58:23.721Z</time>
      </trkpt>
      <trkpt lat="48.87258" lon="2.32921">
        <ele>96.6</ele>
        <time>2013-09-03T19:58:25.727Z</time>
      </trkpt>
      <trkpt lat="48.8726" lon="2.32916">
        <ele>95.8</ele>
        <time>2013-09-03T19:58:26.591Z</time>
      </trkpt>
      <trkpt lat="48.87262" lon="2.32909">
        <ele>95.3</ele>
        <time>2013-09-03T19:58:27.729Z</time>
      </trkpt>
      <trkpt lat="48.87264" lon="2.32904">
        <ele>94.8</ele>
        <time>2013-09-03T19:58:28.607Z</time>
      </trkpt>
      <trkpt lat="48.87267" lon="2.32897">
        <ele>95.3</ele>
        <time>2013-09-03T19:58:29.758Z</time>
      </trkpt>
      <trkpt lat="48.87269" lon="2.32892">
        <ele>94.1</ele>
        <time>2013-09-03T19:58:30.751Z</time>
      </trkpt>
      <trkpt lat="48.87274" lon="2.32881">
        <ele>92.5</ele>
        <time>2013-09-03T19:58:32.803Z</time>
      </trkpt>
      <trkpt lat="48.87276" lon="2.32877">
        <ele>92.1</ele>
        <time>2013-09-03T19:58:33.610Z</time>
      </trkpt>
      <trkpt lat="48.87282" lon="2.32867">
        <ele>91.2</ele>
        <time>2013-09-03T19:58:35.608Z</time>
      </trkpt>
      <trkpt lat="48.87285" lon="2.32861">
        <ele>92.4</ele>
        <time>2013-09-03T19:58:36.793Z</time>
      </trkpt>
      <trkpt lat="48.87288" lon="2.3285">
        <ele>91.2</ele>
        <time>2013-09-03T19:58:38.721Z</time>
      </trkpt>
      <trkpt lat="48.8729" lon="2.32845">
        <ele>90.6</ele>
        <time>2013-09-03T19:58:39.661Z</time>
      </trkpt>
      <trkpt lat="48.87295" lon="2.32833">
        <ele>90.7</ele>
        <time>2013-09-03T19:58:41.745Z</time>
      </trkpt>
      <trkpt lat="48.87298" lon="2.32828">
        <ele>89.5</ele>
        <time>2013-09-03T19:58:42.593Z</time>
      </trkpt>
      <trkpt lat="48.87302" lon="2.32823">
        <ele>89.1</ele>
        <time>2013-09-03T19:58:43.673Z</time>
      </trkpt>
      <trkpt lat="48.87306" lon="2.32818">
        <ele>88.2</ele>
        <time>2013-09-03T19:58:44.601Z</time>
      </trkpt>
      <trkpt lat="48.8731" lon="2.32813">
        <ele>88.1</ele>
        <time>2013-09-03T19:58:45.725Z</time>
      </trkpt>
      <trkpt lat="48.87313" lon="2.32808">
        <ele>88.5</ele>
        <time>2013-09-03T19:58:46.593Z</time>
      </trkpt>
      <trkpt lat="48.87316" lon="2.32803">
        <ele>88.3</ele>
        <time>2013-09-03T19:58:47.592Z</time>
      </trkpt>
      <trkpt lat="48.87319" lon="2.32798">
        <ele>88</ele>
        <time>2013-09-03T19:58:48.593Z</time>
      </trkpt>
      <trkpt lat="48.87323" lon="2.32792">
        <ele>87.1</ele>
        <time>2013-09-03T19:58:49.592Z</time>
      </trkpt>
      <trkpt lat="48.87327" lon="2.32786">
        <ele>86.1</ele>
        <time>2013-09-03T19:58:50.603Z</time>
      </trkpt>
      <trkpt lat="48.8733" lon="2.3278">
        <ele>86.1</ele>
        <time>2013-09-03T19:58:51.608Z</time>
      </trkpt>
      <trkpt lat="48.87334" lon="2.32775">
        <ele>85.6</ele>
        <time>2013-09-03T19:58:52.596Z</time>
      </trkpt>
      <trkpt lat="48.87337" lon="2.32769">
        <ele>85.8</ele>
        <time>2013-09-03T19:58:53.593Z</time>
      </trkpt>
      <trkpt lat="48.87341" lon="2.32764">
        <ele>85.6</ele>
        <time>2013-09-03T19:58:54.595Z</time>
      </trkpt>
      <trkpt lat="48.87344" lon="2.32758">
        <ele>85</ele>
        <time>2013-09-03T19:58:55.613Z</time>
      </trkpt>
      <trkpt lat="48.87348" lon="2.32754">
        <ele>84.5</ele>
        <time>2013-09-03T19:58:56.603Z</time>
      </trkpt>
      <trkpt lat="48.87352" lon="2.3275">
        <ele>84.4</ele>
        <time>2013-09-03T19:58:57.586Z</time>
      </trkpt>
      <trkpt lat="48.87357" lon="2.32748">
        <ele>84</ele>
        <time>2013-09-03T19:58:58.609Z</time>
      </trkpt>
      <trkpt lat="48.87361" lon="2.32744">
        <ele>84.4</ele>
        <time>2013-09-03T19:58:59.603Z</time>
      </trkpt>
      <trkpt lat="48.87364" lon="2.32739">
        <ele>84.3</ele>
        <time>2013-09-03T19:59:00.627Z</time>
      </trkpt>
      <trkpt lat="48.87367" lon="2.32733">
        <ele>85</ele>
        <time>2013-09-03T19:59:01.605Z</time>
      </trkpt>
      <trkpt lat="48.87369" lon="2.32727">
        <ele>84.5</ele>
        <time>2013-09-03T19:59:02.588Z</time>
      </trkpt>
      <trkpt lat="48.87372" lon="2.32721">
        <ele>84.6</ele>
        <time>2013-09-03T19:59:03.610Z</time>
      </trkpt>
      <trkpt lat="48.87374" lon="2.32715">
        <ele>84.7</ele>
        <time>2013-09-03T19:59:04.628Z</time>
      </trkpt>
      <trkpt lat="48.87377" lon="2.3271">
        <ele>84.4</ele>
        <time>2013-09-03T19:59:05.643Z</time>
      </trkpt>
      <trkpt lat="48.87381" lon="2.32705">
        <ele>83.7</ele>
        <time>2013-09-03T19:59:06.755Z</time>
      </trkpt>
      <trkpt lat="48.87389" lon="2.327">
        <ele>82</ele>
        <time>2013-09-03T19:59:08.748Z</time>
      </trkpt>
      <trkpt lat="48.87392" lon="2.32698">
        <ele>81.3</ele>
        <time>2013-09-03T19:59:09.611Z</time>
      </trkpt>
      <trkpt lat="48.87399" lon="2.32695">
        <ele>83.2</ele>
        <time>2013-09-03T19:59:11.748Z</time>
      </trkpt>
      <trkpt lat="48.87401" lon="2.32694">
        <ele>83.3</ele>
        <time>2013-09-03T19:59:12.705Z</time>
      </trkpt>
      <trkpt lat="48.8741" lon="2.32696">
        <ele>83.8</ele>
        <time>2013-09-03T19:59:16.671Z</time>
      </trkpt>
      <trkpt lat="48.87412" lon="2.32698">
        <ele>83.7</ele>
        <time>2013-09-03T19:59:17.787Z</time>
      </trkpt>
      <trkpt lat="48.87413" lon="2.32702">
        <ele>83.8</ele>
        <time>2013-09-03T19:59:22.801Z</time>
      </trkpt>
      <trkpt lat="48.87412" lon="2.32701">
        <ele>83.6</ele>
        <time>2013-09-03T19:59:23.613Z</time>
      </trkpt>
      <trkpt lat="48.87411" lon="2.32701">
        <ele>83.6</ele>
        <time>2013-09-03T19:59:24.766Z</time>
      </trkpt>
      <trkpt lat="48.87411" lon="2.327">
        <ele>83.5</ele>
        <time>2013-09-03T19:59:25.653Z</time>
      </trkpt>
      <trkpt lat="48.87411" lon="2.327">
        <ele>83.7</ele>
        <time>2013-09-03T19:59:27.708Z</time>
      </trkpt>
      <trkpt lat="48.87411" lon="2.327">
        <ele>83.6</ele>
        <time>2013-09-03T19:59:28.684Z</time>
      </trkpt>
      <trkpt lat="48.8741" lon="2.32699">
        <ele>85.5</ele>
        <time>2013-09-03T19:59:39.612Z</time>
      </trkpt>
      <trkpt lat="48.8741" lon="2.32699">
        <ele>86</ele>
        <time>2013-09-03T19:59:40.757Z</time>
      </trkpt>
      <trkpt lat="48.8741" lon="2.32699">
        <ele>87.1</ele>
        <time>2013-09-03T19:59:41.662Z</time>
      </trkpt>
      <trkpt lat="48.8741" lon="2.32699">
        <ele>87.2</ele>
        <time>2013-09-03T19:59:42.754Z</time>
      </trkpt>
      <trkpt lat="48.8741" lon="2.327">
        <ele>87.3</ele>
        <time>2013-09-03T19:59:43.707Z</time>
      </trkpt>
      <trkpt lat="48.8741" lon="2.32701">
        <ele>87</ele>
        <time>2013-09-03T19:59:44.586Z</time>
      </trkpt>
      <trkpt lat="48.8741" lon="2.32702">
        <ele>87.1</ele>
        <time>2013-09-03T19:59:46.638Z</time>
      </trkpt>
      <trkpt lat="48.8741" lon="2.32702">
        <ele>87.2</ele>
        <time>2013-09-03T19:59:47.783Z</time>
      </trkpt>
      <trkpt lat="48.87411" lon="2.32701">
        <ele>87.3</ele>
        <time>2013-09-03T19:59:50.615Z</time>
      </trkpt>
      <trkpt lat="48.87412" lon="2.32701">
        <ele>87.1</ele>
        <time>2013-09-03T19:59:51.735Z</time>
      </trkpt>
      <trkpt lat="48.87418" lon="2.32697">
        <ele>87.4</ele>
        <time>2013-09-03T19:59:54.758Z</time>
      </trkpt>
      <trkpt lat="48.87421" lon="2.32695">
        <ele>87.9</ele>
        <time>2013-09-03T19:59:55.616Z</time>
      </trkpt>
      <trkpt lat="48.87426" lon="2.3269">
        <ele>91.2</ele>
        <time>2013-09-03T19:59:57.607Z</time>
      </trkpt>
      <trkpt lat="48.87428" lon="2.32687">
        <ele>91.6</ele>
        <time>2013-09-03T19:59:58.743Z</time>
      </trkpt>
      <trkpt lat="48.87433" lon="2.32676">
        <ele>95.4</ele>
        <time>2013-09-03T20:00:01.752Z</time>
      </trkpt>
      <trkpt lat="48.87434" lon="2.32673">
        <ele>95.3</ele>
        <time>2013-09-03T20:00:02.622Z</time>
      </trkpt>
      <trkpt lat="48.87439" lon="2.32664">
        <ele>94.5</ele>
        <time>2013-09-03T20:00:05.753Z</time>
      </trkpt>
      <trkpt lat="48.87441" lon="2.32662">
        <ele>93.5</ele>
        <time>2013-09-03T20:00:06.768Z</time>
      </trkpt>
      <trkpt lat="48.87447" lon="2.32658">
        <ele>94.4</ele>
        <time>2013-09-03T20:00:09.647Z</time>
      </trkpt>
      <trkpt lat="48.8745" lon="2.32657">
        <ele>97.7</ele>
        <time>2013-09-03T20:00:10.745Z</time>
      </trkpt>
      <trkpt lat="48.87457" lon="2.32657">
        <ele>99</ele>
        <time>2013-09-03T20:00:12.807Z</time>
      </trkpt>
      <trkpt lat="48.8746" lon="2.32658">
        <ele>97.9</ele>
        <time>2013-09-03T20:00:13.651Z</time>
      </trkpt>
      <trkpt lat="48.87467" lon="2.32658">
        <ele>95.8</ele>
        <time>2013-09-03T20:00:15.728Z</time>
      </trkpt>
      <trkpt lat="48.8747" lon="2.32657">
        <ele>95.2</ele>
        <time>2013-09-03T20:00:16.648Z</time>
      </trkpt>
      <trkpt lat="48.87475" lon="2.32651">
        <ele>95.2</ele>
        <time>2013-09-03T20:00:18.607Z</time>
      </trkpt>
      <trkpt lat="48.87476" lon="2.32646">
        <ele>97.5</ele>
        <time>2013-09-03T20:00:19.735Z</time>
      </trkpt>
      <trkpt lat="48.87475" lon="2.32635">
        <ele>97.9</ele>
        <time>2013-09-03T20:00:21.745Z</time>
      </trkpt>
      <trkpt lat="48.87473" lon="2.3263">
        <ele>97.3</ele>
        <time>2013-09-03T20:00:22.758Z</time>
      </trkpt>
      <trkpt lat="48.87472" lon="2.32619">
        <ele>94.3</ele>
        <time>2013-09-03T20:00:24.763Z</time>
      </trkpt>
      <trkpt lat="48.87471" lon="2.32615">
        <ele>94</ele>
        <time>2013-09-03T20:00:25.609Z</time>
      </trkpt>
      <trkpt lat="48.87471" lon="2.32606">
        <ele>91</ele>
        <time>2013-09-03T20:00:27.618Z</time>
      </trkpt>
      <trkpt lat="48.87472" lon="2.32601">
        <ele>90.1</ele>
        <time>2013-09-03T20:00:28.775Z</time>
      </trkpt>
      <trkpt lat="48.87472" lon="2.3259">
        <ele>90.2</ele>
        <time>2013-09-03T20:00:30.706Z</time>
      </trkpt>
      <trkpt lat="48.87473" lon="2.32585">
        <ele>89.7</ele>
        <time>2013-09-03T20:00:31.722Z</time>
      </trkpt>
      <trkpt lat="48.87473" lon="2.32573">
        <ele>88.7</ele>
        <time>2013-09-03T20:00:33.725Z</time>
      </trkpt>
      <trkpt lat="48.87474" lon="2.32568">
        <ele>86.5</ele>
        <time>2013-09-03T20:00:34.649Z</time>
      </trkpt>
      <trkpt lat="48.87474" lon="2.32557">
        <ele>85.2</ele>
        <time>2013-09-03T20:00:36.618Z</time>
      </trkpt>
      <trkpt lat="48.87475" lon="2.3255">
        <ele>84.6</ele>
        <time>2013-09-03T20:00:37.756Z</time>
      </trkpt>
      <trkpt lat="48.87475" lon="2.32539">
        <ele>84.1</ele>
        <time>2013-09-03T20:00:39.691Z</time>
      </trkpt>
      <trkpt lat="48.87476" lon="2.32534">
        <ele>84.2</ele>
        <time>2013-09-03T20:00:40.741Z</time>
      </trkpt>
      <trkpt lat="48.87478" lon="2.32524">
        <ele>84.2</ele>
        <time>2013-09-03T20:00:42.745Z</time>
      </trkpt>
      <trkpt lat="48.87479" lon="2.32519">
        <ele>83.1</ele>
        <time>2013-09-03T20:00:43.617Z</time>
      </trkpt>
      <trkpt lat="48.8748" lon="2.32509">
        <ele>82.5</ele>
        <time>2013-09-03T20:00:45.705Z</time>
      </trkpt>
      <trkpt lat="48.87481" lon="2.32504">
        <ele>81.7</ele>
        <time>2013-09-03T20:00:46.716Z</time>
      </trkpt>
      <trkpt lat="48.87486" lon="2.32494">
        <ele>82.4</ele>
        <time>2013-09-03T20:00:49.732Z</time>
      </trkpt>
      <trkpt lat="48.87488" lon="2.32492">
        <ele>82.6</ele>
        <time>2013-09-03T20:00:50.651Z</time>
      </trkpt>
      <trkpt lat="48.87494" lon="2.32485">
        <ele>83.8</ele>
        <time>2013-09-03T20:00:53.739Z</time>
      </trkpt>
      <trkpt lat="48.87495" lon="2.32482">
        <ele>84.6</ele>
        <time>2013-09-03T20:00:54.753Z</time>
      </trkpt>
      <trkpt lat="48.87498" lon="2.32473">
        <ele>85.7</ele>
        <time>2013-09-03T20:00:57.627Z</time>
      </trkpt>
      <trkpt lat="48.875" lon="2.32469">
        <ele>86.1</ele>
        <time>2013-09-03T20:00:58.762Z</time>
      </trkpt>
      <trkpt lat="48.87505" lon="2.32462">
        <ele>86.9</ele>
        <time>2013-09-03T20:01:01.725Z</time>
      </trkpt>
      <trkpt lat="48.87507" lon="2.32459">
        <ele>86.6</ele>
        <time>2013-09-03T20:01:02.725Z</time>
      </trkpt>
      <trkpt lat="48.87512" lon="2.32449">
        <ele>82.8</ele>
        <time>2013-09-03T20:01:06.596Z</time>
      </trkpt>
      <trkpt lat="48.87513" lon="2.32448">
        <ele>81.8</ele>
        <time>2013-09-03T20:01:07.749Z</time>
      </trkpt>
      <trkpt lat="48.87513" lon="2.3245">
        <ele>82.6</ele>
        <time>2013-09-03T20:01:11.688Z</time>
      </trkpt>
      <trkpt lat="48.87513" lon="2.32451">
        <ele>82.7</ele>
        <time>2013-09-03T20:01:12.613Z</time>
      </trkpt>
      <trkpt lat="48.87513" lon="2.32449">
        <ele>83.3</ele>
        <time>2013-09-03T20:01:29.616Z</time>
      </trkpt>
      <trkpt lat="48.87513" lon="2.32448">
        <ele>83.7</ele>
        <time>2013-09-03T20:01:30.668Z</time>
      </trkpt>
      <trkpt lat="48.87517" lon="2.32438">
        <ele>78.6</ele>
        <time>2013-09-03T20:01:34.611Z</time>
      </trkpt>
      <trkpt lat="48.87519" lon="2.32435">
        <ele>78.4</ele>
        <time>2013-09-03T20:01:35.684Z</time>
      </trkpt>
      <trkpt lat="48.87524" lon="2.32426">
        <ele>77.2</ele>
        <time>2013-09-03T20:01:38.577Z</time>
      </trkpt>
      <trkpt lat="48.87525" lon="2.32423">
        <ele>76.3</ele>
        <time>2013-09-03T20:01:39.526Z</time>
      </trkpt>
      <trkpt lat="48.87527" lon="2.32412">
        <ele>76</ele>
        <time>2013-09-03T20:01:42.522Z</time>
      </trkpt>
      <trkpt lat="48.87527" lon="2.32406">
        <ele>75.8</ele>
        <time>2013-09-03T20:01:43.555Z</time>
      </trkpt>
      <trkpt lat="48.87525" lon="2.32393">
        <ele>73.4</ele>
        <time>2013-09-03T20:01:45.537Z</time>
      </trkpt>
      <trkpt lat="48.87523" lon="2.32387">
        <ele>73.3</ele>
        <time>2013-09-03T20:01:46.555Z</time>
      </trkpt>
      <trkpt lat="48.8752" lon="2.32382">
        <ele>73.5</ele>
        <time>2013-09-03T20:01:47.523Z</time>
      </trkpt>
      <trkpt lat="48.87517" lon="2.32376">
        <ele>74</ele>
        <time>2013-09-03T20:01:48.523Z</time>
      </trkpt>
      <trkpt lat="48.87513" lon="2.32366">
        <ele>75</ele>
        <time>2013-09-03T20:01:50.532Z</time>
      </trkpt>
      <trkpt lat="48.87512" lon="2.3236">
        <ele>74.2</ele>
        <time>2013-09-03T20:01:51.588Z</time>
      </trkpt>
      <trkpt lat="48.87511" lon="2.32349">
        <ele>74.6</ele>
        <time>2013-09-03T20:01:53.524Z</time>
      </trkpt>
      <trkpt lat="48.8751" lon="2.32343">
        <ele>75.1</ele>
        <time>2013-09-03T20:01:54.539Z</time>
      </trkpt>
      <trkpt lat="48.87511" lon="2.32331">
        <ele>75.4</ele>
        <time>2013-09-03T20:01:56.570Z</time>
      </trkpt>
      <trkpt lat="48.87512" lon="2.32325">
        <ele>76.2</ele>
        <time>2013-09-03T20:01:57.554Z</time>
      </trkpt>
      <trkpt lat="48.87513" lon="2.32315">
        <ele>76.7</ele>
        <time>2013-09-03T20:01:59.549Z</time>
      </trkpt>
      <trkpt lat="48.87513" lon="2.32311">
        <ele>76.6</ele>
        <time>2013-09-03T20:02:00.533Z</time>
      </trkpt>
      <trkpt lat="48.87515" lon="2.32298">
        <ele>74.3</ele>
        <time>2013-09-03T20:02:09.675Z</time>
      </trkpt>
      <trkpt lat="48.87515" lon="2.32297">
        <ele>75.3</ele>
        <time>2013-09-03T20:02:10.548Z</time>
      </trkpt>
      <trkpt lat="48.87517" lon="2.32285">
        <ele>80.5</ele>
        <time>2013-09-03T20:02:15.533Z</time>
      </trkpt>
      <trkpt lat="48.87517" lon="2.32282">
        <ele>81.7</ele>
        <time>2013-09-03T20:02:16.706Z</time>
      </trkpt>
      <trkpt lat="48.87516" lon="2.32271">
        <ele>84.5</ele>
        <time>2013-09-03T20:02:19.676Z</time>
      </trkpt>
      <trkpt lat="48.87515" lon="2.32268">
        <ele>85.5</ele>
        <time>2013-09-03T20:02:20.597Z</time>
      </trkpt>
      <trkpt lat="48.87513" lon="2.32258">
        <ele>87.3</ele>
        <time>2013-09-03T20:02:23.709Z</time>
      </trkpt>
      <trkpt lat="48.87512" lon="2.32254">
        <ele>87.8</ele>
        <time>2013-09-03T20:02:24.573Z</time>
      </trkpt>
      <trkpt lat="48.87512" lon="2.32244">
        <ele>89</ele>
        <time>2013-09-03T20:02:26.635Z</time>
      </trkpt>
      <trkpt lat="48.87512" lon="2.32238">
        <ele>90.7</ele>
        <time>2013-09-03T20:02:27.630Z</time>
      </trkpt>
      <trkpt lat="48.87513" lon="2.32225">
        <ele>92.6</ele>
        <time>2013-09-03T20:02:29.557Z</time>
      </trkpt>
      <trkpt lat="48.87513" lon="2.32218">
        <ele>93.4</ele>
        <time>2013-09-03T20:02:30.694Z</time>
      </trkpt>
      <trkpt lat="48.87513" lon="2.32212">
        <ele>93.5</ele>
        <time>2013-09-03T20:02:31.551Z</time>
      </trkpt>
      <trkpt lat="48.87512" lon="2.32204">
        <ele>94.4</ele>
        <time>2013-09-03T20:02:32.678Z</time>
      </trkpt>
      <trkpt lat="48.87511" lon="2.32198">
        <ele>94.9</ele>
        <time>2013-09-03T20:02:33.542Z</time>
      </trkpt>
      <trkpt lat="48.87509" lon="2.32189">
        <ele>95.2</ele>
        <time>2013-09-03T20:02:34.657Z</time>
      </trkpt>
      <trkpt lat="48.87508" lon="2.32182">
        <ele>94.9</ele>
        <time>2013-09-03T20:02:35.685Z</time>
      </trkpt>
      <trkpt lat="48.87507" lon="2.32174">
        <ele>95.4</ele>
        <time>2013-09-03T20:02:36.615Z</time>
      </trkpt>
      <trkpt lat="48.87506" lon="2.32167">
        <ele>95.2</ele>
        <time>2013-09-03T20:02:37.671Z</time>
      </trkpt>
      <trkpt lat="48.87505" lon="2.3216">
        <ele>94.7</ele>
        <time>2013-09-03T20:02:38.553Z</time>
      </trkpt>
      <trkpt lat="48.87504" lon="2.32147">
        <ele>95.8</ele>
        <time>2013-09-03T20:02:40.561Z</time>
      </trkpt>
      <trkpt lat="48.87503" lon="2.32141">
        <ele>97.4</ele>
        <time>2013-09-03T20:02:41.700Z</time>
      </trkpt>
      <trkpt lat="48.87501" lon="2.32129">
        <ele>99</ele>
        <time>2013-09-03T20:02:43.639Z</time>
      </trkpt>
      <trkpt lat="48.87501" lon="2.32124">
        <ele>99.9</ele>
        <time>2013-09-03T20:02:44.542Z</time>
      </trkpt>
      <trkpt lat="48.875" lon="2.32112">
        <ele>101.2</ele>
        <time>2013-09-03T20:02:46.710Z</time>
      </trkpt>
      <trkpt lat="48.875" lon="2.32107">
        <ele>101.5</ele>
        <time>2013-09-03T20:02:47.556Z</time>
      </trkpt>
      <trkpt lat="48.875" lon="2.32094">
        <ele>99.6</ele>
        <time>2013-09-03T20:02:49.582Z</time>
      </trkpt>
      <trkpt lat="48.87499" lon="2.32087">
        <ele>96.1</ele>
        <time>2013-09-03T20:02:50.667Z</time>
      </trkpt>
      <trkpt lat="48.87498" lon="2.32081">
        <ele>96</ele>
        <time>2013-09-03T20:02:51.622Z</time>
      </trkpt>
      <trkpt lat="48.87497" lon="2.32074">
        <ele>95.7</ele>
        <time>2013-09-03T20:02:52.609Z</time>
      </trkpt>
      <trkpt lat="48.87496" lon="2.32067">
        <ele>95.6</ele>
        <time>2013-09-03T20:02:53.657Z</time>
      </trkpt>
      <trkpt lat="48.87495" lon="2.3206">
        <ele>95.5</ele>
        <time>2013-09-03T20:02:54.545Z</time>
      </trkpt>
      <trkpt lat="48.87494" lon="2.32053">
        <ele>92.6</ele>
        <time>2013-09-03T20:02:55.649Z</time>
      </trkpt>
      <trkpt lat="48.87493" lon="2.32046">
        <ele>91.9</ele>
        <time>2013-09-03T20:02:56.538Z</time>
      </trkpt>
      <trkpt lat="48.87492" lon="2.32038">
        <ele>90.4</ele>
        <time>2013-09-03T20:02:57.655Z</time>
      </trkpt>
      <trkpt lat="48.87491" lon="2.32031">
        <ele>90.1</ele>
        <time>2013-09-03T20:02:58.639Z</time>
      </trkpt>
      <trkpt lat="48.87492" lon="2.32018">
        <ele>90.5</ele>
        <time>2013-09-03T20:03:00.655Z</time>
      </trkpt>
      <trkpt lat="48.87494" lon="2.32013">
        <ele>90.5</ele>
        <time>2013-09-03T20:03:01.528Z</time>
      </trkpt>
      <trkpt lat="48.87498" lon="2.32003">
        <ele>89.9</ele>
        <time>2013-09-03T20:03:03.673Z</time>
      </trkpt>
      <trkpt lat="48.875" lon="2.32">
        <ele>89.1</ele>
        <time>2013-09-03T20:03:04.538Z</time>
      </trkpt>
      <trkpt lat="48.87506" lon="2.31995">
        <ele>87.9</ele>
        <time>2013-09-03T20:03:06.592Z</time>
      </trkpt>
      <trkpt lat="48.8751" lon="2.31993">
        <ele>88.1</ele>
        <time>2013-09-03T20:03:07.615Z</time>
      </trkpt>
      <trkpt lat="48.87517" lon="2.3199">
        <ele>87.9</ele>
        <time>2013-09-03T20:03:09.545Z</time>
      </trkpt>
      <trkpt lat="48.87521" lon="2.31989">
        <ele>84.9</ele>
        <time>2013-09-03T20:03:10.729Z</time>
      </trkpt>
      <trkpt lat="48.87529" lon="2.31985">
        <ele>84.6</ele>
        <time>2013-09-03T20:03:12.716Z</time>
      </trkpt>
      <trkpt lat="48.87533" lon="2.31984">
        <ele>83.5</ele>
        <time>2013-09-03T20:03:13.616Z</time>
      </trkpt>
      <trkpt lat="48.8754" lon="2.31979">
        <ele>84.5</ele>
        <time>2013-09-03T20:03:15.663Z</time>
      </trkpt>
      <trkpt lat="48.87542" lon="2.31976">
        <ele>85.6</ele>
        <time>2013-09-03T20:03:16.592Z</time>
      </trkpt>
      <trkpt lat="48.87545" lon="2.31964">
        <ele>86.8</ele>
        <time>2013-09-03T20:03:19.697Z</time>
      </trkpt>
      <trkpt lat="48.87545" lon="2.31961">
        <ele>89.1</ele>
        <time>2013-09-03T20:03:20.544Z</time>
      </trkpt>
      <trkpt lat="48.87553" lon="2.31953">
        <ele>88</ele>
        <time>2013-09-03T20:03:25.562Z</time>
      </trkpt>
      <trkpt lat="48.87555" lon="2.31952">
        <ele>88</ele>
        <time>2013-09-03T20:03:26.762Z</time>
      </trkpt>
      <trkpt lat="48.87563" lon="2.31952">
        <ele>84</ele>
        <time>2013-09-03T20:03:30.727Z</time>
      </trkpt>
      <trkpt lat="48.87565" lon="2.31952">
        <ele>84.2</ele>
        <time>2013-09-03T20:03:31.625Z</time>
      </trkpt>
      <trkpt lat="48.87573" lon="2.31952">
        <ele>88.2</ele>
        <time>2013-09-03T20:03:34.611Z</time>
      </trkpt>
      <trkpt lat="48.87575" lon="2.31951">
        <ele>88.8</ele>
        <time>2013-09-03T20:03:35.731Z</time>
      </trkpt>
      <trkpt lat="48.87584" lon="2.31947">
        <ele>92.7</ele>
        <time>2013-09-03T20:03:38.553Z</time>
      </trkpt>
      <trkpt lat="48.87587" lon="2.31946">
        <ele>93.4</ele>
        <time>2013-09-03T20:03:39.705Z</time>
      </trkpt>
      <trkpt lat="48.87593" lon="2.31942">
        <ele>94.2</ele>
        <time>2013-09-03T20:03:41.628Z</time>
      </trkpt>
      <trkpt lat="48.87596" lon="2.31941">
        <ele>93.5</ele>
        <time>2013-09-03T20:03:42.692Z</time>
      </trkpt>
      <trkpt lat="48.87602" lon="2.3194">
        <ele>93.9</ele>
        <time>2013-09-03T20:03:45.547Z</time>
      </trkpt>
      <trkpt lat="48.87605" lon="2.31939">
        <ele>94.5</ele>
        <time>2013-09-03T20:03:46.715Z</time>
      </trkpt>
      <trkpt lat="48.87612" lon="2.31932">
        <ele>96.4</ele>
        <time>2013-09-03T20:03:51.714Z</time>
      </trkpt>
      <trkpt lat="48.87613" lon="2.31931">
        <ele>95.4</ele>
        <time>2013-09-03T20:03:52.536Z</time>
      </trkpt>
      <trkpt lat="48.87619" lon="2.31927">
        <ele>95.7</ele>
        <time>2013-09-03T20:03:54.536Z</time>
      </trkpt>
      <trkpt lat="48.87622" lon="2.31925">
        <ele>97</ele>
        <time>2013-09-03T20:03:55.710Z</time>
      </trkpt>
      <trkpt lat="48.87627" lon="2.31921">
        <ele>97.5</ele>
        <time>2013-09-03T20:03:57.533Z</time>
      </trkpt>
      <trkpt lat="48.8763" lon="2.31918">
        <ele>97.1</ele>
        <time>2013-09-03T20:03:58.710Z</time>
      </trkpt>
      <trkpt lat="48.87637" lon="2.31913">
        <ele>99.2</ele>
        <time>2013-09-03T20:04:01.533Z</time>
      </trkpt>
      <trkpt lat="48.87639" lon="2.31911">
        <ele>99.3</ele>
        <time>2013-09-03T20:04:02.541Z</time>
      </trkpt>
      <trkpt lat="48.87644" lon="2.31905">
        <ele>99.9</ele>
        <time>2013-09-03T20:04:05.544Z</time>
      </trkpt>
      <trkpt lat="48.87646" lon="2.31903">
        <ele>100.5</ele>
        <time>2013-09-03T20:04:06.558Z</time>
      </trkpt>
      <trkpt lat="48.87654" lon="2.31906">
        <ele>100.6</ele>
        <time>2013-09-03T20:04:11.542Z</time>
      </trkpt>
      <trkpt lat="48.87655" lon="2.31908">
        <ele>103.2</ele>
        <time>2013-09-03T20:04:12.556Z</time>
      </trkpt>
      <trkpt lat="48.87664" lon="2.31913">
        <ele>106.9</ele>
        <time>2013-09-03T20:04:16.543Z</time>
      </trkpt>
      <trkpt lat="48.87667" lon="2.31913">
        <ele>108.3</ele>
        <time>2013-09-03T20:04:17.543Z</time>
      </trkpt>
      <trkpt lat="48.87674" lon="2.31916">
        <ele>111.4</ele>
        <time>2013-09-03T20:04:20.551Z</time>
      </trkpt>
      <trkpt lat="48.87677" lon="2.31917">
        <ele>111.4</ele>
        <time>2013-09-03T20:04:21.550Z</time>
      </trkpt>
      <trkpt lat="48.87684" lon="2.3192">
        <ele>116.6</ele>
        <time>2013-09-03T20:04:24.558Z</time>
      </trkpt>
      <trkpt lat="48.87688" lon="2.31922">
        <ele>115.9</ele>
        <time>2013-09-03T20:04:25.686Z</time>
      </trkpt>
      <trkpt lat="48.87695" lon="2.31924">
        <ele>116.7</ele>
        <time>2013-09-03T20:04:27.720Z</time>
      </trkpt>
      <trkpt lat="48.87698" lon="2.31925">
        <ele>116.8</ele>
        <time>2013-09-03T20:04:28.599Z</time>
      </trkpt>
      <trkpt lat="48.87705" lon="2.31928">
        <ele>117.8</ele>
        <time>2013-09-03T20:04:30.702Z</time>
      </trkpt>
      <trkpt lat="48.87709" lon="2.3193">
        <ele>117.2</ele>
        <time>2013-09-03T20:04:31.574Z</time>
      </trkpt>
      <trkpt lat="48.87715" lon="2.31934">
        <ele>116.9</ele>
        <time>2013-09-03T20:04:33.552Z</time>
      </trkpt>
      <trkpt lat="48.87718" lon="2.31936">
        <ele>116.4</ele>
        <time>2013-09-03T20:04:34.718Z</time>
      </trkpt>
      <trkpt lat="48.87726" lon="2.31939">
        <ele>119.4</ele>
        <time>2013-09-03T20:04:37.646Z</time>
      </trkpt>
      <trkpt lat="48.87727" lon="2.3194">
        <ele>120.7</ele>
        <time>2013-09-03T20:04:38.599Z</time>
      </trkpt>
      <trkpt lat="48.87735" lon="2.31944">
        <ele>121.2</ele>
        <time>2013-09-03T20:04:42.553Z</time>
      </trkpt>
      <trkpt lat="48.87738" lon="2.31945">
        <ele>121</ele>
        <time>2013-09-03T20:04:43.700Z</time>
      </trkpt>
      <trkpt lat="48.87745" lon="2.31947">
        <ele>118.6</ele>
        <time>2013-09-03T20:04:46.738Z</time>
      </trkpt>
      <trkpt lat="48.87748" lon="2.31947">
        <ele>118.7</ele>
        <time>2013-09-03T20:04:47.575Z</time>
      </trkpt>
      <trkpt lat="48.87754" lon="2.31949">
        <ele>116.4</ele>
        <time>2013-09-03T20:04:49.553Z</time>
      </trkpt>
      <trkpt lat="48.87757" lon="2.31951">
        <ele>116.3</ele>
        <time>2013-09-03T20:04:50.729Z</time>
      </trkpt>
      <trkpt lat="48.87765" lon="2.31955">
        <ele>117.1</ele>
        <time>2013-09-03T20:04:53.673Z</time>
      </trkpt>
      <trkpt lat="48.87766" lon="2.31956">
        <ele>116.8</ele>
        <time>2013-09-03T20:04:54.601Z</time>
      </trkpt>
      <trkpt lat="48.87774" lon="2.31956">
        <ele>114.3</ele>
        <time>2013-09-03T20:05:09.682Z</time>
      </trkpt>
      <trkpt lat="48.87774" lon="2.31956">
        <ele>114.6</ele>
        <time>2013-09-03T20:05:10.695Z</time>
      </trkpt>
      <trkpt lat="48.87775" lon="2.31956">
        <ele>114.8</ele>
        <time>2013-09-03T20:05:14.555Z</time>
      </trkpt>
      <trkpt lat="48.87775" lon="2.31955">
        <ele>114.5</ele>
        <time>2013-09-03T20:05:15.678Z</time>
      </trkpt>
      <trkpt lat="48.87783" lon="2.3195">
        <ele>114.8</ele>
        <time>2013-09-03T20:05:24.683Z</time>
      </trkpt>
      <trkpt lat="48.87784" lon="2.3195">
        <ele>116</ele>
        <time>2013-09-03T20:05:25.563Z</time>
      </trkpt>
      <trkpt lat="48.87792" lon="2.3195">
        <ele>111.7</ele>
        <time>2013-09-03T20:05:39.571Z</time>
      </trkpt>
      <trkpt lat="48.87793" lon="2.31951">
        <ele>111.3</ele>
        <time>2013-09-03T20:05:40.652Z</time>
      </trkpt>
      <trkpt lat="48.878" lon="2.31957">
        <ele>103.1</ele>
        <time>2013-09-03T20:05:45.718Z</time>
      </trkpt>
      <trkpt lat="48.87801" lon="2.31958">
        <ele>102.8</ele>
        <time>2013-09-03T20:05:46.558Z</time>
      </trkpt>
      <trkpt lat="48.87807" lon="2.31961">
        <ele>104.8</ele>
        <time>2013-09-03T20:05:50.663Z</time>
      </trkpt>
      <trkpt lat="48.8781" lon="2.31965">
        <ele>104.8</ele>
        <time>2013-09-03T20:05:57.537Z</time>
      </trkpt>
      <trkpt lat="48.8781" lon="2.31965">
        <ele>105</ele>
        <time>2013-09-03T20:05:58.545Z</time>
      </trkpt>
      <trkpt lat="48.8781" lon="2.31966">
        <ele>104.5</ele>
        <time>2013-09-03T20:06:02.585Z</time>
      </trkpt>
      <trkpt lat="48.8781" lon="2.31967">
        <ele>106.7</ele>
        <time>2013-09-03T20:06:03.680Z</time>
      </trkpt>
      <trkpt lat="48.87818" lon="2.31969">
        <ele>101.1</ele>
        <time>2013-09-03T20:06:08.698Z</time>
      </trkpt>
      <trkpt lat="48.8782" lon="2.31968">
        <ele>101.9</ele>
        <time>2013-09-03T20:06:09.563Z</time>
      </trkpt>
      <trkpt lat="48.87827" lon="2.31963">
        <ele>104</ele>
        <time>2013-09-03T20:06:13.693Z</time>
      </trkpt>
      <trkpt lat="48.87828" lon="2.31962">
        <ele>104.3</ele>
        <time>2013-09-03T20:06:14.595Z</time>
      </trkpt>
      <trkpt lat="48.87835" lon="2.31958">
        <ele>105.7</ele>
        <time>2013-09-03T20:06:18.588Z</time>
      </trkpt>
      <trkpt lat="48.87837" lon="2.31957">
        <ele>106.5</ele>
        <time>2013-09-03T20:06:19.710Z</time>
      </trkpt>
      <trkpt lat="48.87842" lon="2.31948">
        <ele>107.5</ele>
        <time>2013-09-03T20:06:23.563Z</time>
      </trkpt>
      <trkpt lat="48.87843" lon="2.31946">
        <ele>107.7</ele>
        <time>2013-09-03T20:06:24.652Z</time>
      </trkpt>
      <trkpt lat="48.8785" lon="2.3194">
        <ele>107.6</ele>
        <time>2013-09-03T20:06:27.562Z</time>
      </trkpt>
      <trkpt lat="48.87852" lon="2.31938">
        <ele>107.4</ele>
        <time>2013-09-03T20:06:28.555Z</time>
      </trkpt>
      <trkpt lat="48.87859" lon="2.31934">
        <ele>106</ele>
        <time>2013-09-03T20:06:30.580Z</time>
      </trkpt>
      <trkpt lat="48.87862" lon="2.31932">
        <ele>106.2</ele>
        <time>2013-09-03T20:06:31.572Z</time>
      </trkpt>
      <trkpt lat="48.87869" lon="2.31926">
        <ele>105.7</ele>
        <time>2013-09-03T20:06:33.558Z</time>
      </trkpt>
      <trkpt lat="48.87872" lon="2.31923">
        <ele>105.6</ele>
        <time>2013-09-03T20:06:34.548Z</time>
      </trkpt>
      <trkpt lat="48.87876" lon="2.31919">
        <ele>105.8</ele>
        <time>2013-09-03T20:06:35.548Z</time>
      </trkpt>
      <trkpt lat="48.8788" lon="2.31914">
        <ele>105.1</ele>
        <time>2013-09-03T20:06:36.555Z</time>
      </trkpt>
      <trkpt lat="48.87887" lon="2.31905">
        <ele>104.4</ele>
        <time>2013-09-03T20:06:38.548Z</time>
      </trkpt>
      <trkpt lat="48.8789" lon="2.31903">
        <ele>107</ele>
        <time>2013-09-03T20:06:39.555Z</time>
      </trkpt>
      <trkpt lat="48.87896" lon="2.31899">
        <ele>109.6</ele>
        <time>2013-09-03T20:06:41.541Z</time>
      </trkpt>
      <trkpt lat="48.87899" lon="2.31896">
        <ele>110.2</ele>
        <time>2013-09-03T20:06:42.573Z</time>
      </trkpt>
      <trkpt lat="48.87906" lon="2.31889">
        <ele>113.7</ele>
        <time>2013-09-03T20:06:44.557Z</time>
      </trkpt>
      <trkpt lat="48.87909" lon="2.31885">
        <ele>114.4</ele>
        <time>2013-09-03T20:06:45.542Z</time>
      </trkpt>
      <trkpt lat="48.87913" lon="2.3188">
        <ele>113.8</ele>
        <time>2013-09-03T20:06:46.558Z</time>
      </trkpt>
      <trkpt lat="48.87917" lon="2.31875">
        <ele>114.4</ele>
        <time>2013-09-03T20:06:47.565Z</time>
      </trkpt>
      <trkpt lat="48.8792" lon="2.31869">
        <ele>116.9</ele>
        <time>2013-09-03T20:06:48.547Z</time>
      </trkpt>
      <trkpt lat="48.87924" lon="2.31864">
        <ele>117.4</ele>
        <time>2013-09-03T20:06:49.557Z</time>
      </trkpt>
      <trkpt lat="48.87927" lon="2.31858">
        <ele>115.9</ele>
        <time>2013-09-03T20:06:50.543Z</time>
      </trkpt>
      <trkpt lat="48.8793" lon="2.31853">
        <ele>116.2</ele>
        <time>2013-09-03T20:06:51.551Z</time>
      </trkpt>
      <trkpt lat="48.87933" lon="2.31847">
        <ele>113.6</ele>
        <time>2013-09-03T20:06:52.551Z</time>
      </trkpt>
      <trkpt lat="48.87937" lon="2.31841">
        <ele>112</ele>
        <time>2013-09-03T20:06:53.550Z</time>
      </trkpt>
      <trkpt lat="48.8794" lon="2.31834">
        <ele>111.1</ele>
        <time>2013-09-03T20:06:54.563Z</time>
      </trkpt>
      <trkpt lat="48.87945" lon="2.31825">
        <ele>109.6</ele>
        <time>2013-09-03T20:06:55.551Z</time>
      </trkpt>
      <trkpt lat="48.87949" lon="2.31818">
        <ele>109.3</ele>
        <time>2013-09-03T20:06:56.575Z</time>
      </trkpt>
      <trkpt lat="48.87952" lon="2.31813">
        <ele>109.4</ele>
        <time>2013-09-03T20:06:57.566Z</time>
      </trkpt>
      <trkpt lat="48.87958" lon="2.31808">
        <ele>107.6</ele>
        <time>2013-09-03T20:06:59.558Z</time>
      </trkpt>
      <trkpt lat="48.87961" lon="2.31806">
        <ele>107.9</ele>
        <time>2013-09-03T20:07:00.543Z</time>
      </trkpt>
      <trkpt lat="48.87968" lon="2.31801">
        <ele>112.4</ele>
        <time>2013-09-03T20:07:03.549Z</time>
      </trkpt>
      <trkpt lat="48.8797" lon="2.318">
        <ele>115.3</ele>
        <time>2013-09-03T20:07:04.584Z</time>
      </trkpt>
      <trkpt lat="48.87977" lon="2.31793">
        <ele>115.8</ele>
        <time>2013-09-03T20:07:07.727Z</time>
      </trkpt>
      <trkpt lat="48.87979" lon="2.3179">
        <ele>115.5</ele>
        <time>2013-09-03T20:07:08.631Z</time>
      </trkpt>
      <trkpt lat="48.87985" lon="2.31783">
        <ele>115.7</ele>
        <time>2013-09-03T20:07:10.583Z</time>
      </trkpt>
      <trkpt lat="48.87988" lon="2.31779">
        <ele>117.3</ele>
        <time>2013-09-03T20:07:11.615Z</time>
      </trkpt>
      <trkpt lat="48.87995" lon="2.31772">
        <ele>117.8</ele>
        <time>2013-09-03T20:07:13.577Z</time>
      </trkpt>
      <trkpt lat="48.87999" lon="2.31768">
        <ele>115.1</ele>
        <time>2013-09-03T20:07:14.552Z</time>
      </trkpt>
      <trkpt lat="48.88003" lon="2.31764">
        <ele>114.7</ele>
        <time>2013-09-03T20:07:15.560Z</time>
      </trkpt>
      <trkpt lat="48.88007" lon="2.3176">
        <ele>112.6</ele>
        <time>2013-09-03T20:07:16.565Z</time>
      </trkpt>
      <trkpt lat="48.88011" lon="2.31755">
        <ele>112.2</ele>
        <time>2013-09-03T20:07:17.565Z</time>
      </trkpt>
      <trkpt lat="48.88014" lon="2.31751">
        <ele>112.1</ele>
        <time>2013-09-03T20:07:18.567Z</time>
      </trkpt>
      <trkpt lat="48.88019" lon="2.31746">
        <ele>111.7</ele>
        <time>2013-09-03T20:07:19.648Z</time>
      </trkpt>
      <trkpt lat="48.88022" lon="2.31742">
        <ele>112.5</ele>
        <time>2013-09-03T20:07:20.567Z</time>
      </trkpt>
      <trkpt lat="48.88027" lon="2.31738">
        <ele>109.7</ele>
        <time>2013-09-03T20:07:21.733Z</time>
      </trkpt>
      <trkpt lat="48.88031" lon="2.31735">
        <ele>105.7</ele>
        <time>2013-09-03T20:07:22.593Z</time>
      </trkpt>
      <trkpt lat="48.88036" lon="2.31732">
        <ele>106.1</ele>
        <time>2013-09-03T20:07:23.724Z</time>
      </trkpt>
      <trkpt lat="48.8804" lon="2.31729">
        <ele>106.1</ele>
        <time>2013-09-03T20:07:24.658Z</time>
      </trkpt>
      <trkpt lat="48.88047" lon="2.31724">
        <ele>105.7</ele>
        <time>2013-09-03T20:07:26.560Z</time>
      </trkpt>
      <trkpt lat="48.88051" lon="2.31721">
        <ele>106</ele>
        <time>2013-09-03T20:07:27.545Z</time>
      </trkpt>
      <trkpt lat="48.88057" lon="2.31716">
        <ele>105</ele>
        <time>2013-09-03T20:07:29.553Z</time>
      </trkpt>
      <trkpt lat="48.8806" lon="2.31714">
        <ele>103.3</ele>
        <time>2013-09-03T20:07:30.561Z</time>
      </trkpt>
      <trkpt lat="48.88066" lon="2.31708">
        <ele>102.4</ele>
        <time>2013-09-03T20:07:32.574Z</time>
      </trkpt>
      <trkpt lat="48.88068" lon="2.31705">
        <ele>104</ele>
        <time>2013-09-03T20:07:33.545Z</time>
      </trkpt>
      <trkpt lat="48.88075" lon="2.31698">
        <ele>102.3</ele>
        <time>2013-09-03T20:07:36.545Z</time>
      </trkpt>
      <trkpt lat="48.88077" lon="2.31696">
        <ele>102</ele>
        <time>2013-09-03T20:07:37.552Z</time>
      </trkpt>
      <trkpt lat="48.88083" lon="2.31693">
        <ele>103</ele>
        <time>2013-09-03T20:07:39.569Z</time>
      </trkpt>
      <trkpt lat="48.88086" lon="2.31691">
        <ele>103.8</ele>
        <time>2013-09-03T20:07:40.545Z</time>
      </trkpt>
      <trkpt lat="48.88092" lon="2.31686">
        <ele>104.9</ele>
        <time>2013-09-03T20:07:42.562Z</time>
      </trkpt>
      <trkpt lat="48.88095" lon="2.31684">
        <ele>105.5</ele>
        <time>2013-09-03T20:07:43.555Z</time>
      </trkpt>
      <trkpt lat="48.88103" lon="2.31682">
        <ele>103.8</ele>
        <time>2013-09-03T20:07:46.571Z</time>
      </trkpt>
      <trkpt lat="48.88106" lon="2.31683">
        <ele>102.2</ele>
        <time>2013-09-03T20:07:47.578Z</time>
      </trkpt>
      <trkpt lat="48.88113" lon="2.31686">
        <ele>101.2</ele>
        <time>2013-09-03T20:07:50.563Z</time>
      </trkpt>
      <trkpt lat="48.88115" lon="2.31687">
        <ele>100.2</ele>
        <time>2013-09-03T20:07:51.578Z</time>
      </trkpt>
      <trkpt lat="48.88123" lon="2.31692">
        <ele>94.7</ele>
        <time>2013-09-03T20:08:04.796Z</time>
      </trkpt>
      <trkpt lat="48.88124" lon="2.31691">
        <ele>95.1</ele>
        <time>2013-09-03T20:08:05.610Z</time>
      </trkpt>
      <trkpt lat="48.88131" lon="2.31688">
        <ele>98.9</ele>
        <time>2013-09-03T20:08:16.565Z</time>
      </trkpt>
      <trkpt lat="48.88133" lon="2.31689">
        <ele>99.4</ele>
        <time>2013-09-03T20:08:17.919Z</time>
      </trkpt>
      <trkpt lat="48.88135" lon="2.31701">
        <ele>102.5</ele>
        <time>2013-09-03T20:08:23.594Z</time>
      </trkpt>
      <trkpt lat="48.88136" lon="2.31704">
        <ele>103.3</ele>
        <time>2013-09-03T20:08:24.709Z</time>
      </trkpt>
      <trkpt lat="48.88138" lon="2.31716">
        <ele>106.5</ele>
        <time>2013-09-03T20:08:27.572Z</time>
      </trkpt>
      <trkpt lat="48.8814" lon="2.3172">
        <ele>107.8</ele>
        <time>2013-09-03T20:08:28.613Z</time>
      </trkpt>
      <trkpt lat="48.88143" lon="2.31732">
        <ele>109.6</ele>
        <time>2013-09-03T20:08:31.558Z</time>
      </trkpt>
      <trkpt lat="48.88145" lon="2.31735">
        <ele>109.9</ele>
        <time>2013-09-03T20:08:32.573Z</time>
      </trkpt>
      <trkpt lat="48.88148" lon="2.31745">
        <ele>111.2</ele>
        <time>2013-09-03T20:08:35.557Z</time>
      </trkpt>
      <trkpt lat="48.88149" lon="2.31748">
        <ele>111.9</ele>
        <time>2013-09-03T20:08:36.572Z</time>
      </trkpt>
      <trkpt lat="48.88152" lon="2.31759">
        <ele>112.5</ele>
        <time>2013-09-03T20:08:39.615Z</time>
      </trkpt>
      <trkpt lat="48.88153" lon="2.31763">
        <ele>113.9</ele>
        <time>2013-09-03T20:08:40.726Z</time>
      </trkpt>
      <trkpt lat="48.88155" lon="2.31772">
        <ele>114.4</ele>
        <time>2013-09-03T20:08:42.718Z</time>
      </trkpt>
      <trkpt lat="48.88157" lon="2.31777">
        <ele>112</ele>
        <time>2013-09-03T20:08:43.558Z</time>
      </trkpt>
      <trkpt lat="48.88162" lon="2.31789">
        <ele>114.1</ele>
        <time>2013-09-03T20:08:45.564Z</time>
      </trkpt>
      <trkpt lat="48.88165" lon="2.31795">
        <ele>113.8</ele>
        <time>2013-09-03T20:08:46.575Z</time>
      </trkpt>
      <trkpt lat="48.88168" lon="2.31802">
        <ele>113.5</ele>
        <time>2013-09-03T20:08:47.751Z</time>
      </trkpt>
      <trkpt lat="48.8817" lon="2.31807">
        <ele>114.4</ele>
        <time>2013-09-03T20:08:48.565Z</time>
      </trkpt>
      <trkpt lat="48.88173" lon="2.31813">
        <ele>116.3</ele>
        <time>2013-09-03T20:08:49.567Z</time>
      </trkpt>
      <trkpt lat="48.88175" lon="2.31819">
        <ele>117.1</ele>
        <time>2013-09-03T20:08:50.566Z</time>
      </trkpt>
      <trkpt lat="48.88178" lon="2.3183">
        <ele>119.2</ele>
        <time>2013-09-03T20:08:52.576Z</time>
      </trkpt>
      <trkpt lat="48.8818" lon="2.31836">
        <ele>119.5</ele>
        <time>2013-09-03T20:08:53.639Z</time>
      </trkpt>
      <trkpt lat="48.88183" lon="2.31847">
        <ele>121.5</ele>
        <time>2013-09-03T20:08:55.592Z</time>
      </trkpt>
      <trkpt lat="48.88184" lon="2.31852">
        <ele>120.4</ele>
        <time>2013-09-03T20:08:56.560Z</time>
      </trkpt>
      <trkpt lat="48.88186" lon="2.31863">
        <ele>120.9</ele>
        <time>2013-09-03T20:08:58.567Z</time>
      </trkpt>
      <trkpt lat="48.88186" lon="2.31869">
        <ele>121.8</ele>
        <time>2013-09-03T20:08:59.581Z</time>
      </trkpt>
      <trkpt lat="48.88188" lon="2.31879">
        <ele>122.4</ele>
        <time>2013-09-03T20:09:01.760Z</time>
      </trkpt>
      <trkpt lat="48.88189" lon="2.31882">
        <ele>123.6</ele>
        <time>2013-09-03T20:09:02.607Z</time>
      </trkpt>
      <trkpt lat="48.88192" lon="2.31893">
        <ele>130.7</ele>
        <time>2013-09-03T20:09:05.752Z</time>
      </trkpt>
      <trkpt lat="48.88192" lon="2.31896">
        <ele>131.1</ele>
        <time>2013-09-03T20:09:06.640Z</time>
      </trkpt>
      <trkpt lat="48.88193" lon="2.31908">
        <ele>130.8</ele>
        <time>2013-09-03T20:09:09.621Z</time>
      </trkpt>
      <trkpt lat="48.88194" lon="2.31913">
        <ele>131</ele>
        <time>2013-09-03T20:09:10.781Z</time>
      </trkpt>
      <trkpt lat="48.88196" lon="2.31922">
        <ele>131.7</ele>
        <time>2013-09-03T20:09:12.776Z</time>
      </trkpt>
      <trkpt lat="48.88197" lon="2.31926">
        <ele>133.2</ele>
        <time>2013-09-03T20:09:13.626Z</time>
      </trkpt>
      <trkpt lat="48.88199" lon="2.31936">
        <ele>133.4</ele>
        <time>2013-09-03T20:09:15.688Z</time>
      </trkpt>
      <trkpt lat="48.882" lon="2.31941">
        <ele>132.5</ele>
        <time>2013-09-03T20:09:16.692Z</time>
      </trkpt>
      <trkpt lat="48.88204" lon="2.3195">
        <ele>126.3</ele>
        <time>2013-09-03T20:09:18.671Z</time>
      </trkpt>
      <trkpt lat="48.88205" lon="2.31955">
        <ele>124.4</ele>
        <time>2013-09-03T20:09:19.769Z</time>
      </trkpt>
      <trkpt lat="48.88209" lon="2.31966">
        <ele>123.5</ele>
        <time>2013-09-03T20:09:21.737Z</time>
      </trkpt>
      <trkpt lat="48.8821" lon="2.31971">
        <ele>123.3</ele>
        <time>2013-09-03T20:09:22.617Z</time>
      </trkpt>
      <trkpt lat="48.88212" lon="2.31981">
        <ele>124.5</ele>
        <time>2013-09-03T20:09:24.684Z</time>
      </trkpt>
      <trkpt lat="48.88213" lon="2.31985">
        <ele>123.7</ele>
        <time>2013-09-03T20:09:25.625Z</time>
      </trkpt>
      <trkpt lat="48.88216" lon="2.31997">
        <ele>124.5</ele>
        <time>2013-09-03T20:09:29.581Z</time>
      </trkpt>
      <trkpt lat="48.88216" lon="2.32">
        <ele>123.6</ele>
        <time>2013-09-03T20:09:30.728Z</time>
      </trkpt>
      <trkpt lat="48.88215" lon="2.32013">
        <ele>114.8</ele>
        <time>2013-09-03T20:09:39.697Z</time>
      </trkpt>
      <trkpt lat="48.88215" lon="2.32014">
        <ele>113.2</ele>
        <time>2013-09-03T20:09:40.777Z</time>
      </trkpt>
      <trkpt lat="48.88217" lon="2.32025">
        <ele>114.6</ele>
        <time>2013-09-03T20:09:44.787Z</time>
      </trkpt>
      <trkpt lat="48.88218" lon="2.32028">
        <ele>115</ele>
        <time>2013-09-03T20:09:45.594Z</time>
      </trkpt>
      <trkpt lat="48.88222" lon="2.32039">
        <ele>113.2</ele>
        <time>2013-09-03T20:09:50.587Z</time>
      </trkpt>
      <trkpt lat="48.88223" lon="2.32041">
        <ele>114</ele>
        <time>2013-09-03T20:09:52.308Z</time>
      </trkpt>
      <trkpt lat="48.88225" lon="2.32053">
        <ele>112.5</ele>
        <time>2013-09-03T20:09:55.573Z</time>
      </trkpt>
      <trkpt lat="48.88226" lon="2.32058">
        <ele>114.1</ele>
        <time>2013-09-03T20:09:56.773Z</time>
      </trkpt>
      <trkpt lat="48.88227" lon="2.32068">
        <ele>111.9</ele>
        <time>2013-09-03T20:09:58.757Z</time>
      </trkpt>
      <trkpt lat="48.88227" lon="2.32073">
        <ele>108.8</ele>
        <time>2013-09-03T20:09:59.573Z</time>
      </trkpt>
      <trkpt lat="48.88227" lon="2.32083">
        <ele>108.1</ele>
        <time>2013-09-03T20:10:01.597Z</time>
      </trkpt>
      <trkpt lat="48.88227" lon="2.32089">
        <ele>108.4</ele>
        <time>2013-09-03T20:10:02.725Z</time>
      </trkpt>
      <trkpt lat="48.88227" lon="2.32099">
        <ele>106.8</ele>
        <time>2013-09-03T20:10:04.653Z</time>
      </trkpt>
      <trkpt lat="48.88227" lon="2.32104">
        <ele>108.8</ele>
        <time>2013-09-03T20:10:05.791Z</time>
      </trkpt>
      <trkpt lat="48.88229" lon="2.32115">
        <ele>110.2</ele>
        <time>2013-09-03T20:10:08.573Z</time>
      </trkpt>
      <trkpt lat="48.88231" lon="2.3212">
        <ele>110.5</ele>
        <time>2013-09-03T20:10:09.753Z</time>
      </trkpt>
      <trkpt lat="48.88234" lon="2.3213">
        <ele>112.8</ele>
        <time>2013-09-03T20:10:11.682Z</time>
      </trkpt>
      <trkpt lat="48.88236" lon="2.32135">
        <ele>112.7</ele>
        <time>2013-09-03T20:10:12.745Z</time>
      </trkpt>
      <trkpt lat="48.88238" lon="2.32145">
        <ele>113.6</ele>
        <time>2013-09-03T20:10:14.770Z</time>
      </trkpt>
      <trkpt lat="48.88239" lon="2.3215">
        <ele>113.7</ele>
        <time>2013-09-03T20:10:15.577Z</time>
      </trkpt>
      <trkpt lat="48.88242" lon="2.3216">
        <ele>114.9</ele>
        <time>2013-09-03T20:10:17.576Z</time>
      </trkpt>
      <trkpt lat="48.88243" lon="2.32165">
        <ele>114.1</ele>
        <time>2013-09-03T20:10:18.706Z</time>
      </trkpt>
      <trkpt lat="48.88245" lon="2.32175">
        <ele>114.2</ele>
        <time>2013-09-03T20:10:20.658Z</time>
      </trkpt>
      <trkpt lat="48.88246" lon="2.3218">
        <ele>114.5</ele>
        <time>2013-09-03T20:10:21.839Z</time>
      </trkpt>
      <trkpt lat="48.88248" lon="2.3219">
        <ele>115.9</ele>
        <time>2013-09-03T20:10:23.823Z</time>
      </trkpt>
      <trkpt lat="48.88249" lon="2.32194">
        <ele>115</ele>
        <time>2013-09-03T20:10:24.572Z</time>
      </trkpt>
      <trkpt lat="48.8825" lon="2.32205">
        <ele>113.9</ele>
        <time>2013-09-03T20:10:26.699Z</time>
      </trkpt>
      <trkpt lat="48.88252" lon="2.3221">
        <ele>114.2</ele>
        <time>2013-09-03T20:10:27.625Z</time>
      </trkpt>
      <trkpt lat="48.88255" lon="2.3222">
        <ele>114.5</ele>
        <time>2013-09-03T20:10:29.577Z</time>
      </trkpt>
      <trkpt lat="48.88257" lon="2.32225">
        <ele>115.4</ele>
        <time>2013-09-03T20:10:30.651Z</time>
      </trkpt>
      <trkpt lat="48.8826" lon="2.32236">
        <ele>114.8</ele>
        <time>2013-09-03T20:10:32.584Z</time>
      </trkpt>
      <trkpt lat="48.88261" lon="2.32241">
        <ele>115.5</ele>
        <time>2013-09-03T20:10:33.601Z</time>
      </trkpt>
      <trkpt lat="48.88264" lon="2.32252">
        <ele>116.2</ele>
        <time>2013-09-03T20:10:35.603Z</time>
      </trkpt>
      <trkpt lat="48.88265" lon="2.32258">
        <ele>117.3</ele>
        <time>2013-09-03T20:10:36.577Z</time>
      </trkpt>
      <trkpt lat="48.88268" lon="2.32267">
        <ele>117.4</ele>
        <time>2013-09-03T20:10:38.612Z</time>
      </trkpt>
      <trkpt lat="48.88269" lon="2.32271">
        <ele>117.3</ele>
        <time>2013-09-03T20:10:39.580Z</time>
      </trkpt>
      <trkpt lat="48.88273" lon="2.32279">
        <ele>116.5</ele>
        <time>2013-09-03T20:10:41.648Z</time>
      </trkpt>
      <trkpt lat="48.88275" lon="2.32283">
        <ele>114.7</ele>
        <time>2013-09-03T20:10:42.563Z</time>
      </trkpt>
      <trkpt lat="48.88278" lon="2.32294">
        <ele>114.5</ele>
        <time>2013-09-03T20:10:44.572Z</time>
      </trkpt>
      <trkpt lat="48.8828" lon="2.32299">
        <ele>115.6</ele>
        <time>2013-09-03T20:10:45.572Z</time>
      </trkpt>
      <trkpt lat="48.88283" lon="2.3231">
        <ele>116.2</ele>
        <time>2013-09-03T20:10:47.606Z</time>
      </trkpt>
      <trkpt lat="48.88284" lon="2.32315">
        <ele>115.3</ele>
        <time>2013-09-03T20:10:48.595Z</time>
      </trkpt>
      <trkpt lat="48.88286" lon="2.32324">
        <ele>115</ele>
        <time>2013-09-03T20:10:50.565Z</time>
      </trkpt>
      <trkpt lat="48.88287" lon="2.32329">
        <ele>115.4</ele>
        <time>2013-09-03T20:10:51.573Z</time>
      </trkpt>
      <trkpt lat="48.88288" lon="2.32341">
        <ele>118.7</ele>
        <time>2013-09-03T20:10:54.573Z</time>
      </trkpt>
      <trkpt lat="48.88288" lon="2.32345">
        <ele>120.2</ele>
        <time>2013-09-03T20:10:55.573Z</time>
      </trkpt>
      <trkpt lat="48.8829" lon="2.32356">
        <ele>120.5</ele>
        <time>2013-09-03T20:10:58.573Z</time>
      </trkpt>
      <trkpt lat="48.8829" lon="2.3236">
        <ele>121.1</ele>
        <time>2013-09-03T20:10:59.573Z</time>
      </trkpt>
      <trkpt lat="48.88293" lon="2.32372">
        <ele>121.5</ele>
        <time>2013-09-03T20:11:02.581Z</time>
      </trkpt>
      <trkpt lat="48.88294" lon="2.32377">
        <ele>121.3</ele>
        <time>2013-09-03T20:11:03.573Z</time>
      </trkpt>
      <trkpt lat="48.88297" lon="2.32389">
        <ele>123.2</ele>
        <time>2013-09-03T20:11:06.565Z</time>
      </trkpt>
      <trkpt lat="48.88299" lon="2.32393">
        <ele>122.7</ele>
        <time>2013-09-03T20:11:07.573Z</time>
      </trkpt>
      <trkpt lat="48.88303" lon="2.32405">
        <ele>119.4</ele>
        <time>2013-09-03T20:11:10.572Z</time>
      </trkpt>
      <trkpt lat="48.88304" lon="2.32408">
        <ele>120.5</ele>
        <time>2013-09-03T20:11:11.582Z</time>
      </trkpt>
      <trkpt lat="48.88312" lon="2.32409">
        <ele>116</ele>
        <time>2013-09-03T20:11:16.751Z</time>
      </trkpt>
      <trkpt lat="48.88313" lon="2.32407">
        <ele>114.8</ele>
        <time>2013-09-03T20:11:17.583Z</time>
      </trkpt>
      <trkpt lat="48.88317" lon="2.32396">
        <ele>113.2</ele>
        <time>2013-09-03T20:11:20.664Z</time>
      </trkpt>
      <trkpt lat="48.88318" lon="2.32392">
        <ele>111.6</ele>
        <time>2013-09-03T20:11:21.735Z</time>
      </trkpt>
      <trkpt lat="48.88321" lon="2.3238">
        <ele>110</ele>
        <time>2013-09-03T20:11:24.592Z</time>
      </trkpt>
      <trkpt lat="48.88323" lon="2.32376">
        <ele>110.2</ele>
        <time>2013-09-03T20:11:25.768Z</time>
      </trkpt>
      <trkpt lat="48.88327" lon="2.32369">
        <ele>111.2</ele>
        <time>2013-09-03T20:11:27.694Z</time>
      </trkpt>
      <trkpt lat="48.88329" lon="2.32365">
        <ele>111.1</ele>
        <time>2013-09-03T20:11:28.719Z</time>
      </trkpt>
      <trkpt lat="48.88334" lon="2.32356">
        <ele>111.6</ele>
        <time>2013-09-03T20:11:30.775Z</time>
      </trkpt>
      <trkpt lat="48.88336" lon="2.32352">
        <ele>113.3</ele>
        <time>2013-09-03T20:11:31.583Z</time>
      </trkpt>
      <trkpt lat="48.88341" lon="2.32344">
        <ele>112.8</ele>
        <time>2013-09-03T20:11:33.591Z</time>
      </trkpt>
      <trkpt lat="48.88343" lon="2.32339">
        <ele>112.5</ele>
        <time>2013-09-03T20:11:34.711Z</time>
      </trkpt>
      <trkpt lat="48.88348" lon="2.3233">
        <ele>112.7</ele>
        <time>2013-09-03T20:11:36.648Z</time>
      </trkpt>
      <trkpt lat="48.88351" lon="2.32326">
        <ele>113.3</ele>
        <time>2013-09-03T20:11:37.566Z</time>
      </trkpt>
      <trkpt lat="48.88356" lon="2.32316">
        <ele>113.8</ele>
        <time>2013-09-03T20:11:39.564Z</time>
      </trkpt>
      <trkpt lat="48.88358" lon="2.32311">
        <ele>113.4</ele>
        <time>2013-09-03T20:11:40.600Z</time>
      </trkpt>
      <trkpt lat="48.8836" lon="2.32304">
        <ele>113.2</ele>
        <time>2013-09-03T20:11:41.606Z</time>
      </trkpt>
      <trkpt lat="48.88363" lon="2.32297">
        <ele>113.2</ele>
        <time>2013-09-03T20:11:42.594Z</time>
      </trkpt>
      <trkpt lat="48.88366" lon="2.3229">
        <ele>112.8</ele>
        <time>2013-09-03T20:11:43.575Z</time>
      </trkpt>
      <trkpt lat="48.88369" lon="2.32283">
        <ele>112.9</ele>
        <time>2013-09-03T20:11:44.592Z</time>
      </trkpt>
      <trkpt lat="48.88373" lon="2.32279">
        <ele>113.2</ele>
        <time>2013-09-03T20:11:45.571Z</time>
      </trkpt>
      <trkpt lat="48.88377" lon="2.32275">
        <ele>112.8</ele>
        <time>2013-09-03T20:11:46.578Z</time>
      </trkpt>
      <trkpt lat="48.88381" lon="2.32271">
        <ele>112.4</ele>
        <time>2013-09-03T20:11:47.568Z</time>
      </trkpt>
      <trkpt lat="48.88384" lon="2.32267">
        <ele>112.2</ele>
        <time>2013-09-03T20:11:48.568Z</time>
      </trkpt>
      <trkpt lat="48.8839" lon="2.32258">
        <ele>112.4</ele>
        <time>2013-09-03T20:11:50.601Z</time>
      </trkpt>
      <trkpt lat="48.88393" lon="2.32253">
        <ele>111.9</ele>
        <time>2013-09-03T20:11:51.593Z</time>
      </trkpt>
      <trkpt lat="48.88396" lon="2.32245">
        <ele>109.9</ele>
        <time>2013-09-03T20:11:52.616Z</time>
      </trkpt>
      <trkpt lat="48.88399" lon="2.32238">
        <ele>111</ele>
        <time>2013-09-03T20:11:53.578Z</time>
      </trkpt>
      <trkpt lat="48.88402" lon="2.32231">
        <ele>110.7</ele>
        <time>2013-09-03T20:11:54.578Z</time>
      </trkpt>
      <trkpt lat="48.88406" lon="2.32224">
        <ele>110.2</ele>
        <time>2013-09-03T20:11:55.769Z</time>
      </trkpt>
      <trkpt lat="48.88411" lon="2.32213">
        <ele>112.3</ele>
        <time>2013-09-03T20:11:57.729Z</time>
      </trkpt>
      <trkpt lat="48.88414" lon="2.32208">
        <ele>111.6</ele>
        <time>2013-09-03T20:11:58.673Z</time>
      </trkpt>
      <trkpt lat="48.88418" lon="2.32203">
        <ele>111.2</ele>
        <time>2013-09-03T20:11:59.695Z</time>
      </trkpt>
      <trkpt lat="48.88422" lon="2.32198">
        <ele>111</ele>
        <time>2013-09-03T20:12:00.693Z</time>
      </trkpt>
      <trkpt lat="48.88425" lon="2.32194">
        <ele>110.5</ele>
        <time>2013-09-03T20:12:01.586Z</time>
      </trkpt>
      <trkpt lat="48.8843" lon="2.32188">
        <ele>110.1</ele>
        <time>2013-09-03T20:12:02.731Z</time>
      </trkpt>
      <trkpt lat="48.88433" lon="2.32183">
        <ele>110.3</ele>
        <time>2013-09-03T20:12:03.585Z</time>
      </trkpt>
      <trkpt lat="48.88437" lon="2.32177">
        <ele>109.8</ele>
        <time>2013-09-03T20:12:04.763Z</time>
      </trkpt>
      <trkpt lat="48.88441" lon="2.32173">
        <ele>109.3</ele>
        <time>2013-09-03T20:12:05.602Z</time>
      </trkpt>
      <trkpt lat="48.88445" lon="2.32168">
        <ele>109</ele>
        <time>2013-09-03T20:12:06.753Z</time>
      </trkpt>
      <trkpt lat="48.88448" lon="2.32163">
        <ele>109.3</ele>
        <time>2013-09-03T20:12:07.707Z</time>
      </trkpt>
      <trkpt lat="48.88451" lon="2.32158">
        <ele>109.2</ele>
        <time>2013-09-03T20:12:08.675Z</time>
      </trkpt>
      <trkpt lat="48.88458" lon="2.32149">
        <ele>108.9</ele>
        <time>2013-09-03T20:12:10.643Z</time>
      </trkpt>
      <trkpt lat="48.8846" lon="2.32143">
        <ele>110</ele>
        <time>2013-09-03T20:12:11.593Z</time>
      </trkpt>
      <trkpt lat="48.88462" lon="2.32137">
        <ele>109.7</ele>
        <time>2013-09-03T20:12:12.584Z</time>
      </trkpt>
      <trkpt lat="48.88465" lon="2.32131">
        <ele>110.1</ele>
        <time>2013-09-03T20:12:13.585Z</time>
      </trkpt>
      <trkpt lat="48.88467" lon="2.32125">
        <ele>110.6</ele>
        <time>2013-09-03T20:12:14.704Z</time>
      </trkpt>
      <trkpt lat="48.88469" lon="2.32119">
        <ele>110.3</ele>
        <time>2013-09-03T20:12:15.691Z</time>
      </trkpt>
      <trkpt lat="48.88472" lon="2.32112">
        <ele>109.7</ele>
        <time>2013-09-03T20:12:16.771Z</time>
      </trkpt>
      <trkpt lat="48.88474" lon="2.32106">
        <ele>109.9</ele>
        <time>2013-09-03T20:12:17.748Z</time>
      </trkpt>
      <trkpt lat="48.88476" lon="2.321">
        <ele>109.4</ele>
        <time>2013-09-03T20:12:18.723Z</time>
      </trkpt>
      <trkpt lat="48.88478" lon="2.32094">
        <ele>108.8</ele>
        <time>2013-09-03T20:12:19.588Z</time>
      </trkpt>
      <trkpt lat="48.88481" lon="2.32088">
        <ele>108.1</ele>
        <time>2013-09-03T20:12:20.594Z</time>
      </trkpt>
      <trkpt lat="48.88485" lon="2.32084">
        <ele>108.5</ele>
        <time>2013-09-03T20:12:21.617Z</time>
      </trkpt>
      <trkpt lat="48.88491" lon="2.32078">
        <ele>107.3</ele>
        <time>2013-09-03T20:12:23.593Z</time>
      </trkpt>
      <trkpt lat="48.88495" lon="2.32076">
        <ele>106.5</ele>
        <time>2013-09-03T20:12:24.596Z</time>
      </trkpt>
      <trkpt lat="48.88501" lon="2.32074">
        <ele>105.1</ele>
        <time>2013-09-03T20:12:26.587Z</time>
      </trkpt>
      <trkpt lat="48.88504" lon="2.32075">
        <ele>105</ele>
        <time>2013-09-03T20:12:27.585Z</time>
      </trkpt>
      <trkpt lat="48.8851" lon="2.3208">
        <ele>107.8</ele>
        <time>2013-09-03T20:12:29.572Z</time>
      </trkpt>
      <trkpt lat="48.88514" lon="2.32085">
        <ele>108.1</ele>
        <time>2013-09-03T20:12:30.581Z</time>
      </trkpt>
      <trkpt lat="48.88518" lon="2.3209">
        <ele>109</ele>
        <time>2013-09-03T20:12:31.587Z</time>
      </trkpt>
      <trkpt lat="48.88522" lon="2.32095">
        <ele>109</ele>
        <time>2013-09-03T20:12:32.612Z</time>
      </trkpt>
      <trkpt lat="48.88526" lon="2.321">
        <ele>108.1</ele>
        <time>2013-09-03T20:12:33.598Z</time>
      </trkpt>
      <trkpt lat="48.8853" lon="2.32105">
        <ele>107.7</ele>
        <time>2013-09-03T20:12:34.598Z</time>
      </trkpt>
      <trkpt lat="48.88534" lon="2.3211">
        <ele>107.8</ele>
        <time>2013-09-03T20:12:35.573Z</time>
      </trkpt>
      <trkpt lat="48.88538" lon="2.32115">
        <ele>108.4</ele>
        <time>2013-09-03T20:12:36.588Z</time>
      </trkpt>
      <trkpt lat="48.88542" lon="2.3212">
        <ele>108.3</ele>
        <time>2013-09-03T20:12:37.573Z</time>
      </trkpt>
      <trkpt lat="48.88546" lon="2.32124">
        <ele>109.2</ele>
        <time>2013-09-03T20:12:38.581Z</time>
      </trkpt>
      <trkpt lat="48.88553" lon="2.32131">
        <ele>109.5</ele>
        <time>2013-09-03T20:12:40.583Z</time>
      </trkpt>
      <trkpt lat="48.88557" lon="2.32134">
        <ele>110</ele>
        <time>2013-09-03T20:12:41.598Z</time>
      </trkpt>
      <trkpt lat="48.88563" lon="2.3214">
        <ele>109.9</ele>
        <time>2013-09-03T20:12:43.583Z</time>
      </trkpt>
      <trkpt lat="48.88567" lon="2.32143">
        <ele>108.1</ele>
        <time>2013-09-03T20:12:44.604Z</time>
      </trkpt>
      <trkpt lat="48.88574" lon="2.32149">
        <ele>104.9</ele>
        <time>2013-09-03T20:12:46.582Z</time>
      </trkpt>
      <trkpt lat="48.88576" lon="2.32152">
        <ele>105.5</ele>
        <time>2013-09-03T20:12:47.595Z</time>
      </trkpt>
      <trkpt lat="48.88581" lon="2.32162">
        <ele>105.9</ele>
        <time>2013-09-03T20:12:50.581Z</time>
      </trkpt>
      <trkpt lat="48.88584" lon="2.32165">
        <ele>104.6</ele>
        <time>2013-09-03T20:12:51.598Z</time>
      </trkpt>
      <trkpt lat="48.88591" lon="2.32172">
        <ele>104.1</ele>
        <time>2013-09-03T20:12:53.572Z</time>
      </trkpt>
      <trkpt lat="48.88595" lon="2.32175">
        <ele>104.4</ele>
        <time>2013-09-03T20:12:54.582Z</time>
      </trkpt>
      <trkpt lat="48.88599" lon="2.32179">
        <ele>104.3</ele>
        <time>2013-09-03T20:12:55.582Z</time>
      </trkpt>
      <trkpt lat="48.88603" lon="2.32183">
        <ele>104.1</ele>
        <time>2013-09-03T20:12:56.590Z</time>
      </trkpt>
      <trkpt lat="48.88607" lon="2.32187">
        <ele>103.5</ele>
        <time>2013-09-03T20:12:57.595Z</time>
      </trkpt>
      <trkpt lat="48.88611" lon="2.32192">
        <ele>103.9</ele>
        <time>2013-09-03T20:12:58.605Z</time>
      </trkpt>
      <trkpt lat="48.88615" lon="2.32197">
        <ele>105</ele>
        <time>2013-09-03T20:12:59.695Z</time>
      </trkpt>
      <trkpt lat="48.88618" lon="2.32202">
        <ele>105</ele>
        <time>2013-09-03T20:13:00.645Z</time>
      </trkpt>
      <trkpt lat="48.88622" lon="2.32206">
        <ele>104.6</ele>
        <time>2013-09-03T20:13:01.655Z</time>
      </trkpt>
      <trkpt lat="48.88626" lon="2.32209">
        <ele>104.5</ele>
        <time>2013-09-03T20:13:02.591Z</time>
      </trkpt>
      <trkpt lat="48.88633" lon="2.32214">
        <ele>105</ele>
        <time>2013-09-03T20:13:04.591Z</time>
      </trkpt>
      <trkpt lat="48.88635" lon="2.32216">
        <ele>105.1</ele>
        <time>2013-09-03T20:13:05.685Z</time>
      </trkpt>
      <trkpt lat="48.88638" lon="2.32228">
        <ele>105.4</ele>
        <time>2013-09-03T20:13:10.728Z</time>
      </trkpt>
      <trkpt lat="48.88638" lon="2.3223">
        <ele>106</ele>
        <time>2013-09-03T20:13:11.592Z</time>
      </trkpt>
      <trkpt lat="48.88643" lon="2.32237">
        <ele>106.1</ele>
        <time>2013-09-03T20:13:19.766Z</time>
      </trkpt>
      <trkpt lat="48.88645" lon="2.32238">
        <ele>106.4</ele>
        <time>2013-09-03T20:13:20.592Z</time>
      </trkpt>
      <trkpt lat="48.88651" lon="2.32245">
        <ele>106.5</ele>
        <time>2013-09-03T20:13:23.697Z</time>
      </trkpt>
      <trkpt lat="48.88653" lon="2.32248">
        <ele>106.1</ele>
        <time>2013-09-03T20:13:24.705Z</time>
      </trkpt>
      <trkpt lat="48.88658" lon="2.32254">
        <ele>105.2</ele>
        <time>2013-09-03T20:13:26.688Z</time>
      </trkpt>
      <trkpt lat="48.88661" lon="2.32257">
        <ele>104.2</ele>
        <time>2013-09-03T20:13:27.601Z</time>
      </trkpt>
      <trkpt lat="48.88668" lon="2.32263">
        <ele>102.8</ele>
        <time>2013-09-03T20:13:29.585Z</time>
      </trkpt>
      <trkpt lat="48.88672" lon="2.32266">
        <ele>102.4</ele>
        <time>2013-09-03T20:13:30.576Z</time>
      </trkpt>
      <trkpt lat="48.88678" lon="2.32274">
        <ele>101.8</ele>
        <time>2013-09-03T20:13:32.576Z</time>
      </trkpt>
      <trkpt lat="48.88681" lon="2.32278">
        <ele>101.5</ele>
        <time>2013-09-03T20:13:33.585Z</time>
      </trkpt>
      <trkpt lat="48.88687" lon="2.32287">
        <ele>101.3</ele>
        <time>2013-09-03T20:13:35.585Z</time>
      </trkpt>
      <trkpt lat="48.8869" lon="2.3229">
        <ele>101.3</ele>
        <time>2013-09-03T20:13:36.578Z</time>
      </trkpt>
      <trkpt lat="48.88696" lon="2.32294">
        <ele>100.2</ele>
        <time>2013-09-03T20:13:38.578Z</time>
      </trkpt>
      <trkpt lat="48.88699" lon="2.32296">
        <ele>101.8</ele>
        <time>2013-09-03T20:13:39.593Z</time>
      </trkpt>
      <trkpt lat="48.88704" lon="2.323">
        <ele>103.3</ele>
        <time>2013-09-03T20:13:41.585Z</time>
      </trkpt>
      <trkpt lat="48.88707" lon="2.32304">
        <ele>104.4</ele>
        <time>2013-09-03T20:13:42.594Z</time>
      </trkpt>
      <trkpt lat="48.88712" lon="2.32312">
        <ele>102.1</ele>
        <time>2013-09-03T20:13:44.585Z</time>
      </trkpt>
      <trkpt lat="48.88715" lon="2.32316">
        <ele>101.6</ele>
        <time>2013-09-03T20:13:45.602Z</time>
      </trkpt>
      <trkpt lat="48.88721" lon="2.32322">
        <ele>102.5</ele>
        <time>2013-09-03T20:13:47.587Z</time>
      </trkpt>
      <trkpt lat="48.88724" lon="2.32326">
        <ele>102.5</ele>
        <time>2013-09-03T20:13:48.592Z</time>
      </trkpt>
      <trkpt lat="48.8873" lon="2.32334">
        <ele>101.9</ele>
        <time>2013-09-03T20:13:50.603Z</time>
      </trkpt>
      <trkpt lat="48.88733" lon="2.32337">
        <ele>102.3</ele>
        <time>2013-09-03T20:13:51.585Z</time>
      </trkpt>
      <trkpt lat="48.88739" lon="2.32343">
        <ele>101.1</ele>
        <time>2013-09-03T20:13:53.579Z</time>
      </trkpt>
      <trkpt lat="48.88743" lon="2.32346">
        <ele>101.1</ele>
        <time>2013-09-03T20:13:54.585Z</time>
      </trkpt>
      <trkpt lat="48.88748" lon="2.32352">
        <ele>102.5</ele>
        <time>2013-09-03T20:13:56.585Z</time>
      </trkpt>
      <trkpt lat="48.88751" lon="2.32356">
        <ele>102.8</ele>
        <time>2013-09-03T20:13:57.588Z</time>
      </trkpt>
      <trkpt lat="48.88754" lon="2.32364">
        <ele>102.4</ele>
        <time>2013-09-03T20:13:59.580Z</time>
      </trkpt>
      <trkpt lat="48.88756" lon="2.32368">
        <ele>102.4</ele>
        <time>2013-09-03T20:14:00.588Z</time>
      </trkpt>
      <trkpt lat="48.8876" lon="2.32377">
        <ele>103.4</ele>
        <time>2013-09-03T20:14:02.601Z</time>
      </trkpt>
      <trkpt lat="48.88762" lon="2.3238">
        <ele>104.2</ele>
        <time>2013-09-03T20:14:03.593Z</time>
      </trkpt>
      <trkpt lat="48.88768" lon="2.32387">
        <ele>103.9</ele>
        <time>2013-09-03T20:14:05.588Z</time>
      </trkpt>
      <trkpt lat="48.88771" lon="2.3239">
        <ele>104.5</ele>
        <time>2013-09-03T20:14:06.588Z</time>
      </trkpt>
      <trkpt lat="48.88776" lon="2.32397">
        <ele>104.2</ele>
        <time>2013-09-03T20:14:08.620Z</time>
      </trkpt>
      <trkpt lat="48.88779" lon="2.32401">
        <ele>104.3</ele>
        <time>2013-09-03T20:14:09.586Z</time>
      </trkpt>
      <trkpt lat="48.88784" lon="2.32408">
        <ele>104.7</ele>
        <time>2013-09-03T20:14:12.667Z</time>
      </trkpt>
      <trkpt lat="48.88786" lon="2.3241">
        <ele>104.9</ele>
        <time>2013-09-03T20:14:13.595Z</time>
      </trkpt>
      <trkpt lat="48.88792" lon="2.32419">
        <ele>105.1</ele>
        <time>2013-09-03T20:14:18.588Z</time>
      </trkpt>
      <trkpt lat="48.88793" lon="2.32421">
        <ele>104.5</ele>
        <time>2013-09-03T20:14:19.598Z</time>
      </trkpt>
      <trkpt lat="48.88797" lon="2.32432">
        <ele>104.6</ele>
        <time>2013-09-03T20:14:26.581Z</time>
      </trkpt>
      <trkpt lat="48.88798" lon="2.32433">
        <ele>105</ele>
        <time>2013-09-03T20:14:27.613Z</time>
      </trkpt>
      <trkpt lat="48.88805" lon="2.3244">
        <ele>106.3</ele>
        <time>2013-09-03T20:14:36.594Z</time>
      </trkpt>
      <trkpt lat="48.88808" lon="2.32436">
        <ele>103.3</ele>
        <time>2013-09-03T20:14:37.596Z</time>
      </trkpt>
      <trkpt lat="48.88814" lon="2.32427">
        <ele>103.6</ele>
        <time>2013-09-03T20:14:39.670Z</time>
      </trkpt>
      <trkpt lat="48.88817" lon="2.32422">
        <ele>103.7</ele>
        <time>2013-09-03T20:14:40.683Z</time>
      </trkpt>
      <trkpt lat="48.88823" lon="2.32412">
        <ele>101.4</ele>
        <time>2013-09-03T20:14:42.623Z</time>
      </trkpt>
      <trkpt lat="48.88825" lon="2.32408">
        <ele>101.9</ele>
        <time>2013-09-03T20:14:43.605Z</time>
      </trkpt>
      <trkpt lat="48.88832" lon="2.32407">
        <ele>107.2</ele>
        <time>2013-09-03T20:14:47.670Z</time>
      </trkpt>
      <trkpt lat="48.88834" lon="2.3241">
        <ele>107.4</ele>
        <time>2013-09-03T20:14:48.637Z</time>
      </trkpt>
      <trkpt lat="48.88839" lon="2.32418">
        <ele>108.3</ele>
        <time>2013-09-03T20:14:50.605Z</time>
      </trkpt>
      <trkpt lat="48.88841" lon="2.32422">
        <ele>108.8</ele>
        <time>2013-09-03T20:14:51.591Z</time>
      </trkpt>
      <trkpt lat="48.88846" lon="2.32431">
        <ele>110.6</ele>
        <time>2013-09-03T20:14:53.621Z</time>
      </trkpt>
      <trkpt lat="48.88848" lon="2.32435">
        <ele>111</ele>
        <time>2013-09-03T20:14:54.687Z</time>
      </trkpt>
      <trkpt lat="48.88853" lon="2.32443">
        <ele>110.5</ele>
        <time>2013-09-03T20:14:56.646Z</time>
      </trkpt>
      <trkpt lat="48.88855" lon="2.32447">
        <ele>111</ele>
        <time>2013-09-03T20:14:57.607Z</time>
      </trkpt>
      <trkpt lat="48.8886" lon="2.32454">
        <ele>110.8</ele>
        <time>2013-09-03T20:14:59.608Z</time>
      </trkpt>
      <trkpt lat="48.88863" lon="2.32456">
        <ele>111.7</ele>
        <time>2013-09-03T20:15:00.601Z</time>
      </trkpt>
      <trkpt lat="48.8887" lon="2.32456">
        <ele>109.8</ele>
        <time>2013-09-03T20:15:02.662Z</time>
      </trkpt>
      <trkpt lat="48.88873" lon="2.32453">
        <ele>109.2</ele>
        <time>2013-09-03T20:15:03.671Z</time>
      </trkpt>
      <trkpt lat="48.88876" lon="2.32443">
        <ele>110.8</ele>
        <time>2013-09-03T20:15:05.622Z</time>
      </trkpt>
      <trkpt lat="48.88878" lon="2.32436">
        <ele>110.9</ele>
        <time>2013-09-03T20:15:06.601Z</time>
      </trkpt>
      <trkpt lat="48.88878" lon="2.32423">
        <ele>111.1</ele>
        <time>2013-09-03T20:15:08.609Z</time>
      </trkpt>
      <trkpt lat="48.88879" lon="2.32416">
        <ele>112.3</ele>
        <time>2013-09-03T20:15:09.593Z</time>
      </trkpt>
      <trkpt lat="48.88879" lon="2.32408">
        <ele>111.3</ele>
        <time>2013-09-03T20:15:10.724Z</time>
      </trkpt>
      <trkpt lat="48.88879" lon="2.32402">
        <ele>112.2</ele>
        <time>2013-09-03T20:15:11.673Z</time>
      </trkpt>
      <trkpt lat="48.8888" lon="2.3239">
        <ele>114.2</ele>
        <time>2013-09-03T20:15:13.625Z</time>
      </trkpt>
      <trkpt lat="48.88881" lon="2.32386">
        <ele>115.7</ele>
        <time>2013-09-03T20:15:14.584Z</time>
      </trkpt>
      <trkpt lat="48.88886" lon="2.32375">
        <ele>113.9</ele>
        <time>2013-09-03T20:15:17.711Z</time>
      </trkpt>
      <trkpt lat="48.88887" lon="2.32372">
        <ele>113.7</ele>
        <time>2013-09-03T20:15:18.697Z</time>
      </trkpt>
      <trkpt lat="48.88896" lon="2.32368">
        <ele>114.9</ele>
        <time>2013-09-03T20:15:22.585Z</time>
      </trkpt>
      <trkpt lat="48.88899" lon="2.32371">
        <ele>114.4</ele>
        <time>2013-09-03T20:15:23.602Z</time>
      </trkpt>
      <trkpt lat="48.88905" lon="2.32378">
        <ele>113.4</ele>
        <time>2013-09-03T20:15:25.642Z</time>
      </trkpt>
      <trkpt lat="48.88908" lon="2.32383">
        <ele>113.6</ele>
        <time>2013-09-03T20:15:26.692Z</time>
      </trkpt>
      <trkpt lat="48.88914" lon="2.32391">
        <ele>113.1</ele>
        <time>2013-09-03T20:15:28.641Z</time>
      </trkpt>
      <trkpt lat="48.88917" lon="2.32396">
        <ele>113</ele>
        <time>2013-09-03T20:15:29.625Z</time>
      </trkpt>
      <trkpt lat="48.88921" lon="2.324">
        <ele>112.5</ele>
        <time>2013-09-03T20:15:30.585Z</time>
      </trkpt>
      <trkpt lat="48.88924" lon="2.32404">
        <ele>111.8</ele>
        <time>2013-09-03T20:15:31.592Z</time>
      </trkpt>
      <trkpt lat="48.88932" lon="2.32411">
        <ele>110.4</ele>
        <time>2013-09-03T20:15:33.594Z</time>
      </trkpt>
      <trkpt lat="48.88936" lon="2.32414">
        <ele>108.2</ele>
        <time>2013-09-03T20:15:34.665Z</time>
      </trkpt>
      <trkpt lat="48.88943" lon="2.32421">
        <ele>106</ele>
        <time>2013-09-03T20:15:36.639Z</time>
      </trkpt>
      <trkpt lat="48.88946" lon="2.32425">
        <ele>105.6</ele>
        <time>2013-09-03T20:15:37.621Z</time>
      </trkpt>
      <trkpt lat="48.8895" lon="2.3243">
        <ele>105.2</ele>
        <time>2013-09-03T20:15:38.641Z</time>
      </trkpt>
      <trkpt lat="48.88954" lon="2.32434">
        <ele>103</ele>
        <time>2013-09-03T20:15:39.617Z</time>
      </trkpt>
      <trkpt lat="48.8896" lon="2.32441">
        <ele>101.4</ele>
        <time>2013-09-03T20:15:41.608Z</time>
      </trkpt>
      <trkpt lat="48.88964" lon="2.32445">
        <ele>101.8</ele>
        <time>2013-09-03T20:15:42.700Z</time>
      </trkpt>
      <trkpt lat="48.88969" lon="2.32451">
        <ele>101.2</ele>
        <time>2013-09-03T20:15:44.673Z</time>
      </trkpt>
      <trkpt lat="48.88972" lon="2.32454">
        <ele>100.5</ele>
        <time>2013-09-03T20:15:45.637Z</time>
      </trkpt>
      <trkpt lat="48.88977" lon="2.32459">
        <ele>98.9</ele>
        <time>2013-09-03T20:15:47.612Z</time>
      </trkpt>
      <trkpt lat="48.88979" lon="2.32463">
        <ele>98</ele>
        <time>2013-09-03T20:15:48.636Z</time>
      </trkpt>
      <trkpt lat="48.88986" lon="2.32471">
        <ele>96.1</ele>
        <time>2013-09-03T20:15:51.756Z</time>
      </trkpt>
      <trkpt lat="48.88988" lon="2.32474">
        <ele>95.2</ele>
        <time>2013-09-03T20:15:52.651Z</time>
      </trkpt>
      <trkpt lat="48.88993" lon="2.3248">
        <ele>94.4</ele>
        <time>2013-09-03T20:15:54.586Z</time>
      </trkpt>
      <trkpt lat="48.88996" lon="2.32482">
        <ele>94.3</ele>
        <time>2013-09-03T20:15:55.613Z</time>
      </trkpt>
      <trkpt lat="48.89003" lon="2.32489">
        <ele>97.9</ele>
        <time>2013-09-03T20:15:58.634Z</time>
      </trkpt>
      <trkpt lat="48.89005" lon="2.32491">
        <ele>99.3</ele>
        <time>2013-09-03T20:15:59.604Z</time>
      </trkpt>
      <trkpt lat="48.89011" lon="2.32501">
        <ele>101.1</ele>
        <time>2013-09-03T20:16:02.595Z</time>
      </trkpt>
      <trkpt lat="48.89012" lon="2.32504">
        <ele>100.9</ele>
        <time>2013-09-03T20:16:03.605Z</time>
      </trkpt>
      <trkpt lat="48.89011" lon="2.32517">
        <ele>102.7</ele>
        <time>2013-09-03T20:16:07.597Z</time>
      </trkpt>
      <trkpt lat="48.89011" lon="2.3252">
        <ele>103.4</ele>
        <time>2013-09-03T20:16:08.596Z</time>
      </trkpt>
      <trkpt lat="48.89014" lon="2.32532">
        <ele>104.8</ele>
        <time>2013-09-03T20:16:11.739Z</time>
      </trkpt>
      <trkpt lat="48.89013" lon="2.32536">
        <ele>105.7</ele>
        <time>2013-09-03T20:16:12.711Z</time>
      </trkpt>
      <trkpt lat="48.8901" lon="2.32544">
        <ele>105.7</ele>
        <time>2013-09-03T20:16:14.598Z</time>
      </trkpt>
      <trkpt lat="48.89008" lon="2.32548">
        <ele>105.8</ele>
        <time>2013-09-03T20:16:15.742Z</time>
      </trkpt>
      <trkpt lat="48.89004" lon="2.32557">
        <ele>105.5</ele>
        <time>2013-09-03T20:16:17.820Z</time>
      </trkpt>
      <trkpt lat="48.89002" lon="2.32561">
        <ele>106.1</ele>
        <time>2013-09-03T20:16:18.678Z</time>
      </trkpt>
      <trkpt lat="48.88999" lon="2.32572">
        <ele>105.5</ele>
        <time>2013-09-03T20:16:20.734Z</time>
      </trkpt>
      <trkpt lat="48.88998" lon="2.32576">
        <ele>106.3</ele>
        <time>2013-09-03T20:16:21.637Z</time>
      </trkpt>
      <trkpt lat="48.88995" lon="2.32589">
        <ele>105.5</ele>
        <time>2013-09-03T20:16:24.627Z</time>
      </trkpt>
      <trkpt lat="48.88995" lon="2.32593">
        <ele>105.5</ele>
        <time>2013-09-03T20:16:25.636Z</time>
      </trkpt>
      <trkpt lat="48.88992" lon="2.32604">
        <ele>103.4</ele>
        <time>2013-09-03T20:16:30.598Z</time>
      </trkpt>
      <trkpt lat="48.88991" lon="2.32606">
        <ele>103.2</ele>
        <time>2013-09-03T20:16:31.735Z</time>
      </trkpt>
      <trkpt lat="48.88986" lon="2.32616">
        <ele>100.2</ele>
        <time>2013-09-03T20:16:41.655Z</time>
      </trkpt>
      <trkpt lat="48.88986" lon="2.32617">
        <ele>100.2</ele>
        <time>2013-09-03T20:16:42.735Z</time>
      </trkpt>
      <trkpt lat="48.88986" lon="2.32617">
        <ele>100.3</ele>
        <time>2013-09-03T20:16:44.681Z</time>
      </trkpt>
      <trkpt lat="48.88986" lon="2.32617">
        <ele>100.2</ele>
        <time>2013-09-03T20:16:45.836Z</time>
      </trkpt>
      <trkpt lat="48.88986" lon="2.32617">
        <ele>100.6</ele>
        <time>2013-09-03T20:16:48.607Z</time>
      </trkpt>
      <trkpt lat="48.88987" lon="2.32617">
        <ele>100.7</ele>
        <time>2013-09-03T20:16:49.819Z</time>
      </trkpt>
      <trkpt lat="48.88995" lon="2.32618">
        <ele>103</ele>
        <time>2013-09-03T20:16:53.647Z</time>
      </trkpt>
      <trkpt lat="48.88997" lon="2.32619">
        <ele>102.9</ele>
        <time>2013-09-03T20:16:54.615Z</time>
      </trkpt>
      <trkpt lat="48.89004" lon="2.32623">
        <ele>103.7</ele>
        <time>2013-09-03T20:16:57.601Z</time>
      </trkpt>
      <trkpt lat="48.89005" lon="2.32625">
        <ele>103.9</ele>
        <time>2013-09-03T20:16:58.683Z</time>
      </trkpt>
      <trkpt lat="48.89012" lon="2.32634">
        <ele>105.4</ele>
        <time>2013-09-03T20:17:02.610Z</time>
      </trkpt>
      <trkpt lat="48.89014" lon="2.32635">
        <ele>104.9</ele>
        <time>2013-09-03T20:17:03.636Z</time>
      </trkpt>
      <trkpt lat="48.89023" lon="2.3264">
        <ele>103.7</ele>
        <time>2013-09-03T20:17:07.739Z</time>
      </trkpt>
      <trkpt lat="48.89025" lon="2.32641">
        <ele>104.7</ele>
        <time>2013-09-03T20:17:08.617Z</time>
      </trkpt>
      <trkpt lat="48.89032" lon="2.32646">
        <ele>104.8</ele>
        <time>2013-09-03T20:17:11.697Z</time>
      </trkpt>
      <trkpt lat="48.89035" lon="2.32647">
        <ele>105.8</ele>
        <time>2013-09-03T20:17:12.722Z</time>
      </trkpt>
      <trkpt lat="48.89042" lon="2.3265">
        <ele>106</ele>
        <time>2013-09-03T20:17:15.625Z</time>
      </trkpt>
      <trkpt lat="48.89045" lon="2.32651">
        <ele>106.8</ele>
        <time>2013-09-03T20:17:16.763Z</time>
      </trkpt>
      <trkpt lat="48.89053" lon="2.32654">
        <ele>104.3</ele>
        <time>2013-09-03T20:17:19.778Z</time>
      </trkpt>
      <trkpt lat="48.89055" lon="2.32653">
        <ele>103.2</ele>
        <time>2013-09-03T20:17:20.677Z</time>
      </trkpt>
      <trkpt lat="48.89061" lon="2.32652">
        <ele>102.7</ele>
        <time>2013-09-03T20:17:22.603Z</time>
      </trkpt>
      <trkpt lat="48.89064" lon="2.32652">
        <ele>103.1</ele>
        <time>2013-09-03T20:17:23.706Z</time>
      </trkpt>
      <trkpt lat="48.89072" lon="2.32653">
        <ele>103.8</ele>
        <time>2013-09-03T20:17:26.746Z</time>
      </trkpt>
      <trkpt lat="48.89075" lon="2.32654">
        <ele>105</ele>
        <time>2013-09-03T20:17:27.718Z</time>
      </trkpt>
      <trkpt lat="48.89082" lon="2.32657">
        <ele>104.4</ele>
        <time>2013-09-03T20:17:30.731Z</time>
      </trkpt>
      <trkpt lat="48.89085" lon="2.32658">
        <ele>104</ele>
        <time>2013-09-03T20:17:31.617Z</time>
      </trkpt>
      <trkpt lat="48.89093" lon="2.32661">
        <ele>102.9</ele>
        <time>2013-09-03T20:17:34.725Z</time>
      </trkpt>
      <trkpt lat="48.89096" lon="2.32664">
        <ele>100.3</ele>
        <time>2013-09-03T20:17:35.651Z</time>
      </trkpt>
      <trkpt lat="48.89102" lon="2.32669">
        <ele>98.6</ele>
        <time>2013-09-03T20:17:37.780Z</time>
      </trkpt>
      <trkpt lat="48.89105" lon="2.32671">
        <ele>99.3</ele>
        <time>2013-09-03T20:17:38.611Z</time>
      </trkpt>
      <trkpt lat="48.89112" lon="2.32677">
        <ele>99.3</ele>
        <time>2013-09-03T20:17:40.613Z</time>
      </trkpt>
      <trkpt lat="48.89115" lon="2.32679">
        <ele>98.6</ele>
        <time>2013-09-03T20:17:41.749Z</time>
      </trkpt>
      <trkpt lat="48.89121" lon="2.32682">
        <ele>99</ele>
        <time>2013-09-03T20:17:43.731Z</time>
      </trkpt>
      <trkpt lat="48.89124" lon="2.32682">
        <ele>99.2</ele>
        <time>2013-09-03T20:17:44.771Z</time>
      </trkpt>
      <trkpt lat="48.89133" lon="2.32683">
        <ele>96.1</ele>
        <time>2013-09-03T20:17:47.621Z</time>
      </trkpt>
      <trkpt lat="48.89136" lon="2.32683">
        <ele>95.6</ele>
        <time>2013-09-03T20:17:48.716Z</time>
      </trkpt>
      <trkpt lat="48.89143" lon="2.32684">
        <ele>94.6</ele>
        <time>2013-09-03T20:17:50.727Z</time>
      </trkpt>
      <trkpt lat="48.89145" lon="2.32685">
        <ele>95.9</ele>
        <time>2013-09-03T20:17:51.605Z</time>
      </trkpt>
      <trkpt lat="48.89152" lon="2.32687">
        <ele>95.7</ele>
        <time>2013-09-03T20:17:53.758Z</time>
      </trkpt>
      <trkpt lat="48.89155" lon="2.32688">
        <ele>96</ele>
        <time>2013-09-03T20:17:54.613Z</time>
      </trkpt>
      <trkpt lat="48.89161" lon="2.32689">
        <ele>95.3</ele>
        <time>2013-09-03T20:17:56.613Z</time>
      </trkpt>
      <trkpt lat="48.89164" lon="2.32689">
        <ele>97.2</ele>
        <time>2013-09-03T20:17:57.755Z</time>
      </trkpt>
      <trkpt lat="48.89172" lon="2.32692">
        <ele>99.2</ele>
        <time>2013-09-03T20:18:00.751Z</time>
      </trkpt>
      <trkpt lat="48.89174" lon="2.32693">
        <ele>99.5</ele>
        <time>2013-09-03T20:18:01.632Z</time>
      </trkpt>
      <trkpt lat="48.8918" lon="2.327">
        <ele>98.8</ele>
        <time>2013-09-03T20:18:04.742Z</time>
      </trkpt>
      <trkpt lat="48.89182" lon="2.32702">
        <ele>101</ele>
        <time>2013-09-03T20:18:05.629Z</time>
      </trkpt>
      <trkpt lat="48.89189" lon="2.32706">
        <ele>101.8</ele>
        <time>2013-09-03T20:18:08.687Z</time>
      </trkpt>
      <trkpt lat="48.89191" lon="2.32708">
        <ele>102.2</ele>
        <time>2013-09-03T20:18:09.735Z</time>
      </trkpt>
      <trkpt lat="48.89199" lon="2.32712">
        <ele>103.3</ele>
        <time>2013-09-03T20:18:12.623Z</time>
      </trkpt>
      <trkpt lat="48.89202" lon="2.32713">
        <ele>103.7</ele>
        <time>2013-09-03T20:18:13.783Z</time>
      </trkpt>
      <trkpt lat="48.8921" lon="2.32718">
        <ele>104</ele>
        <time>2013-09-03T20:18:16.727Z</time>
      </trkpt>
      <trkpt lat="48.89212" lon="2.32719">
        <ele>104.2</ele>
        <time>2013-09-03T20:18:17.733Z</time>
      </trkpt>
      <trkpt lat="48.89219" lon="2.32726">
        <ele>106.4</ele>
        <time>2013-09-03T20:18:21.619Z</time>
      </trkpt>
      <trkpt lat="48.89221" lon="2.32727">
        <ele>107.7</ele>
        <time>2013-09-03T20:18:22.691Z</time>
      </trkpt>
      <trkpt lat="48.89229" lon="2.32727">
        <ele>107.4</ele>
        <time>2013-09-03T20:18:27.625Z</time>
      </trkpt>
      <trkpt lat="48.89231" lon="2.32726">
        <ele>107.3</ele>
        <time>2013-09-03T20:18:28.601Z</time>
      </trkpt>
      <trkpt lat="48.89236" lon="2.32722">
        <ele>102.8</ele>
        <time>2013-09-03T20:18:40.596Z</time>
      </trkpt>
      <trkpt lat="48.89236" lon="2.32722">
        <ele>102.5</ele>
        <time>2013-09-03T20:18:41.601Z</time>
      </trkpt>
      <trkpt lat="48.89236" lon="2.32722">
        <ele>102.2</ele>
        <time>2013-09-03T20:18:45.597Z</time>
      </trkpt>
    </trkseg>
  </trk>
</gpx>